<?xml version='1.0' encoding='UTF-8'?><gpx version="1.1" creator="JPX - https://github.com/jenetics/jpx" xmlns="http://www.topografix.com/GPX/1/1"><trk><trkseg><trkpt lat="43.5557733" lon="12.1469561"><ele>313.0</ele><time>2026-03-28T09:17:02.166Z</time></trkpt><trkpt lat="43.5557365" lon="12.1471043"><ele>313.0</ele><time>2026-03-28T09:17:04.176Z</time></trkpt><trkpt lat="43.5557089" lon="12.1471974"><ele>313.0</ele><time>2026-03-28T09:17:05.172Z</time></trkpt><trkpt lat="43.5556781" lon="12.1472974"><ele>313.0</ele><time>2026-03-28T09:17:06.176Z</time></trkpt><trkpt lat="43.5556483" lon="12.147405"><ele>313.0</ele><time>2026-03-28T09:17:07.18Z</time></trkpt><trkpt lat="43.5556157" lon="12.1475156"><ele>313.0</ele><time>2026-03-28T09:17:08.175Z</time></trkpt><trkpt lat="43.5555791" lon="12.1476283"><ele>313.0</ele><time>2026-03-28T09:17:09.171Z</time></trkpt><trkpt lat="43.5555425" lon="12.147743"><ele>313.0</ele><time>2026-03-28T09:17:10.168Z</time></trkpt><trkpt lat="43.5555052" lon="12.1478608"><ele>313.0</ele><time>2026-03-28T09:17:11.174Z</time></trkpt><trkpt lat="43.5554641" lon="12.147984"><ele>313.0</ele><time>2026-03-28T09:17:12.173Z</time></trkpt><trkpt lat="43.555419" lon="12.1481115"><ele>313.0</ele><time>2026-03-28T09:17:13.172Z</time></trkpt><trkpt lat="43.5553724" lon="12.148247"><ele>312.75</ele><time>2026-03-28T09:17:14.177Z</time></trkpt><trkpt lat="43.555327" lon="12.148394"><ele>312.5</ele><time>2026-03-28T09:17:15.17Z</time></trkpt><trkpt lat="43.5552835" lon="12.1485485"><ele>312.25</ele><time>2026-03-28T09:17:16.171Z</time></trkpt><trkpt lat="43.5552426" lon="12.148709"><ele>312.0</ele><time>2026-03-28T09:17:17.174Z</time></trkpt><trkpt lat="43.5552033" lon="12.1488739"><ele>312.0</ele><time>2026-03-28T09:17:18.174Z</time></trkpt><trkpt lat="43.5551659" lon="12.14904"><ele>312.0</ele><time>2026-03-28T09:17:19.174Z</time></trkpt><trkpt lat="43.5551293" lon="12.1491953"><ele>312.0</ele><time>2026-03-28T09:17:20.181Z</time></trkpt><trkpt lat="43.5550992" lon="12.1493374"><ele>312.0</ele><time>2026-03-28T09:17:21.166Z</time></trkpt><trkpt lat="43.5550679" lon="12.1494533"><ele>312.0</ele><time>2026-03-28T09:17:22.172Z</time></trkpt><trkpt lat="43.5550274" lon="12.1495516"><ele>311.8333333333333</ele><time>2026-03-28T09:17:23.173Z</time></trkpt><trkpt lat="43.5549748" lon="12.1496254"><ele>311.6666666666667</ele><time>2026-03-28T09:17:24.165Z</time></trkpt><trkpt lat="43.5549073" lon="12.1496645"><ele>311.5</ele><time>2026-03-28T09:17:25.159Z</time></trkpt><trkpt lat="43.5548227" lon="12.1496671"><ele>311.33333333333337</ele><time>2026-03-28T09:17:26.18Z</time></trkpt><trkpt lat="43.5547251" lon="12.1496507"><ele>311.1666666666667</ele><time>2026-03-28T09:17:27.172Z</time></trkpt><trkpt lat="43.55462" lon="12.1496344"><ele>311.0</ele><time>2026-03-28T09:17:28.172Z</time></trkpt><trkpt lat="43.5545217" lon="12.1496305"><ele>311.0</ele><time>2026-03-28T09:17:29.184Z</time></trkpt><trkpt lat="43.5544308" lon="12.1496543"><ele>311.0</ele><time>2026-03-28T09:17:30.177Z</time></trkpt><trkpt lat="43.554352" lon="12.1497173"><ele>311.0</ele><time>2026-03-28T09:17:31.167Z</time></trkpt><trkpt lat="43.5542777" lon="12.1498115"><ele>311.0</ele><time>2026-03-28T09:17:32.18Z</time></trkpt><trkpt lat="43.5542071" lon="12.1499254"><ele>311.0</ele><time>2026-03-28T09:17:33.176Z</time></trkpt><trkpt lat="43.5541383" lon="12.1500486"><ele>311.25</ele><time>2026-03-28T09:17:34.179Z</time></trkpt><trkpt lat="43.5540787" lon="12.1501872"><ele>311.5</ele><time>2026-03-28T09:17:35.176Z</time></trkpt><trkpt lat="43.5540319" lon="12.1503385"><ele>311.75</ele><time>2026-03-28T09:17:36.176Z</time></trkpt><trkpt lat="43.5539944" lon="12.1504998"><ele>312.0</ele><time>2026-03-28T09:17:37.176Z</time></trkpt><trkpt lat="43.5539605" lon="12.1506647"><ele>312.0</ele><time>2026-03-28T09:17:38.176Z</time></trkpt><trkpt lat="43.5539282" lon="12.1508354"><ele>312.0</ele><time>2026-03-28T09:17:39.176Z</time></trkpt><trkpt lat="43.5538972" lon="12.1510096"><ele>312.0</ele><time>2026-03-28T09:17:40.177Z</time></trkpt><trkpt lat="43.5538695" lon="12.1511888"><ele>312.0</ele><time>2026-03-28T09:17:41.189Z</time></trkpt><trkpt lat="43.5538441" lon="12.1513711"><ele>311.75</ele><time>2026-03-28T09:17:42.171Z</time></trkpt><trkpt lat="43.55382" lon="12.151552"><ele>311.5</ele><time>2026-03-28T09:17:43.176Z</time></trkpt><trkpt lat="43.5537966" lon="12.1517276"><ele>311.25</ele><time>2026-03-28T09:17:44.175Z</time></trkpt><trkpt lat="43.5537735" lon="12.1518987"><ele>311.0</ele><time>2026-03-28T09:17:45.178Z</time></trkpt><trkpt lat="43.553747" lon="12.1520696"><ele>311.0</ele><time>2026-03-28T09:17:46.177Z</time></trkpt><trkpt lat="43.5537165" lon="12.1522391"><ele>311.0</ele><time>2026-03-28T09:17:47.168Z</time></trkpt><trkpt lat="43.5536782" lon="12.152408"><ele>311.0</ele><time>2026-03-28T09:17:48.16Z</time></trkpt><trkpt lat="43.5536315" lon="12.1525739"><ele>311.0</ele><time>2026-03-28T09:17:49.177Z</time></trkpt><trkpt lat="43.5535793" lon="12.1527376"><ele>311.0</ele><time>2026-03-28T09:17:50.184Z</time></trkpt><trkpt lat="43.5535243" lon="12.1529006"><ele>311.0</ele><time>2026-03-28T09:17:51.165Z</time></trkpt><trkpt lat="43.5534679" lon="12.1530625"><ele>311.0</ele><time>2026-03-28T09:17:52.175Z</time></trkpt><trkpt lat="43.5534113" lon="12.1532215"><ele>311.0</ele><time>2026-03-28T09:17:53.19Z</time></trkpt><trkpt lat="43.5533586" lon="12.1533692"><ele>311.0</ele><time>2026-03-28T09:17:54.181Z</time></trkpt><trkpt lat="43.5533113" lon="12.1535041"><ele>311.0</ele><time>2026-03-28T09:17:55.177Z</time></trkpt><trkpt lat="43.5532675" lon="12.153625"><ele>311.0</ele><time>2026-03-28T09:17:56.171Z</time></trkpt><trkpt lat="43.5532258" lon="12.153733"><ele>311.0</ele><time>2026-03-28T09:17:57.17Z</time></trkpt><trkpt lat="43.5531857" lon="12.1538303"><ele>311.0</ele><time>2026-03-28T09:17:58.184Z</time></trkpt><trkpt lat="43.5531501" lon="12.1539175"><ele>311.0</ele><time>2026-03-28T09:17:59.179Z</time></trkpt><trkpt lat="43.5531192" lon="12.1539966"><ele>311.0</ele><time>2026-03-28T09:18:00.175Z</time></trkpt><trkpt lat="43.5530784" lon="12.154068"><ele>311.0</ele><time>2026-03-28T09:18:01.179Z</time></trkpt><trkpt lat="43.55297" lon="12.1541271"><ele>311.0</ele><time>2026-03-28T09:18:03.161Z</time></trkpt><trkpt lat="43.5528604" lon="12.1541218"><ele>311.0</ele><time>2026-03-28T09:18:05.167Z</time></trkpt><trkpt lat="43.5527452" lon="12.1541462"><ele>311.0</ele><time>2026-03-28T09:18:07.171Z</time></trkpt><trkpt lat="43.5526731" lon="12.154156"><ele>311.0</ele><time>2026-03-28T09:18:08.168Z</time></trkpt><trkpt lat="43.5525794" lon="12.1541348"><ele>311.0</ele><time>2026-03-28T09:18:09.17Z</time></trkpt><trkpt lat="43.5524919" lon="12.1541008"><ele>311.0</ele><time>2026-03-28T09:18:10.17Z</time></trkpt><trkpt lat="43.5524222" lon="12.1540624"><ele>311.0</ele><time>2026-03-28T09:18:11.181Z</time></trkpt><trkpt lat="43.55236" lon="12.1540367"><ele>311.0</ele><time>2026-03-28T09:18:12.176Z</time></trkpt><trkpt lat="43.5522601" lon="12.1540468"><ele>311.0</ele><time>2026-03-28T09:18:14.166Z</time></trkpt><trkpt lat="43.5521893" lon="12.1541757"><ele>311.0</ele><time>2026-03-28T09:18:16.159Z</time></trkpt><trkpt lat="43.5521377" lon="12.1542648"><ele>311.0</ele><time>2026-03-28T09:18:17.17Z</time></trkpt><trkpt lat="43.5520815" lon="12.1543627"><ele>311.0</ele><time>2026-03-28T09:18:18.175Z</time></trkpt><trkpt lat="43.5520272" lon="12.1544655"><ele>311.0</ele><time>2026-03-28T09:18:19.169Z</time></trkpt><trkpt lat="43.5519731" lon="12.154575"><ele>311.0</ele><time>2026-03-28T09:18:20.169Z</time></trkpt><trkpt lat="43.5519249" lon="12.1546706"><ele>311.0</ele><time>2026-03-28T09:18:21.176Z</time></trkpt><trkpt lat="43.5518853" lon="12.1547535"><ele>310.6666666666667</ele><time>2026-03-28T09:18:22.171Z</time></trkpt><trkpt lat="43.5518523" lon="12.1548387"><ele>310.33333333333337</ele><time>2026-03-28T09:18:23.184Z</time></trkpt><trkpt lat="43.55182" lon="12.1549328"><ele>310.0</ele><time>2026-03-28T09:18:24.173Z</time></trkpt><trkpt lat="43.5517945" lon="12.1550427"><ele>309.6666666666667</ele><time>2026-03-28T09:18:25.173Z</time></trkpt><trkpt lat="43.551774" lon="12.1551602"><ele>309.3333333333333</ele><time>2026-03-28T09:18:26.18Z</time></trkpt><trkpt lat="43.5517564" lon="12.1552727"><ele>309.0</ele><time>2026-03-28T09:18:27.176Z</time></trkpt><trkpt lat="43.5517312" lon="12.1553932"><ele>308.8</ele><time>2026-03-28T09:18:28.175Z</time></trkpt><trkpt lat="43.5516999" lon="12.155517"><ele>308.59999999999997</ele><time>2026-03-28T09:18:29.173Z</time></trkpt><trkpt lat="43.5516641" lon="12.1556429"><ele>308.4</ele><time>2026-03-28T09:18:30.174Z</time></trkpt><trkpt lat="43.5516313" lon="12.1557647"><ele>308.2</ele><time>2026-03-28T09:18:31.172Z</time></trkpt><trkpt lat="43.5515881" lon="12.1558936"><ele>308.0</ele><time>2026-03-28T09:18:32.176Z</time></trkpt><trkpt lat="43.5515444" lon="12.1560193"><ele>308.0</ele><time>2026-03-28T09:18:33.17Z</time></trkpt><trkpt lat="43.551501" lon="12.1561442"><ele>308.0</ele><time>2026-03-28T09:18:34.175Z</time></trkpt><trkpt lat="43.5514607" lon="12.1562532"><ele>308.0</ele><time>2026-03-28T09:18:35.161Z</time></trkpt><trkpt lat="43.5514234" lon="12.1563486"><ele>308.0</ele><time>2026-03-28T09:18:36.17Z</time></trkpt><trkpt lat="43.5513883" lon="12.1564391"><ele>308.0</ele><time>2026-03-28T09:18:37.165Z</time></trkpt><trkpt lat="43.5513526" lon="12.1565331"><ele>308.0</ele><time>2026-03-28T09:18:38.168Z</time></trkpt><trkpt lat="43.5513208" lon="12.1566167"><ele>308.2</ele><time>2026-03-28T09:18:39.171Z</time></trkpt><trkpt lat="43.5512814" lon="12.1566883"><ele>308.4</ele><time>2026-03-28T09:18:40.178Z</time></trkpt><trkpt lat="43.5511708" lon="12.1568076"><ele>308.59999999999997</ele><time>2026-03-28T09:18:42.178Z</time></trkpt><trkpt lat="43.5510952" lon="12.1568798"><ele>308.8</ele><time>2026-03-28T09:18:43.17Z</time></trkpt><trkpt lat="43.5510241" lon="12.156956"><ele>309.0</ele><time>2026-03-28T09:18:44.181Z</time></trkpt><trkpt lat="43.5509577" lon="12.1570368"><ele>309.0</ele><time>2026-03-28T09:18:45.173Z</time></trkpt><trkpt lat="43.5508947" lon="12.1571212"><ele>309.0</ele><time>2026-03-28T09:18:46.173Z</time></trkpt><trkpt lat="43.5508343" lon="12.1572129"><ele>309.0</ele><time>2026-03-28T09:18:47.173Z</time></trkpt><trkpt lat="43.5507825" lon="12.157302"><ele>309.0</ele><time>2026-03-28T09:18:48.176Z</time></trkpt><trkpt lat="43.5507338" lon="12.157394"><ele>309.0</ele><time>2026-03-28T09:18:49.167Z</time></trkpt><trkpt lat="43.5506774" lon="12.157496"><ele>309.0</ele><time>2026-03-28T09:18:50.173Z</time></trkpt><trkpt lat="43.5506173" lon="12.1576038"><ele>309.0</ele><time>2026-03-28T09:18:51.174Z</time></trkpt><trkpt lat="43.5505529" lon="12.1577173"><ele>309.0</ele><time>2026-03-28T09:18:52.171Z</time></trkpt><trkpt lat="43.5504816" lon="12.1578282"><ele>309.0</ele><time>2026-03-28T09:18:53.17Z</time></trkpt><trkpt lat="43.5504047" lon="12.1579343"><ele>309.0</ele><time>2026-03-28T09:18:54.165Z</time></trkpt><trkpt lat="43.5503287" lon="12.1580282"><ele>309.0</ele><time>2026-03-28T09:18:55.172Z</time></trkpt><trkpt lat="43.5502518" lon="12.1581205"><ele>309.0</ele><time>2026-03-28T09:18:56.172Z</time></trkpt><trkpt lat="43.5501713" lon="12.1582166"><ele>309.0</ele><time>2026-03-28T09:18:57.173Z</time></trkpt><trkpt lat="43.5500917" lon="12.1583105"><ele>309.0</ele><time>2026-03-28T09:18:58.181Z</time></trkpt><trkpt lat="43.55001" lon="12.1584116"><ele>309.0</ele><time>2026-03-28T09:18:59.184Z</time></trkpt><trkpt lat="43.549927" lon="12.158514"><ele>309.0</ele><time>2026-03-28T09:19:00.175Z</time></trkpt><trkpt lat="43.5498442" lon="12.1586267"><ele>309.0</ele><time>2026-03-28T09:19:01.171Z</time></trkpt><trkpt lat="43.5497649" lon="12.1587458"><ele>309.0</ele><time>2026-03-28T09:19:02.175Z</time></trkpt><trkpt lat="43.5496824" lon="12.1588698"><ele>309.0</ele><time>2026-03-28T09:19:03.173Z</time></trkpt><trkpt lat="43.5495988" lon="12.1589891"><ele>309.0</ele><time>2026-03-28T09:19:04.18Z</time></trkpt><trkpt lat="43.5495169" lon="12.1591054"><ele>308.59999999999997</ele><time>2026-03-28T09:19:05.186Z</time></trkpt><trkpt lat="43.549436" lon="12.1592198"><ele>308.2</ele><time>2026-03-28T09:19:06.167Z</time></trkpt><trkpt lat="43.5493569" lon="12.1593278"><ele>307.79999999999995</ele><time>2026-03-28T09:19:07.171Z</time></trkpt><trkpt lat="43.5492838" lon="12.159426"><ele>307.4</ele><time>2026-03-28T09:19:08.179Z</time></trkpt><trkpt lat="43.5492179" lon="12.1595192"><ele>307.0</ele><time>2026-03-28T09:19:09.175Z</time></trkpt><trkpt lat="43.549159" lon="12.159606"><ele>307.0</ele><time>2026-03-28T09:19:10.169Z</time></trkpt><trkpt lat="43.5491078" lon="12.1596934"><ele>307.0</ele><time>2026-03-28T09:19:11.176Z</time></trkpt><trkpt lat="43.5490625" lon="12.1598003"><ele>307.0</ele><time>2026-03-28T09:19:12.173Z</time></trkpt><trkpt lat="43.5490267" lon="12.1599288"><ele>307.0</ele><time>2026-03-28T09:19:13.179Z</time></trkpt><trkpt lat="43.5489822" lon="12.1600731"><ele>307.0</ele><time>2026-03-28T09:19:14.172Z</time></trkpt><trkpt lat="43.5489239" lon="12.1602178"><ele>307.0</ele><time>2026-03-28T09:19:15.178Z</time></trkpt><trkpt lat="43.5488511" lon="12.1603659"><ele>307.0</ele><time>2026-03-28T09:19:16.175Z</time></trkpt><trkpt lat="43.5487771" lon="12.1605182"><ele>307.0</ele><time>2026-03-28T09:19:17.165Z</time></trkpt><trkpt lat="43.5487066" lon="12.1606638"><ele>307.0</ele><time>2026-03-28T09:19:18.165Z</time></trkpt><trkpt lat="43.548646" lon="12.1607987"><ele>307.6</ele><time>2026-03-28T09:19:19.165Z</time></trkpt><trkpt lat="43.5485958" lon="12.160922"><ele>308.2</ele><time>2026-03-28T09:19:20.18Z</time></trkpt><trkpt lat="43.5485532" lon="12.1610344"><ele>308.8</ele><time>2026-03-28T09:19:21.172Z</time></trkpt><trkpt lat="43.5485204" lon="12.1611256"><ele>309.4</ele><time>2026-03-28T09:19:22.173Z</time></trkpt><trkpt lat="43.5484523" lon="12.1612388"><ele>310.0</ele><time>2026-03-28T09:19:24.166Z</time></trkpt><trkpt lat="43.5483398" lon="12.1612351"><ele>310.0</ele><time>2026-03-28T09:19:26.167Z</time></trkpt><trkpt lat="43.548259" lon="12.1611845"><ele>310.0</ele><time>2026-03-28T09:19:27.181Z</time></trkpt><trkpt lat="43.5481601" lon="12.1611119"><ele>310.0</ele><time>2026-03-28T09:19:28.167Z</time></trkpt><trkpt lat="43.5480528" lon="12.1610229"><ele>310.0</ele><time>2026-03-28T09:19:29.168Z</time></trkpt><trkpt lat="43.5479425" lon="12.1609131"><ele>310.25</ele><time>2026-03-28T09:19:30.171Z</time></trkpt><trkpt lat="43.5478311" lon="12.1607931"><ele>310.5</ele><time>2026-03-28T09:19:31.169Z</time></trkpt><trkpt lat="43.5477204" lon="12.1606728"><ele>310.75</ele><time>2026-03-28T09:19:32.169Z</time></trkpt><trkpt lat="43.5476057" lon="12.1605519"><ele>311.0</ele><time>2026-03-28T09:19:33.173Z</time></trkpt><trkpt lat="43.5474869" lon="12.1604298"><ele>309.6666666666667</ele><time>2026-03-28T09:19:34.172Z</time></trkpt><trkpt lat="43.5473659" lon="12.1603063"><ele>308.3333333333333</ele><time>2026-03-28T09:19:35.167Z</time></trkpt><trkpt lat="43.5472435" lon="12.1601833"><ele>307.0</ele><time>2026-03-28T09:19:36.173Z</time></trkpt><trkpt lat="43.5471184" lon="12.1600611"><ele>306.66666666666663</ele><time>2026-03-28T09:19:37.172Z</time></trkpt><trkpt lat="43.5469916" lon="12.1599394"><ele>306.3333333333333</ele><time>2026-03-28T09:19:38.176Z</time></trkpt><trkpt lat="43.5468615" lon="12.1598207"><ele>306.0</ele><time>2026-03-28T09:19:39.177Z</time></trkpt><trkpt lat="43.5467273" lon="12.1597093"><ele>306.0</ele><time>2026-03-28T09:19:40.167Z</time></trkpt><trkpt lat="43.5465891" lon="12.1596053"><ele>306.0</ele><time>2026-03-28T09:19:41.177Z</time></trkpt><trkpt lat="43.5464508" lon="12.1595043"><ele>306.0</ele><time>2026-03-28T09:19:42.158Z</time></trkpt><trkpt lat="43.5463171" lon="12.1594087"><ele>306.75</ele><time>2026-03-28T09:19:43.168Z</time></trkpt><trkpt lat="43.546193" lon="12.1593213"><ele>307.5</ele><time>2026-03-28T09:19:44.172Z</time></trkpt><trkpt lat="43.5460806" lon="12.1592402"><ele>308.25</ele><time>2026-03-28T09:19:45.167Z</time></trkpt><trkpt lat="43.5459795" lon="12.1591564"><ele>309.0</ele><time>2026-03-28T09:19:46.168Z</time></trkpt><trkpt lat="43.5458855" lon="12.1590785"><ele>309.0</ele><time>2026-03-28T09:19:47.175Z</time></trkpt><trkpt lat="43.5458088" lon="12.1589929"><ele>309.0</ele><time>2026-03-28T09:19:48.171Z</time></trkpt><trkpt lat="43.5457475" lon="12.1589242"><ele>309.0</ele><time>2026-03-28T09:19:49.179Z</time></trkpt><trkpt lat="43.545689" lon="12.1588422"><ele>309.0</ele><time>2026-03-28T09:19:51.171Z</time></trkpt><trkpt lat="43.5457499" lon="12.1589338"><ele>309.0</ele><time>2026-03-28T09:20:12.178Z</time></trkpt><trkpt lat="43.5458029" lon="12.1589962"><ele>309.0</ele><time>2026-03-28T09:20:13.176Z</time></trkpt><trkpt lat="43.54586" lon="12.1591304"><ele>309.0</ele><time>2026-03-28T09:20:15.173Z</time></trkpt><trkpt lat="43.5458219" lon="12.1592523"><ele>309.0</ele><time>2026-03-28T09:20:17.167Z</time></trkpt><trkpt lat="43.5457811" lon="12.1593341"><ele>309.0</ele><time>2026-03-28T09:20:18.171Z</time></trkpt><trkpt lat="43.5457098" lon="12.1594248"><ele>309.0</ele><time>2026-03-28T09:20:19.175Z</time></trkpt><trkpt lat="43.545626" lon="12.1595396"><ele>309.0</ele><time>2026-03-28T09:20:20.172Z</time></trkpt><trkpt lat="43.5455514" lon="12.1596407"><ele>309.0</ele><time>2026-03-28T09:20:21.174Z</time></trkpt><trkpt lat="43.5454894" lon="12.1597241"><ele>309.0</ele><time>2026-03-28T09:20:22.174Z</time></trkpt><trkpt lat="43.5453837" lon="12.1598834"><ele>309.0</ele><time>2026-03-28T09:20:24.167Z</time></trkpt><trkpt lat="43.5453098" lon="12.1599577"><ele>309.0</ele><time>2026-03-28T09:20:25.172Z</time></trkpt><trkpt lat="43.5452395" lon="12.1600589"><ele>309.0</ele><time>2026-03-28T09:20:26.17Z</time></trkpt><trkpt lat="43.5451708" lon="12.1601463"><ele>309.0</ele><time>2026-03-28T09:20:27.174Z</time></trkpt><trkpt lat="43.545098" lon="12.160225"><ele>309.0</ele><time>2026-03-28T09:20:28.174Z</time></trkpt><trkpt lat="43.5450327" lon="12.160294"><ele>309.0</ele><time>2026-03-28T09:20:29.168Z</time></trkpt><trkpt lat="43.5449276" lon="12.1603754"><ele>309.0</ele><time>2026-03-28T09:20:31.173Z</time></trkpt><trkpt lat="43.5448196" lon="12.1604534"><ele>309.0</ele><time>2026-03-28T09:20:33.179Z</time></trkpt><trkpt lat="43.5447584" lon="12.1605024"><ele>309.0</ele><time>2026-03-28T09:20:34.182Z</time></trkpt><trkpt lat="43.5446969" lon="12.1605522"><ele>309.0</ele><time>2026-03-28T09:20:35.174Z</time></trkpt><trkpt lat="43.5446354" lon="12.1606063"><ele>309.0</ele><time>2026-03-28T09:20:36.173Z</time></trkpt><trkpt lat="43.5445846" lon="12.1606584"><ele>309.0</ele><time>2026-03-28T09:20:37.18Z</time></trkpt><trkpt lat="43.5445038" lon="12.1607506"><ele>309.0</ele><time>2026-03-28T09:20:39.173Z</time></trkpt><trkpt lat="43.5444517" lon="12.1608381"><ele>309.0</ele><time>2026-03-28T09:20:41.17Z</time></trkpt><trkpt lat="43.5443746" lon="12.1609431"><ele>308.1666666666667</ele><time>2026-03-28T09:20:43.188Z</time></trkpt><trkpt lat="43.5443277" lon="12.161004"><ele>307.3333333333333</ele><time>2026-03-28T09:20:44.172Z</time></trkpt><trkpt lat="43.5442456" lon="12.1611148"><ele>306.5</ele><time>2026-03-28T09:20:46.171Z</time></trkpt><trkpt lat="43.5441979" lon="12.1611725"><ele>305.66666666666663</ele><time>2026-03-28T09:20:47.177Z</time></trkpt><trkpt lat="43.5441172" lon="12.1613097"><ele>304.8333333333333</ele><time>2026-03-28T09:20:49.173Z</time></trkpt><trkpt lat="43.5440752" lon="12.1614008"><ele>304.0</ele><time>2026-03-28T09:20:50.172Z</time></trkpt><trkpt lat="43.5440221" lon="12.1615028"><ele>303.8333333333333</ele><time>2026-03-28T09:20:51.169Z</time></trkpt><trkpt lat="43.5439632" lon="12.1616013"><ele>303.66666666666663</ele><time>2026-03-28T09:20:52.178Z</time></trkpt><trkpt lat="43.543907" lon="12.16169"><ele>303.5</ele><time>2026-03-28T09:20:53.17Z</time></trkpt><trkpt lat="43.543854" lon="12.1617707"><ele>303.3333333333333</ele><time>2026-03-28T09:20:54.163Z</time></trkpt><trkpt lat="43.5438003" lon="12.1618489"><ele>303.1666666666667</ele><time>2026-03-28T09:20:55.17Z</time></trkpt><trkpt lat="43.5437398" lon="12.161932"><ele>303.0</ele><time>2026-03-28T09:20:56.173Z</time></trkpt><trkpt lat="43.5436831" lon="12.1620016"><ele>303.0</ele><time>2026-03-28T09:20:57.165Z</time></trkpt><trkpt lat="43.5436277" lon="12.1620628"><ele>303.0</ele><time>2026-03-28T09:20:58.178Z</time></trkpt><trkpt lat="43.5435426" lon="12.1621497"><ele>303.0</ele><time>2026-03-28T09:21:00.174Z</time></trkpt><trkpt lat="43.5434955" lon="12.1622139"><ele>303.0</ele><time>2026-03-28T09:21:02.16Z</time></trkpt><trkpt lat="43.543425" lon="12.1623055"><ele>303.0</ele><time>2026-03-28T09:21:04.177Z</time></trkpt><trkpt lat="43.5433556" lon="12.162383"><ele>303.0</ele><time>2026-03-28T09:21:06.171Z</time></trkpt><trkpt lat="43.5432944" lon="12.1624437"><ele>303.0</ele><time>2026-03-28T09:21:08.171Z</time></trkpt><trkpt lat="43.5432107" lon="12.1625621"><ele>303.0</ele><time>2026-03-28T09:21:10.175Z</time></trkpt><trkpt lat="43.5431647" lon="12.1626428"><ele>303.0</ele><time>2026-03-28T09:21:11.179Z</time></trkpt><trkpt lat="43.5431116" lon="12.1627275"><ele>303.0</ele><time>2026-03-28T09:21:12.177Z</time></trkpt><trkpt lat="43.5430596" lon="12.1628154"><ele>303.0</ele><time>2026-03-28T09:21:13.179Z</time></trkpt><trkpt lat="43.5430094" lon="12.1629019"><ele>303.0</ele><time>2026-03-28T09:21:14.178Z</time></trkpt><trkpt lat="43.5429573" lon="12.1629871"><ele>303.0</ele><time>2026-03-28T09:21:15.163Z</time></trkpt><trkpt lat="43.5429074" lon="12.1630712"><ele>303.0</ele><time>2026-03-28T09:21:16.175Z</time></trkpt><trkpt lat="43.5428617" lon="12.1631474"><ele>303.0</ele><time>2026-03-28T09:21:17.165Z</time></trkpt><trkpt lat="43.5428033" lon="12.16326"><ele>303.0</ele><time>2026-03-28T09:21:19.173Z</time></trkpt><trkpt lat="43.5427556" lon="12.1633632"><ele>303.0</ele><time>2026-03-28T09:21:21.17Z</time></trkpt><trkpt lat="43.5426936" lon="12.1634562"><ele>303.0</ele><time>2026-03-28T09:21:23.16Z</time></trkpt><trkpt lat="43.5426461" lon="12.1635428"><ele>303.0</ele><time>2026-03-28T09:21:25.162Z</time></trkpt><trkpt lat="43.5425762" lon="12.163651"><ele>303.0</ele><time>2026-03-28T09:21:27.178Z</time></trkpt><trkpt lat="43.5425313" lon="12.1637239"><ele>303.0</ele><time>2026-03-28T09:21:28.164Z</time></trkpt><trkpt lat="43.5424806" lon="12.1638108"><ele>303.0</ele><time>2026-03-28T09:21:29.165Z</time></trkpt><trkpt lat="43.5424283" lon="12.1639016"><ele>303.0</ele><time>2026-03-28T09:21:30.171Z</time></trkpt><trkpt lat="43.5423778" lon="12.1639913"><ele>303.0</ele><time>2026-03-28T09:21:31.169Z</time></trkpt><trkpt lat="43.5423312" lon="12.1640811"><ele>302.8</ele><time>2026-03-28T09:21:32.174Z</time></trkpt><trkpt lat="43.542294" lon="12.1641606"><ele>302.6</ele><time>2026-03-28T09:21:33.184Z</time></trkpt><trkpt lat="43.5422521" lon="12.16428"><ele>302.4</ele><time>2026-03-28T09:21:35.173Z</time></trkpt><trkpt lat="43.5422195" lon="12.1643855"><ele>302.2</ele><time>2026-03-28T09:21:38.173Z</time></trkpt><trkpt lat="43.542137" lon="12.1643617"><ele>302.0</ele><time>2026-03-28T09:21:41.162Z</time></trkpt><trkpt lat="43.5420334" lon="12.1642678"><ele>302.00000000000006</ele><time>2026-03-28T09:21:43.179Z</time></trkpt><trkpt lat="43.5419687" lon="12.1641999"><ele>302.0</ele><time>2026-03-28T09:21:44.17Z</time></trkpt><trkpt lat="43.5419141" lon="12.1641453"><ele>302.0</ele><time>2026-03-28T09:21:45.173Z</time></trkpt><trkpt lat="43.5418624" lon="12.1640908"><ele>302.0</ele><time>2026-03-28T09:21:46.167Z</time></trkpt><trkpt lat="43.54181" lon="12.1640323"><ele>302.0</ele><time>2026-03-28T09:21:47.166Z</time></trkpt><trkpt lat="43.54176" lon="12.1639763"><ele>302.00000000000006</ele><time>2026-03-28T09:21:48.172Z</time></trkpt><trkpt lat="43.5417061" lon="12.1639165"><ele>302.0</ele><time>2026-03-28T09:21:49.167Z</time></trkpt><trkpt lat="43.5416464" lon="12.1638578"><ele>301.5714285714286</ele><time>2026-03-28T09:21:50.17Z</time></trkpt><trkpt lat="43.5415895" lon="12.1638023"><ele>301.14285714285717</ele><time>2026-03-28T09:21:51.176Z</time></trkpt><trkpt lat="43.5415337" lon="12.1637515"><ele>300.7142857142857</ele><time>2026-03-28T09:21:52.174Z</time></trkpt><trkpt lat="43.5414711" lon="12.1636974"><ele>300.28571428571433</ele><time>2026-03-28T09:21:53.179Z</time></trkpt><trkpt lat="43.5414046" lon="12.1636374"><ele>299.8571428571429</ele><time>2026-03-28T09:21:54.172Z</time></trkpt><trkpt lat="43.5413431" lon="12.1635766"><ele>299.42857142857144</ele><time>2026-03-28T09:21:55.174Z</time></trkpt><trkpt lat="43.541282" lon="12.1635194"><ele>299.0</ele><time>2026-03-28T09:21:56.17Z</time></trkpt><trkpt lat="43.5412244" lon="12.1634682"><ele>298.59999999999997</ele><time>2026-03-28T09:21:57.175Z</time></trkpt><trkpt lat="43.5411235" lon="12.1633895"><ele>298.2</ele><time>2026-03-28T09:21:59.182Z</time></trkpt><trkpt lat="43.5410387" lon="12.1633717"><ele>297.79999999999995</ele><time>2026-03-28T09:22:01.164Z</time></trkpt><trkpt lat="43.5409393" lon="12.1633784"><ele>297.4</ele><time>2026-03-28T09:22:03.169Z</time></trkpt><trkpt lat="43.5408364" lon="12.1633751"><ele>297.0</ele><time>2026-03-28T09:22:05.171Z</time></trkpt><trkpt lat="43.5407216" lon="12.1633287"><ele>297.0</ele><time>2026-03-28T09:22:07.163Z</time></trkpt><trkpt lat="43.5406577" lon="12.1632828"><ele>297.0</ele><time>2026-03-28T09:22:08.175Z</time></trkpt><trkpt lat="43.5405989" lon="12.163213"><ele>297.0</ele><time>2026-03-28T09:22:09.171Z</time></trkpt><trkpt lat="43.5405516" lon="12.1631542"><ele>297.0</ele><time>2026-03-28T09:22:10.174Z</time></trkpt><trkpt lat="43.5404801" lon="12.1630687"><ele>297.0</ele><time>2026-03-28T09:22:12.176Z</time></trkpt><trkpt lat="43.5403969" lon="12.1630166"><ele>297.0</ele><time>2026-03-28T09:22:14.165Z</time></trkpt><trkpt lat="43.5403277" lon="12.1629246"><ele>297.0</ele><time>2026-03-28T09:22:16.182Z</time></trkpt><trkpt lat="43.5402611" lon="12.1628148"><ele>297.0</ele><time>2026-03-28T09:22:18.169Z</time></trkpt><trkpt lat="43.540218" lon="12.1627495"><ele>297.0</ele><time>2026-03-28T09:22:19.172Z</time></trkpt><trkpt lat="43.5401697" lon="12.1626874"><ele>297.0</ele><time>2026-03-28T09:22:20.173Z</time></trkpt><trkpt lat="43.5401095" lon="12.1626256"><ele>297.0</ele><time>2026-03-28T09:22:21.173Z</time></trkpt><trkpt lat="43.540037" lon="12.1625619"><ele>297.0</ele><time>2026-03-28T09:22:22.175Z</time></trkpt><trkpt lat="43.5399678" lon="12.1625005"><ele>297.0</ele><time>2026-03-28T09:22:23.169Z</time></trkpt><trkpt lat="43.5399118" lon="12.1624531"><ele>297.0</ele><time>2026-03-28T09:22:24.169Z</time></trkpt><trkpt lat="43.5398043" lon="12.1623854"><ele>297.0</ele><time>2026-03-28T09:22:26.173Z</time></trkpt><trkpt lat="43.5397072" lon="12.1622888"><ele>297.0</ele><time>2026-03-28T09:22:28.175Z</time></trkpt><trkpt lat="43.5396619" lon="12.162225"><ele>297.0</ele><time>2026-03-28T09:22:29.172Z</time></trkpt><trkpt lat="43.5395797" lon="12.162101"><ele>297.1666666666667</ele><time>2026-03-28T09:22:31.17Z</time></trkpt><trkpt lat="43.5395197" lon="12.1620412"><ele>297.3333333333333</ele><time>2026-03-28T09:22:32.167Z</time></trkpt><trkpt lat="43.5394509" lon="12.1619713"><ele>297.5</ele><time>2026-03-28T09:22:33.167Z</time></trkpt><trkpt lat="43.5393804" lon="12.1619028"><ele>297.66666666666663</ele><time>2026-03-28T09:22:34.169Z</time></trkpt><trkpt lat="43.5393035" lon="12.1618277"><ele>297.8333333333333</ele><time>2026-03-28T09:22:35.165Z</time></trkpt><trkpt lat="43.5392287" lon="12.1617542"><ele>298.0</ele><time>2026-03-28T09:22:36.181Z</time></trkpt><trkpt lat="43.5391507" lon="12.1616866"><ele>298.0</ele><time>2026-03-28T09:22:37.178Z</time></trkpt><trkpt lat="43.5390625" lon="12.1616244"><ele>298.0</ele><time>2026-03-28T09:22:38.17Z</time></trkpt><trkpt lat="43.5389695" lon="12.1615613"><ele>298.0</ele><time>2026-03-28T09:22:39.169Z</time></trkpt><trkpt lat="43.5388758" lon="12.1614992"><ele>298.0</ele><time>2026-03-28T09:22:40.174Z</time></trkpt><trkpt lat="43.5387862" lon="12.1614396"><ele>298.0</ele><time>2026-03-28T09:22:41.173Z</time></trkpt><trkpt lat="43.538702" lon="12.1613711"><ele>297.6</ele><time>2026-03-28T09:22:42.168Z</time></trkpt><trkpt lat="43.5386272" lon="12.1612852"><ele>297.20000000000005</ele><time>2026-03-28T09:22:43.172Z</time></trkpt><trkpt lat="43.5385546" lon="12.1611962"><ele>296.8</ele><time>2026-03-28T09:22:44.175Z</time></trkpt><trkpt lat="43.5384823" lon="12.1611251"><ele>296.40000000000003</ele><time>2026-03-28T09:22:45.176Z</time></trkpt><trkpt lat="43.5384009" lon="12.1610777"><ele>296.0</ele><time>2026-03-28T09:22:46.172Z</time></trkpt><trkpt lat="43.5383093" lon="12.1610629"><ele>296.0</ele><time>2026-03-28T09:22:47.176Z</time></trkpt><trkpt lat="43.5382102" lon="12.1610706"><ele>296.0</ele><time>2026-03-28T09:22:48.165Z</time></trkpt><trkpt lat="43.5381074" lon="12.1610838"><ele>296.0</ele><time>2026-03-28T09:22:49.165Z</time></trkpt><trkpt lat="43.5380044" lon="12.1610961"><ele>296.0</ele><time>2026-03-28T09:22:50.167Z</time></trkpt><trkpt lat="43.5379077" lon="12.1611058"><ele>296.0</ele><time>2026-03-28T09:22:51.177Z</time></trkpt><trkpt lat="43.5378189" lon="12.1611187"><ele>296.5</ele><time>2026-03-28T09:22:52.171Z</time></trkpt><trkpt lat="43.5377306" lon="12.1611408"><ele>297.0</ele><time>2026-03-28T09:22:53.171Z</time></trkpt><trkpt lat="43.5376437" lon="12.1611502"><ele>297.5</ele><time>2026-03-28T09:22:54.167Z</time></trkpt><trkpt lat="43.5375687" lon="12.1611281"><ele>298.0</ele><time>2026-03-28T09:22:55.171Z</time></trkpt><trkpt lat="43.5375075" lon="12.161078"><ele>298.5</ele><time>2026-03-28T09:22:56.167Z</time></trkpt><trkpt lat="43.5374518" lon="12.1610111"><ele>299.0</ele><time>2026-03-28T09:22:57.177Z</time></trkpt><trkpt lat="43.5373985" lon="12.1609495"><ele>299.0</ele><time>2026-03-28T09:22:58.165Z</time></trkpt><trkpt lat="43.5373401" lon="12.160904"><ele>299.0</ele><time>2026-03-28T09:22:59.175Z</time></trkpt><trkpt lat="43.5372737" lon="12.160925"><ele>299.0</ele><time>2026-03-28T09:23:00.167Z</time></trkpt><trkpt lat="43.5372154" lon="12.1609754"><ele>299.0</ele><time>2026-03-28T09:23:01.167Z</time></trkpt><trkpt lat="43.5371656" lon="12.1610515"><ele>299.0</ele><time>2026-03-28T09:23:02.169Z</time></trkpt><trkpt lat="43.5371197" lon="12.1611287"><ele>299.0</ele><time>2026-03-28T09:23:03.165Z</time></trkpt><trkpt lat="43.5370783" lon="12.1612025"><ele>299.0</ele><time>2026-03-28T09:23:04.179Z</time></trkpt><trkpt lat="43.5370268" lon="12.1613125"><ele>298.7142857142857</ele><time>2026-03-28T09:23:06.17Z</time></trkpt><trkpt lat="43.5369983" lon="12.1614029"><ele>298.42857142857144</ele><time>2026-03-28T09:23:08.17Z</time></trkpt><trkpt lat="43.5369643" lon="12.161487"><ele>298.14285714285717</ele><time>2026-03-28T09:23:11.17Z</time></trkpt><trkpt lat="43.5369174" lon="12.161565"><ele>297.8571428571429</ele><time>2026-03-28T09:23:13.173Z</time></trkpt><trkpt lat="43.5368783" lon="12.1616471"><ele>297.5714285714286</ele><time>2026-03-28T09:23:15.177Z</time></trkpt><trkpt lat="43.5368331" lon="12.161724"><ele>297.2857142857143</ele><time>2026-03-28T09:23:18.175Z</time></trkpt><trkpt lat="43.5367691" lon="12.1618047"><ele>297.0</ele><time>2026-03-28T09:24:10.164Z</time></trkpt><trkpt lat="43.5366967" lon="12.1618933"><ele>296.6666666666667</ele><time>2026-03-28T09:24:12.158Z</time></trkpt><trkpt lat="43.5366027" lon="12.1619824"><ele>296.3333333333333</ele><time>2026-03-28T09:24:14.166Z</time></trkpt><trkpt lat="43.5365508" lon="12.1620337"><ele>296.0</ele><time>2026-03-28T09:24:15.172Z</time></trkpt><trkpt lat="43.5364898" lon="12.1620921"><ele>295.66666666666663</ele><time>2026-03-28T09:24:16.17Z</time></trkpt><trkpt lat="43.5364266" lon="12.1621504"><ele>295.3333333333333</ele><time>2026-03-28T09:24:17.172Z</time></trkpt><trkpt lat="43.5363714" lon="12.1621983"><ele>295.0</ele><time>2026-03-28T09:24:18.176Z</time></trkpt><trkpt lat="43.5362785" lon="12.1622834"><ele>295.14285714285717</ele><time>2026-03-28T09:24:20.168Z</time></trkpt><trkpt lat="43.5362071" lon="12.16235"><ele>295.2857142857143</ele><time>2026-03-28T09:24:22.168Z</time></trkpt><trkpt lat="43.536157" lon="12.1624026"><ele>295.42857142857144</ele><time>2026-03-28T09:24:24.175Z</time></trkpt><trkpt lat="43.5361228" lon="12.1624948"><ele>295.57142857142856</ele><time>2026-03-28T09:24:45.177Z</time></trkpt><trkpt lat="43.5360564" lon="12.1625477"><ele>295.7142857142857</ele><time>2026-03-28T09:24:49.173Z</time></trkpt><trkpt lat="43.5359921" lon="12.1625367"><ele>295.8571428571429</ele><time>2026-03-28T09:24:52.165Z</time></trkpt><trkpt lat="43.5359338" lon="12.1626052"><ele>296.0</ele><time>2026-03-28T09:24:54.166Z</time></trkpt><trkpt lat="43.5358794" lon="12.162686"><ele>296.0</ele><time>2026-03-28T09:24:57.175Z</time></trkpt><trkpt lat="43.5358041" lon="12.1627289"><ele>296.0</ele><time>2026-03-28T09:25:00.169Z</time></trkpt><trkpt lat="43.5357449" lon="12.1628069"><ele>296.0</ele><time>2026-03-28T09:25:04.172Z</time></trkpt><trkpt lat="43.5356919" lon="12.1628627"><ele>296.0</ele><time>2026-03-28T09:25:07.173Z</time></trkpt><trkpt lat="43.5356416" lon="12.1629412"><ele>296.0</ele><time>2026-03-28T09:25:11.17Z</time></trkpt><trkpt lat="43.5356016" lon="12.1630119"><ele>296.0</ele><time>2026-03-28T09:25:15.169Z</time></trkpt><trkpt lat="43.5355529" lon="12.1631071"><ele>296.0</ele><time>2026-03-28T09:25:18.169Z</time></trkpt><trkpt lat="43.5355181" lon="12.1631827"><ele>296.0</ele><time>2026-03-28T09:25:21.168Z</time></trkpt><trkpt lat="43.5354717" lon="12.1632723"><ele>296.0</ele><time>2026-03-28T09:25:24.172Z</time></trkpt><trkpt lat="43.5354367" lon="12.1633481"><ele>296.0</ele><time>2026-03-28T09:25:26.179Z</time></trkpt><trkpt lat="43.5353895" lon="12.1634289"><ele>296.0</ele><time>2026-03-28T09:25:29.163Z</time></trkpt><trkpt lat="43.535344" lon="12.1634937"><ele>296.0</ele><time>2026-03-28T09:25:31.172Z</time></trkpt><trkpt lat="43.5352924" lon="12.163569"><ele>296.0</ele><time>2026-03-28T09:25:33.167Z</time></trkpt><trkpt lat="43.535225" lon="12.1636494"><ele>295.83333333333337</ele><time>2026-03-28T09:25:35.176Z</time></trkpt><trkpt lat="43.5351463" lon="12.1637163"><ele>295.6666666666667</ele><time>2026-03-28T09:25:37.174Z</time></trkpt><trkpt lat="43.5350662" lon="12.1637762"><ele>295.5</ele><time>2026-03-28T09:25:39.17Z</time></trkpt><trkpt lat="43.5349909" lon="12.1638384"><ele>295.3333333333333</ele><time>2026-03-28T09:25:41.175Z</time></trkpt><trkpt lat="43.5349272" lon="12.1639138"><ele>295.16666666666663</ele><time>2026-03-28T09:25:43.168Z</time></trkpt><trkpt lat="43.5348646" lon="12.1639918"><ele>295.0</ele><time>2026-03-28T09:25:45.165Z</time></trkpt><trkpt lat="43.5347965" lon="12.164096"><ele>294.8333333333333</ele><time>2026-03-28T09:25:47.171Z</time></trkpt><trkpt lat="43.5347286" lon="12.1642148"><ele>294.66666666666663</ele><time>2026-03-28T09:25:49.168Z</time></trkpt><trkpt lat="43.5346629" lon="12.1643575"><ele>294.5</ele><time>2026-03-28T09:25:51.166Z</time></trkpt><trkpt lat="43.5346332" lon="12.1644385"><ele>294.3333333333333</ele><time>2026-03-28T09:25:52.173Z</time></trkpt><trkpt lat="43.5346043" lon="12.1645217"><ele>294.1666666666667</ele><time>2026-03-28T09:25:53.174Z</time></trkpt><trkpt lat="43.5345748" lon="12.1646064"><ele>294.0</ele><time>2026-03-28T09:25:54.163Z</time></trkpt><trkpt lat="43.5345244" lon="12.1647299"><ele>294.5</ele><time>2026-03-28T09:25:56.176Z</time></trkpt><trkpt lat="43.534469" lon="12.1647774"><ele>295.0</ele><time>2026-03-28T09:26:01.174Z</time></trkpt><trkpt lat="43.5343873" lon="12.1647316"><ele>295.5</ele><time>2026-03-28T09:26:03.168Z</time></trkpt><trkpt lat="43.5343291" lon="12.1646792"><ele>296.0</ele><time>2026-03-28T09:26:04.167Z</time></trkpt><trkpt lat="43.5342617" lon="12.1646197"><ele>296.5</ele><time>2026-03-28T09:26:05.19Z</time></trkpt><trkpt lat="43.5341792" lon="12.1645458"><ele>297.0</ele><time>2026-03-28T09:26:06.176Z</time></trkpt><trkpt lat="43.5340959" lon="12.1644688"><ele>297.0</ele><time>2026-03-28T09:26:07.168Z</time></trkpt><trkpt lat="43.5340008" lon="12.1643859"><ele>297.0</ele><time>2026-03-28T09:26:08.176Z</time></trkpt><trkpt lat="43.5338969" lon="12.1643009"><ele>297.0</ele><time>2026-03-28T09:26:09.179Z</time></trkpt><trkpt lat="43.533795" lon="12.1642172"><ele>297.0</ele><time>2026-03-28T09:26:10.164Z</time></trkpt><trkpt lat="43.5336896" lon="12.1641301"><ele>296.25</ele><time>2026-03-28T09:26:11.165Z</time></trkpt><trkpt lat="43.5335747" lon="12.1640433"><ele>295.5</ele><time>2026-03-28T09:26:12.171Z</time></trkpt><trkpt lat="43.5334571" lon="12.1639522"><ele>294.75</ele><time>2026-03-28T09:26:13.173Z</time></trkpt><trkpt lat="43.5333346" lon="12.1638601"><ele>294.0</ele><time>2026-03-28T09:26:14.172Z</time></trkpt><trkpt lat="43.5332098" lon="12.1637688"><ele>294.0</ele><time>2026-03-28T09:26:15.178Z</time></trkpt><trkpt lat="43.5330802" lon="12.1636769"><ele>294.0</ele><time>2026-03-28T09:26:16.169Z</time></trkpt><trkpt lat="43.5329498" lon="12.1635859"><ele>294.0</ele><time>2026-03-28T09:26:17.167Z</time></trkpt><trkpt lat="43.5328178" lon="12.163496"><ele>294.0</ele><time>2026-03-28T09:26:18.166Z</time></trkpt><trkpt lat="43.5326856" lon="12.163409"><ele>294.0</ele><time>2026-03-28T09:26:19.167Z</time></trkpt><trkpt lat="43.5325523" lon="12.1633192"><ele>294.0</ele><time>2026-03-28T09:26:20.171Z</time></trkpt><trkpt lat="43.5324146" lon="12.163229"><ele>294.0</ele><time>2026-03-28T09:26:21.162Z</time></trkpt><trkpt lat="43.5322782" lon="12.1631389"><ele>294.0</ele><time>2026-03-28T09:26:22.162Z</time></trkpt><trkpt lat="43.5321413" lon="12.1630497"><ele>294.0</ele><time>2026-03-28T09:26:23.163Z</time></trkpt><trkpt lat="43.5320037" lon="12.1629599"><ele>294.0</ele><time>2026-03-28T09:26:24.165Z</time></trkpt><trkpt lat="43.5318658" lon="12.1628709"><ele>293.0</ele><time>2026-03-28T09:26:25.167Z</time></trkpt><trkpt lat="43.5317304" lon="12.1627796"><ele>292.0</ele><time>2026-03-28T09:26:26.18Z</time></trkpt><trkpt lat="43.531595" lon="12.1626875"><ele>291.0</ele><time>2026-03-28T09:26:27.167Z</time></trkpt><trkpt lat="43.5314593" lon="12.1625944"><ele>291.0</ele><time>2026-03-28T09:26:28.16Z</time></trkpt><trkpt lat="43.5313251" lon="12.1624998"><ele>291.0</ele><time>2026-03-28T09:26:29.172Z</time></trkpt><trkpt lat="43.5311949" lon="12.1624068"><ele>291.0</ele><time>2026-03-28T09:26:30.171Z</time></trkpt><trkpt lat="43.5310646" lon="12.1623157"><ele>291.0</ele><time>2026-03-28T09:26:31.161Z</time></trkpt><trkpt lat="43.5309322" lon="12.1622255"><ele>291.0</ele><time>2026-03-28T09:26:32.17Z</time></trkpt><trkpt lat="43.5307998" lon="12.1621355"><ele>291.0</ele><time>2026-03-28T09:26:33.163Z</time></trkpt><trkpt lat="43.5306659" lon="12.1620423"><ele>291.0</ele><time>2026-03-28T09:26:34.161Z</time></trkpt><trkpt lat="43.5305313" lon="12.1619476"><ele>291.0</ele><time>2026-03-28T09:26:35.166Z</time></trkpt><trkpt lat="43.5303954" lon="12.1618526"><ele>291.3333333333333</ele><time>2026-03-28T09:26:36.155Z</time></trkpt><trkpt lat="43.5302585" lon="12.1617589"><ele>291.66666666666663</ele><time>2026-03-28T09:26:37.169Z</time></trkpt><trkpt lat="43.5301206" lon="12.1616646"><ele>292.0</ele><time>2026-03-28T09:26:38.169Z</time></trkpt><trkpt lat="43.5299811" lon="12.1615693"><ele>292.0</ele><time>2026-03-28T09:26:39.179Z</time></trkpt><trkpt lat="43.5298409" lon="12.1614723"><ele>292.0</ele><time>2026-03-28T09:26:40.166Z</time></trkpt><trkpt lat="43.5296997" lon="12.1613735"><ele>292.0</ele><time>2026-03-28T09:26:41.167Z</time></trkpt><trkpt lat="43.5295577" lon="12.1612729"><ele>292.0</ele><time>2026-03-28T09:26:42.161Z</time></trkpt><trkpt lat="43.5294143" lon="12.1611724"><ele>292.0</ele><time>2026-03-28T09:26:43.173Z</time></trkpt><trkpt lat="43.529271" lon="12.1610705"><ele>292.0</ele><time>2026-03-28T09:26:44.166Z</time></trkpt><trkpt lat="43.5291272" lon="12.1609663"><ele>292.0</ele><time>2026-03-28T09:26:45.165Z</time></trkpt><trkpt lat="43.5289819" lon="12.1608633"><ele>292.0</ele><time>2026-03-28T09:26:46.159Z</time></trkpt><trkpt lat="43.5288358" lon="12.160763"><ele>292.0</ele><time>2026-03-28T09:26:47.179Z</time></trkpt><trkpt lat="43.5286892" lon="12.1606636"><ele>292.0</ele><time>2026-03-28T09:26:48.17Z</time></trkpt><trkpt lat="43.5285425" lon="12.1605644"><ele>292.0</ele><time>2026-03-28T09:26:49.172Z</time></trkpt><trkpt lat="43.528397" lon="12.1604635"><ele>292.0</ele><time>2026-03-28T09:26:50.162Z</time></trkpt><trkpt lat="43.528252" lon="12.160362"><ele>292.0</ele><time>2026-03-28T09:26:51.167Z</time></trkpt><trkpt lat="43.5281073" lon="12.1602615"><ele>292.0</ele><time>2026-03-28T09:26:52.174Z</time></trkpt><trkpt lat="43.5279629" lon="12.160161"><ele>292.0</ele><time>2026-03-28T09:26:53.181Z</time></trkpt><trkpt lat="43.5278194" lon="12.16006"><ele>292.0</ele><time>2026-03-28T09:26:54.17Z</time></trkpt><trkpt lat="43.5276759" lon="12.1599596"><ele>292.0</ele><time>2026-03-28T09:26:55.169Z</time></trkpt><trkpt lat="43.5275328" lon="12.1598596"><ele>292.0</ele><time>2026-03-28T09:26:56.171Z</time></trkpt><trkpt lat="43.5273903" lon="12.15976"><ele>292.3333333333333</ele><time>2026-03-28T09:26:57.163Z</time></trkpt><trkpt lat="43.5272485" lon="12.1596619"><ele>292.6666666666667</ele><time>2026-03-28T09:26:58.167Z</time></trkpt><trkpt lat="43.5271081" lon="12.1595645"><ele>293.0</ele><time>2026-03-28T09:26:59.17Z</time></trkpt><trkpt lat="43.5269712" lon="12.1594617"><ele>292.33333333333337</ele><time>2026-03-28T09:27:00.174Z</time></trkpt><trkpt lat="43.5268399" lon="12.1593521"><ele>291.6666666666667</ele><time>2026-03-28T09:27:01.168Z</time></trkpt><trkpt lat="43.5267126" lon="12.1592361"><ele>291.0</ele><time>2026-03-28T09:27:02.17Z</time></trkpt><trkpt lat="43.5265896" lon="12.1591123"><ele>291.0</ele><time>2026-03-28T09:27:03.167Z</time></trkpt><trkpt lat="43.5264697" lon="12.1589815"><ele>291.0</ele><time>2026-03-28T09:27:04.163Z</time></trkpt><trkpt lat="43.5263539" lon="12.1588429"><ele>291.0</ele><time>2026-03-28T09:27:05.167Z</time></trkpt><trkpt lat="43.5262418" lon="12.1586947"><ele>291.3333333333333</ele><time>2026-03-28T09:27:06.162Z</time></trkpt><trkpt lat="43.5261357" lon="12.1585348"><ele>291.66666666666663</ele><time>2026-03-28T09:27:07.177Z</time></trkpt><trkpt lat="43.5260386" lon="12.1583637"><ele>292.0</ele><time>2026-03-28T09:27:08.178Z</time></trkpt><trkpt lat="43.5259483" lon="12.1581871"><ele>292.0</ele><time>2026-03-28T09:27:09.166Z</time></trkpt><trkpt lat="43.5258627" lon="12.1580091"><ele>292.0</ele><time>2026-03-28T09:27:10.166Z</time></trkpt><trkpt lat="43.5257818" lon="12.1578285"><ele>292.0</ele><time>2026-03-28T09:27:11.164Z</time></trkpt><trkpt lat="43.5257031" lon="12.1576464"><ele>292.0</ele><time>2026-03-28T09:27:12.168Z</time></trkpt><trkpt lat="43.525627" lon="12.1574622"><ele>292.0</ele><time>2026-03-28T09:27:13.167Z</time></trkpt><trkpt lat="43.5255515" lon="12.1572776"><ele>292.0</ele><time>2026-03-28T09:27:14.165Z</time></trkpt><trkpt lat="43.5254767" lon="12.1570998"><ele>292.0</ele><time>2026-03-28T09:27:15.167Z</time></trkpt><trkpt lat="43.5254039" lon="12.1569351"><ele>292.0</ele><time>2026-03-28T09:27:16.169Z</time></trkpt><trkpt lat="43.5253337" lon="12.1567812"><ele>292.0</ele><time>2026-03-28T09:27:17.168Z</time></trkpt><trkpt lat="43.525264" lon="12.1566399"><ele>292.0</ele><time>2026-03-28T09:27:18.174Z</time></trkpt><trkpt lat="43.525192" lon="12.1565252"><ele>292.0</ele><time>2026-03-28T09:27:19.169Z</time></trkpt><trkpt lat="43.5251164" lon="12.1564343"><ele>292.0</ele><time>2026-03-28T09:27:20.167Z</time></trkpt><trkpt lat="43.5250471" lon="12.1563683"><ele>292.0</ele><time>2026-03-28T09:27:21.167Z</time></trkpt><trkpt lat="43.5249657" lon="12.1563299"><ele>292.0</ele><time>2026-03-28T09:27:23.157Z</time></trkpt><trkpt lat="43.5249744" lon="12.1564489"><ele>292.0</ele><time>2026-03-28T09:27:26.162Z</time></trkpt><trkpt lat="43.5250189" lon="12.156518"><ele>292.0</ele><time>2026-03-28T09:27:27.155Z</time></trkpt><trkpt lat="43.5250802" lon="12.1566003"><ele>292.16666666666663</ele><time>2026-03-28T09:27:28.165Z</time></trkpt><trkpt lat="43.5251287" lon="12.156683"><ele>292.3333333333333</ele><time>2026-03-28T09:27:29.163Z</time></trkpt><trkpt lat="43.5251671" lon="12.1567638"><ele>292.5</ele><time>2026-03-28T09:27:30.166Z</time></trkpt><trkpt lat="43.5252013" lon="12.1568411"><ele>292.6666666666667</ele><time>2026-03-28T09:27:31.169Z</time></trkpt><trkpt lat="43.5252439" lon="12.1569534"><ele>292.83333333333337</ele><time>2026-03-28T09:27:33.168Z</time></trkpt><trkpt lat="43.5252165" lon="12.157058"><ele>293.0</ele><time>2026-03-28T09:27:36.173Z</time></trkpt><trkpt lat="43.5251645" lon="12.1571236"><ele>293.0</ele><time>2026-03-28T09:27:38.164Z</time></trkpt><trkpt lat="43.5250886" lon="12.1572072"><ele>293.0</ele><time>2026-03-28T09:27:42.177Z</time></trkpt><trkpt lat="43.5250295" lon="12.1572686"><ele>293.0</ele><time>2026-03-28T09:27:44.167Z</time></trkpt><trkpt lat="43.5249772" lon="12.1573278"><ele>293.0</ele><time>2026-03-28T09:27:46.167Z</time></trkpt><trkpt lat="43.5248843" lon="12.1574185"><ele>293.0</ele><time>2026-03-28T09:27:48.173Z</time></trkpt><trkpt lat="43.5248027" lon="12.1574959"><ele>292.83333333333337</ele><time>2026-03-28T09:27:50.168Z</time></trkpt><trkpt lat="43.5247108" lon="12.1575686"><ele>292.6666666666667</ele><time>2026-03-28T09:27:52.162Z</time></trkpt><trkpt lat="43.5246533" lon="12.1576053"><ele>292.5</ele><time>2026-03-28T09:27:53.165Z</time></trkpt><trkpt lat="43.5245985" lon="12.1576559"><ele>292.3333333333333</ele><time>2026-03-28T09:27:54.169Z</time></trkpt><trkpt lat="43.5245328" lon="12.1577037"><ele>292.16666666666663</ele><time>2026-03-28T09:27:55.171Z</time></trkpt><trkpt lat="43.5244093" lon="12.1577932"><ele>292.0</ele><time>2026-03-28T09:27:57.171Z</time></trkpt><trkpt lat="43.5243344" lon="12.1578447"><ele>292.0</ele><time>2026-03-28T09:27:58.177Z</time></trkpt><trkpt lat="43.5242685" lon="12.157892"><ele>292.0</ele><time>2026-03-28T09:27:59.172Z</time></trkpt><trkpt lat="43.5242041" lon="12.1579458"><ele>292.0</ele><time>2026-03-28T09:28:00.164Z</time></trkpt><trkpt lat="43.5241043" lon="12.158017"><ele>292.0</ele><time>2026-03-28T09:28:02.177Z</time></trkpt><trkpt lat="43.5240223" lon="12.1580705"><ele>292.0</ele><time>2026-03-28T09:28:04.172Z</time></trkpt><trkpt lat="43.5239401" lon="12.1581272"><ele>292.0</ele><time>2026-03-28T09:28:06.172Z</time></trkpt><trkpt lat="43.5238415" lon="12.1582056"><ele>292.0</ele><time>2026-03-28T09:28:08.172Z</time></trkpt><trkpt lat="43.5237862" lon="12.1582505"><ele>292.0</ele><time>2026-03-28T09:28:09.171Z</time></trkpt><trkpt lat="43.5237286" lon="12.1583004"><ele>292.0</ele><time>2026-03-28T09:28:10.171Z</time></trkpt><trkpt lat="43.5236672" lon="12.158354"><ele>292.0</ele><time>2026-03-28T09:28:11.173Z</time></trkpt><trkpt lat="43.5236035" lon="12.1584139"><ele>292.0</ele><time>2026-03-28T09:28:12.179Z</time></trkpt><trkpt lat="43.52354" lon="12.1584645"><ele>292.0</ele><time>2026-03-28T09:28:13.178Z</time></trkpt><trkpt lat="43.523482" lon="12.1585106"><ele>292.0</ele><time>2026-03-28T09:28:14.174Z</time></trkpt><trkpt lat="43.5234007" lon="12.1585936"><ele>292.0</ele><time>2026-03-28T09:28:16.178Z</time></trkpt><trkpt lat="43.5232979" lon="12.1586935"><ele>292.0</ele><time>2026-03-28T09:28:18.168Z</time></trkpt><trkpt lat="43.523242" lon="12.1587467"><ele>292.0</ele><time>2026-03-28T09:28:19.171Z</time></trkpt><trkpt lat="43.5231869" lon="12.1588046"><ele>292.0</ele><time>2026-03-28T09:28:20.169Z</time></trkpt><trkpt lat="43.523131" lon="12.1588706"><ele>292.0</ele><time>2026-03-28T09:28:21.175Z</time></trkpt><trkpt lat="43.523076" lon="12.1589361"><ele>292.0</ele><time>2026-03-28T09:28:22.173Z</time></trkpt><trkpt lat="43.523028" lon="12.1589933"><ele>291.8333333333333</ele><time>2026-03-28T09:28:23.165Z</time></trkpt><trkpt lat="43.522963" lon="12.1590752"><ele>291.66666666666663</ele><time>2026-03-28T09:28:25.175Z</time></trkpt><trkpt lat="43.5229123" lon="12.1591358"><ele>291.5</ele><time>2026-03-28T09:28:27.169Z</time></trkpt><trkpt lat="43.5228323" lon="12.1592398"><ele>291.3333333333333</ele><time>2026-03-28T09:28:29.181Z</time></trkpt><trkpt lat="43.5227665" lon="12.1593237"><ele>291.1666666666667</ele><time>2026-03-28T09:28:30.17Z</time></trkpt><trkpt lat="43.5227171" lon="12.1593996"><ele>291.0</ele><time>2026-03-28T09:28:31.169Z</time></trkpt><trkpt lat="43.5226624" lon="12.1594728"><ele>291.0</ele><time>2026-03-28T09:28:32.168Z</time></trkpt><trkpt lat="43.5226044" lon="12.159546"><ele>291.0</ele><time>2026-03-28T09:28:33.169Z</time></trkpt><trkpt lat="43.5225548" lon="12.1596098"><ele>291.0</ele><time>2026-03-28T09:28:34.171Z</time></trkpt><trkpt lat="43.5224864" lon="12.1596978"><ele>291.0</ele><time>2026-03-28T09:28:36.177Z</time></trkpt><trkpt lat="43.5223892" lon="12.1598011"><ele>291.0</ele><time>2026-03-28T09:28:38.171Z</time></trkpt><trkpt lat="43.5223293" lon="12.1598523"><ele>291.0</ele><time>2026-03-28T09:28:39.175Z</time></trkpt><trkpt lat="43.5222727" lon="12.1598979"><ele>291.0</ele><time>2026-03-28T09:28:40.168Z</time></trkpt><trkpt lat="43.5221833" lon="12.1599637"><ele>291.0</ele><time>2026-03-28T09:28:42.176Z</time></trkpt><trkpt lat="43.5221013" lon="12.1600127"><ele>291.0</ele><time>2026-03-28T09:28:44.17Z</time></trkpt><trkpt lat="43.5219904" lon="12.1600737"><ele>291.0</ele><time>2026-03-28T09:28:46.172Z</time></trkpt><trkpt lat="43.5219138" lon="12.1601063"><ele>291.0</ele><time>2026-03-28T09:28:47.173Z</time></trkpt><trkpt lat="43.5218468" lon="12.1601394"><ele>290.6</ele><time>2026-03-28T09:28:48.17Z</time></trkpt><trkpt lat="43.5217755" lon="12.1601627"><ele>290.20000000000005</ele><time>2026-03-28T09:28:49.17Z</time></trkpt><trkpt lat="43.5216617" lon="12.1601687"><ele>289.79999999999995</ele><time>2026-03-28T09:28:51.179Z</time></trkpt><trkpt lat="43.5215691" lon="12.1602026"><ele>289.4</ele><time>2026-03-28T09:28:53.164Z</time></trkpt><trkpt lat="43.5214802" lon="12.1602332"><ele>289.0</ele><time>2026-03-28T09:28:55.177Z</time></trkpt><trkpt lat="43.5214072" lon="12.1602674"><ele>289.0</ele><time>2026-03-28T09:28:57.179Z</time></trkpt><trkpt lat="43.5213015" lon="12.1603128"><ele>289.0</ele><time>2026-03-28T09:28:59.166Z</time></trkpt><trkpt lat="43.5212389" lon="12.1603352"><ele>289.0</ele><time>2026-03-28T09:29:00.172Z</time></trkpt><trkpt lat="43.5211663" lon="12.1603578"><ele>289.0</ele><time>2026-03-28T09:29:01.175Z</time></trkpt><trkpt lat="43.521086" lon="12.1603796"><ele>289.0</ele><time>2026-03-28T09:29:02.173Z</time></trkpt><trkpt lat="43.521007" lon="12.1604017"><ele>289.0</ele><time>2026-03-28T09:29:03.171Z</time></trkpt><trkpt lat="43.5209419" lon="12.1604135"><ele>289.3333333333333</ele><time>2026-03-28T09:29:04.172Z</time></trkpt><trkpt lat="43.5208212" lon="12.1604548"><ele>289.66666666666663</ele><time>2026-03-28T09:29:06.196Z</time></trkpt><trkpt lat="43.5207539" lon="12.1604571"><ele>290.0</ele><time>2026-03-28T09:29:07.171Z</time></trkpt><trkpt lat="43.5206743" lon="12.1604712"><ele>290.3333333333333</ele><time>2026-03-28T09:29:08.172Z</time></trkpt><trkpt lat="43.5206024" lon="12.1605024"><ele>290.6666666666667</ele><time>2026-03-28T09:29:09.173Z</time></trkpt><trkpt lat="43.5205336" lon="12.1605384"><ele>291.0</ele><time>2026-03-28T09:29:10.175Z</time></trkpt><trkpt lat="43.5204676" lon="12.1605793"><ele>291.3333333333333</ele><time>2026-03-28T09:29:11.159Z</time></trkpt><trkpt lat="43.5203878" lon="12.1606212"><ele>291.6666666666667</ele><time>2026-03-28T09:29:12.174Z</time></trkpt><trkpt lat="43.52032" lon="12.1606667"><ele>292.0</ele><time>2026-03-28T09:29:13.169Z</time></trkpt><trkpt lat="43.520262" lon="12.1607021"><ele>292.33333333333337</ele><time>2026-03-28T09:29:14.175Z</time></trkpt><trkpt lat="43.5201691" lon="12.1607522"><ele>292.6666666666667</ele><time>2026-03-28T09:29:16.168Z</time></trkpt><trkpt lat="43.5200873" lon="12.1608159"><ele>293.0</ele><time>2026-03-28T09:29:18.178Z</time></trkpt><trkpt lat="43.5199748" lon="12.1608759"><ele>293.0</ele><time>2026-03-28T09:29:20.182Z</time></trkpt><trkpt lat="43.5199044" lon="12.1609091"><ele>293.0</ele><time>2026-03-28T09:29:21.164Z</time></trkpt><trkpt lat="43.5198406" lon="12.1609377"><ele>293.0</ele><time>2026-03-28T09:29:22.176Z</time></trkpt><trkpt lat="43.5197586" lon="12.1609812"><ele>293.0</ele><time>2026-03-28T09:29:24.167Z</time></trkpt><trkpt lat="43.5196697" lon="12.1610818"><ele>293.0</ele><time>2026-03-28T09:29:26.182Z</time></trkpt><trkpt lat="43.519607" lon="12.1611406"><ele>293.0</ele><time>2026-03-28T09:29:27.179Z</time></trkpt><trkpt lat="43.5195406" lon="12.1611899"><ele>292.6</ele><time>2026-03-28T09:29:28.171Z</time></trkpt><trkpt lat="43.5194639" lon="12.1612395"><ele>292.20000000000005</ele><time>2026-03-28T09:29:29.17Z</time></trkpt><trkpt lat="43.5193792" lon="12.161281"><ele>291.8</ele><time>2026-03-28T09:29:30.163Z</time></trkpt><trkpt lat="43.519284" lon="12.1613368"><ele>291.40000000000003</ele><time>2026-03-28T09:29:31.164Z</time></trkpt><trkpt lat="43.5191962" lon="12.1613956"><ele>291.0</ele><time>2026-03-28T09:29:32.165Z</time></trkpt><trkpt lat="43.5191226" lon="12.1614502"><ele>291.0</ele><time>2026-03-28T09:29:33.171Z</time></trkpt><trkpt lat="43.5190209" lon="12.1615259"><ele>291.0</ele><time>2026-03-28T09:29:35.171Z</time></trkpt><trkpt lat="43.5189364" lon="12.1615794"><ele>291.0</ele><time>2026-03-28T09:29:37.165Z</time></trkpt><trkpt lat="43.5188496" lon="12.1616188"><ele>291.0</ele><time>2026-03-28T09:29:39.166Z</time></trkpt><trkpt lat="43.5187892" lon="12.1616472"><ele>291.0</ele><time>2026-03-28T09:29:40.164Z</time></trkpt><trkpt lat="43.5187166" lon="12.1616811"><ele>291.0</ele><time>2026-03-28T09:29:41.169Z</time></trkpt><trkpt lat="43.5186413" lon="12.1617078"><ele>291.1428571428571</ele><time>2026-03-28T09:29:42.164Z</time></trkpt><trkpt lat="43.5185763" lon="12.1617262"><ele>291.2857142857143</ele><time>2026-03-28T09:29:43.169Z</time></trkpt><trkpt lat="43.5185106" lon="12.1617435"><ele>291.42857142857144</ele><time>2026-03-28T09:29:44.171Z</time></trkpt><trkpt lat="43.5184464" lon="12.1617642"><ele>291.57142857142856</ele><time>2026-03-28T09:29:45.174Z</time></trkpt><trkpt lat="43.5183751" lon="12.161781"><ele>291.7142857142857</ele><time>2026-03-28T09:29:46.169Z</time></trkpt><trkpt lat="43.5183013" lon="12.1617906"><ele>291.85714285714283</ele><time>2026-03-28T09:29:47.166Z</time></trkpt><trkpt lat="43.5182211" lon="12.1618047"><ele>292.0</ele><time>2026-03-28T09:29:48.171Z</time></trkpt><trkpt lat="43.5181392" lon="12.1618224"><ele>292.0</ele><time>2026-03-28T09:29:49.17Z</time></trkpt><trkpt lat="43.5180568" lon="12.1618347"><ele>292.0</ele><time>2026-03-28T09:29:50.175Z</time></trkpt><trkpt lat="43.5179796" lon="12.1618437"><ele>292.0</ele><time>2026-03-28T09:29:51.17Z</time></trkpt><trkpt lat="43.5178974" lon="12.1618503"><ele>292.0</ele><time>2026-03-28T09:29:52.163Z</time></trkpt><trkpt lat="43.5178152" lon="12.1618594"><ele>292.0</ele><time>2026-03-28T09:29:53.168Z</time></trkpt><trkpt lat="43.517733" lon="12.1618692"><ele>292.0</ele><time>2026-03-28T09:29:54.168Z</time></trkpt><trkpt lat="43.5176484" lon="12.1618685"><ele>291.8333333333333</ele><time>2026-03-28T09:29:55.168Z</time></trkpt><trkpt lat="43.517563" lon="12.1618651"><ele>291.66666666666663</ele><time>2026-03-28T09:29:56.168Z</time></trkpt><trkpt lat="43.5174803" lon="12.161868"><ele>291.5</ele><time>2026-03-28T09:29:57.169Z</time></trkpt><trkpt lat="43.5174008" lon="12.1618728"><ele>291.3333333333333</ele><time>2026-03-28T09:29:58.17Z</time></trkpt><trkpt lat="43.5173153" lon="12.1618914"><ele>291.1666666666667</ele><time>2026-03-28T09:29:59.168Z</time></trkpt><trkpt lat="43.5172249" lon="12.1619218"><ele>291.0</ele><time>2026-03-28T09:30:00.161Z</time></trkpt><trkpt lat="43.517134" lon="12.1619582"><ele>290.8333333333333</ele><time>2026-03-28T09:30:01.165Z</time></trkpt><trkpt lat="43.5170556" lon="12.1619906"><ele>290.6666666666667</ele><time>2026-03-28T09:30:02.173Z</time></trkpt><trkpt lat="43.5169767" lon="12.1620193"><ele>290.5</ele><time>2026-03-28T09:30:03.175Z</time></trkpt><trkpt lat="43.5168905" lon="12.1620698"><ele>290.33333333333337</ele><time>2026-03-28T09:30:04.169Z</time></trkpt><trkpt lat="43.5168049" lon="12.1621166"><ele>290.1666666666667</ele><time>2026-03-28T09:30:05.17Z</time></trkpt><trkpt lat="43.5167179" lon="12.162166"><ele>290.0</ele><time>2026-03-28T09:30:06.175Z</time></trkpt><trkpt lat="43.516628" lon="12.1622251"><ele>290.0</ele><time>2026-03-28T09:30:07.167Z</time></trkpt><trkpt lat="43.5165372" lon="12.1622905"><ele>290.0</ele><time>2026-03-28T09:30:08.171Z</time></trkpt><trkpt lat="43.5164594" lon="12.1623458"><ele>290.0</ele><time>2026-03-28T09:30:09.172Z</time></trkpt><trkpt lat="43.5163882" lon="12.1623995"><ele>290.0</ele><time>2026-03-28T09:30:10.168Z</time></trkpt><trkpt lat="43.5163101" lon="12.1624579"><ele>290.0</ele><time>2026-03-28T09:30:11.158Z</time></trkpt><trkpt lat="43.5162227" lon="12.1625256"><ele>290.2</ele><time>2026-03-28T09:30:12.17Z</time></trkpt><trkpt lat="43.5161399" lon="12.1625914"><ele>290.4</ele><time>2026-03-28T09:30:13.171Z</time></trkpt><trkpt lat="43.5160624" lon="12.1626577"><ele>290.6</ele><time>2026-03-28T09:30:14.181Z</time></trkpt><trkpt lat="43.5159924" lon="12.1627307"><ele>290.8</ele><time>2026-03-28T09:30:15.181Z</time></trkpt><trkpt lat="43.5159157" lon="12.162795"><ele>291.0</ele><time>2026-03-28T09:30:16.167Z</time></trkpt><trkpt lat="43.5158335" lon="12.1628799"><ele>291.0</ele><time>2026-03-28T09:30:17.172Z</time></trkpt><trkpt lat="43.5157602" lon="12.1629602"><ele>291.0</ele><time>2026-03-28T09:30:18.169Z</time></trkpt><trkpt lat="43.5156868" lon="12.1630461"><ele>291.0</ele><time>2026-03-28T09:30:19.17Z</time></trkpt><trkpt lat="43.5156131" lon="12.1631338"><ele>291.0</ele><time>2026-03-28T09:30:20.172Z</time></trkpt><trkpt lat="43.5155327" lon="12.1632275"><ele>291.0</ele><time>2026-03-28T09:30:21.178Z</time></trkpt><trkpt lat="43.5154638" lon="12.1633146"><ele>291.1666666666667</ele><time>2026-03-28T09:30:22.18Z</time></trkpt><trkpt lat="43.5154074" lon="12.1633822"><ele>291.3333333333333</ele><time>2026-03-28T09:30:23.173Z</time></trkpt><trkpt lat="43.5153588" lon="12.1634511"><ele>291.5</ele><time>2026-03-28T09:30:24.171Z</time></trkpt><trkpt lat="43.5152894" lon="12.1635199"><ele>291.66666666666663</ele><time>2026-03-28T09:30:26.182Z</time></trkpt><trkpt lat="43.5152112" lon="12.1634808"><ele>291.8333333333333</ele><time>2026-03-28T09:30:30.155Z</time></trkpt><trkpt lat="43.515138" lon="12.1633231"><ele>292.0</ele><time>2026-03-28T09:30:32.172Z</time></trkpt><trkpt lat="43.5150932" lon="12.1632271"><ele>291.66666666666663</ele><time>2026-03-28T09:30:33.171Z</time></trkpt><trkpt lat="43.5150523" lon="12.1631413"><ele>291.3333333333333</ele><time>2026-03-28T09:30:34.169Z</time></trkpt><trkpt lat="43.5150076" lon="12.1630503"><ele>291.0</ele><time>2026-03-28T09:30:35.168Z</time></trkpt><trkpt lat="43.5149647" lon="12.1629621"><ele>290.6666666666667</ele><time>2026-03-28T09:30:36.167Z</time></trkpt><trkpt lat="43.5149221" lon="12.1628725"><ele>290.33333333333337</ele><time>2026-03-28T09:30:37.17Z</time></trkpt><trkpt lat="43.5148785" lon="12.1627886"><ele>290.0</ele><time>2026-03-28T09:30:38.172Z</time></trkpt><trkpt lat="43.5148355" lon="12.1627114"><ele>290.0</ele><time>2026-03-28T09:30:39.172Z</time></trkpt><trkpt lat="43.5147915" lon="12.1626307"><ele>290.0</ele><time>2026-03-28T09:30:40.164Z</time></trkpt><trkpt lat="43.5147521" lon="12.1625571"><ele>290.0</ele><time>2026-03-28T09:30:41.17Z</time></trkpt><trkpt lat="43.5147106" lon="12.1624805"><ele>290.0</ele><time>2026-03-28T09:30:42.166Z</time></trkpt><trkpt lat="43.5146659" lon="12.1623996"><ele>290.0</ele><time>2026-03-28T09:30:43.172Z</time></trkpt><trkpt lat="43.5146188" lon="12.1623142"><ele>290.0</ele><time>2026-03-28T09:30:44.169Z</time></trkpt><trkpt lat="43.514573" lon="12.1622295"><ele>290.0</ele><time>2026-03-28T09:30:45.168Z</time></trkpt><trkpt lat="43.5145332" lon="12.1621505"><ele>290.0</ele><time>2026-03-28T09:30:46.172Z</time></trkpt><trkpt lat="43.5144656" lon="12.1620193"><ele>290.0</ele><time>2026-03-28T09:30:48.163Z</time></trkpt><trkpt lat="43.5144207" lon="12.1619358"><ele>290.0</ele><time>2026-03-28T09:30:50.165Z</time></trkpt><trkpt lat="43.5143649" lon="12.1618414"><ele>290.0</ele><time>2026-03-28T09:30:52.171Z</time></trkpt><trkpt lat="43.5142931" lon="12.1617096"><ele>290.0</ele><time>2026-03-28T09:30:54.173Z</time></trkpt><trkpt lat="43.5142486" lon="12.1616242"><ele>290.0</ele><time>2026-03-28T09:30:56.171Z</time></trkpt><trkpt lat="43.5142105" lon="12.1615494"><ele>290.0</ele><time>2026-03-28T09:30:59.169Z</time></trkpt><trkpt lat="43.5141621" lon="12.1614584"><ele>290.0</ele><time>2026-03-28T09:31:02.172Z</time></trkpt><trkpt lat="43.5141223" lon="12.1613862"><ele>290.0</ele><time>2026-03-28T09:31:04.182Z</time></trkpt><trkpt lat="43.5140858" lon="12.1613125"><ele>290.0</ele><time>2026-03-28T09:31:06.17Z</time></trkpt><trkpt lat="43.5140457" lon="12.1612388"><ele>290.0</ele><time>2026-03-28T09:31:08.167Z</time></trkpt><trkpt lat="43.5139984" lon="12.1611548"><ele>290.0</ele><time>2026-03-28T09:31:10.17Z</time></trkpt><trkpt lat="43.5139385" lon="12.1610503"><ele>290.0</ele><time>2026-03-28T09:31:12.173Z</time></trkpt><trkpt lat="43.5138919" lon="12.1609689"><ele>290.0</ele><time>2026-03-28T09:31:14.175Z</time></trkpt><trkpt lat="43.5138519" lon="12.1608882"><ele>290.0</ele><time>2026-03-28T09:31:16.162Z</time></trkpt><trkpt lat="43.5137997" lon="12.1607919"><ele>290.0</ele><time>2026-03-28T09:31:18.172Z</time></trkpt><trkpt lat="43.513754" lon="12.1607078"><ele>290.0</ele><time>2026-03-28T09:31:20.178Z</time></trkpt><trkpt lat="43.5137031" lon="12.1606332"><ele>290.0</ele><time>2026-03-28T09:31:23.171Z</time></trkpt><trkpt lat="43.5136567" lon="12.1605619"><ele>290.0</ele><time>2026-03-28T09:31:25.177Z</time></trkpt><trkpt lat="43.5136072" lon="12.1604888"><ele>290.0</ele><time>2026-03-28T09:31:27.171Z</time></trkpt><trkpt lat="43.5135491" lon="12.1604026"><ele>290.0</ele><time>2026-03-28T09:31:29.174Z</time></trkpt><trkpt lat="43.5135011" lon="12.1603438"><ele>290.0</ele><time>2026-03-28T09:31:31.171Z</time></trkpt><trkpt lat="43.5134393" lon="12.1602649"><ele>290.0</ele><time>2026-03-28T09:31:34.174Z</time></trkpt><trkpt lat="43.5133923" lon="12.1601969"><ele>290.0</ele><time>2026-03-28T09:31:36.175Z</time></trkpt><trkpt lat="43.5133327" lon="12.1601349"><ele>290.0</ele><time>2026-03-28T09:31:38.189Z</time></trkpt><trkpt lat="43.5132626" lon="12.1600492"><ele>290.0</ele><time>2026-03-28T09:31:40.168Z</time></trkpt><trkpt lat="43.5131977" lon="12.1599506"><ele>290.0</ele><time>2026-03-28T09:31:42.171Z</time></trkpt><trkpt lat="43.5131533" lon="12.1598754"><ele>290.0</ele><time>2026-03-28T09:31:44.174Z</time></trkpt><trkpt lat="43.513139" lon="12.1597707"><ele>290.0</ele><time>2026-03-28T09:31:46.168Z</time></trkpt><trkpt lat="43.5131271" lon="12.1596314"><ele>290.0</ele><time>2026-03-28T09:31:48.166Z</time></trkpt><trkpt lat="43.5130882" lon="12.1595238"><ele>290.0</ele><time>2026-03-28T09:31:50.176Z</time></trkpt><trkpt lat="43.5130385" lon="12.1594646"><ele>290.0</ele><time>2026-03-28T09:31:52.174Z</time></trkpt><trkpt lat="43.5129706" lon="12.1594327"><ele>290.0</ele><time>2026-03-28T09:31:54.173Z</time></trkpt><trkpt lat="43.5128881" lon="12.1594586"><ele>290.0</ele><time>2026-03-28T09:31:56.165Z</time></trkpt><trkpt lat="43.5128008" lon="12.1595523"><ele>290.0</ele><time>2026-03-28T09:31:58.179Z</time></trkpt><trkpt lat="43.5127203" lon="12.1596403"><ele>290.0</ele><time>2026-03-28T09:32:00.169Z</time></trkpt><trkpt lat="43.5126661" lon="12.1596847"><ele>290.0</ele><time>2026-03-28T09:32:01.171Z</time></trkpt><trkpt lat="43.5125676" lon="12.1597177"><ele>290.0</ele><time>2026-03-28T09:32:03.175Z</time></trkpt><trkpt lat="43.512485" lon="12.1597451"><ele>290.0</ele><time>2026-03-28T09:32:06.167Z</time></trkpt><trkpt lat="43.5125476" lon="12.1597925"><ele>290.0</ele><time>2026-03-28T09:32:10.165Z</time></trkpt><trkpt lat="43.5126445" lon="12.1597735"><ele>290.0</ele><time>2026-03-28T09:32:12.174Z</time></trkpt><trkpt lat="43.5127125" lon="12.1597754"><ele>290.0</ele><time>2026-03-28T09:32:13.176Z</time></trkpt><trkpt lat="43.5127949" lon="12.1598036"><ele>290.0</ele><time>2026-03-28T09:32:14.17Z</time></trkpt><trkpt lat="43.5128828" lon="12.159841"><ele>290.0</ele><time>2026-03-28T09:32:15.167Z</time></trkpt><trkpt lat="43.5129577" lon="12.1598635"><ele>290.0</ele><time>2026-03-28T09:32:16.169Z</time></trkpt><trkpt lat="43.5130202" lon="12.1598846"><ele>290.0</ele><time>2026-03-28T09:32:17.175Z</time></trkpt><trkpt lat="43.5131127" lon="12.1599413"><ele>290.0</ele><time>2026-03-28T09:32:19.173Z</time></trkpt><trkpt lat="43.5131586" lon="12.160033"><ele>290.0</ele><time>2026-03-28T09:32:21.163Z</time></trkpt><trkpt lat="43.5131636" lon="12.1601215"><ele>290.0</ele><time>2026-03-28T09:32:23.17Z</time></trkpt><trkpt lat="43.5131288" lon="12.1602254"><ele>290.0</ele><time>2026-03-28T09:32:25.158Z</time></trkpt><trkpt lat="43.513072" lon="12.1603055"><ele>290.0</ele><time>2026-03-28T09:32:27.166Z</time></trkpt><trkpt lat="43.5129955" lon="12.1603198"><ele>290.0</ele><time>2026-03-28T09:32:29.178Z</time></trkpt><trkpt lat="43.5128841" lon="12.1602541"><ele>290.0</ele><time>2026-03-28T09:32:31.168Z</time></trkpt><trkpt lat="43.5128238" lon="12.1602069"><ele>290.0</ele><time>2026-03-28T09:32:32.16Z</time></trkpt><trkpt lat="43.5127689" lon="12.1601618"><ele>290.0</ele><time>2026-03-28T09:32:33.166Z</time></trkpt><trkpt lat="43.512667" lon="12.1600779"><ele>290.0</ele><time>2026-03-28T09:32:35.166Z</time></trkpt><trkpt lat="43.5125826" lon="12.1600079"><ele>290.0</ele><time>2026-03-28T09:32:37.165Z</time></trkpt><trkpt lat="43.5125059" lon="12.1599738"><ele>290.0</ele><time>2026-03-28T09:32:39.163Z</time></trkpt><trkpt lat="43.5124421" lon="12.1600074"><ele>290.0</ele><time>2026-03-28T09:32:41.176Z</time></trkpt><trkpt lat="43.5123891" lon="12.1601049"><ele>290.0</ele><time>2026-03-28T09:32:43.165Z</time></trkpt><trkpt lat="43.5123596" lon="12.1601818"><ele>290.0</ele><time>2026-03-28T09:32:44.178Z</time></trkpt><trkpt lat="43.5123088" lon="12.1603275"><ele>290.0</ele><time>2026-03-28T09:32:46.164Z</time></trkpt><trkpt lat="43.5122619" lon="12.16047"><ele>290.0</ele><time>2026-03-28T09:32:48.172Z</time></trkpt><trkpt lat="43.5122362" lon="12.1605501"><ele>290.0</ele><time>2026-03-28T09:32:49.165Z</time></trkpt><trkpt lat="43.5122053" lon="12.1606355"><ele>290.0</ele><time>2026-03-28T09:32:50.165Z</time></trkpt><trkpt lat="43.512174" lon="12.1607192"><ele>290.0</ele><time>2026-03-28T09:32:51.168Z</time></trkpt><trkpt lat="43.5121165" lon="12.1608744"><ele>290.0</ele><time>2026-03-28T09:32:53.174Z</time></trkpt><trkpt lat="43.5120867" lon="12.1609609"><ele>290.0</ele><time>2026-03-28T09:32:54.175Z</time></trkpt><trkpt lat="43.5120577" lon="12.1610428"><ele>290.0</ele><time>2026-03-28T09:32:55.167Z</time></trkpt><trkpt lat="43.5120277" lon="12.1611219"><ele>290.0</ele><time>2026-03-28T09:32:56.168Z</time></trkpt><trkpt lat="43.5119954" lon="12.1612078"><ele>290.0</ele><time>2026-03-28T09:32:57.173Z</time></trkpt><trkpt lat="43.5119609" lon="12.1612925"><ele>290.0</ele><time>2026-03-28T09:32:58.174Z</time></trkpt><trkpt lat="43.5119252" lon="12.1613786"><ele>290.0</ele><time>2026-03-28T09:32:59.165Z</time></trkpt><trkpt lat="43.5118919" lon="12.1614626"><ele>290.0</ele><time>2026-03-28T09:33:00.164Z</time></trkpt><trkpt lat="43.5118612" lon="12.1615415"><ele>290.0</ele><time>2026-03-28T09:33:01.171Z</time></trkpt><trkpt lat="43.5118135" lon="12.161672"><ele>290.0</ele><time>2026-03-28T09:33:03.167Z</time></trkpt><trkpt lat="43.5117669" lon="12.1617968"><ele>290.0</ele><time>2026-03-28T09:33:05.168Z</time></trkpt><trkpt lat="43.5117265" lon="12.1619085"><ele>290.0</ele><time>2026-03-28T09:33:07.18Z</time></trkpt><trkpt lat="43.5116969" lon="12.1620274"><ele>290.0</ele><time>2026-03-28T09:33:09.173Z</time></trkpt><trkpt lat="43.5116492" lon="12.1621588"><ele>290.0</ele><time>2026-03-28T09:33:11.179Z</time></trkpt><trkpt lat="43.5116117" lon="12.1622532"><ele>290.0</ele><time>2026-03-28T09:33:13.175Z</time></trkpt><trkpt lat="43.5115693" lon="12.1623492"><ele>290.0</ele><time>2026-03-28T09:33:15.173Z</time></trkpt><trkpt lat="43.5115317" lon="12.1624463"><ele>290.0</ele><time>2026-03-28T09:33:17.175Z</time></trkpt><trkpt lat="43.5114971" lon="12.1625378"><ele>290.0</ele><time>2026-03-28T09:33:19.179Z</time></trkpt><trkpt lat="43.5114646" lon="12.1626296"><ele>290.0</ele><time>2026-03-28T09:33:21.168Z</time></trkpt><trkpt lat="43.511433" lon="12.1627108"><ele>290.0</ele><time>2026-03-28T09:33:23.171Z</time></trkpt><trkpt lat="43.511391" lon="12.1627895"><ele>290.0</ele><time>2026-03-28T09:33:25.168Z</time></trkpt><trkpt lat="43.5113534" lon="12.1628805"><ele>290.0</ele><time>2026-03-28T09:33:27.167Z</time></trkpt><trkpt lat="43.5113218" lon="12.1629695"><ele>290.0</ele><time>2026-03-28T09:33:29.171Z</time></trkpt><trkpt lat="43.5112871" lon="12.1630613"><ele>290.0</ele><time>2026-03-28T09:33:31.178Z</time></trkpt><trkpt lat="43.5112449" lon="12.1631757"><ele>290.0</ele><time>2026-03-28T09:33:33.172Z</time></trkpt><trkpt lat="43.511201" lon="12.1632824"><ele>290.0</ele><time>2026-03-28T09:33:35.158Z</time></trkpt><trkpt lat="43.5111439" lon="12.1633508"><ele>290.0</ele><time>2026-03-28T09:33:37.168Z</time></trkpt><trkpt lat="43.5110543" lon="12.163352"><ele>290.0</ele><time>2026-03-28T09:33:39.165Z</time></trkpt><trkpt lat="43.5109689" lon="12.1632886"><ele>290.0</ele><time>2026-03-28T09:33:41.162Z</time></trkpt><trkpt lat="43.5108678" lon="12.1631922"><ele>290.0</ele><time>2026-03-28T09:33:43.172Z</time></trkpt><trkpt lat="43.5108154" lon="12.1631374"><ele>289.8</ele><time>2026-03-28T09:33:44.171Z</time></trkpt><trkpt lat="43.5107163" lon="12.1630338"><ele>289.6</ele><time>2026-03-28T09:33:46.171Z</time></trkpt><trkpt lat="43.5106636" lon="12.1629819"><ele>289.4</ele><time>2026-03-28T09:33:47.164Z</time></trkpt><trkpt lat="43.5105717" lon="12.1628936"><ele>289.2</ele><time>2026-03-28T09:33:49.167Z</time></trkpt><trkpt lat="43.5105043" lon="12.1628393"><ele>289.0</ele><time>2026-03-28T09:33:51.163Z</time></trkpt><trkpt lat="43.5104155" lon="12.1627886"><ele>289.16666666666663</ele><time>2026-03-28T09:33:54.17Z</time></trkpt><trkpt lat="43.5103422" lon="12.1627594"><ele>289.3333333333333</ele><time>2026-03-28T09:33:56.157Z</time></trkpt><trkpt lat="43.5102809" lon="12.1628852"><ele>289.5</ele><time>2026-03-28T09:33:59.165Z</time></trkpt><trkpt lat="43.5102475" lon="12.1629742"><ele>289.6666666666667</ele><time>2026-03-28T09:34:00.167Z</time></trkpt><trkpt lat="43.5102092" lon="12.1630676"><ele>289.83333333333337</ele><time>2026-03-28T09:34:01.166Z</time></trkpt><trkpt lat="43.5101673" lon="12.1631683"><ele>290.0</ele><time>2026-03-28T09:34:02.17Z</time></trkpt><trkpt lat="43.5101229" lon="12.1632762"><ele>290.4</ele><time>2026-03-28T09:34:03.163Z</time></trkpt><trkpt lat="43.5100782" lon="12.1633887"><ele>290.8</ele><time>2026-03-28T09:34:04.178Z</time></trkpt><trkpt lat="43.5100337" lon="12.1635068"><ele>291.2</ele><time>2026-03-28T09:34:05.173Z</time></trkpt><trkpt lat="43.5099871" lon="12.1636304"><ele>291.6</ele><time>2026-03-28T09:34:06.172Z</time></trkpt><trkpt lat="43.5099425" lon="12.1637524"><ele>292.0</ele><time>2026-03-28T09:34:07.184Z</time></trkpt><trkpt lat="43.5098981" lon="12.163872"><ele>292.0</ele><time>2026-03-28T09:34:08.171Z</time></trkpt><trkpt lat="43.5098497" lon="12.1639922"><ele>292.0</ele><time>2026-03-28T09:34:09.169Z</time></trkpt><trkpt lat="43.5097806" lon="12.1641274"><ele>292.0</ele><time>2026-03-28T09:34:10.17Z</time></trkpt><trkpt lat="43.5097054" lon="12.1642697"><ele>292.0</ele><time>2026-03-28T09:34:11.175Z</time></trkpt><trkpt lat="43.509645" lon="12.1643982"><ele>292.0</ele><time>2026-03-28T09:34:12.171Z</time></trkpt><trkpt lat="43.5095829" lon="12.1645243"><ele>292.0</ele><time>2026-03-28T09:34:13.172Z</time></trkpt><trkpt lat="43.5095177" lon="12.164658"><ele>292.0</ele><time>2026-03-28T09:34:14.186Z</time></trkpt><trkpt lat="43.5094526" lon="12.1647826"><ele>292.0</ele><time>2026-03-28T09:34:15.168Z</time></trkpt><trkpt lat="43.5093883" lon="12.1649076"><ele>291.75</ele><time>2026-03-28T09:34:16.174Z</time></trkpt><trkpt lat="43.5093233" lon="12.1650345"><ele>291.5</ele><time>2026-03-28T09:34:17.172Z</time></trkpt><trkpt lat="43.5092543" lon="12.1651664"><ele>291.25</ele><time>2026-03-28T09:34:18.173Z</time></trkpt><trkpt lat="43.5091861" lon="12.1652959"><ele>291.0</ele><time>2026-03-28T09:34:19.177Z</time></trkpt><trkpt lat="43.5091195" lon="12.1654262"><ele>291.0</ele><time>2026-03-28T09:34:20.173Z</time></trkpt><trkpt lat="43.5090607" lon="12.1655543"><ele>291.0</ele><time>2026-03-28T09:34:21.174Z</time></trkpt><trkpt lat="43.5090016" lon="12.1656814"><ele>291.0</ele><time>2026-03-28T09:34:22.172Z</time></trkpt><trkpt lat="43.50894" lon="12.1658098"><ele>291.0</ele><time>2026-03-28T09:34:23.178Z</time></trkpt><trkpt lat="43.508875" lon="12.1659382"><ele>291.0</ele><time>2026-03-28T09:34:24.175Z</time></trkpt><trkpt lat="43.508809" lon="12.1660722"><ele>290.8</ele><time>2026-03-28T09:34:25.182Z</time></trkpt><trkpt lat="43.5087435" lon="12.1662038"><ele>290.6</ele><time>2026-03-28T09:34:26.17Z</time></trkpt><trkpt lat="43.508685" lon="12.1663216"><ele>290.4</ele><time>2026-03-28T09:34:27.181Z</time></trkpt><trkpt lat="43.5086327" lon="12.166429"><ele>290.2</ele><time>2026-03-28T09:34:28.167Z</time></trkpt><trkpt lat="43.5085862" lon="12.1665279"><ele>290.0</ele><time>2026-03-28T09:34:29.176Z</time></trkpt><trkpt lat="43.5085431" lon="12.1666179"><ele>289.83333333333337</ele><time>2026-03-28T09:34:30.169Z</time></trkpt><trkpt lat="43.5084997" lon="12.1666888"><ele>289.6666666666667</ele><time>2026-03-28T09:34:31.181Z</time></trkpt><trkpt lat="43.5084448" lon="12.1667474"><ele>289.5</ele><time>2026-03-28T09:34:32.178Z</time></trkpt><trkpt lat="43.508382" lon="12.1667838"><ele>289.3333333333333</ele><time>2026-03-28T09:34:33.172Z</time></trkpt><trkpt lat="43.5083095" lon="12.1667908"><ele>289.16666666666663</ele><time>2026-03-28T09:34:34.17Z</time></trkpt><trkpt lat="43.5082209" lon="12.16677"><ele>289.0</ele><time>2026-03-28T09:34:35.183Z</time></trkpt><trkpt lat="43.5081252" lon="12.1667317"><ele>289.0</ele><time>2026-03-28T09:34:36.166Z</time></trkpt><trkpt lat="43.5080215" lon="12.1666902"><ele>289.0</ele><time>2026-03-28T09:34:37.169Z</time></trkpt><trkpt lat="43.5079112" lon="12.1666421"><ele>289.0</ele><time>2026-03-28T09:34:38.171Z</time></trkpt><trkpt lat="43.5077946" lon="12.1665914"><ele>289.0</ele><time>2026-03-28T09:34:39.174Z</time></trkpt><trkpt lat="43.50768" lon="12.1665448"><ele>289.0</ele><time>2026-03-28T09:34:40.172Z</time></trkpt><trkpt lat="43.5075649" lon="12.166495"><ele>289.0</ele><time>2026-03-28T09:34:41.17Z</time></trkpt><trkpt lat="43.5074509" lon="12.1664445"><ele>289.0</ele><time>2026-03-28T09:34:42.169Z</time></trkpt><trkpt lat="43.5073355" lon="12.1663953"><ele>289.0</ele><time>2026-03-28T09:34:43.174Z</time></trkpt><trkpt lat="43.507222" lon="12.1663475"><ele>289.0</ele><time>2026-03-28T09:34:44.17Z</time></trkpt><trkpt lat="43.5071123" lon="12.1663024"><ele>289.0</ele><time>2026-03-28T09:34:45.173Z</time></trkpt><trkpt lat="43.5070047" lon="12.1662583"><ele>289.0</ele><time>2026-03-28T09:34:46.181Z</time></trkpt><trkpt lat="43.5068995" lon="12.1662096"><ele>289.0</ele><time>2026-03-28T09:34:47.179Z</time></trkpt><trkpt lat="43.506796" lon="12.1661537"><ele>289.0</ele><time>2026-03-28T09:34:48.172Z</time></trkpt><trkpt lat="43.5066958" lon="12.1660845"><ele>288.75</ele><time>2026-03-28T09:34:49.183Z</time></trkpt><trkpt lat="43.5065978" lon="12.1660071"><ele>288.5</ele><time>2026-03-28T09:34:50.165Z</time></trkpt><trkpt lat="43.5064963" lon="12.1659333"><ele>288.25</ele><time>2026-03-28T09:34:51.177Z</time></trkpt><trkpt lat="43.5063914" lon="12.1658798"><ele>288.0</ele><time>2026-03-28T09:34:52.17Z</time></trkpt><trkpt lat="43.5062722" lon="12.1658362"><ele>288.0</ele><time>2026-03-28T09:34:53.173Z</time></trkpt><trkpt lat="43.5061493" lon="12.1657991"><ele>288.0</ele><time>2026-03-28T09:34:54.177Z</time></trkpt><trkpt lat="43.5060236" lon="12.1657607"><ele>288.0</ele><time>2026-03-28T09:34:55.192Z</time></trkpt><trkpt lat="43.5058932" lon="12.1657202"><ele>288.0</ele><time>2026-03-28T09:34:56.183Z</time></trkpt><trkpt lat="43.50576" lon="12.1656815"><ele>288.25</ele><time>2026-03-28T09:34:57.177Z</time></trkpt><trkpt lat="43.5056255" lon="12.1656399"><ele>288.5</ele><time>2026-03-28T09:34:58.177Z</time></trkpt><trkpt lat="43.5054891" lon="12.1655962"><ele>288.75</ele><time>2026-03-28T09:34:59.175Z</time></trkpt><trkpt lat="43.5053514" lon="12.1655506"><ele>289.0</ele><time>2026-03-28T09:35:00.177Z</time></trkpt><trkpt lat="43.5052132" lon="12.1655044"><ele>289.0</ele><time>2026-03-28T09:35:01.17Z</time></trkpt><trkpt lat="43.5050757" lon="12.1654582"><ele>289.0</ele><time>2026-03-28T09:35:02.174Z</time></trkpt><trkpt lat="43.5049382" lon="12.1654125"><ele>289.0</ele><time>2026-03-28T09:35:03.174Z</time></trkpt><trkpt lat="43.5048004" lon="12.1653679"><ele>289.0</ele><time>2026-03-28T09:35:04.175Z</time></trkpt><trkpt lat="43.5046614" lon="12.1653232"><ele>289.0</ele><time>2026-03-28T09:35:05.18Z</time></trkpt><trkpt lat="43.504523" lon="12.1652789"><ele>289.0</ele><time>2026-03-28T09:35:06.169Z</time></trkpt><trkpt lat="43.5043837" lon="12.1652361"><ele>289.0</ele><time>2026-03-28T09:35:07.179Z</time></trkpt><trkpt lat="43.5042439" lon="12.1651926"><ele>289.0</ele><time>2026-03-28T09:35:08.167Z</time></trkpt><trkpt lat="43.5041028" lon="12.165148"><ele>289.0</ele><time>2026-03-28T09:35:09.179Z</time></trkpt><trkpt lat="43.5039614" lon="12.1651023"><ele>289.0</ele><time>2026-03-28T09:35:10.177Z</time></trkpt><trkpt lat="43.5038201" lon="12.1650577"><ele>289.0</ele><time>2026-03-28T09:35:11.178Z</time></trkpt><trkpt lat="43.5036797" lon="12.1650124"><ele>289.0</ele><time>2026-03-28T09:35:12.168Z</time></trkpt><trkpt lat="43.5035457" lon="12.164967"><ele>288.59999999999997</ele><time>2026-03-28T09:35:13.178Z</time></trkpt><trkpt lat="43.5034221" lon="12.164921"><ele>288.2</ele><time>2026-03-28T09:35:14.175Z</time></trkpt><trkpt lat="43.5033089" lon="12.1648781"><ele>287.79999999999995</ele><time>2026-03-28T09:35:15.172Z</time></trkpt><trkpt lat="43.5032062" lon="12.1648426"><ele>287.4</ele><time>2026-03-28T09:35:16.183Z</time></trkpt><trkpt lat="43.5031135" lon="12.1648132"><ele>287.0</ele><time>2026-03-28T09:35:17.185Z</time></trkpt><trkpt lat="43.5030337" lon="12.1647892"><ele>287.0</ele><time>2026-03-28T09:35:18.163Z</time></trkpt><trkpt lat="43.5029712" lon="12.1647699"><ele>287.0</ele><time>2026-03-28T09:35:19.164Z</time></trkpt><trkpt lat="43.5029085" lon="12.164744"><ele>287.0</ele><time>2026-03-28T09:35:21.171Z</time></trkpt><trkpt lat="43.5028359" lon="12.1647109"><ele>287.0</ele><time>2026-03-28T09:35:28.167Z</time></trkpt><trkpt lat="43.5027371" lon="12.1647643"><ele>287.0</ele><time>2026-03-28T09:35:30.167Z</time></trkpt><trkpt lat="43.502686" lon="12.1648235"><ele>287.0</ele><time>2026-03-28T09:35:31.166Z</time></trkpt><trkpt lat="43.5026456" lon="12.1649635"><ele>287.5</ele><time>2026-03-28T09:35:33.165Z</time></trkpt><trkpt lat="43.5026453" lon="12.1651719"><ele>288.0</ele><time>2026-03-28T09:35:35.173Z</time></trkpt><trkpt lat="43.502629" lon="12.1653142"><ele>288.5</ele><time>2026-03-28T09:35:36.168Z</time></trkpt><trkpt lat="43.5025923" lon="12.1654469"><ele>289.0</ele><time>2026-03-28T09:35:37.171Z</time></trkpt><trkpt lat="43.5025502" lon="12.165583"><ele>288.5</ele><time>2026-03-28T09:35:38.173Z</time></trkpt><trkpt lat="43.5025182" lon="12.1657296"><ele>288.0</ele><time>2026-03-28T09:35:39.173Z</time></trkpt><trkpt lat="43.5024993" lon="12.165885"><ele>287.5</ele><time>2026-03-28T09:35:40.165Z</time></trkpt><trkpt lat="43.5024871" lon="12.1660472"><ele>287.0</ele><time>2026-03-28T09:35:41.166Z</time></trkpt><trkpt lat="43.5024752" lon="12.1662167"><ele>287.0</ele><time>2026-03-28T09:35:42.167Z</time></trkpt><trkpt lat="43.502462" lon="12.1663795"><ele>287.0</ele><time>2026-03-28T09:35:43.162Z</time></trkpt><trkpt lat="43.5024454" lon="12.1665413"><ele>287.0</ele><time>2026-03-28T09:35:44.169Z</time></trkpt><trkpt lat="43.5024201" lon="12.1667039"><ele>287.0</ele><time>2026-03-28T09:35:45.176Z</time></trkpt><trkpt lat="43.5023782" lon="12.1668609"><ele>287.0</ele><time>2026-03-28T09:35:46.173Z</time></trkpt><trkpt lat="43.5023243" lon="12.1670033"><ele>287.0</ele><time>2026-03-28T09:35:47.156Z</time></trkpt><trkpt lat="43.5022729" lon="12.1671357"><ele>287.0</ele><time>2026-03-28T09:35:48.162Z</time></trkpt><trkpt lat="43.5022265" lon="12.1672662"><ele>287.0</ele><time>2026-03-28T09:35:49.17Z</time></trkpt><trkpt lat="43.5021835" lon="12.1674018"><ele>287.0</ele><time>2026-03-28T09:35:50.176Z</time></trkpt><trkpt lat="43.5021373" lon="12.1675393"><ele>287.0</ele><time>2026-03-28T09:35:51.179Z</time></trkpt><trkpt lat="43.5020826" lon="12.1676822"><ele>287.0</ele><time>2026-03-28T09:35:52.178Z</time></trkpt><trkpt lat="43.5020258" lon="12.1678337"><ele>287.0</ele><time>2026-03-28T09:35:53.167Z</time></trkpt><trkpt lat="43.5019763" lon="12.1679953"><ele>287.0</ele><time>2026-03-28T09:35:54.176Z</time></trkpt><trkpt lat="43.5019306" lon="12.1681631"><ele>287.0</ele><time>2026-03-28T09:35:55.174Z</time></trkpt><trkpt lat="43.5018864" lon="12.1683365"><ele>287.0</ele><time>2026-03-28T09:35:56.173Z</time></trkpt><trkpt lat="43.501843" lon="12.168513"><ele>287.0</ele><time>2026-03-28T09:35:57.175Z</time></trkpt><trkpt lat="43.5017999" lon="12.1686913"><ele>287.0</ele><time>2026-03-28T09:35:58.174Z</time></trkpt><trkpt lat="43.5017554" lon="12.1688689"><ele>287.25</ele><time>2026-03-28T09:35:59.177Z</time></trkpt><trkpt lat="43.5017124" lon="12.1690464"><ele>287.5</ele><time>2026-03-28T09:36:00.179Z</time></trkpt><trkpt lat="43.5016713" lon="12.1692208"><ele>287.75</ele><time>2026-03-28T09:36:01.171Z</time></trkpt><trkpt lat="43.5016343" lon="12.169384"><ele>288.0</ele><time>2026-03-28T09:36:02.166Z</time></trkpt><trkpt lat="43.5016017" lon="12.1695411"><ele>288.0</ele><time>2026-03-28T09:36:03.173Z</time></trkpt><trkpt lat="43.50157" lon="12.1696951"><ele>288.0</ele><time>2026-03-28T09:36:04.177Z</time></trkpt><trkpt lat="43.501539" lon="12.1698481"><ele>288.0</ele><time>2026-03-28T09:36:05.164Z</time></trkpt><trkpt lat="43.5015087" lon="12.1700008"><ele>288.0</ele><time>2026-03-28T09:36:06.161Z</time></trkpt><trkpt lat="43.5014788" lon="12.1701536"><ele>288.0</ele><time>2026-03-28T09:36:07.165Z</time></trkpt><trkpt lat="43.5014484" lon="12.1703101"><ele>288.0</ele><time>2026-03-28T09:36:08.167Z</time></trkpt><trkpt lat="43.5014167" lon="12.1704719"><ele>288.0</ele><time>2026-03-28T09:36:09.174Z</time></trkpt><trkpt lat="43.5013833" lon="12.1706354"><ele>288.0</ele><time>2026-03-28T09:36:10.173Z</time></trkpt><trkpt lat="43.501351" lon="12.1707969"><ele>287.8</ele><time>2026-03-28T09:36:11.176Z</time></trkpt><trkpt lat="43.5013212" lon="12.1709464"><ele>287.6</ele><time>2026-03-28T09:36:12.177Z</time></trkpt><trkpt lat="43.5012943" lon="12.1710824"><ele>287.4</ele><time>2026-03-28T09:36:13.168Z</time></trkpt><trkpt lat="43.5012641" lon="12.1712065"><ele>287.2</ele><time>2026-03-28T09:36:14.174Z</time></trkpt><trkpt lat="43.5012253" lon="12.1713263"><ele>287.0</ele><time>2026-03-28T09:36:15.159Z</time></trkpt><trkpt lat="43.5011735" lon="12.1714346"><ele>286.8</ele><time>2026-03-28T09:36:16.158Z</time></trkpt><trkpt lat="43.5011066" lon="12.171523"><ele>286.6</ele><time>2026-03-28T09:36:17.16Z</time></trkpt><trkpt lat="43.501023" lon="12.1715899"><ele>286.40000000000003</ele><time>2026-03-28T09:36:18.165Z</time></trkpt><trkpt lat="43.5009239" lon="12.1716397"><ele>286.2</ele><time>2026-03-28T09:36:19.171Z</time></trkpt><trkpt lat="43.5008261" lon="12.1716759"><ele>286.0</ele><time>2026-03-28T09:36:20.156Z</time></trkpt><trkpt lat="43.5007353" lon="12.1717066"><ele>286.0</ele><time>2026-03-28T09:36:21.173Z</time></trkpt><trkpt lat="43.5006524" lon="12.1717226"><ele>286.0</ele><time>2026-03-28T09:36:22.159Z</time></trkpt><trkpt lat="43.5005761" lon="12.1717181"><ele>286.0</ele><time>2026-03-28T09:36:23.165Z</time></trkpt><trkpt lat="43.5005097" lon="12.171689"><ele>286.0</ele><time>2026-03-28T09:36:24.168Z</time></trkpt><trkpt lat="43.5004068" lon="12.1716135"><ele>286.0</ele><time>2026-03-28T09:36:26.169Z</time></trkpt><trkpt lat="43.5003201" lon="12.1716253"><ele>286.0</ele><time>2026-03-28T09:36:28.165Z</time></trkpt><trkpt lat="43.5002575" lon="12.1717131"><ele>286.0</ele><time>2026-03-28T09:36:30.178Z</time></trkpt><trkpt lat="43.500211" lon="12.1718223"><ele>286.0</ele><time>2026-03-28T09:36:32.171Z</time></trkpt><trkpt lat="43.5001626" lon="12.1719438"><ele>286.0</ele><time>2026-03-28T09:36:34.177Z</time></trkpt><trkpt lat="43.5000877" lon="12.1721101"><ele>286.0</ele><time>2026-03-28T09:36:36.17Z</time></trkpt><trkpt lat="43.5000383" lon="12.1722225"><ele>286.0</ele><time>2026-03-28T09:36:37.176Z</time></trkpt><trkpt lat="43.4999843" lon="12.1723443"><ele>286.0</ele><time>2026-03-28T09:36:38.166Z</time></trkpt><trkpt lat="43.4999213" lon="12.1724827"><ele>286.0</ele><time>2026-03-28T09:36:39.17Z</time></trkpt><trkpt lat="43.4998505" lon="12.1726357"><ele>286.0</ele><time>2026-03-28T09:36:40.17Z</time></trkpt><trkpt lat="43.4997777" lon="12.1727959"><ele>286.0</ele><time>2026-03-28T09:36:41.179Z</time></trkpt><trkpt lat="43.4997122" lon="12.1729462"><ele>286.0</ele><time>2026-03-28T09:36:42.175Z</time></trkpt><trkpt lat="43.4996535" lon="12.1730817"><ele>286.0</ele><time>2026-03-28T09:36:43.171Z</time></trkpt><trkpt lat="43.4996025" lon="12.1731917"><ele>286.0</ele><time>2026-03-28T09:36:44.169Z</time></trkpt><trkpt lat="43.4995506" lon="12.1732732"><ele>286.0</ele><time>2026-03-28T09:36:45.172Z</time></trkpt><trkpt lat="43.4994933" lon="12.1733268"><ele>286.0</ele><time>2026-03-28T09:36:46.177Z</time></trkpt><trkpt lat="43.499419" lon="12.1733549"><ele>286.0</ele><time>2026-03-28T09:36:47.168Z</time></trkpt><trkpt lat="43.4993193" lon="12.1733655"><ele>285.8</ele><time>2026-03-28T09:36:48.176Z</time></trkpt><trkpt lat="43.4992074" lon="12.1733804"><ele>285.6</ele><time>2026-03-28T09:36:49.179Z</time></trkpt><trkpt lat="43.4990971" lon="12.1734152"><ele>285.4</ele><time>2026-03-28T09:36:50.173Z</time></trkpt><trkpt lat="43.498999" lon="12.1734686"><ele>285.2</ele><time>2026-03-28T09:36:51.18Z</time></trkpt><trkpt lat="43.4989145" lon="12.173519"><ele>285.0</ele><time>2026-03-28T09:36:52.166Z</time></trkpt><trkpt lat="43.4988439" lon="12.1735545"><ele>285.0</ele><time>2026-03-28T09:36:53.175Z</time></trkpt><trkpt lat="43.4987815" lon="12.1735799"><ele>285.0</ele><time>2026-03-28T09:36:54.178Z</time></trkpt><trkpt lat="43.498681" lon="12.1736148"><ele>285.0</ele><time>2026-03-28T09:36:56.167Z</time></trkpt><trkpt lat="43.4986141" lon="12.1736348"><ele>285.0</ele><time>2026-03-28T09:36:58.173Z</time></trkpt><trkpt lat="43.4985509" lon="12.1736434"><ele>285.0</ele><time>2026-03-28T09:39:12.166Z</time></trkpt><trkpt lat="43.4984684" lon="12.1736642"><ele>285.0</ele><time>2026-03-28T09:39:14.16Z</time></trkpt><trkpt lat="43.4983779" lon="12.1736861"><ele>285.1666666666667</ele><time>2026-03-28T09:39:16.179Z</time></trkpt><trkpt lat="43.4982834" lon="12.1737344"><ele>285.3333333333333</ele><time>2026-03-28T09:39:18.182Z</time></trkpt><trkpt lat="43.4982066" lon="12.1737942"><ele>285.5</ele><time>2026-03-28T09:39:20.187Z</time></trkpt><trkpt lat="43.4981453" lon="12.173828"><ele>285.66666666666663</ele><time>2026-03-28T09:39:22.191Z</time></trkpt><trkpt lat="43.4980664" lon="12.1738549"><ele>285.8333333333333</ele><time>2026-03-28T09:39:30.197Z</time></trkpt><trkpt lat="43.4979754" lon="12.1738805"><ele>286.0</ele><time>2026-03-28T09:39:32.188Z</time></trkpt><trkpt lat="43.4978989" lon="12.173894"><ele>286.0</ele><time>2026-03-28T09:39:34.187Z</time></trkpt><trkpt lat="43.497835" lon="12.1739025"><ele>286.0</ele><time>2026-03-28T09:39:36.192Z</time></trkpt><trkpt lat="43.4977556" lon="12.1739331"><ele>286.0</ele><time>2026-03-28T09:39:38.178Z</time></trkpt><trkpt lat="43.4976697" lon="12.173926"><ele>286.0</ele><time>2026-03-28T09:39:40.184Z</time></trkpt><trkpt lat="43.4975887" lon="12.1738921"><ele>286.0</ele><time>2026-03-28T09:39:42.187Z</time></trkpt><trkpt lat="43.4974695" lon="12.1738403"><ele>286.0</ele><time>2026-03-28T09:39:44.188Z</time></trkpt><trkpt lat="43.4974013" lon="12.1738024"><ele>286.0</ele><time>2026-03-28T09:39:45.179Z</time></trkpt><trkpt lat="43.4973302" lon="12.1737587"><ele>286.0</ele><time>2026-03-28T09:39:46.182Z</time></trkpt><trkpt lat="43.4972612" lon="12.1737138"><ele>286.0</ele><time>2026-03-28T09:39:47.19Z</time></trkpt><trkpt lat="43.497199" lon="12.173672"><ele>286.0</ele><time>2026-03-28T09:39:48.186Z</time></trkpt><trkpt lat="43.4970953" lon="12.1736111"><ele>286.0</ele><time>2026-03-28T09:39:50.186Z</time></trkpt><trkpt lat="43.4969971" lon="12.1735578"><ele>286.0</ele><time>2026-03-28T09:39:52.185Z</time></trkpt><trkpt lat="43.4969081" lon="12.1735138"><ele>286.2</ele><time>2026-03-28T09:39:54.182Z</time></trkpt><trkpt lat="43.4968021" lon="12.1734915"><ele>286.40000000000003</ele><time>2026-03-28T09:39:56.181Z</time></trkpt><trkpt lat="43.4966822" lon="12.173492"><ele>286.6</ele><time>2026-03-28T09:39:58.183Z</time></trkpt><trkpt lat="43.4966111" lon="12.1735013"><ele>286.8</ele><time>2026-03-28T09:39:59.193Z</time></trkpt><trkpt lat="43.4965474" lon="12.1735123"><ele>287.0</ele><time>2026-03-28T09:40:00.18Z</time></trkpt><trkpt lat="43.496427" lon="12.1735355"><ele>287.0</ele><time>2026-03-28T09:40:02.196Z</time></trkpt><trkpt lat="43.496364" lon="12.1735489"><ele>287.0</ele><time>2026-03-28T09:40:03.2Z</time></trkpt><trkpt lat="43.4962508" lon="12.1735765"><ele>287.0</ele><time>2026-03-28T09:40:05.193Z</time></trkpt><trkpt lat="43.4961521" lon="12.1736087"><ele>287.0</ele><time>2026-03-28T09:40:07.18Z</time></trkpt><trkpt lat="43.49608" lon="12.173665"><ele>287.0</ele><time>2026-03-28T09:40:09.186Z</time></trkpt><trkpt lat="43.4960295" lon="12.1737733"><ele>286.83333333333337</ele><time>2026-03-28T09:40:11.192Z</time></trkpt><trkpt lat="43.4959833" lon="12.173899"><ele>286.6666666666667</ele><time>2026-03-28T09:40:13.187Z</time></trkpt><trkpt lat="43.4959504" lon="12.1740095"><ele>286.5</ele><time>2026-03-28T09:40:15.183Z</time></trkpt><trkpt lat="43.4959187" lon="12.1740954"><ele>286.3333333333333</ele><time>2026-03-28T09:41:29.202Z</time></trkpt><trkpt lat="43.495856" lon="12.1741218"><ele>286.16666666666663</ele><time>2026-03-28T09:41:32.166Z</time></trkpt><trkpt lat="43.4957985" lon="12.1740845"><ele>286.0</ele><time>2026-03-28T09:41:34.174Z</time></trkpt><trkpt lat="43.4957111" lon="12.173986"><ele>286.0</ele><time>2026-03-28T09:41:36.171Z</time></trkpt><trkpt lat="43.4956424" lon="12.1739134"><ele>286.0</ele><time>2026-03-28T09:41:38.196Z</time></trkpt><trkpt lat="43.4955623" lon="12.1739475"><ele>286.0</ele><time>2026-03-28T09:43:14.157Z</time></trkpt><trkpt lat="43.4954856" lon="12.1740363"><ele>286.0</ele><time>2026-03-28T09:43:16.178Z</time></trkpt><trkpt lat="43.4953782" lon="12.1741371"><ele>286.0</ele><time>2026-03-28T09:43:18.184Z</time></trkpt><trkpt lat="43.4953231" lon="12.1741907"><ele>285.99999999999994</ele><time>2026-03-28T09:43:19.18Z</time></trkpt><trkpt lat="43.4952646" lon="12.1742476"><ele>286.0</ele><time>2026-03-28T09:43:20.18Z</time></trkpt><trkpt lat="43.4952034" lon="12.1743054"><ele>286.0</ele><time>2026-03-28T09:43:21.179Z</time></trkpt><trkpt lat="43.495144" lon="12.1743614"><ele>286.0</ele><time>2026-03-28T09:43:22.18Z</time></trkpt><trkpt lat="43.4950822" lon="12.1744206"><ele>286.0</ele><time>2026-03-28T09:43:23.188Z</time></trkpt><trkpt lat="43.49502" lon="12.1744789"><ele>285.99999999999994</ele><time>2026-03-28T09:43:24.182Z</time></trkpt><trkpt lat="43.494964" lon="12.1745344"><ele>286.0</ele><time>2026-03-28T09:43:25.187Z</time></trkpt><trkpt lat="43.4949127" lon="12.1745859"><ele>286.0</ele><time>2026-03-28T09:43:26.186Z</time></trkpt><trkpt lat="43.4948586" lon="12.1746381"><ele>286.0</ele><time>2026-03-28T09:43:27.187Z</time></trkpt><trkpt lat="43.494801" lon="12.1746917"><ele>286.0</ele><time>2026-03-28T09:43:28.181Z</time></trkpt><trkpt lat="43.4947424" lon="12.1747453"><ele>286.0</ele><time>2026-03-28T09:43:29.184Z</time></trkpt><trkpt lat="43.4946888" lon="12.1747957"><ele>286.0</ele><time>2026-03-28T09:43:30.17Z</time></trkpt><trkpt lat="43.4945959" lon="12.174877"><ele>286.0</ele><time>2026-03-28T09:43:32.185Z</time></trkpt><trkpt lat="43.4945231" lon="12.1749437"><ele>285.66666666666663</ele><time>2026-03-28T09:43:34.186Z</time></trkpt><trkpt lat="43.4944423" lon="12.175023"><ele>285.3333333333333</ele><time>2026-03-28T09:43:36.212Z</time></trkpt><trkpt lat="43.4943488" lon="12.1751191"><ele>285.0</ele><time>2026-03-28T09:43:38.18Z</time></trkpt><trkpt lat="43.4943018" lon="12.1751817"><ele>284.6666666666667</ele><time>2026-03-28T09:43:39.182Z</time></trkpt><trkpt lat="43.4942526" lon="12.1752553"><ele>284.33333333333337</ele><time>2026-03-28T09:43:40.181Z</time></trkpt><trkpt lat="43.4941917" lon="12.1753473"><ele>284.0</ele><time>2026-03-28T09:43:41.185Z</time></trkpt><trkpt lat="43.4941259" lon="12.1754476"><ele>284.0</ele><time>2026-03-28T09:43:42.189Z</time></trkpt><trkpt lat="43.4940599" lon="12.1755487"><ele>284.0</ele><time>2026-03-28T09:43:43.183Z</time></trkpt><trkpt lat="43.4940011" lon="12.1756423"><ele>284.0</ele><time>2026-03-28T09:43:44.197Z</time></trkpt><trkpt lat="43.4939413" lon="12.175734"><ele>284.0</ele><time>2026-03-28T09:43:45.175Z</time></trkpt><trkpt lat="43.4938784" lon="12.1758314"><ele>284.0</ele><time>2026-03-28T09:43:46.229Z</time></trkpt><trkpt lat="43.4938164" lon="12.175928"><ele>284.0</ele><time>2026-03-28T09:43:47.197Z</time></trkpt><trkpt lat="43.4937609" lon="12.1760247"><ele>284.0</ele><time>2026-03-28T09:43:48.18Z</time></trkpt><trkpt lat="43.4937131" lon="12.1761138"><ele>284.0</ele><time>2026-03-28T09:43:49.187Z</time></trkpt><trkpt lat="43.4936652" lon="12.1762019"><ele>284.0</ele><time>2026-03-28T09:43:50.188Z</time></trkpt><trkpt lat="43.4936196" lon="12.1762813"><ele>284.0</ele><time>2026-03-28T09:43:51.174Z</time></trkpt><trkpt lat="43.4935729" lon="12.176344"><ele>284.0</ele><time>2026-03-28T09:43:52.182Z</time></trkpt><trkpt lat="43.493479" lon="12.1764164"><ele>284.0</ele><time>2026-03-28T09:43:54.189Z</time></trkpt><trkpt lat="43.4933933" lon="12.1764475"><ele>284.0</ele><time>2026-03-28T09:43:56.167Z</time></trkpt><trkpt lat="43.4932881" lon="12.1764949"><ele>284.0</ele><time>2026-03-28T09:43:58.204Z</time></trkpt><trkpt lat="43.4931797" lon="12.1765756"><ele>284.0</ele><time>2026-03-28T09:44:00.189Z</time></trkpt><trkpt lat="43.4931212" lon="12.1766293"><ele>284.0</ele><time>2026-03-28T09:44:01.181Z</time></trkpt><trkpt lat="43.4930699" lon="12.1766816"><ele>283.8</ele><time>2026-03-28T09:44:02.195Z</time></trkpt><trkpt lat="43.4929948" lon="12.1767796"><ele>283.59999999999997</ele><time>2026-03-28T09:44:04.182Z</time></trkpt><trkpt lat="43.4929292" lon="12.1768842"><ele>283.4</ele><time>2026-03-28T09:44:06.183Z</time></trkpt><trkpt lat="43.4928675" lon="12.1770118"><ele>283.2</ele><time>2026-03-28T09:44:08.186Z</time></trkpt><trkpt lat="43.4928333" lon="12.1770849"><ele>283.0</ele><time>2026-03-28T09:44:09.19Z</time></trkpt><trkpt lat="43.4927697" lon="12.1772246"><ele>283.4</ele><time>2026-03-28T09:44:11.19Z</time></trkpt><trkpt lat="43.4927027" lon="12.1773688"><ele>283.8</ele><time>2026-03-28T09:44:13.163Z</time></trkpt><trkpt lat="43.4926701" lon="12.1774436"><ele>284.2</ele><time>2026-03-28T09:44:14.187Z</time></trkpt><trkpt lat="43.4926163" lon="12.1775791"><ele>284.6</ele><time>2026-03-28T09:44:16.183Z</time></trkpt><trkpt lat="43.4925877" lon="12.1776733"><ele>285.0</ele><time>2026-03-28T09:44:18.164Z</time></trkpt><trkpt lat="43.4926173" lon="12.1775633"><ele>285.0</ele><time>2026-03-28T09:44:41.183Z</time></trkpt><trkpt lat="43.492649" lon="12.1774865"><ele>285.0</ele><time>2026-03-28T09:44:42.183Z</time></trkpt><trkpt lat="43.4926898" lon="12.1773947"><ele>285.0</ele><time>2026-03-28T09:44:43.176Z</time></trkpt><trkpt lat="43.4927309" lon="12.1773036"><ele>285.0</ele><time>2026-03-28T09:44:44.175Z</time></trkpt><trkpt lat="43.4927663" lon="12.1772276"><ele>285.0</ele><time>2026-03-28T09:44:45.194Z</time></trkpt><trkpt lat="43.4928317" lon="12.1770902"><ele>285.0</ele><time>2026-03-28T09:44:47.177Z</time></trkpt><trkpt lat="43.4928859" lon="12.1769732"><ele>285.0</ele><time>2026-03-28T09:44:49.181Z</time></trkpt><trkpt lat="43.492925" lon="12.1768945"><ele>285.0</ele><time>2026-03-28T09:44:51.186Z</time></trkpt><trkpt lat="43.4929548" lon="12.1768128"><ele>285.0</ele><time>2026-03-28T09:45:55.176Z</time></trkpt><trkpt lat="43.4930095" lon="12.1767578"><ele>285.0</ele><time>2026-03-28T09:46:39.179Z</time></trkpt><trkpt lat="43.4929513" lon="12.1768246"><ele>285.0</ele><time>2026-03-28T09:47:10.164Z</time></trkpt><trkpt lat="43.4928911" lon="12.176936"><ele>285.0</ele><time>2026-03-28T09:47:13.165Z</time></trkpt><trkpt lat="43.4928397" lon="12.1770388"><ele>285.0</ele><time>2026-03-28T09:47:15.169Z</time></trkpt><trkpt lat="43.4927771" lon="12.1771757"><ele>285.0</ele><time>2026-03-28T09:47:17.177Z</time></trkpt><trkpt lat="43.492712" lon="12.1773075"><ele>285.0</ele><time>2026-03-28T09:47:19.155Z</time></trkpt><trkpt lat="43.4926523" lon="12.1774426"><ele>285.0</ele><time>2026-03-28T09:47:21.178Z</time></trkpt><trkpt lat="43.492597" lon="12.177595"><ele>285.0</ele><time>2026-03-28T09:47:23.182Z</time></trkpt><trkpt lat="43.4925697" lon="12.1776761"><ele>285.0</ele><time>2026-03-28T09:47:24.182Z</time></trkpt><trkpt lat="43.4925449" lon="12.1777616"><ele>285.0</ele><time>2026-03-28T09:47:25.17Z</time></trkpt><trkpt lat="43.4925253" lon="12.177845"><ele>285.0</ele><time>2026-03-28T09:47:26.194Z</time></trkpt><trkpt lat="43.49251" lon="12.1779335"><ele>285.0</ele><time>2026-03-28T09:47:27.19Z</time></trkpt><trkpt lat="43.4924979" lon="12.1780258"><ele>285.0</ele><time>2026-03-28T09:47:28.179Z</time></trkpt><trkpt lat="43.4924873" lon="12.1781182"><ele>285.0</ele><time>2026-03-28T09:47:29.181Z</time></trkpt><trkpt lat="43.4924772" lon="12.1782144"><ele>284.8333333333333</ele><time>2026-03-28T09:47:30.181Z</time></trkpt><trkpt lat="43.4924687" lon="12.1783067"><ele>284.6666666666667</ele><time>2026-03-28T09:47:31.187Z</time></trkpt><trkpt lat="43.4924467" lon="12.1784577"><ele>284.5</ele><time>2026-03-28T09:47:33.185Z</time></trkpt><trkpt lat="43.4924119" lon="12.1785593"><ele>284.33333333333337</ele><time>2026-03-28T09:47:35.178Z</time></trkpt><trkpt lat="43.4923861" lon="12.1786581"><ele>284.1666666666667</ele><time>2026-03-28T09:47:38.165Z</time></trkpt><trkpt lat="43.4924062" lon="12.1787613"><ele>284.0</ele><time>2026-03-28T09:47:42.173Z</time></trkpt><trkpt lat="43.492471" lon="12.1788322"><ele>284.0</ele><time>2026-03-28T09:47:45.156Z</time></trkpt><trkpt lat="43.4925529" lon="12.1788945"><ele>284.0</ele><time>2026-03-28T09:47:47.208Z</time></trkpt><trkpt lat="43.4926222" lon="12.1789536"><ele>284.0</ele><time>2026-03-28T09:47:50.172Z</time></trkpt><trkpt lat="43.4926823" lon="12.179006"><ele>284.0</ele><time>2026-03-28T09:48:05.177Z</time></trkpt><trkpt lat="43.4927728" lon="12.1790853"><ele>284.0</ele><time>2026-03-28T09:48:07.176Z</time></trkpt><trkpt lat="43.492829" lon="12.1791374"><ele>284.0</ele><time>2026-03-28T09:48:08.179Z</time></trkpt><trkpt lat="43.4928884" lon="12.1791907"><ele>284.0</ele><time>2026-03-28T09:48:09.186Z</time></trkpt><trkpt lat="43.49295" lon="12.1792456"><ele>284.0</ele><time>2026-03-28T09:48:10.174Z</time></trkpt><trkpt lat="43.4930116" lon="12.1793015"><ele>284.0</ele><time>2026-03-28T09:48:11.179Z</time></trkpt><trkpt lat="43.4930732" lon="12.1793586"><ele>284.0</ele><time>2026-03-28T09:48:12.195Z</time></trkpt><trkpt lat="43.4931356" lon="12.1794167"><ele>284.0</ele><time>2026-03-28T09:48:13.176Z</time></trkpt><trkpt lat="43.4931984" lon="12.1794747"><ele>284.0</ele><time>2026-03-28T09:48:14.182Z</time></trkpt><trkpt lat="43.4932592" lon="12.1795309"><ele>284.0</ele><time>2026-03-28T09:48:15.183Z</time></trkpt><trkpt lat="43.4933167" lon="12.1795832"><ele>284.0</ele><time>2026-03-28T09:48:16.19Z</time></trkpt><trkpt lat="43.493371" lon="12.1796328"><ele>284.0</ele><time>2026-03-28T09:48:17.175Z</time></trkpt><trkpt lat="43.4934239" lon="12.1796802"><ele>284.0</ele><time>2026-03-28T09:48:18.176Z</time></trkpt><trkpt lat="43.4935269" lon="12.1797712"><ele>284.0</ele><time>2026-03-28T09:48:20.191Z</time></trkpt><trkpt lat="43.4936341" lon="12.1798643"><ele>284.0</ele><time>2026-03-28T09:48:22.186Z</time></trkpt><trkpt lat="43.4936893" lon="12.1799153"><ele>284.0</ele><time>2026-03-28T09:48:23.186Z</time></trkpt><trkpt lat="43.4937416" lon="12.1799686"><ele>284.1666666666667</ele><time>2026-03-28T09:48:24.182Z</time></trkpt><trkpt lat="43.493793" lon="12.1800232"><ele>284.33333333333337</ele><time>2026-03-28T09:48:25.182Z</time></trkpt><trkpt lat="43.4938476" lon="12.1800797"><ele>284.5</ele><time>2026-03-28T09:48:26.186Z</time></trkpt><trkpt lat="43.4939073" lon="12.1801398"><ele>284.6666666666667</ele><time>2026-03-28T09:48:27.178Z</time></trkpt><trkpt lat="43.4939673" lon="12.1801984"><ele>284.8333333333333</ele><time>2026-03-28T09:48:28.183Z</time></trkpt><trkpt lat="43.4940187" lon="12.180253"><ele>285.0</ele><time>2026-03-28T09:48:29.169Z</time></trkpt><trkpt lat="43.4940944" lon="12.1803757"><ele>285.0</ele><time>2026-03-28T09:48:31.183Z</time></trkpt><trkpt lat="43.4941326" lon="12.1804844"><ele>285.0</ele><time>2026-03-28T09:48:33.181Z</time></trkpt><trkpt lat="43.4941283" lon="12.1805808"><ele>285.0</ele><time>2026-03-28T09:48:35.189Z</time></trkpt><trkpt lat="43.4940817" lon="12.1807081"><ele>285.0</ele><time>2026-03-28T09:48:37.16Z</time></trkpt><trkpt lat="43.4940435" lon="12.1807938"><ele>285.0</ele><time>2026-03-28T09:48:38.179Z</time></trkpt><trkpt lat="43.494005" lon="12.1808781"><ele>285.0</ele><time>2026-03-28T09:48:39.182Z</time></trkpt><trkpt lat="43.4939686" lon="12.1809585"><ele>285.0</ele><time>2026-03-28T09:48:40.19Z</time></trkpt><trkpt lat="43.4939371" lon="12.1810348"><ele>285.0</ele><time>2026-03-28T09:48:41.17Z</time></trkpt><trkpt lat="43.4939077" lon="12.1811139"><ele>285.0</ele><time>2026-03-28T09:48:42.179Z</time></trkpt><trkpt lat="43.4938796" lon="12.1811973"><ele>285.0</ele><time>2026-03-28T09:48:43.19Z</time></trkpt><trkpt lat="43.4938512" lon="12.1812803"><ele>285.0</ele><time>2026-03-28T09:48:44.181Z</time></trkpt><trkpt lat="43.4938209" lon="12.1813569"><ele>285.0</ele><time>2026-03-28T09:48:45.203Z</time></trkpt><trkpt lat="43.4937855" lon="12.1814305"><ele>285.0</ele><time>2026-03-28T09:48:46.178Z</time></trkpt><trkpt lat="43.4937468" lon="12.1815047"><ele>285.1666666666667</ele><time>2026-03-28T09:48:47.168Z</time></trkpt><trkpt lat="43.4937047" lon="12.1815854"><ele>285.3333333333333</ele><time>2026-03-28T09:48:48.184Z</time></trkpt><trkpt lat="43.4936641" lon="12.1816657"><ele>285.5</ele><time>2026-03-28T09:48:49.185Z</time></trkpt><trkpt lat="43.4936256" lon="12.1817449"><ele>285.66666666666663</ele><time>2026-03-28T09:48:50.185Z</time></trkpt><trkpt lat="43.4935912" lon="12.1818213"><ele>285.8333333333333</ele><time>2026-03-28T09:48:51.186Z</time></trkpt><trkpt lat="43.4935302" lon="12.1819592"><ele>286.0</ele><time>2026-03-28T09:48:53.177Z</time></trkpt><trkpt lat="43.4934738" lon="12.1820636"><ele>285.99999999999994</ele><time>2026-03-28T09:48:55.173Z</time></trkpt><trkpt lat="43.4934348" lon="12.1821326"><ele>286.0</ele><time>2026-03-28T09:49:08.171Z</time></trkpt><trkpt lat="43.4933874" lon="12.1822219"><ele>286.0</ele><time>2026-03-28T09:49:11.177Z</time></trkpt><trkpt lat="43.4933411" lon="12.1822859"><ele>286.0</ele><time>2026-03-28T09:49:14.181Z</time></trkpt><trkpt lat="43.4932975" lon="12.1823678"><ele>286.0</ele><time>2026-03-28T09:49:17.181Z</time></trkpt><trkpt lat="43.4932514" lon="12.182431"><ele>285.99999999999994</ele><time>2026-03-28T09:49:19.175Z</time></trkpt><trkpt lat="43.4932124" lon="12.1825142"><ele>286.0</ele><time>2026-03-28T09:49:21.179Z</time></trkpt><trkpt lat="43.4931653" lon="12.1826005"><ele>286.0</ele><time>2026-03-28T09:49:23.167Z</time></trkpt><trkpt lat="43.4930885" lon="12.1827242"><ele>286.0</ele><time>2026-03-28T09:49:25.172Z</time></trkpt><trkpt lat="43.493012" lon="12.1828377"><ele>286.0</ele><time>2026-03-28T09:49:27.195Z</time></trkpt><trkpt lat="43.4929375" lon="12.1829481"><ele>286.0</ele><time>2026-03-28T09:49:29.173Z</time></trkpt><trkpt lat="43.4928632" lon="12.1830559"><ele>286.0</ele><time>2026-03-28T09:49:31.186Z</time></trkpt><trkpt lat="43.4927962" lon="12.1831518"><ele>285.8333333333333</ele><time>2026-03-28T09:49:33.181Z</time></trkpt><trkpt lat="43.492725" lon="12.1832626"><ele>285.66666666666663</ele><time>2026-03-28T09:49:35.187Z</time></trkpt><trkpt lat="43.492656" lon="12.1833688"><ele>285.5</ele><time>2026-03-28T09:49:37.184Z</time></trkpt><trkpt lat="43.4926068" lon="12.1834459"><ele>285.3333333333333</ele><time>2026-03-28T09:49:39.186Z</time></trkpt><trkpt lat="43.4925537" lon="12.1835217"><ele>285.1666666666667</ele><time>2026-03-28T09:49:41.179Z</time></trkpt><trkpt lat="43.4925006" lon="12.1835962"><ele>285.0</ele><time>2026-03-28T09:49:43.187Z</time></trkpt><trkpt lat="43.492454" lon="12.1836616"><ele>285.0</ele><time>2026-03-28T09:49:45.188Z</time></trkpt><trkpt lat="43.4924041" lon="12.1837379"><ele>285.0</ele><time>2026-03-28T09:49:47.194Z</time></trkpt><trkpt lat="43.4923329" lon="12.1838442"><ele>285.0</ele><time>2026-03-28T09:49:49.172Z</time></trkpt><trkpt lat="43.492255" lon="12.1839543"><ele>285.0</ele><time>2026-03-28T09:49:51.188Z</time></trkpt><trkpt lat="43.4921746" lon="12.1840722"><ele>285.0</ele><time>2026-03-28T09:49:53.194Z</time></trkpt><trkpt lat="43.4920934" lon="12.1841962"><ele>284.8</ele><time>2026-03-28T09:49:55.176Z</time></trkpt><trkpt lat="43.4920265" lon="12.1843165"><ele>284.6</ele><time>2026-03-28T09:49:57.186Z</time></trkpt><trkpt lat="43.4919486" lon="12.184445"><ele>284.4</ele><time>2026-03-28T09:49:59.177Z</time></trkpt><trkpt lat="43.4919005" lon="12.1845177"><ele>284.2</ele><time>2026-03-28T09:50:00.184Z</time></trkpt><trkpt lat="43.491855" lon="12.1845866"><ele>284.0</ele><time>2026-03-28T09:50:01.188Z</time></trkpt><trkpt lat="43.4917833" lon="12.1846914"><ele>284.0</ele><time>2026-03-28T09:50:03.187Z</time></trkpt><trkpt lat="43.4917307" lon="12.1847612"><ele>284.0</ele><time>2026-03-28T09:50:05.183Z</time></trkpt><trkpt lat="43.4916597" lon="12.1848226"><ele>284.0</ele><time>2026-03-28T09:50:08.178Z</time></trkpt><trkpt lat="43.4915928" lon="12.1847875"><ele>284.0</ele><time>2026-03-28T09:50:10.171Z</time></trkpt><trkpt lat="43.4914793" lon="12.184714"><ele>284.0</ele><time>2026-03-28T09:50:12.194Z</time></trkpt><trkpt lat="43.4914106" lon="12.1846732"><ele>284.0</ele><time>2026-03-28T09:50:13.178Z</time></trkpt><trkpt lat="43.4913457" lon="12.1846276"><ele>284.0</ele><time>2026-03-28T09:50:14.179Z</time></trkpt><trkpt lat="43.4912876" lon="12.1845811"><ele>284.0</ele><time>2026-03-28T09:50:15.205Z</time></trkpt><trkpt lat="43.4912054" lon="12.184504"><ele>284.0</ele><time>2026-03-28T09:50:17.197Z</time></trkpt><trkpt lat="43.4911476" lon="12.1844471"><ele>284.0</ele><time>2026-03-28T09:50:19.185Z</time></trkpt><trkpt lat="43.491095" lon="12.1843838"><ele>284.0</ele><time>2026-03-28T09:50:21.183Z</time></trkpt><trkpt lat="43.4910222" lon="12.18435"><ele>284.0</ele><time>2026-03-28T09:50:23.181Z</time></trkpt><trkpt lat="43.490958" lon="12.1843499"><ele>284.0</ele><time>2026-03-28T09:50:26.183Z</time></trkpt><trkpt lat="43.4908957" lon="12.1842755"><ele>284.0</ele><time>2026-03-28T09:50:30.163Z</time></trkpt><trkpt lat="43.49082" lon="12.1841784"><ele>284.0</ele><time>2026-03-28T09:50:32.206Z</time></trkpt><trkpt lat="43.4907413" lon="12.1841021"><ele>284.0</ele><time>2026-03-28T09:50:34.181Z</time></trkpt><trkpt lat="43.4906635" lon="12.1840221"><ele>284.0</ele><time>2026-03-28T09:50:36.186Z</time></trkpt><trkpt lat="43.4905942" lon="12.1839414"><ele>284.0</ele><time>2026-03-28T09:50:38.178Z</time></trkpt><trkpt lat="43.4905252" lon="12.1838644"><ele>284.0</ele><time>2026-03-28T09:50:40.178Z</time></trkpt><trkpt lat="43.4904691" lon="12.183805"><ele>284.0</ele><time>2026-03-28T09:50:42.177Z</time></trkpt><trkpt lat="43.4904038" lon="12.1837448"><ele>284.0</ele><time>2026-03-28T09:50:44.179Z</time></trkpt><trkpt lat="43.4903065" lon="12.1836487"><ele>284.0</ele><time>2026-03-28T09:50:46.181Z</time></trkpt><trkpt lat="43.4902444" lon="12.1835882"><ele>284.0</ele><time>2026-03-28T09:50:47.192Z</time></trkpt><trkpt lat="43.4901844" lon="12.1835308"><ele>284.0</ele><time>2026-03-28T09:50:48.191Z</time></trkpt><trkpt lat="43.4901237" lon="12.1834693"><ele>284.0</ele><time>2026-03-28T09:50:49.182Z</time></trkpt><trkpt lat="43.4900632" lon="12.1834058"><ele>284.0</ele><time>2026-03-28T09:50:50.182Z</time></trkpt><trkpt lat="43.490005" lon="12.1833423"><ele>284.0</ele><time>2026-03-28T09:50:51.166Z</time></trkpt><trkpt lat="43.4899464" lon="12.1832785"><ele>284.0</ele><time>2026-03-28T09:50:52.191Z</time></trkpt><trkpt lat="43.4898885" lon="12.1832149"><ele>284.0</ele><time>2026-03-28T09:50:53.181Z</time></trkpt><trkpt lat="43.4898323" lon="12.1831545"><ele>284.0</ele><time>2026-03-28T09:50:54.196Z</time></trkpt><trkpt lat="43.4897809" lon="12.1831007"><ele>284.0</ele><time>2026-03-28T09:50:55.179Z</time></trkpt><trkpt lat="43.4897291" lon="12.1830462"><ele>284.0</ele><time>2026-03-28T09:50:56.185Z</time></trkpt><trkpt lat="43.4896732" lon="12.1829875"><ele>284.0</ele><time>2026-03-28T09:50:57.171Z</time></trkpt><trkpt lat="43.4896129" lon="12.182924"><ele>284.0</ele><time>2026-03-28T09:50:58.174Z</time></trkpt><trkpt lat="43.4895477" lon="12.182857"><ele>284.0</ele><time>2026-03-28T09:50:59.18Z</time></trkpt><trkpt lat="43.4894799" lon="12.1827875"><ele>284.0</ele><time>2026-03-28T09:51:00.177Z</time></trkpt><trkpt lat="43.4894097" lon="12.1827146"><ele>284.0</ele><time>2026-03-28T09:51:01.166Z</time></trkpt><trkpt lat="43.4893403" lon="12.1826391"><ele>284.0</ele><time>2026-03-28T09:51:02.198Z</time></trkpt><trkpt lat="43.4892722" lon="12.1825653"><ele>284.0</ele><time>2026-03-28T09:51:03.186Z</time></trkpt><trkpt lat="43.4892101" lon="12.1825008"><ele>284.0</ele><time>2026-03-28T09:51:04.179Z</time></trkpt><trkpt lat="43.489156" lon="12.1824458"><ele>284.0</ele><time>2026-03-28T09:51:05.191Z</time></trkpt><trkpt lat="43.4890996" lon="12.1823887"><ele>284.0</ele><time>2026-03-28T09:51:06.176Z</time></trkpt><trkpt lat="43.4890373" lon="12.1823246"><ele>284.0</ele><time>2026-03-28T09:51:07.191Z</time></trkpt><trkpt lat="43.4889679" lon="12.1822548"><ele>284.0</ele><time>2026-03-28T09:51:08.184Z</time></trkpt><trkpt lat="43.4888969" lon="12.1821856"><ele>284.0</ele><time>2026-03-28T09:51:09.191Z</time></trkpt><trkpt lat="43.488825" lon="12.1821122"><ele>284.0</ele><time>2026-03-28T09:51:10.188Z</time></trkpt><trkpt lat="43.4887544" lon="12.1820378"><ele>284.0</ele><time>2026-03-28T09:51:11.167Z</time></trkpt><trkpt lat="43.4886807" lon="12.1819626"><ele>284.0</ele><time>2026-03-28T09:51:12.191Z</time></trkpt><trkpt lat="43.4886071" lon="12.1818838"><ele>284.0</ele><time>2026-03-28T09:51:13.189Z</time></trkpt><trkpt lat="43.4885324" lon="12.1818016"><ele>284.0</ele><time>2026-03-28T09:51:14.18Z</time></trkpt><trkpt lat="43.4884573" lon="12.1817178"><ele>284.0</ele><time>2026-03-28T09:51:15.181Z</time></trkpt><trkpt lat="43.4883785" lon="12.1816343"><ele>284.0</ele><time>2026-03-28T09:51:16.18Z</time></trkpt><trkpt lat="43.4883012" lon="12.1815536"><ele>284.0</ele><time>2026-03-28T09:51:17.183Z</time></trkpt><trkpt lat="43.4882239" lon="12.1814748"><ele>284.0</ele><time>2026-03-28T09:51:18.175Z</time></trkpt><trkpt lat="43.4881483" lon="12.1813928"><ele>284.0</ele><time>2026-03-28T09:51:19.186Z</time></trkpt><trkpt lat="43.4880754" lon="12.1813147"><ele>284.0</ele><time>2026-03-28T09:51:20.176Z</time></trkpt><trkpt lat="43.4880052" lon="12.1812409"><ele>284.0</ele><time>2026-03-28T09:51:21.202Z</time></trkpt><trkpt lat="43.487937" lon="12.1811709"><ele>284.0</ele><time>2026-03-28T09:51:22.188Z</time></trkpt><trkpt lat="43.4878675" lon="12.1810976"><ele>284.0</ele><time>2026-03-28T09:51:23.181Z</time></trkpt><trkpt lat="43.4877971" lon="12.1810215"><ele>284.0</ele><time>2026-03-28T09:51:24.18Z</time></trkpt><trkpt lat="43.4877217" lon="12.1809434"><ele>284.0</ele><time>2026-03-28T09:51:25.178Z</time></trkpt><trkpt lat="43.4876465" lon="12.1808673"><ele>284.0</ele><time>2026-03-28T09:51:26.187Z</time></trkpt><trkpt lat="43.4875766" lon="12.1807901"><ele>284.0</ele><time>2026-03-28T09:51:27.194Z</time></trkpt><trkpt lat="43.4875133" lon="12.1807187"><ele>284.0</ele><time>2026-03-28T09:51:28.181Z</time></trkpt><trkpt lat="43.4874555" lon="12.180653"><ele>284.0</ele><time>2026-03-28T09:51:29.189Z</time></trkpt><trkpt lat="43.4873976" lon="12.1805891"><ele>284.2</ele><time>2026-03-28T09:51:30.181Z</time></trkpt><trkpt lat="43.487334" lon="12.1805269"><ele>284.4</ele><time>2026-03-28T09:51:31.181Z</time></trkpt><trkpt lat="43.487263" lon="12.180456"><ele>284.6</ele><time>2026-03-28T09:51:32.173Z</time></trkpt><trkpt lat="43.487189" lon="12.180376"><ele>284.8</ele><time>2026-03-28T09:51:33.17Z</time></trkpt><trkpt lat="43.4871112" lon="12.180293"><ele>285.0</ele><time>2026-03-28T09:51:34.18Z</time></trkpt><trkpt lat="43.4870352" lon="12.1802149"><ele>285.0</ele><time>2026-03-28T09:51:35.184Z</time></trkpt><trkpt lat="43.4869609" lon="12.1801358"><ele>285.0</ele><time>2026-03-28T09:51:36.19Z</time></trkpt><trkpt lat="43.4868833" lon="12.1800543"><ele>285.0</ele><time>2026-03-28T09:51:37.207Z</time></trkpt><trkpt lat="43.486803" lon="12.1799724"><ele>285.0</ele><time>2026-03-28T09:51:38.178Z</time></trkpt><trkpt lat="43.4867234" lon="12.1798917"><ele>285.0</ele><time>2026-03-28T09:51:39.188Z</time></trkpt><trkpt lat="43.4866485" lon="12.1798227"><ele>285.0</ele><time>2026-03-28T09:51:40.186Z</time></trkpt><trkpt lat="43.4865825" lon="12.1797741"><ele>285.0</ele><time>2026-03-28T09:51:41.179Z</time></trkpt><trkpt lat="43.4864708" lon="12.1797439"><ele>285.0</ele><time>2026-03-28T09:51:43.174Z</time></trkpt><trkpt lat="43.486376" lon="12.179763"><ele>285.0</ele><time>2026-03-28T09:51:45.191Z</time></trkpt><trkpt lat="43.4863185" lon="12.1798018"><ele>285.0</ele><time>2026-03-28T09:51:46.188Z</time></trkpt><trkpt lat="43.4862558" lon="12.1798716"><ele>285.0</ele><time>2026-03-28T09:51:47.183Z</time></trkpt><trkpt lat="43.4861923" lon="12.1799679"><ele>285.0</ele><time>2026-03-28T09:51:48.177Z</time></trkpt><trkpt lat="43.4861283" lon="12.1800823"><ele>285.0</ele><time>2026-03-28T09:51:49.173Z</time></trkpt><trkpt lat="43.4860632" lon="12.1802011"><ele>285.0</ele><time>2026-03-28T09:51:50.189Z</time></trkpt><trkpt lat="43.4860044" lon="12.1803146"><ele>285.0</ele><time>2026-03-28T09:51:51.186Z</time></trkpt><trkpt lat="43.4859507" lon="12.1804249"><ele>285.0</ele><time>2026-03-28T09:51:52.188Z</time></trkpt><trkpt lat="43.4858981" lon="12.1805368"><ele>285.0</ele><time>2026-03-28T09:51:53.19Z</time></trkpt><trkpt lat="43.4858473" lon="12.1806534"><ele>285.0</ele><time>2026-03-28T09:51:54.185Z</time></trkpt><trkpt lat="43.4857978" lon="12.1807743"><ele>285.0</ele><time>2026-03-28T09:51:55.189Z</time></trkpt><trkpt lat="43.4857466" lon="12.1808945"><ele>285.0</ele><time>2026-03-28T09:51:56.171Z</time></trkpt><trkpt lat="43.4856934" lon="12.1810121"><ele>285.0</ele><time>2026-03-28T09:51:57.182Z</time></trkpt><trkpt lat="43.4856404" lon="12.1811276"><ele>285.0</ele><time>2026-03-28T09:51:58.191Z</time></trkpt><trkpt lat="43.4855918" lon="12.1812328"><ele>285.0</ele><time>2026-03-28T09:51:59.216Z</time></trkpt><trkpt lat="43.4855466" lon="12.1813278"><ele>285.0</ele><time>2026-03-28T09:52:00.177Z</time></trkpt><trkpt lat="43.4854976" lon="12.1814303"><ele>285.0</ele><time>2026-03-28T09:52:01.195Z</time></trkpt><trkpt lat="43.4854479" lon="12.1815419"><ele>285.0</ele><time>2026-03-28T09:52:02.173Z</time></trkpt><trkpt lat="43.4853979" lon="12.1816514"><ele>285.25</ele><time>2026-03-28T09:52:03.185Z</time></trkpt><trkpt lat="43.4853534" lon="12.1817804"><ele>285.5</ele><time>2026-03-28T09:52:04.161Z</time></trkpt><trkpt lat="43.4853029" lon="12.1819239"><ele>285.75</ele><time>2026-03-28T09:52:05.186Z</time></trkpt><trkpt lat="43.4852475" lon="12.1820808"><ele>286.0</ele><time>2026-03-28T09:52:06.195Z</time></trkpt><trkpt lat="43.4851903" lon="12.1822329"><ele>286.0</ele><time>2026-03-28T09:52:07.187Z</time></trkpt><trkpt lat="43.4851336" lon="12.1823862"><ele>286.0</ele><time>2026-03-28T09:52:08.184Z</time></trkpt><trkpt lat="43.4850856" lon="12.1825309"><ele>286.0</ele><time>2026-03-28T09:52:09.18Z</time></trkpt><trkpt lat="43.4850389" lon="12.1826629"><ele>286.0</ele><time>2026-03-28T09:52:10.173Z</time></trkpt><trkpt lat="43.4849944" lon="12.182786"><ele>286.0</ele><time>2026-03-28T09:52:11.175Z</time></trkpt><trkpt lat="43.4849515" lon="12.1829003"><ele>286.0</ele><time>2026-03-28T09:52:12.166Z</time></trkpt><trkpt lat="43.4849044" lon="12.1830164"><ele>286.0</ele><time>2026-03-28T09:52:13.167Z</time></trkpt><trkpt lat="43.4848558" lon="12.1831389"><ele>286.0</ele><time>2026-03-28T09:52:14.177Z</time></trkpt><trkpt lat="43.4848044" lon="12.1832767"><ele>286.0</ele><time>2026-03-28T09:52:15.168Z</time></trkpt><trkpt lat="43.4847537" lon="12.1834194"><ele>286.0</ele><time>2026-03-28T09:52:16.182Z</time></trkpt><trkpt lat="43.4846994" lon="12.1835665"><ele>285.5</ele><time>2026-03-28T09:52:17.183Z</time></trkpt><trkpt lat="43.4846432" lon="12.1837142"><ele>285.0</ele><time>2026-03-28T09:52:18.187Z</time></trkpt><trkpt lat="43.4845815" lon="12.1838604"><ele>284.5</ele><time>2026-03-28T09:52:19.203Z</time></trkpt><trkpt lat="43.4845222" lon="12.1840157"><ele>284.0</ele><time>2026-03-28T09:52:20.181Z</time></trkpt><trkpt lat="43.4844619" lon="12.1841739"><ele>284.0</ele><time>2026-03-28T09:52:21.176Z</time></trkpt><trkpt lat="43.4844017" lon="12.1843246"><ele>284.0</ele><time>2026-03-28T09:52:22.174Z</time></trkpt><trkpt lat="43.4843398" lon="12.1844708"><ele>284.0</ele><time>2026-03-28T09:52:23.179Z</time></trkpt><trkpt lat="43.4842788" lon="12.1846153"><ele>284.0</ele><time>2026-03-28T09:52:24.203Z</time></trkpt><trkpt lat="43.4842158" lon="12.1847667"><ele>284.0</ele><time>2026-03-28T09:52:25.186Z</time></trkpt><trkpt lat="43.484152" lon="12.1849213"><ele>284.0</ele><time>2026-03-28T09:52:26.187Z</time></trkpt><trkpt lat="43.4840851" lon="12.1850783"><ele>284.0</ele><time>2026-03-28T09:52:27.178Z</time></trkpt><trkpt lat="43.4840171" lon="12.1852354"><ele>284.0</ele><time>2026-03-28T09:52:28.179Z</time></trkpt><trkpt lat="43.4839519" lon="12.1853795"><ele>284.0</ele><time>2026-03-28T09:52:29.178Z</time></trkpt><trkpt lat="43.4838931" lon="12.1855147"><ele>284.0</ele><time>2026-03-28T09:52:30.18Z</time></trkpt><trkpt lat="43.4838395" lon="12.1856545"><ele>284.0</ele><time>2026-03-28T09:52:31.201Z</time></trkpt><trkpt lat="43.4837814" lon="12.1857947"><ele>284.0</ele><time>2026-03-28T09:52:32.173Z</time></trkpt><trkpt lat="43.4837246" lon="12.1859355"><ele>283.8</ele><time>2026-03-28T09:52:33.18Z</time></trkpt><trkpt lat="43.4836696" lon="12.1860745"><ele>283.59999999999997</ele><time>2026-03-28T09:52:34.2Z</time></trkpt><trkpt lat="43.4836202" lon="12.1861983"><ele>283.4</ele><time>2026-03-28T09:52:35.183Z</time></trkpt><trkpt lat="43.4835765" lon="12.1863044"><ele>283.2</ele><time>2026-03-28T09:52:36.188Z</time></trkpt><trkpt lat="43.4835339" lon="12.1864157"><ele>283.0</ele><time>2026-03-28T09:52:37.193Z</time></trkpt><trkpt lat="43.4834911" lon="12.186521"><ele>283.0</ele><time>2026-03-28T09:52:38.174Z</time></trkpt><trkpt lat="43.4834509" lon="12.1866149"><ele>283.0</ele><time>2026-03-28T09:52:39.177Z</time></trkpt><trkpt lat="43.4834167" lon="12.1866897"><ele>283.0</ele><time>2026-03-28T09:52:40.177Z</time></trkpt><trkpt lat="43.483376" lon="12.1867701"><ele>283.0</ele><time>2026-03-28T09:52:42.186Z</time></trkpt><trkpt lat="43.4833488" lon="12.1868543"><ele>283.0</ele><time>2026-03-28T09:52:48.173Z</time></trkpt><trkpt lat="43.4833028" lon="12.1869536"><ele>283.0</ele><time>2026-03-28T09:52:50.182Z</time></trkpt><trkpt lat="43.4832504" lon="12.1870303"><ele>283.0</ele><time>2026-03-28T09:52:52.188Z</time></trkpt><trkpt lat="43.4832245" lon="12.1871094"><ele>283.0</ele><time>2026-03-28T09:52:54.182Z</time></trkpt><trkpt lat="43.4832131" lon="12.1872102"><ele>283.0</ele><time>2026-03-28T09:52:56.185Z</time></trkpt><trkpt lat="43.483219" lon="12.1872992"><ele>283.0</ele><time>2026-03-28T09:52:58.168Z</time></trkpt><trkpt lat="43.4832641" lon="12.1874089"><ele>283.0</ele><time>2026-03-28T09:54:40.187Z</time></trkpt><trkpt lat="43.483209" lon="12.187365"><ele>283.0</ele><time>2026-03-28T09:54:51.171Z</time></trkpt><trkpt lat="43.4831742" lon="12.1872402"><ele>283.0</ele><time>2026-03-28T09:54:54.171Z</time></trkpt><trkpt lat="43.4831871" lon="12.1871376"><ele>283.0</ele><time>2026-03-28T09:54:56.167Z</time></trkpt><trkpt lat="43.483208" lon="12.1870499"><ele>283.0</ele><time>2026-03-28T09:54:58.165Z</time></trkpt><trkpt lat="43.4832508" lon="12.186966"><ele>283.0</ele><time>2026-03-28T09:55:00.182Z</time></trkpt><trkpt lat="43.4833097" lon="12.1869152"><ele>283.0</ele><time>2026-03-28T09:55:02.163Z</time></trkpt><trkpt lat="43.4833517" lon="12.1868123"><ele>283.0</ele><time>2026-03-28T09:55:22.159Z</time></trkpt><trkpt lat="43.4833098" lon="12.1866741"><ele>283.0</ele><time>2026-03-28T09:55:24.173Z</time></trkpt><trkpt lat="43.4832746" lon="12.186581"><ele>283.0</ele><time>2026-03-28T09:55:25.166Z</time></trkpt><trkpt lat="43.4832354" lon="12.1864902"><ele>283.0</ele><time>2026-03-28T09:55:26.171Z</time></trkpt><trkpt lat="43.4831877" lon="12.1864024"><ele>283.0</ele><time>2026-03-28T09:55:27.16Z</time></trkpt><trkpt lat="43.4831243" lon="12.1863258"><ele>283.0</ele><time>2026-03-28T09:55:28.182Z</time></trkpt><trkpt lat="43.4830436" lon="12.1862663"><ele>283.0</ele><time>2026-03-28T09:55:29.177Z</time></trkpt><trkpt lat="43.4829493" lon="12.1862214"><ele>283.0</ele><time>2026-03-28T09:55:30.178Z</time></trkpt><trkpt lat="43.4828495" lon="12.1861839"><ele>283.0</ele><time>2026-03-28T09:55:31.19Z</time></trkpt><trkpt lat="43.482745" lon="12.1861502"><ele>283.0</ele><time>2026-03-28T09:55:32.18Z</time></trkpt><trkpt lat="43.4826336" lon="12.186113"><ele>283.0</ele><time>2026-03-28T09:55:33.181Z</time></trkpt><trkpt lat="43.4825205" lon="12.1860716"><ele>283.0</ele><time>2026-03-28T09:55:34.183Z</time></trkpt><trkpt lat="43.4824165" lon="12.1860276"><ele>283.0</ele><time>2026-03-28T09:55:35.16Z</time></trkpt><trkpt lat="43.4823235" lon="12.1859802"><ele>283.0</ele><time>2026-03-28T09:55:36.175Z</time></trkpt><trkpt lat="43.4822402" lon="12.1859292"><ele>283.0</ele><time>2026-03-28T09:55:37.179Z</time></trkpt><trkpt lat="43.4821663" lon="12.1858744"><ele>283.0</ele><time>2026-03-28T09:55:38.182Z</time></trkpt><trkpt lat="43.4821044" lon="12.1858216"><ele>283.0</ele><time>2026-03-28T09:55:39.171Z</time></trkpt><trkpt lat="43.4820511" lon="12.1857749"><ele>283.0</ele><time>2026-03-28T09:55:40.18Z</time></trkpt><trkpt lat="43.4819657" lon="12.1857099"><ele>283.0</ele><time>2026-03-28T09:55:42.181Z</time></trkpt><trkpt lat="43.4819004" lon="12.1857001"><ele>283.8333333333333</ele><time>2026-03-28T09:55:44.176Z</time></trkpt><trkpt lat="43.4818375" lon="12.1857865"><ele>284.66666666666663</ele><time>2026-03-28T09:55:46.167Z</time></trkpt><trkpt lat="43.481808" lon="12.1858687"><ele>285.5</ele><time>2026-03-28T09:55:47.171Z</time></trkpt><trkpt lat="43.4817713" lon="12.1859662"><ele>286.3333333333333</ele><time>2026-03-28T09:55:48.186Z</time></trkpt><trkpt lat="43.4817244" lon="12.1860732"><ele>287.1666666666667</ele><time>2026-03-28T09:55:49.177Z</time></trkpt><trkpt lat="43.4816722" lon="12.1861932"><ele>288.0</ele><time>2026-03-28T09:55:50.178Z</time></trkpt><trkpt lat="43.4816166" lon="12.1863232"><ele>288.0</ele><time>2026-03-28T09:55:51.173Z</time></trkpt><trkpt lat="43.481556" lon="12.1864612"><ele>288.0</ele><time>2026-03-28T09:55:52.175Z</time></trkpt><trkpt lat="43.4814942" lon="12.1866021"><ele>288.0</ele><time>2026-03-28T09:55:53.182Z</time></trkpt><trkpt lat="43.4814317" lon="12.1867424"><ele>288.0</ele><time>2026-03-28T09:55:54.186Z</time></trkpt><trkpt lat="43.4813659" lon="12.1868864"><ele>287.75</ele><time>2026-03-28T09:55:55.174Z</time></trkpt><trkpt lat="43.4812981" lon="12.1870337"><ele>287.5</ele><time>2026-03-28T09:55:56.175Z</time></trkpt><trkpt lat="43.4812304" lon="12.1871846"><ele>287.25</ele><time>2026-03-28T09:55:57.181Z</time></trkpt><trkpt lat="43.4811624" lon="12.1873378"><ele>287.0</ele><time>2026-03-28T09:55:58.178Z</time></trkpt><trkpt lat="43.4810931" lon="12.1874927"><ele>286.5</ele><time>2026-03-28T09:55:59.172Z</time></trkpt><trkpt lat="43.4810227" lon="12.1876478"><ele>286.0</ele><time>2026-03-28T09:56:00.181Z</time></trkpt><trkpt lat="43.4809528" lon="12.1878059"><ele>285.5</ele><time>2026-03-28T09:56:01.184Z</time></trkpt><trkpt lat="43.480883" lon="12.187965"><ele>285.0</ele><time>2026-03-28T09:56:02.171Z</time></trkpt><trkpt lat="43.4808111" lon="12.1881243"><ele>285.0</ele><time>2026-03-28T09:56:03.194Z</time></trkpt><trkpt lat="43.4807386" lon="12.1882839"><ele>285.0</ele><time>2026-03-28T09:56:04.178Z</time></trkpt><trkpt lat="43.4806661" lon="12.1884444"><ele>285.0</ele><time>2026-03-28T09:56:05.171Z</time></trkpt><trkpt lat="43.4805944" lon="12.1886053"><ele>285.0</ele><time>2026-03-28T09:56:06.169Z</time></trkpt><trkpt lat="43.4805251" lon="12.1887672"><ele>285.0</ele><time>2026-03-28T09:56:07.179Z</time></trkpt><trkpt lat="43.4804545" lon="12.1889273"><ele>285.0</ele><time>2026-03-28T09:56:08.179Z</time></trkpt><trkpt lat="43.4803816" lon="12.1890843"><ele>285.0</ele><time>2026-03-28T09:56:09.181Z</time></trkpt><trkpt lat="43.4803087" lon="12.1892417"><ele>285.0</ele><time>2026-03-28T09:56:10.172Z</time></trkpt><trkpt lat="43.4802366" lon="12.1894009"><ele>285.5</ele><time>2026-03-28T09:56:11.187Z</time></trkpt><trkpt lat="43.4801659" lon="12.1895614"><ele>286.0</ele><time>2026-03-28T09:56:12.177Z</time></trkpt><trkpt lat="43.4800943" lon="12.1897243"><ele>286.5</ele><time>2026-03-28T09:56:13.189Z</time></trkpt><trkpt lat="43.4800213" lon="12.1898904"><ele>287.0</ele><time>2026-03-28T09:56:14.175Z</time></trkpt><trkpt lat="43.4799467" lon="12.190058"><ele>287.0</ele><time>2026-03-28T09:56:15.176Z</time></trkpt><trkpt lat="43.4798699" lon="12.190227"><ele>287.0</ele><time>2026-03-28T09:56:16.169Z</time></trkpt><trkpt lat="43.4797926" lon="12.190399"><ele>287.0</ele><time>2026-03-28T09:56:17.174Z</time></trkpt><trkpt lat="43.479715" lon="12.1905735"><ele>287.0</ele><time>2026-03-28T09:56:18.172Z</time></trkpt><trkpt lat="43.4796373" lon="12.1907489"><ele>288.0</ele><time>2026-03-28T09:56:19.174Z</time></trkpt><trkpt lat="43.4795618" lon="12.1909194"><ele>289.0</ele><time>2026-03-28T09:56:20.173Z</time></trkpt><trkpt lat="43.4794883" lon="12.1910891"><ele>290.0</ele><time>2026-03-28T09:56:21.175Z</time></trkpt><trkpt lat="43.4794143" lon="12.1912579"><ele>291.0</ele><time>2026-03-28T09:56:22.179Z</time></trkpt><trkpt lat="43.4793399" lon="12.1914256"><ele>291.0</ele><time>2026-03-28T09:56:23.18Z</time></trkpt><trkpt lat="43.479266" lon="12.1915929"><ele>291.0</ele><time>2026-03-28T09:56:24.181Z</time></trkpt><trkpt lat="43.4791931" lon="12.1917607"><ele>291.0</ele><time>2026-03-28T09:56:25.175Z</time></trkpt><trkpt lat="43.4791191" lon="12.1919271"><ele>291.0</ele><time>2026-03-28T09:56:26.169Z</time></trkpt><trkpt lat="43.4790442" lon="12.1920932"><ele>291.0</ele><time>2026-03-28T09:56:27.186Z</time></trkpt><trkpt lat="43.4789722" lon="12.1922604"><ele>291.0</ele><time>2026-03-28T09:56:28.174Z</time></trkpt><trkpt lat="43.4788994" lon="12.1924316"><ele>291.0</ele><time>2026-03-28T09:56:29.176Z</time></trkpt><trkpt lat="43.4788234" lon="12.192605"><ele>291.0</ele><time>2026-03-28T09:56:30.187Z</time></trkpt><trkpt lat="43.4787456" lon="12.1927795"><ele>292.25</ele><time>2026-03-28T09:56:31.184Z</time></trkpt><trkpt lat="43.4786689" lon="12.1929566"><ele>293.5</ele><time>2026-03-28T09:56:32.18Z</time></trkpt><trkpt lat="43.4785924" lon="12.1931338"><ele>294.75</ele><time>2026-03-28T09:56:33.182Z</time></trkpt><trkpt lat="43.4785157" lon="12.1933102"><ele>296.0</ele><time>2026-03-28T09:56:34.186Z</time></trkpt><trkpt lat="43.4784395" lon="12.1934859"><ele>296.0</ele><time>2026-03-28T09:56:35.177Z</time></trkpt><trkpt lat="43.478363" lon="12.1936592"><ele>296.0</ele><time>2026-03-28T09:56:36.179Z</time></trkpt><trkpt lat="43.4782847" lon="12.1938306"><ele>296.0</ele><time>2026-03-28T09:56:37.177Z</time></trkpt><trkpt lat="43.4782079" lon="12.1939985"><ele>296.0</ele><time>2026-03-28T09:56:38.17Z</time></trkpt><trkpt lat="43.4781324" lon="12.1941687"><ele>296.0</ele><time>2026-03-28T09:56:39.186Z</time></trkpt><trkpt lat="43.4780563" lon="12.1943393"><ele>296.0</ele><time>2026-03-28T09:56:40.175Z</time></trkpt><trkpt lat="43.4779793" lon="12.1945083"><ele>296.0</ele><time>2026-03-28T09:56:41.176Z</time></trkpt><trkpt lat="43.4779009" lon="12.1946783"><ele>296.0</ele><time>2026-03-28T09:56:42.182Z</time></trkpt><trkpt lat="43.4778267" lon="12.1948443"><ele>296.0</ele><time>2026-03-28T09:56:43.187Z</time></trkpt><trkpt lat="43.4777551" lon="12.1950095"><ele>296.0</ele><time>2026-03-28T09:56:44.167Z</time></trkpt><trkpt lat="43.4776832" lon="12.1951708"><ele>296.0</ele><time>2026-03-28T09:56:45.181Z</time></trkpt><trkpt lat="43.4776111" lon="12.1953304"><ele>296.0</ele><time>2026-03-28T09:56:46.181Z</time></trkpt><trkpt lat="43.477542" lon="12.1954896"><ele>296.0</ele><time>2026-03-28T09:56:47.184Z</time></trkpt><trkpt lat="43.477474" lon="12.1956448"><ele>296.0</ele><time>2026-03-28T09:56:48.186Z</time></trkpt><trkpt lat="43.4774063" lon="12.1957951"><ele>296.0</ele><time>2026-03-28T09:56:49.174Z</time></trkpt><trkpt lat="43.4773384" lon="12.1959461"><ele>296.0</ele><time>2026-03-28T09:56:50.178Z</time></trkpt><trkpt lat="43.4772711" lon="12.1960981"><ele>295.75</ele><time>2026-03-28T09:56:51.198Z</time></trkpt><trkpt lat="43.4772036" lon="12.1962511"><ele>295.5</ele><time>2026-03-28T09:56:52.177Z</time></trkpt><trkpt lat="43.4771373" lon="12.1964045"><ele>295.25</ele><time>2026-03-28T09:56:53.219Z</time></trkpt><trkpt lat="43.4770711" lon="12.1965584"><ele>295.0</ele><time>2026-03-28T09:56:54.165Z</time></trkpt><trkpt lat="43.4770055" lon="12.1967082"><ele>295.0</ele><time>2026-03-28T09:56:55.178Z</time></trkpt><trkpt lat="43.4769393" lon="12.1968532"><ele>295.0</ele><time>2026-03-28T09:56:56.182Z</time></trkpt><trkpt lat="43.4768722" lon="12.1969919"><ele>295.0</ele><time>2026-03-28T09:56:57.171Z</time></trkpt><trkpt lat="43.4768067" lon="12.1971294"><ele>295.0</ele><time>2026-03-28T09:56:58.187Z</time></trkpt><trkpt lat="43.4767448" lon="12.1972685"><ele>294.75</ele><time>2026-03-28T09:56:59.171Z</time></trkpt><trkpt lat="43.4766845" lon="12.1974065"><ele>294.5</ele><time>2026-03-28T09:57:00.174Z</time></trkpt><trkpt lat="43.4766251" lon="12.197543"><ele>294.25</ele><time>2026-03-28T09:57:01.198Z</time></trkpt><trkpt lat="43.4765655" lon="12.1976764"><ele>294.0</ele><time>2026-03-28T09:57:02.18Z</time></trkpt><trkpt lat="43.4765046" lon="12.1978096"><ele>294.0</ele><time>2026-03-28T09:57:03.188Z</time></trkpt><trkpt lat="43.4764431" lon="12.1979429"><ele>294.0</ele><time>2026-03-28T09:57:04.167Z</time></trkpt><trkpt lat="43.476381" lon="12.198077"><ele>294.0</ele><time>2026-03-28T09:57:05.183Z</time></trkpt><trkpt lat="43.4763136" lon="12.198211"><ele>294.0</ele><time>2026-03-28T09:57:06.179Z</time></trkpt><trkpt lat="43.4762466" lon="12.1983405"><ele>294.25</ele><time>2026-03-28T09:57:07.182Z</time></trkpt><trkpt lat="43.4761783" lon="12.198482"><ele>294.5</ele><time>2026-03-28T09:57:08.182Z</time></trkpt><trkpt lat="43.4761151" lon="12.1986265"><ele>294.75</ele><time>2026-03-28T09:57:09.178Z</time></trkpt><trkpt lat="43.4760513" lon="12.1987692"><ele>295.0</ele><time>2026-03-28T09:57:10.19Z</time></trkpt><trkpt lat="43.4759866" lon="12.1989092"><ele>295.0</ele><time>2026-03-28T09:57:11.191Z</time></trkpt><trkpt lat="43.4759238" lon="12.1990523"><ele>295.0</ele><time>2026-03-28T09:57:12.195Z</time></trkpt><trkpt lat="43.4758634" lon="12.1991995"><ele>295.0</ele><time>2026-03-28T09:57:13.202Z</time></trkpt><trkpt lat="43.475801" lon="12.199348"><ele>295.0</ele><time>2026-03-28T09:57:14.186Z</time></trkpt><trkpt lat="43.4757418" lon="12.1994964"><ele>295.0</ele><time>2026-03-28T09:57:15.192Z</time></trkpt><trkpt lat="43.4756838" lon="12.1996395"><ele>295.0</ele><time>2026-03-28T09:57:16.186Z</time></trkpt><trkpt lat="43.4756224" lon="12.1997766"><ele>295.0</ele><time>2026-03-28T09:57:17.171Z</time></trkpt><trkpt lat="43.4755586" lon="12.1999119"><ele>295.0</ele><time>2026-03-28T09:57:18.176Z</time></trkpt><trkpt lat="43.4754934" lon="12.2000491"><ele>294.75</ele><time>2026-03-28T09:57:19.192Z</time></trkpt><trkpt lat="43.4754267" lon="12.2001894"><ele>294.5</ele><time>2026-03-28T09:57:20.175Z</time></trkpt><trkpt lat="43.4753604" lon="12.2003347"><ele>294.25</ele><time>2026-03-28T09:57:21.175Z</time></trkpt><trkpt lat="43.4752913" lon="12.2004833"><ele>294.0</ele><time>2026-03-28T09:57:22.188Z</time></trkpt><trkpt lat="43.4752197" lon="12.2006326"><ele>294.0</ele><time>2026-03-28T09:57:23.167Z</time></trkpt><trkpt lat="43.4751477" lon="12.200783"><ele>294.0</ele><time>2026-03-28T09:57:24.176Z</time></trkpt><trkpt lat="43.4750783" lon="12.2009364"><ele>294.0</ele><time>2026-03-28T09:57:25.177Z</time></trkpt><trkpt lat="43.4750095" lon="12.2010901"><ele>294.0</ele><time>2026-03-28T09:57:26.172Z</time></trkpt><trkpt lat="43.4749398" lon="12.2012447"><ele>294.0</ele><time>2026-03-28T09:57:27.172Z</time></trkpt><trkpt lat="43.4748676" lon="12.201402"><ele>294.0</ele><time>2026-03-28T09:57:28.191Z</time></trkpt><trkpt lat="43.4747937" lon="12.2015592"><ele>294.0</ele><time>2026-03-28T09:57:29.176Z</time></trkpt><trkpt lat="43.4747197" lon="12.2017166"><ele>294.0</ele><time>2026-03-28T09:57:30.174Z</time></trkpt><trkpt lat="43.4746474" lon="12.2018784"><ele>294.0</ele><time>2026-03-28T09:57:31.184Z</time></trkpt><trkpt lat="43.4745761" lon="12.202043"><ele>294.0</ele><time>2026-03-28T09:57:32.177Z</time></trkpt><trkpt lat="43.4745021" lon="12.2022045"><ele>294.0</ele><time>2026-03-28T09:57:33.202Z</time></trkpt><trkpt lat="43.4744264" lon="12.2023618"><ele>294.0</ele><time>2026-03-28T09:57:34.194Z</time></trkpt><trkpt lat="43.4743514" lon="12.2025174"><ele>294.0</ele><time>2026-03-28T09:57:35.179Z</time></trkpt><trkpt lat="43.4742779" lon="12.2026737"><ele>294.0</ele><time>2026-03-28T09:57:36.181Z</time></trkpt><trkpt lat="43.4742053" lon="12.2028306"><ele>294.0</ele><time>2026-03-28T09:57:37.175Z</time></trkpt><trkpt lat="43.474132" lon="12.2029887"><ele>294.0</ele><time>2026-03-28T09:57:38.19Z</time></trkpt><trkpt lat="43.4740576" lon="12.2031522"><ele>294.5</ele><time>2026-03-28T09:57:39.175Z</time></trkpt><trkpt lat="43.4739824" lon="12.2033197"><ele>295.0</ele><time>2026-03-28T09:57:40.174Z</time></trkpt><trkpt lat="43.4739053" lon="12.2034874"><ele>295.5</ele><time>2026-03-28T09:57:41.187Z</time></trkpt><trkpt lat="43.4738281" lon="12.2036537"><ele>296.0</ele><time>2026-03-28T09:57:42.183Z</time></trkpt><trkpt lat="43.4737522" lon="12.2038206"><ele>296.0</ele><time>2026-03-28T09:57:43.175Z</time></trkpt><trkpt lat="43.4736779" lon="12.2039853"><ele>296.0</ele><time>2026-03-28T09:57:44.176Z</time></trkpt><trkpt lat="43.4736027" lon="12.2041485"><ele>296.0</ele><time>2026-03-28T09:57:45.175Z</time></trkpt><trkpt lat="43.4735273" lon="12.204307"><ele>296.0</ele><time>2026-03-28T09:57:46.198Z</time></trkpt><trkpt lat="43.4734537" lon="12.2044638"><ele>295.5</ele><time>2026-03-28T09:57:47.192Z</time></trkpt><trkpt lat="43.4733834" lon="12.204619"><ele>295.0</ele><time>2026-03-28T09:57:48.174Z</time></trkpt><trkpt lat="43.4733172" lon="12.2047709"><ele>294.5</ele><time>2026-03-28T09:57:49.186Z</time></trkpt><trkpt lat="43.4732578" lon="12.2049154"><ele>294.0</ele><time>2026-03-28T09:57:50.187Z</time></trkpt><trkpt lat="43.4732075" lon="12.2050498"><ele>293.2</ele><time>2026-03-28T09:57:51.179Z</time></trkpt><trkpt lat="43.4731628" lon="12.2051745"><ele>292.4</ele><time>2026-03-28T09:57:52.178Z</time></trkpt><trkpt lat="43.4731197" lon="12.2052886"><ele>291.6</ele><time>2026-03-28T09:57:53.178Z</time></trkpt><trkpt lat="43.4730719" lon="12.2054005"><ele>290.8</ele><time>2026-03-28T09:57:54.184Z</time></trkpt><trkpt lat="43.4730158" lon="12.205515"><ele>290.0</ele><time>2026-03-28T09:57:55.164Z</time></trkpt><trkpt lat="43.4729551" lon="12.2056351"><ele>291.0</ele><time>2026-03-28T09:57:56.166Z</time></trkpt><trkpt lat="43.4728926" lon="12.2057663"><ele>292.0</ele><time>2026-03-28T09:57:57.179Z</time></trkpt><trkpt lat="43.4728265" lon="12.2059084"><ele>293.0</ele><time>2026-03-28T09:57:58.172Z</time></trkpt><trkpt lat="43.4727586" lon="12.2060592"><ele>294.0</ele><time>2026-03-28T09:57:59.184Z</time></trkpt><trkpt lat="43.4726868" lon="12.206215"><ele>294.0</ele><time>2026-03-28T09:58:00.177Z</time></trkpt><trkpt lat="43.4726128" lon="12.2063739"><ele>294.0</ele><time>2026-03-28T09:58:01.19Z</time></trkpt><trkpt lat="43.4725371" lon="12.2065376"><ele>294.0</ele><time>2026-03-28T09:58:02.176Z</time></trkpt><trkpt lat="43.4724588" lon="12.2067048"><ele>294.0</ele><time>2026-03-28T09:58:03.203Z</time></trkpt><trkpt lat="43.4723786" lon="12.2068739"><ele>293.75</ele><time>2026-03-28T09:58:04.176Z</time></trkpt><trkpt lat="43.4722963" lon="12.2070433"><ele>293.5</ele><time>2026-03-28T09:58:05.18Z</time></trkpt><trkpt lat="43.4722144" lon="12.2072142"><ele>293.25</ele><time>2026-03-28T09:58:06.171Z</time></trkpt><trkpt lat="43.4721321" lon="12.2073864"><ele>293.0</ele><time>2026-03-28T09:58:07.173Z</time></trkpt><trkpt lat="43.4720492" lon="12.2075561"><ele>294.0</ele><time>2026-03-28T09:58:08.168Z</time></trkpt><trkpt lat="43.4719666" lon="12.2077242"><ele>295.0</ele><time>2026-03-28T09:58:09.177Z</time></trkpt><trkpt lat="43.4718831" lon="12.2078916"><ele>296.0</ele><time>2026-03-28T09:58:10.17Z</time></trkpt><trkpt lat="43.4717985" lon="12.2080568"><ele>297.0</ele><time>2026-03-28T09:58:11.19Z</time></trkpt><trkpt lat="43.4717149" lon="12.2082184"><ele>297.0</ele><time>2026-03-28T09:58:12.19Z</time></trkpt><trkpt lat="43.4716337" lon="12.2083755"><ele>297.0</ele><time>2026-03-28T09:58:13.175Z</time></trkpt><trkpt lat="43.4715623" lon="12.2085382"><ele>297.0</ele><time>2026-03-28T09:58:14.198Z</time></trkpt><trkpt lat="43.4714953" lon="12.2086984"><ele>297.0</ele><time>2026-03-28T09:58:15.187Z</time></trkpt><trkpt lat="43.4714296" lon="12.2088525"><ele>297.5</ele><time>2026-03-28T09:58:16.182Z</time></trkpt><trkpt lat="43.4713638" lon="12.2090041"><ele>298.0</ele><time>2026-03-28T09:58:17.179Z</time></trkpt><trkpt lat="43.4712989" lon="12.2091511"><ele>298.5</ele><time>2026-03-28T09:58:18.168Z</time></trkpt><trkpt lat="43.4712376" lon="12.2092871"><ele>299.0</ele><time>2026-03-28T09:58:19.179Z</time></trkpt><trkpt lat="43.4711751" lon="12.2094137"><ele>299.75</ele><time>2026-03-28T09:58:20.179Z</time></trkpt><trkpt lat="43.471111" lon="12.2095495"><ele>300.5</ele><time>2026-03-28T09:58:21.187Z</time></trkpt><trkpt lat="43.4710454" lon="12.2096865"><ele>301.25</ele><time>2026-03-28T09:58:22.184Z</time></trkpt><trkpt lat="43.4709772" lon="12.2098254"><ele>302.0</ele><time>2026-03-28T09:58:23.172Z</time></trkpt><trkpt lat="43.4709083" lon="12.2099646"><ele>302.25</ele><time>2026-03-28T09:58:24.171Z</time></trkpt><trkpt lat="43.4708422" lon="12.2101018"><ele>302.5</ele><time>2026-03-28T09:58:25.175Z</time></trkpt><trkpt lat="43.4707835" lon="12.2102342"><ele>302.75</ele><time>2026-03-28T09:58:26.175Z</time></trkpt><trkpt lat="43.4707262" lon="12.2103677"><ele>303.0</ele><time>2026-03-28T09:58:27.202Z</time></trkpt><trkpt lat="43.4706699" lon="12.2104992"><ele>303.0</ele><time>2026-03-28T09:58:28.169Z</time></trkpt><trkpt lat="43.4706108" lon="12.2106329"><ele>303.0</ele><time>2026-03-28T09:58:29.186Z</time></trkpt><trkpt lat="43.4705526" lon="12.2107649"><ele>303.0</ele><time>2026-03-28T09:58:30.169Z</time></trkpt><trkpt lat="43.4704895" lon="12.210896"><ele>303.0</ele><time>2026-03-28T09:58:31.171Z</time></trkpt><trkpt lat="43.4704291" lon="12.2110222"><ele>303.1666666666667</ele><time>2026-03-28T09:58:32.177Z</time></trkpt><trkpt lat="43.470375" lon="12.211149"><ele>303.3333333333333</ele><time>2026-03-28T09:58:33.177Z</time></trkpt><trkpt lat="43.4703293" lon="12.2112596"><ele>303.5</ele><time>2026-03-28T09:58:34.174Z</time></trkpt><trkpt lat="43.4702968" lon="12.211336"><ele>303.66666666666663</ele><time>2026-03-28T09:58:35.183Z</time></trkpt><trkpt lat="43.4702558" lon="12.2114141"><ele>303.8333333333333</ele><time>2026-03-28T09:58:37.18Z</time></trkpt><trkpt lat="43.4702149" lon="12.2114996"><ele>304.0</ele><time>2026-03-28T09:58:51.166Z</time></trkpt><trkpt lat="43.4701716" lon="12.2115676"><ele>304.0</ele><time>2026-03-28T09:58:53.158Z</time></trkpt><trkpt lat="43.4700686" lon="12.2115535"><ele>304.0</ele><time>2026-03-28T09:58:56.167Z</time></trkpt><trkpt lat="43.4699846" lon="12.2115049"><ele>304.0</ele><time>2026-03-28T09:58:58.16Z</time></trkpt><trkpt lat="43.469927" lon="12.2115496"><ele>304.0</ele><time>2026-03-28T09:59:03.16Z</time></trkpt><trkpt lat="43.469931" lon="12.2116828"><ele>304.0</ele><time>2026-03-28T09:59:06.158Z</time></trkpt><trkpt lat="43.4700009" lon="12.2117932"><ele>304.0</ele><time>2026-03-28T09:59:08.168Z</time></trkpt><trkpt lat="43.4700201" lon="12.2119251"><ele>304.0</ele><time>2026-03-28T09:59:10.161Z</time></trkpt><trkpt lat="43.4699745" lon="12.2120923"><ele>304.0</ele><time>2026-03-28T09:59:12.171Z</time></trkpt><trkpt lat="43.4699249" lon="12.2121931"><ele>304.0</ele><time>2026-03-28T09:59:13.179Z</time></trkpt><trkpt lat="43.4698749" lon="12.2122895"><ele>304.0</ele><time>2026-03-28T09:59:14.184Z</time></trkpt><trkpt lat="43.4698334" lon="12.2123753"><ele>303.4285714285714</ele><time>2026-03-28T09:59:15.174Z</time></trkpt><trkpt lat="43.4697965" lon="12.2124604"><ele>302.8571428571429</ele><time>2026-03-28T09:59:16.181Z</time></trkpt><trkpt lat="43.4697592" lon="12.2125491"><ele>302.2857142857143</ele><time>2026-03-28T09:59:17.176Z</time></trkpt><trkpt lat="43.4697268" lon="12.2126362"><ele>301.71428571428567</ele><time>2026-03-28T09:59:18.17Z</time></trkpt><trkpt lat="43.4696936" lon="12.212726"><ele>301.1428571428571</ele><time>2026-03-28T09:59:19.17Z</time></trkpt><trkpt lat="43.4696599" lon="12.2128094"><ele>300.57142857142856</ele><time>2026-03-28T09:59:20.184Z</time></trkpt><trkpt lat="43.4696294" lon="12.2128861"><ele>300.0</ele><time>2026-03-28T09:59:21.169Z</time></trkpt><trkpt lat="43.4695956" lon="12.212962"><ele>301.3333333333333</ele><time>2026-03-28T09:59:22.203Z</time></trkpt><trkpt lat="43.4695596" lon="12.2130457"><ele>302.6666666666667</ele><time>2026-03-28T09:59:23.179Z</time></trkpt><trkpt lat="43.4695155" lon="12.2131484"><ele>304.0</ele><time>2026-03-28T09:59:24.202Z</time></trkpt><trkpt lat="43.4694686" lon="12.2132502"><ele>305.33333333333337</ele><time>2026-03-28T09:59:25.198Z</time></trkpt><trkpt lat="43.4694204" lon="12.2133449"><ele>306.6666666666667</ele><time>2026-03-28T09:59:26.173Z</time></trkpt><trkpt lat="43.4693736" lon="12.2134295"><ele>308.0</ele><time>2026-03-28T09:59:27.175Z</time></trkpt><trkpt lat="43.4693335" lon="12.2134971"><ele>308.0</ele><time>2026-03-28T09:59:28.184Z</time></trkpt><trkpt lat="43.4692688" lon="12.2135753"><ele>308.0</ele><time>2026-03-28T09:59:30.177Z</time></trkpt><trkpt lat="43.4691965" lon="12.2135767"><ele>308.0</ele><time>2026-03-28T09:59:32.165Z</time></trkpt><trkpt lat="43.4690729" lon="12.2135157"><ele>308.0</ele><time>2026-03-28T09:59:34.166Z</time></trkpt><trkpt lat="43.468997" lon="12.2134863"><ele>308.0</ele><time>2026-03-28T09:59:35.17Z</time></trkpt><trkpt lat="43.4689093" lon="12.2134585"><ele>308.0</ele><time>2026-03-28T09:59:36.185Z</time></trkpt><trkpt lat="43.468811" lon="12.2134324"><ele>308.0</ele><time>2026-03-28T09:59:37.182Z</time></trkpt><trkpt lat="43.4687079" lon="12.2134033"><ele>308.0</ele><time>2026-03-28T09:59:38.179Z</time></trkpt><trkpt lat="43.4686061" lon="12.213376"><ele>308.0</ele><time>2026-03-28T09:59:39.181Z</time></trkpt><trkpt lat="43.4685254" lon="12.2133433"><ele>308.0</ele><time>2026-03-28T09:59:40.176Z</time></trkpt><trkpt lat="43.4684721" lon="12.2132967"><ele>310.2</ele><time>2026-03-28T09:59:41.18Z</time></trkpt><trkpt lat="43.4684334" lon="12.2131824"><ele>312.4</ele><time>2026-03-28T09:59:43.162Z</time></trkpt><trkpt lat="43.4684902" lon="12.2130996"><ele>314.59999999999997</ele><time>2026-03-28T09:59:45.164Z</time></trkpt><trkpt lat="43.468558" lon="12.2130579"><ele>316.8</ele><time>2026-03-28T09:59:46.167Z</time></trkpt><trkpt lat="43.4686394" lon="12.2129653"><ele>319.0</ele><time>2026-03-28T09:59:47.161Z</time></trkpt><trkpt lat="43.4687131" lon="12.2128607"><ele>318.0</ele><time>2026-03-28T09:59:48.164Z</time></trkpt><trkpt lat="43.4687826" lon="12.2127583"><ele>317.0</ele><time>2026-03-28T09:59:49.164Z</time></trkpt><trkpt lat="43.4688381" lon="12.2126406"><ele>316.0</ele><time>2026-03-28T09:59:50.162Z</time></trkpt><trkpt lat="43.4688825" lon="12.212517"><ele>315.0</ele><time>2026-03-28T09:59:51.178Z</time></trkpt><trkpt lat="43.4689007" lon="12.2123967"><ele>314.0</ele><time>2026-03-28T09:59:52.16Z</time></trkpt><trkpt lat="43.4689029" lon="12.212251"><ele>314.0</ele><time>2026-03-28T09:59:53.168Z</time></trkpt><trkpt lat="43.4688787" lon="12.2121073"><ele>314.0</ele><time>2026-03-28T09:59:54.162Z</time></trkpt><trkpt lat="43.4688286" lon="12.2119692"><ele>314.0</ele><time>2026-03-28T09:59:55.16Z</time></trkpt><trkpt lat="43.4687758" lon="12.2118217"><ele>314.0</ele><time>2026-03-28T09:59:56.162Z</time></trkpt><trkpt lat="43.4687248" lon="12.2116773"><ele>317.0</ele><time>2026-03-28T09:59:57.161Z</time></trkpt><trkpt lat="43.4686729" lon="12.2115698"><ele>320.0</ele><time>2026-03-28T09:59:58.174Z</time></trkpt><trkpt lat="43.4686151" lon="12.2114897"><ele>323.0</ele><time>2026-03-28T09:59:59.168Z</time></trkpt><trkpt lat="43.4685671" lon="12.2114193"><ele>326.0</ele><time>2026-03-28T10:00:00.164Z</time></trkpt><trkpt lat="43.4684659" lon="12.2114761"><ele>329.0</ele><time>2026-03-28T10:00:02.165Z</time></trkpt><trkpt lat="43.4684387" lon="12.2116499"><ele>330.6666666666667</ele><time>2026-03-28T10:00:04.166Z</time></trkpt><trkpt lat="43.4684411" lon="12.2117703"><ele>332.33333333333337</ele><time>2026-03-28T10:00:05.164Z</time></trkpt><trkpt lat="43.4684429" lon="12.2118776"><ele>334.0</ele><time>2026-03-28T10:00:06.17Z</time></trkpt><trkpt lat="43.4683805" lon="12.2120012"><ele>335.6666666666667</ele><time>2026-03-28T10:00:08.168Z</time></trkpt><trkpt lat="43.4683152" lon="12.211952"><ele>337.3333333333333</ele><time>2026-03-28T10:00:10.161Z</time></trkpt><trkpt lat="43.4682987" lon="12.2118357"><ele>339.0</ele><time>2026-03-28T10:00:11.162Z</time></trkpt><trkpt lat="43.4682793" lon="12.2117111"><ele>339.0</ele><time>2026-03-28T10:00:12.176Z</time></trkpt><trkpt lat="43.4682365" lon="12.2115924"><ele>339.0</ele><time>2026-03-28T10:00:13.168Z</time></trkpt><trkpt lat="43.4681596" lon="12.2114918"><ele>339.0</ele><time>2026-03-28T10:00:14.165Z</time></trkpt><trkpt lat="43.4680458" lon="12.2114226"><ele>339.0</ele><time>2026-03-28T10:00:15.168Z</time></trkpt><trkpt lat="43.4679074" lon="12.2113658"><ele>341.25</ele><time>2026-03-28T10:00:16.174Z</time></trkpt><trkpt lat="43.4677642" lon="12.2113201"><ele>343.5</ele><time>2026-03-28T10:00:17.191Z</time></trkpt><trkpt lat="43.4676277" lon="12.2112659"><ele>345.75</ele><time>2026-03-28T10:00:18.184Z</time></trkpt><trkpt lat="43.4674877" lon="12.2112074"><ele>348.0</ele><time>2026-03-28T10:00:19.167Z</time></trkpt><trkpt lat="43.4673451" lon="12.2111487"><ele>348.0</ele><time>2026-03-28T10:00:20.167Z</time></trkpt><trkpt lat="43.4672035" lon="12.2110956"><ele>348.0</ele><time>2026-03-28T10:00:21.179Z</time></trkpt><trkpt lat="43.4670796" lon="12.2110526"><ele>348.0</ele><time>2026-03-28T10:00:22.173Z</time></trkpt><trkpt lat="43.4669641" lon="12.2110056"><ele>348.0</ele><time>2026-03-28T10:00:23.17Z</time></trkpt><trkpt lat="43.4668598" lon="12.2109628"><ele>350.0</ele><time>2026-03-28T10:00:24.174Z</time></trkpt><trkpt lat="43.466759" lon="12.2109245"><ele>352.0</ele><time>2026-03-28T10:00:25.17Z</time></trkpt><trkpt lat="43.4666547" lon="12.2108871"><ele>354.0</ele><time>2026-03-28T10:00:26.186Z</time></trkpt><trkpt lat="43.4665477" lon="12.2108461"><ele>356.0</ele><time>2026-03-28T10:00:27.177Z</time></trkpt><trkpt lat="43.4664361" lon="12.210808"><ele>358.0</ele><time>2026-03-28T10:00:28.175Z</time></trkpt><trkpt lat="43.4663203" lon="12.2107807"><ele>360.75</ele><time>2026-03-28T10:00:29.179Z</time></trkpt><trkpt lat="43.4661985" lon="12.2107829"><ele>363.5</ele><time>2026-03-28T10:00:30.176Z</time></trkpt><trkpt lat="43.4660738" lon="12.2108183"><ele>366.25</ele><time>2026-03-28T10:00:31.171Z</time></trkpt><trkpt lat="43.4659505" lon="12.2108747"><ele>369.0</ele><time>2026-03-28T10:00:32.183Z</time></trkpt><trkpt lat="43.4658261" lon="12.2109351"><ele>369.0</ele><time>2026-03-28T10:00:33.195Z</time></trkpt><trkpt lat="43.4657005" lon="12.210993"><ele>369.0</ele><time>2026-03-28T10:00:34.183Z</time></trkpt><trkpt lat="43.465575" lon="12.2110525"><ele>369.0</ele><time>2026-03-28T10:00:35.159Z</time></trkpt><trkpt lat="43.4654514" lon="12.2111137"><ele>369.0</ele><time>2026-03-28T10:00:36.175Z</time></trkpt><trkpt lat="43.4653345" lon="12.2111771"><ele>371.0</ele><time>2026-03-28T10:00:37.167Z</time></trkpt><trkpt lat="43.4652214" lon="12.2112396"><ele>373.0</ele><time>2026-03-28T10:00:38.176Z</time></trkpt><trkpt lat="43.4651359" lon="12.2113445"><ele>375.0</ele><time>2026-03-28T10:00:39.167Z</time></trkpt><trkpt lat="43.4650693" lon="12.2114677"><ele>377.0</ele><time>2026-03-28T10:00:40.201Z</time></trkpt><trkpt lat="43.4650193" lon="12.2116073"><ele>378.75</ele><time>2026-03-28T10:00:41.186Z</time></trkpt><trkpt lat="43.4649732" lon="12.2117522"><ele>380.5</ele><time>2026-03-28T10:00:42.193Z</time></trkpt><trkpt lat="43.4649269" lon="12.2118943"><ele>382.25</ele><time>2026-03-28T10:00:43.186Z</time></trkpt><trkpt lat="43.4648737" lon="12.2120336"><ele>384.0</ele><time>2026-03-28T10:00:44.174Z</time></trkpt><trkpt lat="43.4648132" lon="12.2121677"><ele>384.0</ele><time>2026-03-28T10:00:45.176Z</time></trkpt><trkpt lat="43.4647457" lon="12.2122917"><ele>384.0</ele><time>2026-03-28T10:00:46.178Z</time></trkpt><trkpt lat="43.4646652" lon="12.2124016"><ele>384.0</ele><time>2026-03-28T10:00:47.17Z</time></trkpt><trkpt lat="43.4645733" lon="12.2124957"><ele>384.0</ele><time>2026-03-28T10:00:48.171Z</time></trkpt><trkpt lat="43.4644705" lon="12.2125758"><ele>387.5</ele><time>2026-03-28T10:00:49.178Z</time></trkpt><trkpt lat="43.4643635" lon="12.2126376"><ele>391.0</ele><time>2026-03-28T10:00:50.172Z</time></trkpt><trkpt lat="43.4642531" lon="12.2126816"><ele>394.5</ele><time>2026-03-28T10:00:51.185Z</time></trkpt><trkpt lat="43.4641416" lon="12.2127108"><ele>398.0</ele><time>2026-03-28T10:00:52.162Z</time></trkpt><trkpt lat="43.4640337" lon="12.2127329"><ele>398.0</ele><time>2026-03-28T10:00:53.167Z</time></trkpt><trkpt lat="43.4639257" lon="12.2127549"><ele>398.0</ele><time>2026-03-28T10:00:54.174Z</time></trkpt><trkpt lat="43.4638163" lon="12.2127799"><ele>398.0</ele><time>2026-03-28T10:00:55.162Z</time></trkpt><trkpt lat="43.4637074" lon="12.2128042"><ele>398.0</ele><time>2026-03-28T10:00:56.166Z</time></trkpt><trkpt lat="43.4636012" lon="12.2128256"><ele>398.0</ele><time>2026-03-28T10:00:57.165Z</time></trkpt><trkpt lat="43.4634991" lon="12.2128487"><ele>398.99999999999994</ele><time>2026-03-28T10:00:58.165Z</time></trkpt><trkpt lat="43.4634048" lon="12.2128736"><ele>400.0</ele><time>2026-03-28T10:00:59.163Z</time></trkpt><trkpt lat="43.4633207" lon="12.2128945"><ele>401.0</ele><time>2026-03-28T10:01:00.165Z</time></trkpt><trkpt lat="43.4632432" lon="12.212912"><ele>402.0</ele><time>2026-03-28T10:01:01.171Z</time></trkpt><trkpt lat="43.4631698" lon="12.2129232"><ele>402.99999999999994</ele><time>2026-03-28T10:01:02.169Z</time></trkpt><trkpt lat="43.4630965" lon="12.2129238"><ele>404.0</ele><time>2026-03-28T10:01:03.168Z</time></trkpt><trkpt lat="43.4630214" lon="12.212904"><ele>404.99999999999994</ele><time>2026-03-28T10:01:04.168Z</time></trkpt><trkpt lat="43.4629448" lon="12.2128671"><ele>406.0</ele><time>2026-03-28T10:01:05.163Z</time></trkpt><trkpt lat="43.4628677" lon="12.2128167"><ele>407.0</ele><time>2026-03-28T10:01:06.168Z</time></trkpt><trkpt lat="43.4627866" lon="12.2127632"><ele>408.0</ele><time>2026-03-28T10:01:07.174Z</time></trkpt><trkpt lat="43.4627025" lon="12.2127084"><ele>408.99999999999994</ele><time>2026-03-28T10:01:08.171Z</time></trkpt><trkpt lat="43.4626184" lon="12.2126555"><ele>410.0</ele><time>2026-03-28T10:01:09.168Z</time></trkpt><trkpt lat="43.4625327" lon="12.2126074"><ele>410.0</ele><time>2026-03-28T10:01:10.167Z</time></trkpt><trkpt lat="43.4624456" lon="12.2125659"><ele>410.0</ele><time>2026-03-28T10:01:11.167Z</time></trkpt><trkpt lat="43.4623546" lon="12.2125389"><ele>410.0</ele><time>2026-03-28T10:01:12.164Z</time></trkpt><trkpt lat="43.4622606" lon="12.2125287"><ele>410.0</ele><time>2026-03-28T10:01:13.174Z</time></trkpt><trkpt lat="43.4621656" lon="12.212522"><ele>410.0</ele><time>2026-03-28T10:01:14.162Z</time></trkpt><trkpt lat="43.4620667" lon="12.2125153"><ele>410.0</ele><time>2026-03-28T10:01:15.179Z</time></trkpt><trkpt lat="43.4619591" lon="12.2125082"><ele>410.0</ele><time>2026-03-28T10:01:16.167Z</time></trkpt><trkpt lat="43.4618467" lon="12.2125001"><ele>410.0</ele><time>2026-03-28T10:01:17.171Z</time></trkpt><trkpt lat="43.4617367" lon="12.2124934"><ele>410.0</ele><time>2026-03-28T10:01:18.171Z</time></trkpt><trkpt lat="43.4616256" lon="12.2124887"><ele>410.0</ele><time>2026-03-28T10:01:19.165Z</time></trkpt><trkpt lat="43.4615129" lon="12.2124856"><ele>410.0</ele><time>2026-03-28T10:01:20.164Z</time></trkpt><trkpt lat="43.461405" lon="12.2124861"><ele>410.0</ele><time>2026-03-28T10:01:21.169Z</time></trkpt><trkpt lat="43.4613064" lon="12.2124872"><ele>410.0</ele><time>2026-03-28T10:01:22.17Z</time></trkpt><trkpt lat="43.4612164" lon="12.2124868"><ele>410.0</ele><time>2026-03-28T10:01:23.164Z</time></trkpt><trkpt lat="43.461128" lon="12.2124812"><ele>410.0</ele><time>2026-03-28T10:01:24.173Z</time></trkpt><trkpt lat="43.4610399" lon="12.2124665"><ele>410.8</ele><time>2026-03-28T10:01:25.171Z</time></trkpt><trkpt lat="43.4609521" lon="12.2124388"><ele>411.6</ele><time>2026-03-28T10:01:26.164Z</time></trkpt><trkpt lat="43.4608631" lon="12.2123898"><ele>412.4</ele><time>2026-03-28T10:01:27.17Z</time></trkpt><trkpt lat="43.46077" lon="12.2123255"><ele>413.2</ele><time>2026-03-28T10:01:28.171Z</time></trkpt><trkpt lat="43.4606723" lon="12.2122606"><ele>414.0</ele><time>2026-03-28T10:01:29.163Z</time></trkpt><trkpt lat="43.4605716" lon="12.2122052"><ele>414.0</ele><time>2026-03-28T10:01:30.17Z</time></trkpt><trkpt lat="43.4604692" lon="12.2121692"><ele>414.0</ele><time>2026-03-28T10:01:31.159Z</time></trkpt><trkpt lat="43.460363" lon="12.2121606"><ele>414.0</ele><time>2026-03-28T10:01:32.174Z</time></trkpt><trkpt lat="43.4602541" lon="12.2121525"><ele>414.0</ele><time>2026-03-28T10:01:33.164Z</time></trkpt><trkpt lat="43.4601366" lon="12.2121686"><ele>414.0</ele><time>2026-03-28T10:01:34.174Z</time></trkpt><trkpt lat="43.4600224" lon="12.2121817"><ele>416.0</ele><time>2026-03-28T10:01:35.17Z</time></trkpt><trkpt lat="43.4599126" lon="12.2121939"><ele>418.0</ele><time>2026-03-28T10:01:36.175Z</time></trkpt><trkpt lat="43.4598059" lon="12.2122004"><ele>420.0</ele><time>2026-03-28T10:01:37.165Z</time></trkpt><trkpt lat="43.4596995" lon="12.2121999"><ele>422.0</ele><time>2026-03-28T10:01:38.163Z</time></trkpt><trkpt lat="43.4595887" lon="12.2122166"><ele>424.0</ele><time>2026-03-28T10:01:39.168Z</time></trkpt><trkpt lat="43.4594851" lon="12.2122707"><ele>426.33333333333337</ele><time>2026-03-28T10:01:40.166Z</time></trkpt><trkpt lat="43.4593999" lon="12.2123388"><ele>428.6666666666667</ele><time>2026-03-28T10:01:41.167Z</time></trkpt><trkpt lat="43.4593211" lon="12.2123938"><ele>431.0</ele><time>2026-03-28T10:01:42.175Z</time></trkpt><trkpt lat="43.4592572" lon="12.212433"><ele>433.33333333333337</ele><time>2026-03-28T10:01:43.166Z</time></trkpt><trkpt lat="43.4591919" lon="12.2124726"><ele>435.6666666666667</ele><time>2026-03-28T10:01:44.159Z</time></trkpt><trkpt lat="43.459102" lon="12.2125315"><ele>438.0</ele><time>2026-03-28T10:01:46.159Z</time></trkpt><trkpt lat="43.4591731" lon="12.2124881"><ele>438.0</ele><time>2026-03-28T10:02:03.163Z</time></trkpt><trkpt lat="43.4592864" lon="12.2124361"><ele>437.99999999999994</ele><time>2026-03-28T10:02:05.176Z</time></trkpt><trkpt lat="43.4593666" lon="12.2123882"><ele>437.99999999999994</ele><time>2026-03-28T10:02:06.175Z</time></trkpt><trkpt lat="43.4594429" lon="12.2123384"><ele>438.0</ele><time>2026-03-28T10:02:07.164Z</time></trkpt><trkpt lat="43.4595081" lon="12.212298"><ele>438.0</ele><time>2026-03-28T10:02:08.171Z</time></trkpt><trkpt lat="43.4595942" lon="12.2122521"><ele>438.4</ele><time>2026-03-28T10:02:10.174Z</time></trkpt><trkpt lat="43.459581" lon="12.2121441"><ele>438.79999999999995</ele><time>2026-03-28T10:02:16.168Z</time></trkpt><trkpt lat="43.4595041" lon="12.212111"><ele>439.2</ele><time>2026-03-28T10:02:18.172Z</time></trkpt><trkpt lat="43.4594169" lon="12.2120448"><ele>439.6</ele><time>2026-03-28T10:02:20.168Z</time></trkpt><trkpt lat="43.4593349" lon="12.211967"><ele>440.0</ele><time>2026-03-28T10:02:23.158Z</time></trkpt><trkpt lat="43.4592455" lon="12.2119139"><ele>439.99999999999994</ele><time>2026-03-28T10:02:25.168Z</time></trkpt><trkpt lat="43.4591665" lon="12.2118459"><ele>440.0</ele><time>2026-03-28T10:02:27.16Z</time></trkpt><trkpt lat="43.4590863" lon="12.211785"><ele>440.0</ele><time>2026-03-28T10:02:30.164Z</time></trkpt><trkpt lat="43.4590181" lon="12.2117514"><ele>440.0</ele><time>2026-03-28T10:02:32.162Z</time></trkpt><trkpt lat="43.4589496" lon="12.21172"><ele>439.99999999999994</ele><time>2026-03-28T10:02:34.166Z</time></trkpt><trkpt lat="43.4588761" lon="12.211679"><ele>440.0</ele><time>2026-03-28T10:02:36.176Z</time></trkpt><trkpt lat="43.458789" lon="12.2116286"><ele>440.8333333333333</ele><time>2026-03-28T10:02:38.171Z</time></trkpt><trkpt lat="43.4587018" lon="12.2115823"><ele>441.66666666666663</ele><time>2026-03-28T10:02:40.173Z</time></trkpt><trkpt lat="43.4586333" lon="12.211556"><ele>442.5</ele><time>2026-03-28T10:02:43.179Z</time></trkpt><trkpt lat="43.4585333" lon="12.2115178"><ele>443.33333333333337</ele><time>2026-03-28T10:02:59.17Z</time></trkpt><trkpt lat="43.4584697" lon="12.2114913"><ele>444.1666666666667</ele><time>2026-03-28T10:03:00.165Z</time></trkpt><trkpt lat="43.4583854" lon="12.2114636"><ele>445.0</ele><time>2026-03-28T10:03:01.169Z</time></trkpt><trkpt lat="43.4582914" lon="12.2114392"><ele>445.0</ele><time>2026-03-28T10:03:02.169Z</time></trkpt><trkpt lat="43.4581775" lon="12.2114151"><ele>445.0</ele><time>2026-03-28T10:03:03.167Z</time></trkpt><trkpt lat="43.458067" lon="12.2113955"><ele>445.0</ele><time>2026-03-28T10:03:04.166Z</time></trkpt><trkpt lat="43.4579611" lon="12.2113782"><ele>445.0</ele><time>2026-03-28T10:03:05.169Z</time></trkpt><trkpt lat="43.4578631" lon="12.2113692"><ele>445.0</ele><time>2026-03-28T10:03:06.16Z</time></trkpt><trkpt lat="43.4577859" lon="12.2113465"><ele>447.6666666666667</ele><time>2026-03-28T10:03:07.162Z</time></trkpt><trkpt lat="43.4577187" lon="12.2113273"><ele>450.33333333333337</ele><time>2026-03-28T10:03:08.168Z</time></trkpt><trkpt lat="43.4576603" lon="12.2112762"><ele>453.0</ele><time>2026-03-28T10:03:09.167Z</time></trkpt><trkpt lat="43.4576136" lon="12.2111965"><ele>455.66666666666663</ele><time>2026-03-28T10:03:10.162Z</time></trkpt><trkpt lat="43.4575768" lon="12.2110945"><ele>458.3333333333333</ele><time>2026-03-28T10:03:11.17Z</time></trkpt><trkpt lat="43.4575506" lon="12.2109725"><ele>461.0</ele><time>2026-03-28T10:03:12.164Z</time></trkpt><trkpt lat="43.4575229" lon="12.2108294"><ele>460.99999999999994</ele><time>2026-03-28T10:03:13.166Z</time></trkpt><trkpt lat="43.4574896" lon="12.2106906"><ele>461.0</ele><time>2026-03-28T10:03:14.173Z</time></trkpt><trkpt lat="43.4574574" lon="12.210569"><ele>461.0</ele><time>2026-03-28T10:03:15.165Z</time></trkpt><trkpt lat="43.4574187" lon="12.2104738"><ele>461.0</ele><time>2026-03-28T10:03:16.17Z</time></trkpt><trkpt lat="43.4573768" lon="12.2103921"><ele>460.99999999999994</ele><time>2026-03-28T10:03:17.167Z</time></trkpt><trkpt lat="43.4573365" lon="12.2103227"><ele>461.0</ele><time>2026-03-28T10:03:18.163Z</time></trkpt><trkpt lat="43.4572521" lon="12.2102533"><ele>461.66666666666663</ele><time>2026-03-28T10:03:20.162Z</time></trkpt><trkpt lat="43.4571819" lon="12.2102384"><ele>462.3333333333333</ele><time>2026-03-28T10:05:05.186Z</time></trkpt><trkpt lat="43.4572457" lon="12.2102127"><ele>463.0</ele><time>2026-03-28T10:05:26.172Z</time></trkpt><trkpt lat="43.4573194" lon="12.2102718"><ele>463.66666666666663</ele><time>2026-03-28T10:05:29.162Z</time></trkpt><trkpt lat="43.4573728" lon="12.2103392"><ele>464.3333333333333</ele><time>2026-03-28T10:05:31.156Z</time></trkpt><trkpt lat="43.4574252" lon="12.2104212"><ele>465.0</ele><time>2026-03-28T10:05:33.176Z</time></trkpt><trkpt lat="43.457466" lon="12.2105263"><ele>465.0</ele><time>2026-03-28T10:05:35.179Z</time></trkpt><trkpt lat="43.4575012" lon="12.2106459"><ele>465.0</ele><time>2026-03-28T10:05:37.157Z</time></trkpt><trkpt lat="43.4575395" lon="12.2107792"><ele>465.0</ele><time>2026-03-28T10:05:39.173Z</time></trkpt><trkpt lat="43.4575819" lon="12.2109311"><ele>465.0</ele><time>2026-03-28T10:05:41.172Z</time></trkpt><trkpt lat="43.4576171" lon="12.2110541"><ele>465.0</ele><time>2026-03-28T10:05:43.171Z</time></trkpt><trkpt lat="43.4576548" lon="12.2111834"><ele>464.3333333333333</ele><time>2026-03-28T10:05:45.17Z</time></trkpt><trkpt lat="43.4577145" lon="12.21131"><ele>463.66666666666663</ele><time>2026-03-28T10:05:47.177Z</time></trkpt><trkpt lat="43.4577982" lon="12.2113745"><ele>463.0</ele><time>2026-03-28T10:05:49.168Z</time></trkpt><trkpt lat="43.4578618" lon="12.2113827"><ele>462.3333333333333</ele><time>2026-03-28T10:05:50.178Z</time></trkpt><trkpt lat="43.4579403" lon="12.2113902"><ele>461.66666666666663</ele><time>2026-03-28T10:05:51.171Z</time></trkpt><trkpt lat="43.4580169" lon="12.2113941"><ele>461.0</ele><time>2026-03-28T10:05:52.17Z</time></trkpt><trkpt lat="43.4580925" lon="12.2114022"><ele>458.3333333333333</ele><time>2026-03-28T10:05:53.166Z</time></trkpt><trkpt lat="43.4581687" lon="12.2114115"><ele>455.66666666666663</ele><time>2026-03-28T10:05:54.163Z</time></trkpt><trkpt lat="43.4582407" lon="12.2114248"><ele>453.0</ele><time>2026-03-28T10:05:55.178Z</time></trkpt><trkpt lat="43.4583087" lon="12.2114382"><ele>450.33333333333337</ele><time>2026-03-28T10:05:56.183Z</time></trkpt><trkpt lat="43.4583727" lon="12.2114516"><ele>447.6666666666667</ele><time>2026-03-28T10:05:57.187Z</time></trkpt><trkpt lat="43.4584799" lon="12.211478"><ele>445.0</ele><time>2026-03-28T10:05:59.19Z</time></trkpt><trkpt lat="43.4585511" lon="12.2115387"><ele>445.00000000000006</ele><time>2026-03-28T10:06:01.175Z</time></trkpt><trkpt lat="43.4585774" lon="12.2116279"><ele>445.0</ele><time>2026-03-28T10:06:03.18Z</time></trkpt><trkpt lat="43.458557" lon="12.2117381"><ele>445.0</ele><time>2026-03-28T10:06:06.168Z</time></trkpt><trkpt lat="43.4585084" lon="12.2118548"><ele>445.0</ele><time>2026-03-28T10:06:09.165Z</time></trkpt><trkpt lat="43.4584665" lon="12.211948"><ele>445.00000000000006</ele><time>2026-03-28T10:06:11.171Z</time></trkpt><trkpt lat="43.4584234" lon="12.2120501"><ele>445.0</ele><time>2026-03-28T10:06:13.168Z</time></trkpt><trkpt lat="43.45836" lon="12.212179"><ele>444.0</ele><time>2026-03-28T10:06:15.193Z</time></trkpt><trkpt lat="43.4582921" lon="12.2123255"><ele>443.0</ele><time>2026-03-28T10:06:17.179Z</time></trkpt><trkpt lat="43.4582546" lon="12.2123983"><ele>442.0</ele><time>2026-03-28T10:06:18.179Z</time></trkpt><trkpt lat="43.4581937" lon="12.2125141"><ele>441.0</ele><time>2026-03-28T10:06:20.186Z</time></trkpt><trkpt lat="43.4581505" lon="12.212594"><ele>440.0</ele><time>2026-03-28T10:06:22.175Z</time></trkpt><trkpt lat="43.4580888" lon="12.2126725"><ele>439.99999999999994</ele><time>2026-03-28T10:06:24.173Z</time></trkpt><trkpt lat="43.4580035" lon="12.2127638"><ele>440.0</ele><time>2026-03-28T10:06:26.191Z</time></trkpt><trkpt lat="43.4579492" lon="12.2128107"><ele>440.0</ele><time>2026-03-28T10:06:27.185Z</time></trkpt><trkpt lat="43.4578875" lon="12.2128533"><ele>440.0</ele><time>2026-03-28T10:06:28.188Z</time></trkpt><trkpt lat="43.4578276" lon="12.2128848"><ele>439.99999999999994</ele><time>2026-03-28T10:06:29.167Z</time></trkpt><trkpt lat="43.4577335" lon="12.2129269"><ele>440.0</ele><time>2026-03-28T10:06:31.185Z</time></trkpt><trkpt lat="43.4576666" lon="12.212958"><ele>439.8333333333333</ele><time>2026-03-28T10:06:33.18Z</time></trkpt><trkpt lat="43.4576034" lon="12.2129789"><ele>439.66666666666663</ele><time>2026-03-28T10:06:35.178Z</time></trkpt><trkpt lat="43.457518" lon="12.2130057"><ele>439.5</ele><time>2026-03-28T10:06:38.184Z</time></trkpt><trkpt lat="43.4574223" lon="12.2130734"><ele>439.33333333333337</ele><time>2026-03-28T10:06:41.172Z</time></trkpt><trkpt lat="43.4573683" lon="12.2131191"><ele>439.1666666666667</ele><time>2026-03-28T10:06:42.168Z</time></trkpt><trkpt lat="43.4573091" lon="12.2131789"><ele>439.0</ele><time>2026-03-28T10:06:43.175Z</time></trkpt><trkpt lat="43.4572543" lon="12.2132599"><ele>439.00000000000006</ele><time>2026-03-28T10:06:44.173Z</time></trkpt><trkpt lat="43.4572124" lon="12.2133597"><ele>439.0</ele><time>2026-03-28T10:06:45.171Z</time></trkpt><trkpt lat="43.4571808" lon="12.2134656"><ele>439.0</ele><time>2026-03-28T10:06:46.169Z</time></trkpt><trkpt lat="43.4571523" lon="12.2135695"><ele>439.0</ele><time>2026-03-28T10:06:47.165Z</time></trkpt><trkpt lat="43.4571251" lon="12.213672"><ele>439.00000000000006</ele><time>2026-03-28T10:06:48.186Z</time></trkpt><trkpt lat="43.4570944" lon="12.2137681"><ele>439.0</ele><time>2026-03-28T10:06:49.185Z</time></trkpt><trkpt lat="43.4570616" lon="12.213852"><ele>441.2</ele><time>2026-03-28T10:06:50.179Z</time></trkpt><trkpt lat="43.4569877" lon="12.2139936"><ele>443.4</ele><time>2026-03-28T10:06:52.163Z</time></trkpt><trkpt lat="43.4569456" lon="12.2140717"><ele>445.6</ele><time>2026-03-28T10:06:53.196Z</time></trkpt><trkpt lat="43.4569028" lon="12.214164"><ele>447.8</ele><time>2026-03-28T10:06:54.18Z</time></trkpt><trkpt lat="43.4568582" lon="12.2142597"><ele>450.0</ele><time>2026-03-28T10:06:55.183Z</time></trkpt><trkpt lat="43.4568147" lon="12.214379"><ele>450.0</ele><time>2026-03-28T10:06:56.161Z</time></trkpt><trkpt lat="43.4567685" lon="12.2145025"><ele>450.0</ele><time>2026-03-28T10:06:57.177Z</time></trkpt><trkpt lat="43.4567146" lon="12.2146272"><ele>450.0</ele><time>2026-03-28T10:06:58.178Z</time></trkpt><trkpt lat="43.4566515" lon="12.2147419"><ele>450.0</ele><time>2026-03-28T10:06:59.189Z</time></trkpt><trkpt lat="43.4565767" lon="12.2148444"><ele>450.0</ele><time>2026-03-28T10:07:00.186Z</time></trkpt><trkpt lat="43.4564988" lon="12.2149362"><ele>450.0</ele><time>2026-03-28T10:07:01.204Z</time></trkpt><trkpt lat="43.4564188" lon="12.2150271"><ele>450.0</ele><time>2026-03-28T10:07:02.177Z</time></trkpt><trkpt lat="43.4563414" lon="12.2151064"><ele>450.0</ele><time>2026-03-28T10:07:03.174Z</time></trkpt><trkpt lat="43.4562618" lon="12.2151758"><ele>450.0</ele><time>2026-03-28T10:07:04.183Z</time></trkpt><trkpt lat="43.4561763" lon="12.2152311"><ele>450.0</ele><time>2026-03-28T10:07:05.179Z</time></trkpt><trkpt lat="43.4560837" lon="12.2152719"><ele>450.0</ele><time>2026-03-28T10:07:06.178Z</time></trkpt><trkpt lat="43.4559836" lon="12.2153062"><ele>450.0</ele><time>2026-03-28T10:07:07.183Z</time></trkpt><trkpt lat="43.4558848" lon="12.2153393"><ele>450.0</ele><time>2026-03-28T10:07:08.17Z</time></trkpt><trkpt lat="43.4557766" lon="12.2153494"><ele>450.0</ele><time>2026-03-28T10:07:09.171Z</time></trkpt><trkpt lat="43.4556636" lon="12.2153438"><ele>450.0</ele><time>2026-03-28T10:07:10.176Z</time></trkpt><trkpt lat="43.4555505" lon="12.2153392"><ele>451.2</ele><time>2026-03-28T10:07:11.174Z</time></trkpt><trkpt lat="43.4554382" lon="12.2153066"><ele>452.4</ele><time>2026-03-28T10:07:12.177Z</time></trkpt><trkpt lat="43.4553362" lon="12.2152693"><ele>453.6</ele><time>2026-03-28T10:07:13.187Z</time></trkpt><trkpt lat="43.4552324" lon="12.215261"><ele>454.8</ele><time>2026-03-28T10:07:14.177Z</time></trkpt><trkpt lat="43.4551293" lon="12.2152734"><ele>456.0</ele><time>2026-03-28T10:07:15.176Z</time></trkpt><trkpt lat="43.4550402" lon="12.2152984"><ele>456.0</ele><time>2026-03-28T10:07:16.178Z</time></trkpt><trkpt lat="43.4549641" lon="12.2153516"><ele>456.0</ele><time>2026-03-28T10:07:17.182Z</time></trkpt><trkpt lat="43.4549013" lon="12.215402"><ele>456.0</ele><time>2026-03-28T10:07:18.172Z</time></trkpt><trkpt lat="43.4548266" lon="12.2154819"><ele>456.0</ele><time>2026-03-28T10:07:20.194Z</time></trkpt><trkpt lat="43.4547682" lon="12.2155209"><ele>456.0</ele><time>2026-03-28T10:07:56.174Z</time></trkpt><trkpt lat="43.4547012" lon="12.2155573"><ele>456.0</ele><time>2026-03-28T10:07:58.166Z</time></trkpt><trkpt lat="43.4546601" lon="12.2156552"><ele>457.0</ele><time>2026-03-28T10:08:00.18Z</time></trkpt><trkpt lat="43.454596" lon="12.2157308"><ele>458.0</ele><time>2026-03-28T10:08:02.18Z</time></trkpt><trkpt lat="43.4545258" lon="12.2157491"><ele>459.0</ele><time>2026-03-28T10:08:05.169Z</time></trkpt><trkpt lat="43.4544422" lon="12.215736"><ele>460.0</ele><time>2026-03-28T10:08:08.169Z</time></trkpt><trkpt lat="43.454371" lon="12.2157045"><ele>461.0</ele><time>2026-03-28T10:08:11.175Z</time></trkpt><trkpt lat="43.4543095" lon="12.2156463"><ele>462.0</ele><time>2026-03-28T10:08:13.179Z</time></trkpt><trkpt lat="43.454259" lon="12.2155366"><ele>463.3333333333333</ele><time>2026-03-28T10:08:15.172Z</time></trkpt><trkpt lat="43.4542059" lon="12.2154378"><ele>464.66666666666663</ele><time>2026-03-28T10:08:17.171Z</time></trkpt><trkpt lat="43.4541251" lon="12.2153281"><ele>466.0</ele><time>2026-03-28T10:08:19.173Z</time></trkpt><trkpt lat="43.4540804" lon="12.2152617"><ele>467.3333333333333</ele><time>2026-03-28T10:08:20.173Z</time></trkpt><trkpt lat="43.4539923" lon="12.2151618"><ele>468.66666666666663</ele><time>2026-03-28T10:08:22.171Z</time></trkpt><trkpt lat="43.4539378" lon="12.2151181"><ele>470.0</ele><time>2026-03-28T10:08:23.179Z</time></trkpt><trkpt lat="43.453875" lon="12.2150722"><ele>469.99999999999994</ele><time>2026-03-28T10:08:24.173Z</time></trkpt><trkpt lat="43.4538125" lon="12.2150355"><ele>470.0</ele><time>2026-03-28T10:08:25.18Z</time></trkpt><trkpt lat="43.4536994" lon="12.2150088"><ele>470.0</ele><time>2026-03-28T10:08:27.174Z</time></trkpt><trkpt lat="43.4536284" lon="12.215005"><ele>470.0</ele><time>2026-03-28T10:08:28.17Z</time></trkpt><trkpt lat="43.4535592" lon="12.2149974"><ele>469.99999999999994</ele><time>2026-03-28T10:08:29.202Z</time></trkpt><trkpt lat="43.45345" lon="12.2149885"><ele>470.0</ele><time>2026-03-28T10:08:31.178Z</time></trkpt><trkpt lat="43.4533504" lon="12.2149635"><ele>473.3333333333333</ele><time>2026-03-28T10:08:33.192Z</time></trkpt><trkpt lat="43.4532836" lon="12.2148935"><ele>476.66666666666663</ele><time>2026-03-28T10:08:35.17Z</time></trkpt><trkpt lat="43.4532285" lon="12.2147788"><ele>480.0</ele><time>2026-03-28T10:08:37.172Z</time></trkpt><trkpt lat="43.4531619" lon="12.2146405"><ele>483.33333333333337</ele><time>2026-03-28T10:08:39.161Z</time></trkpt><trkpt lat="43.4531253" lon="12.214561"><ele>486.6666666666667</ele><time>2026-03-28T10:08:40.167Z</time></trkpt><trkpt lat="43.45308" lon="12.2144823"><ele>490.0</ele><time>2026-03-28T10:08:41.168Z</time></trkpt><trkpt lat="43.4530277" lon="12.2144052"><ele>494.50000000000006</ele><time>2026-03-28T10:08:42.161Z</time></trkpt><trkpt lat="43.4529199" lon="12.2142902"><ele>499.0</ele><time>2026-03-28T10:08:44.161Z</time></trkpt><trkpt lat="43.4528558" lon="12.214231"><ele>503.5</ele><time>2026-03-28T10:08:45.171Z</time></trkpt><trkpt lat="43.4527978" lon="12.214177"><ele>508.0</ele><time>2026-03-28T10:08:46.168Z</time></trkpt><trkpt lat="43.4527422" lon="12.2141201"><ele>512.5</ele><time>2026-03-28T10:08:47.169Z</time></trkpt><trkpt lat="43.4526871" lon="12.2140606"><ele>517.0</ele><time>2026-03-28T10:08:48.167Z</time></trkpt><trkpt lat="43.4526019" lon="12.2139965"><ele>517.0</ele><time>2026-03-28T10:08:50.168Z</time></trkpt><trkpt lat="43.4524931" lon="12.2139995"><ele>517.0</ele><time>2026-03-28T10:08:52.165Z</time></trkpt><trkpt lat="43.4523738" lon="12.213978"><ele>517.0</ele><time>2026-03-28T10:08:54.16Z</time></trkpt><trkpt lat="43.4522517" lon="12.2139298"><ele>517.0</ele><time>2026-03-28T10:08:56.172Z</time></trkpt><trkpt lat="43.452141" lon="12.2138757"><ele>521.0</ele><time>2026-03-28T10:08:58.171Z</time></trkpt><trkpt lat="43.4520464" lon="12.2138092"><ele>525.0</ele><time>2026-03-28T10:09:00.166Z</time></trkpt><trkpt lat="43.4519827" lon="12.2137663"><ele>529.0</ele><time>2026-03-28T10:09:02.162Z</time></trkpt><trkpt lat="43.4518992" lon="12.2137575"><ele>533.0</ele><time>2026-03-28T10:09:05.161Z</time></trkpt><trkpt lat="43.4518405" lon="12.2138173"><ele>537.0</ele><time>2026-03-28T10:09:07.168Z</time></trkpt><trkpt lat="43.4517671" lon="12.2138528"><ele>541.0</ele><time>2026-03-28T10:09:09.173Z</time></trkpt><trkpt lat="43.4516657" lon="12.2138415"><ele>541.0</ele><time>2026-03-28T10:09:11.174Z</time></trkpt><trkpt lat="43.451605" lon="12.2137859"><ele>541.0</ele><time>2026-03-28T10:09:13.162Z</time></trkpt><trkpt lat="43.4515678" lon="12.2136502"><ele>541.0</ele><time>2026-03-28T10:09:15.167Z</time></trkpt><trkpt lat="43.4515434" lon="12.2135588"><ele>541.0</ele><time>2026-03-28T10:09:16.169Z</time></trkpt><trkpt lat="43.4515083" lon="12.2134103"><ele>541.0</ele><time>2026-03-28T10:09:18.164Z</time></trkpt><trkpt lat="43.4514948" lon="12.2133029"><ele>541.0</ele><time>2026-03-28T10:09:19.164Z</time></trkpt><trkpt lat="43.451482" lon="12.2131948"><ele>541.6666666666667</ele><time>2026-03-28T10:09:20.164Z</time></trkpt><trkpt lat="43.4514643" lon="12.2131"><ele>542.3333333333334</ele><time>2026-03-28T10:09:21.167Z</time></trkpt><trkpt lat="43.4514212" lon="12.2130148"><ele>543.0</ele><time>2026-03-28T10:09:23.16Z</time></trkpt><trkpt lat="43.4513172" lon="12.2129966"><ele>543.6666666666666</ele><time>2026-03-28T10:09:25.162Z</time></trkpt><trkpt lat="43.4512433" lon="12.2129963"><ele>544.3333333333333</ele><time>2026-03-28T10:09:26.166Z</time></trkpt><trkpt lat="43.4511692" lon="12.2129877"><ele>545.0</ele><time>2026-03-28T10:09:27.17Z</time></trkpt><trkpt lat="43.4511043" lon="12.2129723"><ele>548.2</ele><time>2026-03-28T10:09:28.17Z</time></trkpt><trkpt lat="43.4510375" lon="12.2129388"><ele>551.4</ele><time>2026-03-28T10:09:29.171Z</time></trkpt><trkpt lat="43.4509767" lon="12.2128775"><ele>554.6</ele><time>2026-03-28T10:09:30.169Z</time></trkpt><trkpt lat="43.4509177" lon="12.2128172"><ele>557.8</ele><time>2026-03-28T10:09:31.17Z</time></trkpt><trkpt lat="43.4508192" lon="12.21272"><ele>561.0</ele><time>2026-03-28T10:09:33.171Z</time></trkpt><trkpt lat="43.4507392" lon="12.2126151"><ele>561.0</ele><time>2026-03-28T10:09:35.173Z</time></trkpt><trkpt lat="43.4506959" lon="12.2125279"><ele>561.0</ele><time>2026-03-28T10:09:37.172Z</time></trkpt><trkpt lat="43.4506241" lon="12.212532"><ele>561.0</ele><time>2026-03-28T10:09:39.156Z</time></trkpt><trkpt lat="43.4505583" lon="12.2126444"><ele>561.0</ele><time>2026-03-28T10:09:42.163Z</time></trkpt><trkpt lat="43.4505316" lon="12.2127894"><ele>561.0</ele><time>2026-03-28T10:09:44.164Z</time></trkpt><trkpt lat="43.4505189" lon="12.2128941"><ele>561.0</ele><time>2026-03-28T10:09:45.164Z</time></trkpt><trkpt lat="43.4505027" lon="12.2130169"><ele>561.0</ele><time>2026-03-28T10:09:46.165Z</time></trkpt><trkpt lat="43.4504869" lon="12.2131454"><ele>561.0</ele><time>2026-03-28T10:09:47.167Z</time></trkpt><trkpt lat="43.4504698" lon="12.2132648"><ele>561.0</ele><time>2026-03-28T10:09:48.161Z</time></trkpt><trkpt lat="43.4504477" lon="12.2133808"><ele>561.0</ele><time>2026-03-28T10:09:49.174Z</time></trkpt><trkpt lat="43.4504145" lon="12.2134896"><ele>561.0</ele><time>2026-03-28T10:09:50.164Z</time></trkpt><trkpt lat="43.4503751" lon="12.2135894"><ele>561.0</ele><time>2026-03-28T10:09:51.166Z</time></trkpt><trkpt lat="43.4503165" lon="12.2136812"><ele>562.8333333333334</ele><time>2026-03-28T10:09:52.172Z</time></trkpt><trkpt lat="43.4502547" lon="12.2137553"><ele>564.6666666666666</ele><time>2026-03-28T10:09:53.17Z</time></trkpt><trkpt lat="43.450203" lon="12.2138306"><ele>566.5</ele><time>2026-03-28T10:09:54.167Z</time></trkpt><trkpt lat="43.45017" lon="12.213921"><ele>568.3333333333333</ele><time>2026-03-28T10:09:55.171Z</time></trkpt><trkpt lat="43.4501392" lon="12.2140118"><ele>570.1666666666666</ele><time>2026-03-28T10:09:56.164Z</time></trkpt><trkpt lat="43.4501296" lon="12.2141238"><ele>572.0</ele><time>2026-03-28T10:09:57.173Z</time></trkpt><trkpt lat="43.4501589" lon="12.2142431"><ele>572.0</ele><time>2026-03-28T10:09:58.168Z</time></trkpt><trkpt lat="43.4501779" lon="12.2143642"><ele>572.0</ele><time>2026-03-28T10:09:59.168Z</time></trkpt><trkpt lat="43.4501783" lon="12.2144654"><ele>572.0</ele><time>2026-03-28T10:10:00.166Z</time></trkpt><trkpt lat="43.4501643" lon="12.2145615"><ele>572.0</ele><time>2026-03-28T10:10:01.172Z</time></trkpt><trkpt lat="43.4501301" lon="12.2146863"><ele>572.0</ele><time>2026-03-28T10:10:02.173Z</time></trkpt><trkpt lat="43.450077" lon="12.2148377"><ele>570.5</ele><time>2026-03-28T10:10:03.165Z</time></trkpt><trkpt lat="43.4500225" lon="12.2149994"><ele>569.0</ele><time>2026-03-28T10:10:04.182Z</time></trkpt><trkpt lat="43.4499652" lon="12.2151471"><ele>567.5</ele><time>2026-03-28T10:10:05.167Z</time></trkpt><trkpt lat="43.4499109" lon="12.2152849"><ele>566.0</ele><time>2026-03-28T10:10:06.173Z</time></trkpt><trkpt lat="43.4498517" lon="12.2154138"><ele>566.0</ele><time>2026-03-28T10:10:07.17Z</time></trkpt><trkpt lat="43.4498056" lon="12.2155266"><ele>566.0</ele><time>2026-03-28T10:10:08.164Z</time></trkpt><trkpt lat="43.4497475" lon="12.2156529"><ele>566.0</ele><time>2026-03-28T10:10:09.166Z</time></trkpt><trkpt lat="43.4496853" lon="12.2157751"><ele>566.0</ele><time>2026-03-28T10:10:10.157Z</time></trkpt><trkpt lat="43.4496171" lon="12.2159025"><ele>566.0</ele><time>2026-03-28T10:10:11.173Z</time></trkpt><trkpt lat="43.449538" lon="12.2160007"><ele>566.6</ele><time>2026-03-28T10:10:12.169Z</time></trkpt><trkpt lat="43.4494477" lon="12.2160963"><ele>567.2</ele><time>2026-03-28T10:10:13.164Z</time></trkpt><trkpt lat="43.4493594" lon="12.2161926"><ele>567.8</ele><time>2026-03-28T10:10:14.167Z</time></trkpt><trkpt lat="43.4492655" lon="12.2162793"><ele>568.4</ele><time>2026-03-28T10:10:15.167Z</time></trkpt><trkpt lat="43.449177" lon="12.2163575"><ele>569.0</ele><time>2026-03-28T10:10:16.16Z</time></trkpt><trkpt lat="43.4491007" lon="12.2164225"><ele>569.0</ele><time>2026-03-28T10:10:17.17Z</time></trkpt><trkpt lat="43.4490206" lon="12.2164779"><ele>569.0</ele><time>2026-03-28T10:10:18.174Z</time></trkpt><trkpt lat="43.4489214" lon="12.2165227"><ele>569.0</ele><time>2026-03-28T10:10:19.161Z</time></trkpt><trkpt lat="43.4487956" lon="12.2165551"><ele>569.0</ele><time>2026-03-28T10:10:20.163Z</time></trkpt><trkpt lat="43.4486782" lon="12.2165801"><ele>569.0</ele><time>2026-03-28T10:10:21.172Z</time></trkpt><trkpt lat="43.4485798" lon="12.2166049"><ele>567.3333333333333</ele><time>2026-03-28T10:10:22.166Z</time></trkpt><trkpt lat="43.4484883" lon="12.2166263"><ele>565.6666666666666</ele><time>2026-03-28T10:10:23.165Z</time></trkpt><trkpt lat="43.4484089" lon="12.2166532"><ele>564.0</ele><time>2026-03-28T10:10:24.17Z</time></trkpt><trkpt lat="43.4483453" lon="12.2166714"><ele>562.3333333333334</ele><time>2026-03-28T10:10:25.178Z</time></trkpt><trkpt lat="43.4482737" lon="12.2166595"><ele>560.6666666666667</ele><time>2026-03-28T10:10:35.162Z</time></trkpt><trkpt lat="43.448207" lon="12.2166887"><ele>559.0</ele><time>2026-03-28T10:10:41.162Z</time></trkpt><trkpt lat="43.4482928" lon="12.21667"><ele>559.0</ele><time>2026-03-28T10:10:45.184Z</time></trkpt><trkpt lat="43.4482886" lon="12.2165453"><ele>559.0</ele><time>2026-03-28T10:10:49.165Z</time></trkpt><trkpt lat="43.4482447" lon="12.2164616"><ele>559.0</ele><time>2026-03-28T10:10:50.162Z</time></trkpt><trkpt lat="43.4481828" lon="12.216353"><ele>559.0</ele><time>2026-03-28T10:10:51.166Z</time></trkpt><trkpt lat="43.4481197" lon="12.216222"><ele>559.0</ele><time>2026-03-28T10:10:52.165Z</time></trkpt><trkpt lat="43.4480524" lon="12.2160837"><ele>559.6</ele><time>2026-03-28T10:10:53.164Z</time></trkpt><trkpt lat="43.4479942" lon="12.215967"><ele>560.2</ele><time>2026-03-28T10:10:54.166Z</time></trkpt><trkpt lat="43.447932" lon="12.2158374"><ele>560.8000000000001</ele><time>2026-03-28T10:10:55.162Z</time></trkpt><trkpt lat="43.4478721" lon="12.2157156"><ele>561.4</ele><time>2026-03-28T10:10:56.17Z</time></trkpt><trkpt lat="43.4478147" lon="12.2156176"><ele>562.0</ele><time>2026-03-28T10:10:57.166Z</time></trkpt><trkpt lat="43.4477731" lon="12.215532"><ele>562.0</ele><time>2026-03-28T10:10:58.167Z</time></trkpt><trkpt lat="43.4477497" lon="12.2154311"><ele>562.0</ele><time>2026-03-28T10:10:59.169Z</time></trkpt><trkpt lat="43.4477303" lon="12.215304"><ele>562.0</ele><time>2026-03-28T10:11:00.168Z</time></trkpt><trkpt lat="43.4477578" lon="12.2151599"><ele>562.0</ele><time>2026-03-28T10:11:01.164Z</time></trkpt><trkpt lat="43.4477865" lon="12.2150279"><ele>562.0</ele><time>2026-03-28T10:11:02.174Z</time></trkpt><trkpt lat="43.4478112" lon="12.2148939"><ele>561.0</ele><time>2026-03-28T10:11:03.171Z</time></trkpt><trkpt lat="43.4478374" lon="12.2148064"><ele>560.0</ele><time>2026-03-28T10:11:04.171Z</time></trkpt><trkpt lat="43.4478977" lon="12.2146632"><ele>559.0</ele><time>2026-03-28T10:11:06.182Z</time></trkpt><trkpt lat="43.447923" lon="12.2145592"><ele>558.0</ele><time>2026-03-28T10:11:07.174Z</time></trkpt><trkpt lat="43.4479517" lon="12.2144575"><ele>557.0</ele><time>2026-03-28T10:11:08.173Z</time></trkpt><trkpt lat="43.447983" lon="12.2143302"><ele>556.0</ele><time>2026-03-28T10:11:09.17Z</time></trkpt><trkpt lat="43.4480202" lon="12.2141983"><ele>561.0</ele><time>2026-03-28T10:11:10.169Z</time></trkpt><trkpt lat="43.4480565" lon="12.2140505"><ele>566.0</ele><time>2026-03-28T10:11:11.166Z</time></trkpt><trkpt lat="43.4480909" lon="12.2139023"><ele>571.0</ele><time>2026-03-28T10:11:12.176Z</time></trkpt><trkpt lat="43.4481236" lon="12.2137724"><ele>576.0</ele><time>2026-03-28T10:11:13.174Z</time></trkpt><trkpt lat="43.4481491" lon="12.2136578"><ele>581.0</ele><time>2026-03-28T10:11:14.167Z</time></trkpt><trkpt lat="43.4481724" lon="12.213557"><ele>581.0</ele><time>2026-03-28T10:11:15.167Z</time></trkpt><trkpt lat="43.4482182" lon="12.2134407"><ele>581.0</ele><time>2026-03-28T10:11:16.169Z</time></trkpt><trkpt lat="43.4482668" lon="12.2133347"><ele>581.0</ele><time>2026-03-28T10:11:17.174Z</time></trkpt><trkpt lat="43.4483416" lon="12.2132378"><ele>581.0</ele><time>2026-03-28T10:11:18.171Z</time></trkpt><trkpt lat="43.4484135" lon="12.2131439"><ele>581.0</ele><time>2026-03-28T10:11:19.173Z</time></trkpt><trkpt lat="43.4484731" lon="12.213067"><ele>581.8333333333333</ele><time>2026-03-28T10:11:20.187Z</time></trkpt><trkpt lat="43.4485335" lon="12.2129962"><ele>582.6666666666666</ele><time>2026-03-28T10:11:21.169Z</time></trkpt><trkpt lat="43.4485844" lon="12.2129405"><ele>583.5</ele><time>2026-03-28T10:11:22.182Z</time></trkpt><trkpt lat="43.44864" lon="12.2128885"><ele>584.3333333333334</ele><time>2026-03-28T10:11:23.172Z</time></trkpt><trkpt lat="43.4487077" lon="12.2128186"><ele>585.1666666666667</ele><time>2026-03-28T10:11:24.17Z</time></trkpt><trkpt lat="43.4487743" lon="12.2127326"><ele>586.0</ele><time>2026-03-28T10:11:25.171Z</time></trkpt><trkpt lat="43.4488302" lon="12.2126451"><ele>586.0</ele><time>2026-03-28T10:11:26.164Z</time></trkpt><trkpt lat="43.4488765" lon="12.2125445"><ele>586.0</ele><time>2026-03-28T10:11:27.179Z</time></trkpt><trkpt lat="43.4488995" lon="12.2124387"><ele>586.0</ele><time>2026-03-28T10:11:28.165Z</time></trkpt><trkpt lat="43.4489175" lon="12.2123371"><ele>586.0</ele><time>2026-03-28T10:11:29.177Z</time></trkpt><trkpt lat="43.4489077" lon="12.2122167"><ele>586.0</ele><time>2026-03-28T10:11:30.177Z</time></trkpt><trkpt lat="43.4488997" lon="12.2120906"><ele>586.0</ele><time>2026-03-28T10:11:31.168Z</time></trkpt><trkpt lat="43.4489179" lon="12.2119724"><ele>587.75</ele><time>2026-03-28T10:11:32.178Z</time></trkpt><trkpt lat="43.4489506" lon="12.2118279"><ele>589.5</ele><time>2026-03-28T10:11:33.172Z</time></trkpt><trkpt lat="43.4489822" lon="12.2116614"><ele>591.25</ele><time>2026-03-28T10:11:34.17Z</time></trkpt><trkpt lat="43.4490142" lon="12.2115034"><ele>593.0</ele><time>2026-03-28T10:11:35.167Z</time></trkpt><trkpt lat="43.4490394" lon="12.2113677"><ele>593.0</ele><time>2026-03-28T10:11:36.172Z</time></trkpt><trkpt lat="43.4490742" lon="12.2112586"><ele>593.0</ele><time>2026-03-28T10:11:37.171Z</time></trkpt><trkpt lat="43.4491225" lon="12.2111504"><ele>593.0</ele><time>2026-03-28T10:11:38.169Z</time></trkpt><trkpt lat="43.4491603" lon="12.2110198"><ele>593.0</ele><time>2026-03-28T10:11:39.168Z</time></trkpt><trkpt lat="43.4491899" lon="12.2108736"><ele>593.0</ele><time>2026-03-28T10:11:40.176Z</time></trkpt><trkpt lat="43.4492064" lon="12.2107275"><ele>593.1999999999999</ele><time>2026-03-28T10:11:41.179Z</time></trkpt><trkpt lat="43.4492226" lon="12.2105717"><ele>593.4</ele><time>2026-03-28T10:11:42.168Z</time></trkpt><trkpt lat="43.4492351" lon="12.2104188"><ele>593.5999999999999</ele><time>2026-03-28T10:11:43.168Z</time></trkpt><trkpt lat="43.4492503" lon="12.2102888"><ele>593.8</ele><time>2026-03-28T10:11:44.179Z</time></trkpt><trkpt lat="43.4492687" lon="12.2101643"><ele>594.0</ele><time>2026-03-28T10:11:45.172Z</time></trkpt><trkpt lat="43.4492906" lon="12.210039"><ele>594.0</ele><time>2026-03-28T10:11:46.169Z</time></trkpt><trkpt lat="43.4493187" lon="12.2099279"><ele>594.0</ele><time>2026-03-28T10:11:47.171Z</time></trkpt><trkpt lat="43.4493462" lon="12.2098145"><ele>594.0</ele><time>2026-03-28T10:11:48.18Z</time></trkpt><trkpt lat="43.4493749" lon="12.209691"><ele>594.0</ele><time>2026-03-28T10:11:49.174Z</time></trkpt><trkpt lat="43.4494138" lon="12.2095525"><ele>594.0</ele><time>2026-03-28T10:11:50.172Z</time></trkpt><trkpt lat="43.4494528" lon="12.2094108"><ele>594.0</ele><time>2026-03-28T10:11:51.169Z</time></trkpt><trkpt lat="43.4494907" lon="12.2092633"><ele>594.0</ele><time>2026-03-28T10:11:52.17Z</time></trkpt><trkpt lat="43.4495234" lon="12.2091351"><ele>594.0</ele><time>2026-03-28T10:11:53.176Z</time></trkpt><trkpt lat="43.4495397" lon="12.2090284"><ele>594.0</ele><time>2026-03-28T10:11:54.18Z</time></trkpt><trkpt lat="43.4495481" lon="12.2089381"><ele>594.0</ele><time>2026-03-28T10:11:55.176Z</time></trkpt><trkpt lat="43.4495422" lon="12.2087747"><ele>594.2857142857143</ele><time>2026-03-28T10:11:57.172Z</time></trkpt><trkpt lat="43.4495313" lon="12.2086788"><ele>594.5714285714287</ele><time>2026-03-28T10:11:58.172Z</time></trkpt><trkpt lat="43.4495183" lon="12.2085787"><ele>594.8571428571429</ele><time>2026-03-28T10:11:59.174Z</time></trkpt><trkpt lat="43.4495086" lon="12.2084776"><ele>595.1428571428571</ele><time>2026-03-28T10:12:00.172Z</time></trkpt><trkpt lat="43.4495008" lon="12.2083739"><ele>595.4285714285713</ele><time>2026-03-28T10:12:01.171Z</time></trkpt><trkpt lat="43.4494933" lon="12.2082717"><ele>595.7142857142857</ele><time>2026-03-28T10:12:02.18Z</time></trkpt><trkpt lat="43.4494874" lon="12.2081733"><ele>596.0</ele><time>2026-03-28T10:12:03.171Z</time></trkpt><trkpt lat="43.4494753" lon="12.2080204"><ele>597.6</ele><time>2026-03-28T10:12:05.176Z</time></trkpt><trkpt lat="43.4494838" lon="12.2078483"><ele>599.2</ele><time>2026-03-28T10:12:07.174Z</time></trkpt><trkpt lat="43.4494975" lon="12.2077296"><ele>600.8</ele><time>2026-03-28T10:12:08.175Z</time></trkpt><trkpt lat="43.4495037" lon="12.2076155"><ele>602.4</ele><time>2026-03-28T10:12:09.176Z</time></trkpt><trkpt lat="43.449498" lon="12.2074919"><ele>604.0</ele><time>2026-03-28T10:12:10.172Z</time></trkpt><trkpt lat="43.4494894" lon="12.2073577"><ele>606.4</ele><time>2026-03-28T10:12:11.173Z</time></trkpt><trkpt lat="43.4494762" lon="12.2072255"><ele>608.8</ele><time>2026-03-28T10:12:12.171Z</time></trkpt><trkpt lat="43.4494646" lon="12.2071082"><ele>611.2</ele><time>2026-03-28T10:12:13.163Z</time></trkpt><trkpt lat="43.4494561" lon="12.2069868"><ele>613.6</ele><time>2026-03-28T10:12:14.167Z</time></trkpt><trkpt lat="43.4494446" lon="12.2068605"><ele>616.0</ele><time>2026-03-28T10:12:15.165Z</time></trkpt><trkpt lat="43.4494315" lon="12.2067231"><ele>616.0</ele><time>2026-03-28T10:12:16.165Z</time></trkpt><trkpt lat="43.4494128" lon="12.2065792"><ele>616.0</ele><time>2026-03-28T10:12:17.166Z</time></trkpt><trkpt lat="43.4493816" lon="12.2064362"><ele>616.0</ele><time>2026-03-28T10:12:18.17Z</time></trkpt><trkpt lat="43.4493526" lon="12.2063"><ele>616.0</ele><time>2026-03-28T10:12:19.17Z</time></trkpt><trkpt lat="43.4493295" lon="12.206176"><ele>616.0</ele><time>2026-03-28T10:12:20.164Z</time></trkpt><trkpt lat="43.4493116" lon="12.2060452"><ele>616.1666666666667</ele><time>2026-03-28T10:12:21.163Z</time></trkpt><trkpt lat="43.449298" lon="12.2059268"><ele>616.3333333333334</ele><time>2026-03-28T10:12:22.168Z</time></trkpt><trkpt lat="43.4492886" lon="12.2058223"><ele>616.5</ele><time>2026-03-28T10:12:23.166Z</time></trkpt><trkpt lat="43.4492802" lon="12.2057192"><ele>616.6666666666666</ele><time>2026-03-28T10:12:24.165Z</time></trkpt><trkpt lat="43.4492774" lon="12.2056151"><ele>616.8333333333333</ele><time>2026-03-28T10:12:25.166Z</time></trkpt><trkpt lat="43.4492825" lon="12.2055103"><ele>617.0</ele><time>2026-03-28T10:12:26.168Z</time></trkpt><trkpt lat="43.4492951" lon="12.2054105"><ele>616.3333333333333</ele><time>2026-03-28T10:12:27.167Z</time></trkpt><trkpt lat="43.4493215" lon="12.205309"><ele>615.6666666666666</ele><time>2026-03-28T10:12:28.169Z</time></trkpt><trkpt lat="43.449355" lon="12.2052077"><ele>615.0</ele><time>2026-03-28T10:12:29.173Z</time></trkpt><trkpt lat="43.4493841" lon="12.2051043"><ele>614.3333333333334</ele><time>2026-03-28T10:12:30.182Z</time></trkpt><trkpt lat="43.4493813" lon="12.2049985"><ele>613.6666666666667</ele><time>2026-03-28T10:12:31.201Z</time></trkpt><trkpt lat="43.4493585" lon="12.2048236"><ele>613.0</ele><time>2026-03-28T10:12:33.179Z</time></trkpt><trkpt lat="43.4493481" lon="12.204737"><ele>611.8333333333334</ele><time>2026-03-28T10:12:34.181Z</time></trkpt><trkpt lat="43.4493484" lon="12.2046495"><ele>610.6666666666667</ele><time>2026-03-28T10:12:35.183Z</time></trkpt><trkpt lat="43.4493865" lon="12.2044858"><ele>609.5</ele><time>2026-03-28T10:12:37.177Z</time></trkpt><trkpt lat="43.4494107" lon="12.2043937"><ele>608.3333333333334</ele><time>2026-03-28T10:12:38.188Z</time></trkpt><trkpt lat="43.4494355" lon="12.2043009"><ele>607.1666666666666</ele><time>2026-03-28T10:12:39.178Z</time></trkpt><trkpt lat="43.449464" lon="12.2042092"><ele>606.0</ele><time>2026-03-28T10:12:40.187Z</time></trkpt><trkpt lat="43.4494946" lon="12.2041132"><ele>606.0</ele><time>2026-03-28T10:12:41.176Z</time></trkpt><trkpt lat="43.4495245" lon="12.2040254"><ele>606.0</ele><time>2026-03-28T10:12:42.189Z</time></trkpt><trkpt lat="43.4495558" lon="12.203923"><ele>606.0</ele><time>2026-03-28T10:12:43.171Z</time></trkpt><trkpt lat="43.4495877" lon="12.2038127"><ele>606.0</ele><time>2026-03-28T10:12:44.187Z</time></trkpt><trkpt lat="43.4496182" lon="12.203703"><ele>606.0</ele><time>2026-03-28T10:12:45.175Z</time></trkpt><trkpt lat="43.4496397" lon="12.2035979"><ele>606.0</ele><time>2026-03-28T10:12:46.186Z</time></trkpt><trkpt lat="43.44966" lon="12.2034938"><ele>605.6666666666666</ele><time>2026-03-28T10:12:47.174Z</time></trkpt><trkpt lat="43.4496784" lon="12.2033926"><ele>605.3333333333334</ele><time>2026-03-28T10:12:48.177Z</time></trkpt><trkpt lat="43.449695" lon="12.203301"><ele>605.0</ele><time>2026-03-28T10:12:49.193Z</time></trkpt><trkpt lat="43.4497087" lon="12.2032128"><ele>604.6666666666667</ele><time>2026-03-28T10:12:50.174Z</time></trkpt><trkpt lat="43.4497307" lon="12.2030742"><ele>604.3333333333334</ele><time>2026-03-28T10:12:52.193Z</time></trkpt><trkpt lat="43.4497435" lon="12.2029707"><ele>604.0</ele><time>2026-03-28T10:12:54.189Z</time></trkpt><trkpt lat="43.4497695" lon="12.2028891"><ele>604.0</ele><time>2026-03-28T10:12:56.166Z</time></trkpt><trkpt lat="43.4498092" lon="12.2028048"><ele>604.0</ele><time>2026-03-28T10:12:58.195Z</time></trkpt><trkpt lat="43.4498095" lon="12.2027155"><ele>604.0</ele><time>2026-03-28T10:13:01.186Z</time></trkpt><trkpt lat="43.4497769" lon="12.2026021"><ele>604.0</ele><time>2026-03-28T10:20:32.175Z</time></trkpt><trkpt lat="43.4497668" lon="12.2025129"><ele>604.0</ele><time>2026-03-28T10:20:33.17Z</time></trkpt><trkpt lat="43.4497538" lon="12.2023964"><ele>604.0</ele><time>2026-03-28T10:20:34.183Z</time></trkpt><trkpt lat="43.4497408" lon="12.2022751"><ele>604.4</ele><time>2026-03-28T10:20:35.175Z</time></trkpt><trkpt lat="43.449729" lon="12.2021546"><ele>604.8</ele><time>2026-03-28T10:20:36.178Z</time></trkpt><trkpt lat="43.4497158" lon="12.2020233"><ele>605.2</ele><time>2026-03-28T10:20:37.173Z</time></trkpt><trkpt lat="43.4496983" lon="12.2018832"><ele>605.6</ele><time>2026-03-28T10:20:38.176Z</time></trkpt><trkpt lat="43.449676" lon="12.2017338"><ele>606.0</ele><time>2026-03-28T10:20:39.177Z</time></trkpt><trkpt lat="43.4496524" lon="12.2015845"><ele>606.5</ele><time>2026-03-28T10:20:40.174Z</time></trkpt><trkpt lat="43.4496286" lon="12.20143"><ele>607.0</ele><time>2026-03-28T10:20:41.175Z</time></trkpt><trkpt lat="43.4495968" lon="12.2012757"><ele>607.5</ele><time>2026-03-28T10:20:42.17Z</time></trkpt><trkpt lat="43.4495586" lon="12.2011341"><ele>608.0</ele><time>2026-03-28T10:20:43.169Z</time></trkpt><trkpt lat="43.4495197" lon="12.2009933"><ele>611.0</ele><time>2026-03-28T10:20:44.171Z</time></trkpt><trkpt lat="43.449483" lon="12.2008464"><ele>614.0</ele><time>2026-03-28T10:20:45.176Z</time></trkpt><trkpt lat="43.4494508" lon="12.2006967"><ele>617.0</ele><time>2026-03-28T10:20:46.177Z</time></trkpt><trkpt lat="43.4494158" lon="12.2005519"><ele>620.0</ele><time>2026-03-28T10:20:47.179Z</time></trkpt><trkpt lat="43.4493799" lon="12.200404"><ele>620.0</ele><time>2026-03-28T10:20:48.17Z</time></trkpt><trkpt lat="43.4493467" lon="12.2002598"><ele>620.0</ele><time>2026-03-28T10:20:49.176Z</time></trkpt><trkpt lat="43.4493186" lon="12.2001247"><ele>620.0</ele><time>2026-03-28T10:20:50.173Z</time></trkpt><trkpt lat="43.4492905" lon="12.1999895"><ele>620.0</ele><time>2026-03-28T10:20:51.183Z</time></trkpt><trkpt lat="43.4492578" lon="12.1998561"><ele>620.0</ele><time>2026-03-28T10:20:52.175Z</time></trkpt><trkpt lat="43.4492204" lon="12.1997232"><ele>621.0</ele><time>2026-03-28T10:20:53.176Z</time></trkpt><trkpt lat="43.449181" lon="12.1995849"><ele>622.0</ele><time>2026-03-28T10:20:54.169Z</time></trkpt><trkpt lat="43.4491426" lon="12.1994418"><ele>623.0</ele><time>2026-03-28T10:20:55.169Z</time></trkpt><trkpt lat="43.4490992" lon="12.1992925"><ele>624.0</ele><time>2026-03-28T10:20:56.185Z</time></trkpt><trkpt lat="43.4490488" lon="12.1991386"><ele>625.25</ele><time>2026-03-28T10:20:57.173Z</time></trkpt><trkpt lat="43.4489956" lon="12.19898"><ele>626.5</ele><time>2026-03-28T10:20:58.18Z</time></trkpt><trkpt lat="43.4489452" lon="12.198817"><ele>627.75</ele><time>2026-03-28T10:20:59.177Z</time></trkpt><trkpt lat="43.4488977" lon="12.1986506"><ele>629.0</ele><time>2026-03-28T10:21:00.169Z</time></trkpt><trkpt lat="43.4488551" lon="12.1984798"><ele>629.0</ele><time>2026-03-28T10:21:01.176Z</time></trkpt><trkpt lat="43.4488232" lon="12.1983048"><ele>629.0</ele><time>2026-03-28T10:21:02.17Z</time></trkpt><trkpt lat="43.4488012" lon="12.1981235"><ele>629.0</ele><time>2026-03-28T10:21:03.171Z</time></trkpt><trkpt lat="43.4487868" lon="12.1979395"><ele>629.0</ele><time>2026-03-28T10:21:04.17Z</time></trkpt><trkpt lat="43.4487694" lon="12.1977567"><ele>628.25</ele><time>2026-03-28T10:21:05.173Z</time></trkpt><trkpt lat="43.4487464" lon="12.1975757"><ele>627.5</ele><time>2026-03-28T10:21:06.173Z</time></trkpt><trkpt lat="43.4487268" lon="12.197395"><ele>626.75</ele><time>2026-03-28T10:21:07.175Z</time></trkpt><trkpt lat="43.4487173" lon="12.1972115"><ele>626.0</ele><time>2026-03-28T10:21:08.17Z</time></trkpt><trkpt lat="43.4487229" lon="12.1970278"><ele>629.5</ele><time>2026-03-28T10:21:09.174Z</time></trkpt><trkpt lat="43.4487433" lon="12.196847"><ele>633.0</ele><time>2026-03-28T10:21:10.168Z</time></trkpt><trkpt lat="43.4487626" lon="12.1966717"><ele>636.5</ele><time>2026-03-28T10:21:11.168Z</time></trkpt><trkpt lat="43.4487796" lon="12.1965144"><ele>640.0</ele><time>2026-03-28T10:21:12.175Z</time></trkpt><trkpt lat="43.448774" lon="12.1963861"><ele>642.5</ele><time>2026-03-28T10:21:13.17Z</time></trkpt><trkpt lat="43.4487472" lon="12.1962842"><ele>645.0</ele><time>2026-03-28T10:21:14.174Z</time></trkpt><trkpt lat="43.4486958" lon="12.1962075"><ele>647.5</ele><time>2026-03-28T10:21:15.168Z</time></trkpt><trkpt lat="43.4486228" lon="12.1961458"><ele>650.0</ele><time>2026-03-28T10:21:16.165Z</time></trkpt><trkpt lat="43.4485361" lon="12.1960938"><ele>652.5</ele><time>2026-03-28T10:21:17.167Z</time></trkpt><trkpt lat="43.4484509" lon="12.196019"><ele>655.0</ele><time>2026-03-28T10:21:18.161Z</time></trkpt><trkpt lat="43.4483782" lon="12.1959098"><ele>655.0</ele><time>2026-03-28T10:21:19.163Z</time></trkpt><trkpt lat="43.448312" lon="12.1957802"><ele>655.0</ele><time>2026-03-28T10:21:20.169Z</time></trkpt><trkpt lat="43.4482406" lon="12.1956556"><ele>655.0</ele><time>2026-03-28T10:21:21.163Z</time></trkpt><trkpt lat="43.4481593" lon="12.195543"><ele>655.0</ele><time>2026-03-28T10:21:22.175Z</time></trkpt><trkpt lat="43.4480709" lon="12.1954405"><ele>660.75</ele><time>2026-03-28T10:21:23.166Z</time></trkpt><trkpt lat="43.4479726" lon="12.1953485"><ele>666.5</ele><time>2026-03-28T10:21:24.169Z</time></trkpt><trkpt lat="43.4478674" lon="12.1952697"><ele>672.25</ele><time>2026-03-28T10:21:25.17Z</time></trkpt><trkpt lat="43.4477578" lon="12.1952011"><ele>678.0</ele><time>2026-03-28T10:21:26.169Z</time></trkpt><trkpt lat="43.4476447" lon="12.1951386"><ele>678.0</ele><time>2026-03-28T10:21:27.166Z</time></trkpt><trkpt lat="43.4475256" lon="12.1950868"><ele>678.0</ele><time>2026-03-28T10:21:28.172Z</time></trkpt><trkpt lat="43.447398" lon="12.1950519"><ele>678.0</ele><time>2026-03-28T10:21:29.168Z</time></trkpt><trkpt lat="43.4472693" lon="12.1950338"><ele>678.0</ele><time>2026-03-28T10:21:30.169Z</time></trkpt><trkpt lat="43.4471394" lon="12.1950267"><ele>676.0</ele><time>2026-03-28T10:21:31.165Z</time></trkpt><trkpt lat="43.4470123" lon="12.1950213"><ele>674.0</ele><time>2026-03-28T10:21:32.164Z</time></trkpt><trkpt lat="43.446893" lon="12.1950065"><ele>672.0</ele><time>2026-03-28T10:21:33.18Z</time></trkpt><trkpt lat="43.4467787" lon="12.1949694"><ele>670.0</ele><time>2026-03-28T10:21:34.175Z</time></trkpt><trkpt lat="43.4466701" lon="12.1948999"><ele>669.5</ele><time>2026-03-28T10:21:35.168Z</time></trkpt><trkpt lat="43.4465688" lon="12.194802"><ele>669.0</ele><time>2026-03-28T10:21:36.171Z</time></trkpt><trkpt lat="43.4464722" lon="12.1946818"><ele>668.5</ele><time>2026-03-28T10:21:37.169Z</time></trkpt><trkpt lat="43.4463744" lon="12.1945591"><ele>668.0</ele><time>2026-03-28T10:21:38.171Z</time></trkpt><trkpt lat="43.4462692" lon="12.1944281"><ele>668.0</ele><time>2026-03-28T10:21:39.176Z</time></trkpt><trkpt lat="43.4461627" lon="12.1942999"><ele>668.0</ele><time>2026-03-28T10:21:40.167Z</time></trkpt><trkpt lat="43.4460563" lon="12.1941813"><ele>668.0</ele><time>2026-03-28T10:21:41.172Z</time></trkpt><trkpt lat="43.4459487" lon="12.1940671"><ele>668.0</ele><time>2026-03-28T10:21:42.169Z</time></trkpt><trkpt lat="43.4458437" lon="12.1939441"><ele>674.25</ele><time>2026-03-28T10:21:43.172Z</time></trkpt><trkpt lat="43.4457439" lon="12.193816"><ele>680.5</ele><time>2026-03-28T10:21:44.169Z</time></trkpt><trkpt lat="43.445648" lon="12.1936825"><ele>686.75</ele><time>2026-03-28T10:21:45.175Z</time></trkpt><trkpt lat="43.4455684" lon="12.1935481"><ele>693.0</ele><time>2026-03-28T10:21:46.175Z</time></trkpt><trkpt lat="43.4455103" lon="12.1934142"><ele>693.0</ele><time>2026-03-28T10:21:47.171Z</time></trkpt><trkpt lat="43.4454799" lon="12.1932871"><ele>693.0</ele><time>2026-03-28T10:21:48.169Z</time></trkpt><trkpt lat="43.4454812" lon="12.1931686"><ele>693.0</ele><time>2026-03-28T10:21:49.176Z</time></trkpt><trkpt lat="43.445503" lon="12.1930462"><ele>693.0</ele><time>2026-03-28T10:21:50.167Z</time></trkpt><trkpt lat="43.4455392" lon="12.1929243"><ele>693.0</ele><time>2026-03-28T10:21:51.168Z</time></trkpt><trkpt lat="43.4455796" lon="12.1927956"><ele>694.75</ele><time>2026-03-28T10:21:52.169Z</time></trkpt><trkpt lat="43.4456066" lon="12.1926528"><ele>696.5</ele><time>2026-03-28T10:21:53.163Z</time></trkpt><trkpt lat="43.445612" lon="12.1924955"><ele>698.25</ele><time>2026-03-28T10:21:54.166Z</time></trkpt><trkpt lat="43.4456054" lon="12.1923309"><ele>700.0</ele><time>2026-03-28T10:21:55.179Z</time></trkpt><trkpt lat="43.4455931" lon="12.1921583"><ele>700.0</ele><time>2026-03-28T10:21:56.169Z</time></trkpt><trkpt lat="43.4455761" lon="12.1919794"><ele>700.0</ele><time>2026-03-28T10:21:57.171Z</time></trkpt><trkpt lat="43.4455546" lon="12.1918082"><ele>700.0</ele><time>2026-03-28T10:21:58.17Z</time></trkpt><trkpt lat="43.4455188" lon="12.1916548"><ele>700.0</ele><time>2026-03-28T10:21:59.171Z</time></trkpt><trkpt lat="43.4454599" lon="12.19152"><ele>700.2</ele><time>2026-03-28T10:22:00.167Z</time></trkpt><trkpt lat="43.4453823" lon="12.1914101"><ele>700.4</ele><time>2026-03-28T10:22:01.17Z</time></trkpt><trkpt lat="43.4453052" lon="12.1913081"><ele>700.5999999999999</ele><time>2026-03-28T10:22:02.164Z</time></trkpt><trkpt lat="43.4451974" lon="12.1912668"><ele>700.8</ele><time>2026-03-28T10:22:03.167Z</time></trkpt><trkpt lat="43.4450807" lon="12.1912404"><ele>701.0</ele><time>2026-03-28T10:22:04.165Z</time></trkpt><trkpt lat="43.4449711" lon="12.1912141"><ele>701.0</ele><time>2026-03-28T10:22:05.16Z</time></trkpt><trkpt lat="43.4448792" lon="12.1911822"><ele>701.0</ele><time>2026-03-28T10:22:06.168Z</time></trkpt><trkpt lat="43.4447998" lon="12.1911448"><ele>701.0</ele><time>2026-03-28T10:22:07.174Z</time></trkpt><trkpt lat="43.4447288" lon="12.1910875"><ele>701.0</ele><time>2026-03-28T10:22:08.173Z</time></trkpt><trkpt lat="43.4446684" lon="12.1910038"><ele>701.0</ele><time>2026-03-28T10:22:09.171Z</time></trkpt><trkpt lat="43.4446153" lon="12.1908901"><ele>701.0</ele><time>2026-03-28T10:22:10.17Z</time></trkpt><trkpt lat="43.4445662" lon="12.1907498"><ele>697.75</ele><time>2026-03-28T10:22:11.18Z</time></trkpt><trkpt lat="43.444522" lon="12.1905952"><ele>694.5</ele><time>2026-03-28T10:22:12.171Z</time></trkpt><trkpt lat="43.444487" lon="12.1904304"><ele>691.25</ele><time>2026-03-28T10:22:13.18Z</time></trkpt><trkpt lat="43.4444602" lon="12.190259"><ele>688.0</ele><time>2026-03-28T10:22:14.164Z</time></trkpt><trkpt lat="43.4444425" lon="12.1900834"><ele>688.0</ele><time>2026-03-28T10:22:15.168Z</time></trkpt><trkpt lat="43.4444257" lon="12.1899131"><ele>688.0</ele><time>2026-03-28T10:22:16.18Z</time></trkpt><trkpt lat="43.4444171" lon="12.1897425"><ele>688.0</ele><time>2026-03-28T10:22:17.174Z</time></trkpt><trkpt lat="43.4444071" lon="12.1895806"><ele>688.0</ele><time>2026-03-28T10:22:18.17Z</time></trkpt><trkpt lat="43.444393" lon="12.1894456"><ele>689.5</ele><time>2026-03-28T10:22:19.174Z</time></trkpt><trkpt lat="43.4443406" lon="12.1893243"><ele>691.0</ele><time>2026-03-28T10:22:20.163Z</time></trkpt><trkpt lat="43.4442604" lon="12.1892136"><ele>692.5</ele><time>2026-03-28T10:22:21.172Z</time></trkpt><trkpt lat="43.444169" lon="12.189117"><ele>694.0</ele><time>2026-03-28T10:22:22.16Z</time></trkpt><trkpt lat="43.4440663" lon="12.1890229"><ele>693.5</ele><time>2026-03-28T10:22:23.174Z</time></trkpt><trkpt lat="43.4439567" lon="12.188935"><ele>693.0</ele><time>2026-03-28T10:22:24.17Z</time></trkpt><trkpt lat="43.4438425" lon="12.1888489"><ele>692.5</ele><time>2026-03-28T10:22:25.174Z</time></trkpt><trkpt lat="43.4437186" lon="12.1887739"><ele>692.0</ele><time>2026-03-28T10:22:26.166Z</time></trkpt><trkpt lat="43.4435922" lon="12.1886991"><ele>690.75</ele><time>2026-03-28T10:22:27.163Z</time></trkpt><trkpt lat="43.4434515" lon="12.1886576"><ele>689.5</ele><time>2026-03-28T10:22:28.169Z</time></trkpt><trkpt lat="43.4433096" lon="12.1886209"><ele>688.25</ele><time>2026-03-28T10:22:29.173Z</time></trkpt><trkpt lat="43.44317" lon="12.1885806"><ele>687.0</ele><time>2026-03-28T10:22:30.173Z</time></trkpt><trkpt lat="43.4430321" lon="12.1885438"><ele>685.25</ele><time>2026-03-28T10:22:31.167Z</time></trkpt><trkpt lat="43.4428957" lon="12.1885104"><ele>683.5</ele><time>2026-03-28T10:22:32.174Z</time></trkpt><trkpt lat="43.4427622" lon="12.1884758"><ele>681.75</ele><time>2026-03-28T10:22:33.179Z</time></trkpt><trkpt lat="43.4426325" lon="12.1884408"><ele>680.0</ele><time>2026-03-28T10:22:34.166Z</time></trkpt><trkpt lat="43.4425027" lon="12.1884023"><ele>680.0</ele><time>2026-03-28T10:22:35.165Z</time></trkpt><trkpt lat="43.4423744" lon="12.1883689"><ele>680.0</ele><time>2026-03-28T10:22:36.17Z</time></trkpt><trkpt lat="43.4422463" lon="12.1883364"><ele>680.0</ele><time>2026-03-28T10:22:37.177Z</time></trkpt><trkpt lat="43.44212" lon="12.1882984"><ele>680.0</ele><time>2026-03-28T10:22:38.169Z</time></trkpt><trkpt lat="43.441997" lon="12.1882426"><ele>676.5</ele><time>2026-03-28T10:22:39.16Z</time></trkpt><trkpt lat="43.4418813" lon="12.1881707"><ele>673.0</ele><time>2026-03-28T10:22:40.166Z</time></trkpt><trkpt lat="43.4417717" lon="12.1880808"><ele>669.5</ele><time>2026-03-28T10:22:41.165Z</time></trkpt><trkpt lat="43.4416687" lon="12.1879746"><ele>666.0</ele><time>2026-03-28T10:22:42.165Z</time></trkpt><trkpt lat="43.4415713" lon="12.1878555"><ele>666.0</ele><time>2026-03-28T10:22:43.165Z</time></trkpt><trkpt lat="43.4414731" lon="12.1877257"><ele>666.0</ele><time>2026-03-28T10:22:44.167Z</time></trkpt><trkpt lat="43.441374" lon="12.1875971"><ele>666.0</ele><time>2026-03-28T10:22:45.167Z</time></trkpt><trkpt lat="43.4412716" lon="12.1874829"><ele>666.0</ele><time>2026-03-28T10:22:46.165Z</time></trkpt><trkpt lat="43.4411643" lon="12.1873923"><ele>664.5</ele><time>2026-03-28T10:22:47.166Z</time></trkpt><trkpt lat="43.4410491" lon="12.1873287"><ele>663.0</ele><time>2026-03-28T10:22:48.163Z</time></trkpt><trkpt lat="43.4409337" lon="12.1873012"><ele>661.5</ele><time>2026-03-28T10:22:49.17Z</time></trkpt><trkpt lat="43.4408188" lon="12.187305"><ele>660.0</ele><time>2026-03-28T10:22:50.168Z</time></trkpt><trkpt lat="43.4407054" lon="12.1873352"><ele>659.75</ele><time>2026-03-28T10:22:51.176Z</time></trkpt><trkpt lat="43.440598" lon="12.187368"><ele>659.5</ele><time>2026-03-28T10:22:52.172Z</time></trkpt><trkpt lat="43.4405089" lon="12.1874535"><ele>659.25</ele><time>2026-03-28T10:22:53.172Z</time></trkpt><trkpt lat="43.4404268" lon="12.1875699"><ele>659.0</ele><time>2026-03-28T10:22:54.172Z</time></trkpt><trkpt lat="43.4403527" lon="12.1877087"><ele>659.0</ele><time>2026-03-28T10:22:55.172Z</time></trkpt><trkpt lat="43.4402844" lon="12.1878505"><ele>659.0</ele><time>2026-03-28T10:22:56.17Z</time></trkpt><trkpt lat="43.4402249" lon="12.1879889"><ele>659.0</ele><time>2026-03-28T10:22:57.169Z</time></trkpt><trkpt lat="43.4401818" lon="12.1881389"><ele>659.0</ele><time>2026-03-28T10:22:58.176Z</time></trkpt><trkpt lat="43.4401567" lon="12.1882957"><ele>659.75</ele><time>2026-03-28T10:22:59.17Z</time></trkpt><trkpt lat="43.4401446" lon="12.1884537"><ele>660.5</ele><time>2026-03-28T10:23:00.166Z</time></trkpt><trkpt lat="43.4401439" lon="12.1886187"><ele>661.25</ele><time>2026-03-28T10:23:01.17Z</time></trkpt><trkpt lat="43.4401522" lon="12.1887927"><ele>662.0</ele><time>2026-03-28T10:23:02.179Z</time></trkpt><trkpt lat="43.440165" lon="12.1889728"><ele>661.0</ele><time>2026-03-28T10:23:03.165Z</time></trkpt><trkpt lat="43.4401795" lon="12.1891565"><ele>660.0</ele><time>2026-03-28T10:23:04.177Z</time></trkpt><trkpt lat="43.4401923" lon="12.1893342"><ele>659.0</ele><time>2026-03-28T10:23:05.169Z</time></trkpt><trkpt lat="43.4402048" lon="12.1895103"><ele>658.0</ele><time>2026-03-28T10:23:06.169Z</time></trkpt><trkpt lat="43.4402039" lon="12.1896872"><ele>654.75</ele><time>2026-03-28T10:23:07.181Z</time></trkpt><trkpt lat="43.440185" lon="12.1898581"><ele>651.5</ele><time>2026-03-28T10:23:08.175Z</time></trkpt><trkpt lat="43.4401673" lon="12.1900163"><ele>648.25</ele><time>2026-03-28T10:23:09.178Z</time></trkpt><trkpt lat="43.4401057" lon="12.1901391"><ele>645.0</ele><time>2026-03-28T10:23:10.178Z</time></trkpt><trkpt lat="43.4400198" lon="12.1902178"><ele>645.0</ele><time>2026-03-28T10:23:11.16Z</time></trkpt><trkpt lat="43.4399365" lon="12.1902971"><ele>645.0</ele><time>2026-03-28T10:23:12.166Z</time></trkpt><trkpt lat="43.4398134" lon="12.1902942"><ele>645.0</ele><time>2026-03-28T10:23:13.171Z</time></trkpt><trkpt lat="43.439683" lon="12.1902899"><ele>645.0</ele><time>2026-03-28T10:23:14.17Z</time></trkpt><trkpt lat="43.4395428" lon="12.1902629"><ele>645.6666666666666</ele><time>2026-03-28T10:23:15.169Z</time></trkpt><trkpt lat="43.4393949" lon="12.1902315"><ele>646.3333333333333</ele><time>2026-03-28T10:23:16.171Z</time></trkpt><trkpt lat="43.4392347" lon="12.1902007"><ele>647.0</ele><time>2026-03-28T10:23:17.167Z</time></trkpt><trkpt lat="43.4390864" lon="12.1901666"><ele>647.0</ele><time>2026-03-28T10:23:18.169Z</time></trkpt><trkpt lat="43.4389466" lon="12.1901392"><ele>647.0</ele><time>2026-03-28T10:23:19.181Z</time></trkpt><trkpt lat="43.4388295" lon="12.1901187"><ele>647.0</ele><time>2026-03-28T10:23:20.177Z</time></trkpt><trkpt lat="43.4387379" lon="12.1901036"><ele>647.0</ele><time>2026-03-28T10:23:21.173Z</time></trkpt><trkpt lat="43.4386639" lon="12.1900793"><ele>647.0</ele><time>2026-03-28T10:23:22.17Z</time></trkpt><trkpt lat="43.4385622" lon="12.1901043"><ele>645.3333333333333</ele><time>2026-03-28T10:23:24.161Z</time></trkpt><trkpt lat="43.4384609" lon="12.1902153"><ele>643.6666666666666</ele><time>2026-03-28T10:23:26.16Z</time></trkpt><trkpt lat="43.438416" lon="12.1902932"><ele>642.0</ele><time>2026-03-28T10:23:27.165Z</time></trkpt><trkpt lat="43.438362" lon="12.1903888"><ele>640.3333333333334</ele><time>2026-03-28T10:23:28.175Z</time></trkpt><trkpt lat="43.4383102" lon="12.1904733"><ele>638.6666666666667</ele><time>2026-03-28T10:23:29.175Z</time></trkpt><trkpt lat="43.4382618" lon="12.1905542"><ele>637.0</ele><time>2026-03-28T10:23:30.175Z</time></trkpt><trkpt lat="43.4382191" lon="12.1906367"><ele>637.0</ele><time>2026-03-28T10:23:31.167Z</time></trkpt><trkpt lat="43.4381801" lon="12.1907395"><ele>637.0</ele><time>2026-03-28T10:23:33.165Z</time></trkpt><trkpt lat="43.4381881" lon="12.1906508"><ele>637.0</ele><time>2026-03-28T10:23:49.178Z</time></trkpt><trkpt lat="43.4382592" lon="12.1905715"><ele>637.0</ele><time>2026-03-28T10:31:01.165Z</time></trkpt><trkpt lat="43.438328" lon="12.190504"><ele>637.0</ele><time>2026-03-28T10:31:03.171Z</time></trkpt><trkpt lat="43.4383994" lon="12.1903851"><ele>637.0</ele><time>2026-03-28T10:31:05.168Z</time></trkpt><trkpt lat="43.4384445" lon="12.1903104"><ele>637.0</ele><time>2026-03-28T10:31:06.168Z</time></trkpt><trkpt lat="43.4384864" lon="12.1902345"><ele>637.0</ele><time>2026-03-28T10:31:07.171Z</time></trkpt><trkpt lat="43.4385616" lon="12.1901016"><ele>637.0</ele><time>2026-03-28T10:31:09.178Z</time></trkpt><trkpt lat="43.4386029" lon="12.1899451"><ele>637.0</ele><time>2026-03-28T10:31:11.164Z</time></trkpt><trkpt lat="43.438605" lon="12.1898493"><ele>637.0</ele><time>2026-03-28T10:31:12.167Z</time></trkpt><trkpt lat="43.4386086" lon="12.1897538"><ele>636.6666666666667</ele><time>2026-03-28T10:31:13.169Z</time></trkpt><trkpt lat="43.4386237" lon="12.189658"><ele>636.3333333333334</ele><time>2026-03-28T10:31:14.162Z</time></trkpt><trkpt lat="43.4386405" lon="12.1895659"><ele>636.0</ele><time>2026-03-28T10:31:15.171Z</time></trkpt><trkpt lat="43.4386568" lon="12.1894719"><ele>635.6666666666666</ele><time>2026-03-28T10:31:16.176Z</time></trkpt><trkpt lat="43.4386752" lon="12.1893597"><ele>635.3333333333333</ele><time>2026-03-28T10:31:17.168Z</time></trkpt><trkpt lat="43.4386959" lon="12.1892367"><ele>635.0</ele><time>2026-03-28T10:31:18.172Z</time></trkpt><trkpt lat="43.4387151" lon="12.1891081"><ele>634.4</ele><time>2026-03-28T10:31:19.167Z</time></trkpt><trkpt lat="43.4387329" lon="12.1889716"><ele>633.8</ele><time>2026-03-28T10:31:20.169Z</time></trkpt><trkpt lat="43.4387478" lon="12.1888297"><ele>633.2</ele><time>2026-03-28T10:31:21.168Z</time></trkpt><trkpt lat="43.4387588" lon="12.1886835"><ele>632.6</ele><time>2026-03-28T10:31:22.17Z</time></trkpt><trkpt lat="43.4387664" lon="12.1885324"><ele>632.0</ele><time>2026-03-28T10:31:23.172Z</time></trkpt><trkpt lat="43.4387693" lon="12.1883774"><ele>632.0</ele><time>2026-03-28T10:31:24.168Z</time></trkpt><trkpt lat="43.438771" lon="12.1882143"><ele>632.0</ele><time>2026-03-28T10:31:25.161Z</time></trkpt><trkpt lat="43.438774" lon="12.1880445"><ele>632.0</ele><time>2026-03-28T10:31:26.176Z</time></trkpt><trkpt lat="43.4387787" lon="12.1878754"><ele>632.0</ele><time>2026-03-28T10:31:27.173Z</time></trkpt><trkpt lat="43.4387841" lon="12.1877087"><ele>631.5</ele><time>2026-03-28T10:31:28.169Z</time></trkpt><trkpt lat="43.4387827" lon="12.1875423"><ele>631.0</ele><time>2026-03-28T10:31:29.168Z</time></trkpt><trkpt lat="43.438774" lon="12.1873758"><ele>630.5</ele><time>2026-03-28T10:31:30.165Z</time></trkpt><trkpt lat="43.4387614" lon="12.1872121"><ele>630.0</ele><time>2026-03-28T10:31:31.179Z</time></trkpt><trkpt lat="43.4387462" lon="12.1870517"><ele>628.0</ele><time>2026-03-28T10:31:32.167Z</time></trkpt><trkpt lat="43.4387298" lon="12.1868951"><ele>626.0</ele><time>2026-03-28T10:31:33.176Z</time></trkpt><trkpt lat="43.4387145" lon="12.186741"><ele>624.0</ele><time>2026-03-28T10:31:34.168Z</time></trkpt><trkpt lat="43.4386968" lon="12.1865904"><ele>622.0</ele><time>2026-03-28T10:31:35.172Z</time></trkpt><trkpt lat="43.4386781" lon="12.1864487"><ele>620.0</ele><time>2026-03-28T10:31:36.173Z</time></trkpt><trkpt lat="43.4386582" lon="12.1863179"><ele>618.8333333333333</ele><time>2026-03-28T10:31:37.165Z</time></trkpt><trkpt lat="43.4386362" lon="12.1862"><ele>617.6666666666666</ele><time>2026-03-28T10:31:38.171Z</time></trkpt><trkpt lat="43.438605" lon="12.1861014"><ele>616.5</ele><time>2026-03-28T10:31:39.171Z</time></trkpt><trkpt lat="43.4385563" lon="12.1860194"><ele>615.3333333333334</ele><time>2026-03-28T10:31:40.167Z</time></trkpt><trkpt lat="43.4384931" lon="12.185968"><ele>614.1666666666667</ele><time>2026-03-28T10:31:41.166Z</time></trkpt><trkpt lat="43.4384191" lon="12.1859555"><ele>613.0</ele><time>2026-03-28T10:31:42.181Z</time></trkpt><trkpt lat="43.438341" lon="12.1859873"><ele>613.0</ele><time>2026-03-28T10:31:43.165Z</time></trkpt><trkpt lat="43.4382608" lon="12.1860619"><ele>613.0</ele><time>2026-03-28T10:31:44.161Z</time></trkpt><trkpt lat="43.438178" lon="12.1861545"><ele>613.0</ele><time>2026-03-28T10:31:45.169Z</time></trkpt><trkpt lat="43.4380928" lon="12.1862446"><ele>613.0</ele><time>2026-03-28T10:31:46.177Z</time></trkpt><trkpt lat="43.4380045" lon="12.1863283"><ele>613.0</ele><time>2026-03-28T10:31:47.173Z</time></trkpt><trkpt lat="43.4379161" lon="12.1864122"><ele>611.1999999999999</ele><time>2026-03-28T10:31:48.171Z</time></trkpt><trkpt lat="43.4378252" lon="12.1864815"><ele>609.4</ele><time>2026-03-28T10:31:49.181Z</time></trkpt><trkpt lat="43.4377386" lon="12.1865404"><ele>607.5999999999999</ele><time>2026-03-28T10:31:50.171Z</time></trkpt><trkpt lat="43.4376546" lon="12.1865844"><ele>605.8</ele><time>2026-03-28T10:31:51.173Z</time></trkpt><trkpt lat="43.4375695" lon="12.1866174"><ele>604.0</ele><time>2026-03-28T10:31:52.174Z</time></trkpt><trkpt lat="43.4374831" lon="12.1866489"><ele>604.0</ele><time>2026-03-28T10:31:53.171Z</time></trkpt><trkpt lat="43.437394" lon="12.1866743"><ele>604.0</ele><time>2026-03-28T10:31:54.169Z</time></trkpt><trkpt lat="43.437295" lon="12.1866884"><ele>604.0</ele><time>2026-03-28T10:31:55.166Z</time></trkpt><trkpt lat="43.4371909" lon="12.1866949"><ele>604.0</ele><time>2026-03-28T10:31:56.166Z</time></trkpt><trkpt lat="43.4370887" lon="12.1866987"><ele>604.0</ele><time>2026-03-28T10:31:57.167Z</time></trkpt><trkpt lat="43.4369907" lon="12.186698"><ele>600.4</ele><time>2026-03-28T10:31:58.161Z</time></trkpt><trkpt lat="43.4368993" lon="12.1866872"><ele>596.8</ele><time>2026-03-28T10:31:59.16Z</time></trkpt><trkpt lat="43.4368145" lon="12.1866528"><ele>593.2</ele><time>2026-03-28T10:32:00.162Z</time></trkpt><trkpt lat="43.4367467" lon="12.1865817"><ele>589.6</ele><time>2026-03-28T10:32:01.159Z</time></trkpt><trkpt lat="43.4366971" lon="12.186475"><ele>586.0</ele><time>2026-03-28T10:32:02.157Z</time></trkpt><trkpt lat="43.4366733" lon="12.1863482"><ele>585.0</ele><time>2026-03-28T10:32:03.171Z</time></trkpt><trkpt lat="43.4366723" lon="12.1862112"><ele>584.0</ele><time>2026-03-28T10:32:04.18Z</time></trkpt><trkpt lat="43.4366805" lon="12.1860685"><ele>583.0</ele><time>2026-03-28T10:32:05.181Z</time></trkpt><trkpt lat="43.4366886" lon="12.1859266"><ele>582.0</ele><time>2026-03-28T10:32:06.183Z</time></trkpt><trkpt lat="43.4367061" lon="12.1857824"><ele>581.0</ele><time>2026-03-28T10:32:07.167Z</time></trkpt><trkpt lat="43.4367363" lon="12.1856333"><ele>578.0</ele><time>2026-03-28T10:32:08.162Z</time></trkpt><trkpt lat="43.4367716" lon="12.1854902"><ele>575.0</ele><time>2026-03-28T10:32:09.176Z</time></trkpt><trkpt lat="43.4368058" lon="12.1853471"><ele>572.0</ele><time>2026-03-28T10:32:10.169Z</time></trkpt><trkpt lat="43.436843" lon="12.1851936"><ele>569.0</ele><time>2026-03-28T10:32:11.17Z</time></trkpt><trkpt lat="43.4368722" lon="12.1850304"><ele>569.0</ele><time>2026-03-28T10:32:12.166Z</time></trkpt><trkpt lat="43.4369012" lon="12.1848675"><ele>569.0</ele><time>2026-03-28T10:32:13.168Z</time></trkpt><trkpt lat="43.4369207" lon="12.1846947"><ele>569.0</ele><time>2026-03-28T10:32:14.179Z</time></trkpt><trkpt lat="43.436937" lon="12.1845157"><ele>569.0</ele><time>2026-03-28T10:32:15.171Z</time></trkpt><trkpt lat="43.4369506" lon="12.1843357"><ele>567.0</ele><time>2026-03-28T10:32:16.164Z</time></trkpt><trkpt lat="43.436968" lon="12.1841599"><ele>565.0</ele><time>2026-03-28T10:32:17.167Z</time></trkpt><trkpt lat="43.4369852" lon="12.1839916"><ele>563.0</ele><time>2026-03-28T10:32:18.158Z</time></trkpt><trkpt lat="43.4369919" lon="12.1838279"><ele>561.0</ele><time>2026-03-28T10:32:19.17Z</time></trkpt><trkpt lat="43.4369799" lon="12.1836895"><ele>561.0</ele><time>2026-03-28T10:32:20.165Z</time></trkpt><trkpt lat="43.436944" lon="12.1835689"><ele>561.0</ele><time>2026-03-28T10:32:21.165Z</time></trkpt><trkpt lat="43.4368801" lon="12.1834566"><ele>561.0</ele><time>2026-03-28T10:32:22.169Z</time></trkpt><trkpt lat="43.4367966" lon="12.1833552"><ele>561.0</ele><time>2026-03-28T10:32:23.166Z</time></trkpt><trkpt lat="43.436704" lon="12.1832487"><ele>561.0</ele><time>2026-03-28T10:32:24.176Z</time></trkpt><trkpt lat="43.4366089" lon="12.1831404"><ele>562.25</ele><time>2026-03-28T10:32:25.17Z</time></trkpt><trkpt lat="43.4365069" lon="12.1830383"><ele>563.5</ele><time>2026-03-28T10:32:26.165Z</time></trkpt><trkpt lat="43.4363945" lon="12.1829577"><ele>564.75</ele><time>2026-03-28T10:32:27.176Z</time></trkpt><trkpt lat="43.4362763" lon="12.1828938"><ele>566.0</ele><time>2026-03-28T10:32:28.16Z</time></trkpt><trkpt lat="43.4361604" lon="12.1828415"><ele>562.6</ele><time>2026-03-28T10:32:29.164Z</time></trkpt><trkpt lat="43.436049" lon="12.1827876"><ele>559.2</ele><time>2026-03-28T10:32:30.165Z</time></trkpt><trkpt lat="43.4359416" lon="12.1827355"><ele>555.8</ele><time>2026-03-28T10:32:31.168Z</time></trkpt><trkpt lat="43.4358421" lon="12.1826787"><ele>552.4</ele><time>2026-03-28T10:32:32.17Z</time></trkpt><trkpt lat="43.4357533" lon="12.182598"><ele>549.0</ele><time>2026-03-28T10:32:33.167Z</time></trkpt><trkpt lat="43.4356755" lon="12.182485"><ele>549.0</ele><time>2026-03-28T10:32:34.169Z</time></trkpt><trkpt lat="43.4356129" lon="12.1823572"><ele>549.0</ele><time>2026-03-28T10:32:35.163Z</time></trkpt><trkpt lat="43.4355524" lon="12.1822306"><ele>549.0</ele><time>2026-03-28T10:32:36.168Z</time></trkpt><trkpt lat="43.4354894" lon="12.1821147"><ele>549.0</ele><time>2026-03-28T10:32:37.168Z</time></trkpt><trkpt lat="43.4354025" lon="12.1820139"><ele>549.0</ele><time>2026-03-28T10:32:38.169Z</time></trkpt><trkpt lat="43.4353022" lon="12.1819434"><ele>547.0</ele><time>2026-03-28T10:32:39.17Z</time></trkpt><trkpt lat="43.4351951" lon="12.1819038"><ele>545.0</ele><time>2026-03-28T10:32:40.167Z</time></trkpt><trkpt lat="43.4350859" lon="12.1818894"><ele>543.0</ele><time>2026-03-28T10:32:41.163Z</time></trkpt><trkpt lat="43.434973" lon="12.1818813"><ele>541.0</ele><time>2026-03-28T10:32:42.165Z</time></trkpt><trkpt lat="43.4348619" lon="12.1818648"><ele>539.0</ele><time>2026-03-28T10:32:43.174Z</time></trkpt><trkpt lat="43.434751" lon="12.1818504"><ele>539.0</ele><time>2026-03-28T10:32:44.176Z</time></trkpt><trkpt lat="43.434642" lon="12.1817984"><ele>539.0</ele><time>2026-03-28T10:32:45.171Z</time></trkpt><trkpt lat="43.4345377" lon="12.1817315"><ele>539.0</ele><time>2026-03-28T10:32:46.173Z</time></trkpt><trkpt lat="43.4344384" lon="12.1816474"><ele>539.0</ele><time>2026-03-28T10:32:47.17Z</time></trkpt><trkpt lat="43.4343482" lon="12.18155"><ele>535.25</ele><time>2026-03-28T10:32:48.161Z</time></trkpt><trkpt lat="43.4342583" lon="12.1814449"><ele>531.5</ele><time>2026-03-28T10:32:49.19Z</time></trkpt><trkpt lat="43.434166" lon="12.1813355"><ele>527.75</ele><time>2026-03-28T10:32:50.182Z</time></trkpt><trkpt lat="43.4340708" lon="12.181227"><ele>524.0</ele><time>2026-03-28T10:32:51.166Z</time></trkpt><trkpt lat="43.4339814" lon="12.1811191"><ele>524.0</ele><time>2026-03-28T10:32:52.182Z</time></trkpt><trkpt lat="43.4338976" lon="12.1810032"><ele>524.0</ele><time>2026-03-28T10:32:53.176Z</time></trkpt><trkpt lat="43.4338207" lon="12.1808854"><ele>524.0</ele><time>2026-03-28T10:32:54.169Z</time></trkpt><trkpt lat="43.4337456" lon="12.1807626"><ele>524.0</ele><time>2026-03-28T10:32:55.17Z</time></trkpt><trkpt lat="43.4336712" lon="12.1806351"><ele>523.0</ele><time>2026-03-28T10:32:56.186Z</time></trkpt><trkpt lat="43.4336025" lon="12.1805025"><ele>522.0</ele><time>2026-03-28T10:32:57.17Z</time></trkpt><trkpt lat="43.4335402" lon="12.1803712"><ele>521.0</ele><time>2026-03-28T10:32:58.172Z</time></trkpt><trkpt lat="43.4334826" lon="12.1802424"><ele>520.0</ele><time>2026-03-28T10:32:59.16Z</time></trkpt><trkpt lat="43.4334244" lon="12.1801197"><ele>519.0</ele><time>2026-03-28T10:33:00.172Z</time></trkpt><trkpt lat="43.433358" lon="12.1799997"><ele>519.0</ele><time>2026-03-28T10:33:01.172Z</time></trkpt><trkpt lat="43.4332832" lon="12.1798834"><ele>519.0</ele><time>2026-03-28T10:33:02.17Z</time></trkpt><trkpt lat="43.4332072" lon="12.1797681"><ele>519.0</ele><time>2026-03-28T10:33:03.176Z</time></trkpt><trkpt lat="43.4331341" lon="12.1796548"><ele>519.0</ele><time>2026-03-28T10:33:04.174Z</time></trkpt><trkpt lat="43.43306" lon="12.1795359"><ele>517.5</ele><time>2026-03-28T10:33:05.173Z</time></trkpt><trkpt lat="43.4329873" lon="12.1794076"><ele>516.0</ele><time>2026-03-28T10:33:06.168Z</time></trkpt><trkpt lat="43.4329177" lon="12.1792741"><ele>514.5</ele><time>2026-03-28T10:33:07.17Z</time></trkpt><trkpt lat="43.4328498" lon="12.1791448"><ele>513.0</ele><time>2026-03-28T10:33:08.171Z</time></trkpt><trkpt lat="43.4327786" lon="12.1790259"><ele>512.4</ele><time>2026-03-28T10:33:09.177Z</time></trkpt><trkpt lat="43.4326989" lon="12.1789201"><ele>511.79999999999995</ele><time>2026-03-28T10:33:10.176Z</time></trkpt><trkpt lat="43.4326131" lon="12.1788252"><ele>511.2</ele><time>2026-03-28T10:33:11.169Z</time></trkpt><trkpt lat="43.432524" lon="12.1787296"><ele>510.6</ele><time>2026-03-28T10:33:12.171Z</time></trkpt><trkpt lat="43.4324301" lon="12.178651"><ele>510.0</ele><time>2026-03-28T10:33:13.173Z</time></trkpt><trkpt lat="43.4323307" lon="12.178585"><ele>510.0</ele><time>2026-03-28T10:33:14.167Z</time></trkpt><trkpt lat="43.4322294" lon="12.178518"><ele>510.0</ele><time>2026-03-28T10:33:15.164Z</time></trkpt><trkpt lat="43.4321239" lon="12.1784828"><ele>510.0</ele><time>2026-03-28T10:33:16.176Z</time></trkpt><trkpt lat="43.4320216" lon="12.1784534"><ele>510.0</ele><time>2026-03-28T10:33:17.161Z</time></trkpt><trkpt lat="43.4319262" lon="12.1784191"><ele>510.0</ele><time>2026-03-28T10:33:18.183Z</time></trkpt><trkpt lat="43.4318405" lon="12.1783716"><ele>506.2</ele><time>2026-03-28T10:33:19.179Z</time></trkpt><trkpt lat="43.4317639" lon="12.1782895"><ele>502.4</ele><time>2026-03-28T10:33:20.175Z</time></trkpt><trkpt lat="43.431708" lon="12.1781831"><ele>498.6</ele><time>2026-03-28T10:33:21.174Z</time></trkpt><trkpt lat="43.4316725" lon="12.1780621"><ele>494.8</ele><time>2026-03-28T10:33:22.172Z</time></trkpt><trkpt lat="43.431638" lon="12.1779383"><ele>491.0</ele><time>2026-03-28T10:33:23.171Z</time></trkpt><trkpt lat="43.4315897" lon="12.1778187"><ele>489.8</ele><time>2026-03-28T10:33:24.168Z</time></trkpt><trkpt lat="43.4315225" lon="12.1777129"><ele>488.6</ele><time>2026-03-28T10:33:25.163Z</time></trkpt><trkpt lat="43.4314514" lon="12.1776081"><ele>487.4</ele><time>2026-03-28T10:33:26.167Z</time></trkpt><trkpt lat="43.4313484" lon="12.1775326"><ele>486.2</ele><time>2026-03-28T10:33:27.17Z</time></trkpt><trkpt lat="43.4312408" lon="12.1774617"><ele>485.0</ele><time>2026-03-28T10:33:28.165Z</time></trkpt><trkpt lat="43.4311282" lon="12.1773914"><ele>483.0</ele><time>2026-03-28T10:33:29.171Z</time></trkpt><trkpt lat="43.4310085" lon="12.1773323"><ele>481.0</ele><time>2026-03-28T10:33:30.172Z</time></trkpt><trkpt lat="43.4308812" lon="12.1772896"><ele>479.0</ele><time>2026-03-28T10:33:31.171Z</time></trkpt><trkpt lat="43.4307542" lon="12.1772592"><ele>477.0</ele><time>2026-03-28T10:33:32.167Z</time></trkpt><trkpt lat="43.4306334" lon="12.1772303"><ele>477.0</ele><time>2026-03-28T10:33:33.176Z</time></trkpt><trkpt lat="43.4305127" lon="12.1772002"><ele>477.0</ele><time>2026-03-28T10:33:34.165Z</time></trkpt><trkpt lat="43.4303888" lon="12.1771716"><ele>477.0</ele><time>2026-03-28T10:33:35.175Z</time></trkpt><trkpt lat="43.4302621" lon="12.1771431"><ele>477.0</ele><time>2026-03-28T10:33:36.162Z</time></trkpt><trkpt lat="43.4301335" lon="12.1771087"><ele>476.0</ele><time>2026-03-28T10:33:37.167Z</time></trkpt><trkpt lat="43.430008" lon="12.1770681"><ele>475.0</ele><time>2026-03-28T10:33:38.167Z</time></trkpt><trkpt lat="43.4298851" lon="12.1770098"><ele>474.0</ele><time>2026-03-28T10:33:39.171Z</time></trkpt><trkpt lat="43.429766" lon="12.1769385"><ele>473.0</ele><time>2026-03-28T10:33:40.17Z</time></trkpt><trkpt lat="43.4296495" lon="12.1768577"><ele>471.5</ele><time>2026-03-28T10:33:41.169Z</time></trkpt><trkpt lat="43.4295379" lon="12.1767707"><ele>470.0</ele><time>2026-03-28T10:33:42.169Z</time></trkpt><trkpt lat="43.4294307" lon="12.1766875"><ele>468.5</ele><time>2026-03-28T10:33:43.168Z</time></trkpt><trkpt lat="43.4293255" lon="12.1766144"><ele>467.0</ele><time>2026-03-28T10:33:44.169Z</time></trkpt><trkpt lat="43.4292157" lon="12.1765538"><ele>463.25</ele><time>2026-03-28T10:33:45.173Z</time></trkpt><trkpt lat="43.4290997" lon="12.1765074"><ele>459.5</ele><time>2026-03-28T10:33:46.165Z</time></trkpt><trkpt lat="43.4289793" lon="12.1764792"><ele>455.75</ele><time>2026-03-28T10:33:47.162Z</time></trkpt><trkpt lat="43.4288568" lon="12.1764506"><ele>452.0</ele><time>2026-03-28T10:33:48.167Z</time></trkpt><trkpt lat="43.428732" lon="12.1764307"><ele>451.5</ele><time>2026-03-28T10:33:49.164Z</time></trkpt><trkpt lat="43.428604" lon="12.1764049"><ele>451.0</ele><time>2026-03-28T10:33:50.168Z</time></trkpt><trkpt lat="43.4284733" lon="12.176372"><ele>450.5</ele><time>2026-03-28T10:33:51.17Z</time></trkpt><trkpt lat="43.4283438" lon="12.1763327"><ele>450.0</ele><time>2026-03-28T10:33:52.17Z</time></trkpt><trkpt lat="43.4282194" lon="12.1762952"><ele>450.0</ele><time>2026-03-28T10:33:53.165Z</time></trkpt><trkpt lat="43.4281039" lon="12.1762667"><ele>450.0</ele><time>2026-03-28T10:33:54.163Z</time></trkpt><trkpt lat="43.427993" lon="12.1762387"><ele>450.0</ele><time>2026-03-28T10:33:55.168Z</time></trkpt><trkpt lat="43.4278957" lon="12.1762131"><ele>450.0</ele><time>2026-03-28T10:33:56.167Z</time></trkpt><trkpt lat="43.4278086" lon="12.1761826"><ele>450.0</ele><time>2026-03-28T10:33:57.169Z</time></trkpt><trkpt lat="43.4277312" lon="12.1761385"><ele>449.8</ele><time>2026-03-28T10:33:58.158Z</time></trkpt><trkpt lat="43.4276684" lon="12.1760987"><ele>449.6</ele><time>2026-03-28T10:33:59.17Z</time></trkpt><trkpt lat="43.4276775" lon="12.1759446"><ele>449.4</ele><time>2026-03-28T10:34:01.159Z</time></trkpt><trkpt lat="43.4277423" lon="12.1758653"><ele>449.2</ele><time>2026-03-28T10:34:02.16Z</time></trkpt><trkpt lat="43.4278272" lon="12.1757973"><ele>449.0</ele><time>2026-03-28T10:34:03.158Z</time></trkpt><trkpt lat="43.427928" lon="12.1757292"><ele>444.25</ele><time>2026-03-28T10:34:04.165Z</time></trkpt><trkpt lat="43.4280412" lon="12.1756565"><ele>439.5</ele><time>2026-03-28T10:34:05.172Z</time></trkpt><trkpt lat="43.4281598" lon="12.1755823"><ele>434.75</ele><time>2026-03-28T10:34:06.176Z</time></trkpt><trkpt lat="43.4282843" lon="12.1755095"><ele>430.0</ele><time>2026-03-28T10:34:07.172Z</time></trkpt><trkpt lat="43.4284111" lon="12.1754327"><ele>430.0</ele><time>2026-03-28T10:34:08.162Z</time></trkpt><trkpt lat="43.4285377" lon="12.1753506"><ele>430.0</ele><time>2026-03-28T10:34:09.164Z</time></trkpt><trkpt lat="43.4286647" lon="12.1752669"><ele>430.0</ele><time>2026-03-28T10:34:10.166Z</time></trkpt><trkpt lat="43.4287917" lon="12.1751854"><ele>430.0</ele><time>2026-03-28T10:34:11.175Z</time></trkpt><trkpt lat="43.4289148" lon="12.1751022"><ele>430.5</ele><time>2026-03-28T10:34:12.174Z</time></trkpt><trkpt lat="43.4290345" lon="12.1750196"><ele>431.0</ele><time>2026-03-28T10:34:13.165Z</time></trkpt><trkpt lat="43.429152" lon="12.174941"><ele>431.5</ele><time>2026-03-28T10:34:14.166Z</time></trkpt><trkpt lat="43.429267" lon="12.1748684"><ele>432.0</ele><time>2026-03-28T10:34:15.164Z</time></trkpt><trkpt lat="43.4293721" lon="12.1747979"><ele>429.8</ele><time>2026-03-28T10:34:16.171Z</time></trkpt><trkpt lat="43.4294585" lon="12.1747094"><ele>427.6</ele><time>2026-03-28T10:34:17.172Z</time></trkpt><trkpt lat="43.4295283" lon="12.1745939"><ele>425.40000000000003</ele><time>2026-03-28T10:34:18.164Z</time></trkpt><trkpt lat="43.4295975" lon="12.1744741"><ele>423.20000000000005</ele><time>2026-03-28T10:34:19.164Z</time></trkpt><trkpt lat="43.4296368" lon="12.1743281"><ele>421.0</ele><time>2026-03-28T10:34:20.17Z</time></trkpt><trkpt lat="43.4296767" lon="12.1741785"><ele>421.0</ele><time>2026-03-28T10:34:21.168Z</time></trkpt><trkpt lat="43.4297248" lon="12.1740401"><ele>421.0</ele><time>2026-03-28T10:34:22.164Z</time></trkpt><trkpt lat="43.4297856" lon="12.1739164"><ele>421.0</ele><time>2026-03-28T10:34:23.178Z</time></trkpt><trkpt lat="43.4298634" lon="12.1738219"><ele>421.0</ele><time>2026-03-28T10:34:24.164Z</time></trkpt><trkpt lat="43.4299572" lon="12.1737712"><ele>421.0</ele><time>2026-03-28T10:34:25.159Z</time></trkpt><trkpt lat="43.4300639" lon="12.1737553"><ele>417.20000000000005</ele><time>2026-03-28T10:34:26.159Z</time></trkpt><trkpt lat="43.4301721" lon="12.1737544"><ele>413.40000000000003</ele><time>2026-03-28T10:34:27.175Z</time></trkpt><trkpt lat="43.4302809" lon="12.1737433"><ele>409.6</ele><time>2026-03-28T10:34:28.166Z</time></trkpt><trkpt lat="43.4303883" lon="12.1737189"><ele>405.8</ele><time>2026-03-28T10:34:29.165Z</time></trkpt><trkpt lat="43.4304888" lon="12.1736811"><ele>402.0</ele><time>2026-03-28T10:34:30.163Z</time></trkpt><trkpt lat="43.4305757" lon="12.1736315"><ele>401.8333333333333</ele><time>2026-03-28T10:34:31.159Z</time></trkpt><trkpt lat="43.4306411" lon="12.1735661"><ele>401.66666666666663</ele><time>2026-03-28T10:34:32.164Z</time></trkpt><trkpt lat="43.4306775" lon="12.1734773"><ele>401.5</ele><time>2026-03-28T10:34:33.172Z</time></trkpt><trkpt lat="43.4306796" lon="12.1733809"><ele>401.3333333333333</ele><time>2026-03-28T10:34:34.159Z</time></trkpt><trkpt lat="43.4306478" lon="12.1732886"><ele>401.16666666666663</ele><time>2026-03-28T10:34:35.159Z</time></trkpt><trkpt lat="43.4305864" lon="12.1732141"><ele>401.0</ele><time>2026-03-28T10:34:36.163Z</time></trkpt><trkpt lat="43.4304969" lon="12.1731669"><ele>397.0</ele><time>2026-03-28T10:34:37.159Z</time></trkpt><trkpt lat="43.4303956" lon="12.1731173"><ele>393.0</ele><time>2026-03-28T10:34:38.166Z</time></trkpt><trkpt lat="43.4302725" lon="12.1730869"><ele>389.0</ele><time>2026-03-28T10:34:39.17Z</time></trkpt><trkpt lat="43.4301437" lon="12.1730495"><ele>385.0</ele><time>2026-03-28T10:34:40.169Z</time></trkpt><trkpt lat="43.4300108" lon="12.1730112"><ele>385.0</ele><time>2026-03-28T10:34:41.169Z</time></trkpt><trkpt lat="43.429871" lon="12.1729768"><ele>385.0</ele><time>2026-03-28T10:34:42.164Z</time></trkpt><trkpt lat="43.4297289" lon="12.1729447"><ele>385.0</ele><time>2026-03-28T10:34:43.173Z</time></trkpt><trkpt lat="43.4295845" lon="12.1729122"><ele>385.0</ele><time>2026-03-28T10:34:44.165Z</time></trkpt><trkpt lat="43.4294494" lon="12.1728699"><ele>384.0</ele><time>2026-03-28T10:34:45.168Z</time></trkpt><trkpt lat="43.4293136" lon="12.1728256"><ele>383.0</ele><time>2026-03-28T10:34:46.178Z</time></trkpt><trkpt lat="43.4291808" lon="12.1727667"><ele>382.0</ele><time>2026-03-28T10:34:47.158Z</time></trkpt><trkpt lat="43.4290516" lon="12.1727105"><ele>381.0</ele><time>2026-03-28T10:34:48.165Z</time></trkpt><trkpt lat="43.4289208" lon="12.1726557"><ele>379.75</ele><time>2026-03-28T10:34:49.165Z</time></trkpt><trkpt lat="43.4287887" lon="12.1726074"><ele>378.5</ele><time>2026-03-28T10:34:50.167Z</time></trkpt><trkpt lat="43.4286581" lon="12.1725626"><ele>377.25</ele><time>2026-03-28T10:34:51.163Z</time></trkpt><trkpt lat="43.4285283" lon="12.1725218"><ele>376.0</ele><time>2026-03-28T10:34:52.174Z</time></trkpt><trkpt lat="43.4283935" lon="12.1724892"><ele>376.0</ele><time>2026-03-28T10:34:53.173Z</time></trkpt><trkpt lat="43.428258" lon="12.1724573"><ele>376.0</ele><time>2026-03-28T10:34:54.172Z</time></trkpt><trkpt lat="43.4281197" lon="12.1724346"><ele>376.0</ele><time>2026-03-28T10:34:55.17Z</time></trkpt><trkpt lat="43.4279813" lon="12.1724227"><ele>376.0</ele><time>2026-03-28T10:34:56.173Z</time></trkpt><trkpt lat="43.4278435" lon="12.1724151"><ele>376.0</ele><time>2026-03-28T10:34:57.171Z</time></trkpt><trkpt lat="43.4277071" lon="12.1724079"><ele>376.0</ele><time>2026-03-28T10:34:58.172Z</time></trkpt><trkpt lat="43.4275716" lon="12.1724029"><ele>376.0</ele><time>2026-03-28T10:34:59.166Z</time></trkpt><trkpt lat="43.427434" lon="12.1724068"><ele>376.0</ele><time>2026-03-28T10:35:00.166Z</time></trkpt><trkpt lat="43.4272976" lon="12.1724243"><ele>376.0</ele><time>2026-03-28T10:35:01.163Z</time></trkpt><trkpt lat="43.4271607" lon="12.1724645"><ele>376.0</ele><time>2026-03-28T10:35:02.163Z</time></trkpt><trkpt lat="43.4270241" lon="12.1725251"><ele>376.0</ele><time>2026-03-28T10:35:03.174Z</time></trkpt><trkpt lat="43.4268925" lon="12.1725953"><ele>376.0</ele><time>2026-03-28T10:35:04.164Z</time></trkpt><trkpt lat="43.4267623" lon="12.1726682"><ele>374.5</ele><time>2026-03-28T10:35:05.165Z</time></trkpt><trkpt lat="43.4266358" lon="12.1727416"><ele>373.0</ele><time>2026-03-28T10:35:06.166Z</time></trkpt><trkpt lat="43.4265139" lon="12.1728133"><ele>371.5</ele><time>2026-03-28T10:35:07.169Z</time></trkpt><trkpt lat="43.4264001" lon="12.1728789"><ele>370.0</ele><time>2026-03-28T10:35:08.166Z</time></trkpt><trkpt lat="43.4262919" lon="12.1729298"><ele>369.0</ele><time>2026-03-28T10:35:09.166Z</time></trkpt><trkpt lat="43.4261882" lon="12.1729595"><ele>368.0</ele><time>2026-03-28T10:35:10.164Z</time></trkpt><trkpt lat="43.4260872" lon="12.1729622"><ele>367.0</ele><time>2026-03-28T10:35:11.165Z</time></trkpt><trkpt lat="43.4259961" lon="12.1729432"><ele>366.0</ele><time>2026-03-28T10:35:12.171Z</time></trkpt><trkpt lat="43.4259235" lon="12.1729052"><ele>365.0</ele><time>2026-03-28T10:35:13.158Z</time></trkpt><trkpt lat="43.4258638" lon="12.1728116"><ele>365.0</ele><time>2026-03-28T10:35:15.171Z</time></trkpt><trkpt lat="43.425898" lon="12.1726961"><ele>365.0</ele><time>2026-03-28T10:35:17.162Z</time></trkpt><trkpt lat="43.4259521" lon="12.1726435"><ele>365.0</ele><time>2026-03-28T10:35:18.17Z</time></trkpt><trkpt lat="43.4260076" lon="12.1725753"><ele>365.0</ele><time>2026-03-28T10:35:19.168Z</time></trkpt><trkpt lat="43.4260444" lon="12.1724773"><ele>365.0</ele><time>2026-03-28T10:35:20.162Z</time></trkpt><trkpt lat="43.4260504" lon="12.1723596"><ele>365.0</ele><time>2026-03-28T10:35:21.164Z</time></trkpt><trkpt lat="43.4260286" lon="12.1722352"><ele>368.8</ele><time>2026-03-28T10:35:22.166Z</time></trkpt><trkpt lat="43.4259857" lon="12.1721297"><ele>372.6</ele><time>2026-03-28T10:35:23.176Z</time></trkpt><trkpt lat="43.425918" lon="12.1720534"><ele>376.4</ele><time>2026-03-28T10:35:24.161Z</time></trkpt><trkpt lat="43.4258256" lon="12.1720126"><ele>380.2</ele><time>2026-03-28T10:35:25.169Z</time></trkpt><trkpt lat="43.4257158" lon="12.1719994"><ele>384.0</ele><time>2026-03-28T10:35:26.161Z</time></trkpt><trkpt lat="43.4255969" lon="12.172001"><ele>382.5</ele><time>2026-03-28T10:35:27.168Z</time></trkpt><trkpt lat="43.425476" lon="12.1720186"><ele>381.0</ele><time>2026-03-28T10:35:28.165Z</time></trkpt><trkpt lat="43.4253535" lon="12.17205"><ele>379.5</ele><time>2026-03-28T10:35:29.174Z</time></trkpt><trkpt lat="43.4252306" lon="12.1720797"><ele>378.0</ele><time>2026-03-28T10:35:30.166Z</time></trkpt><trkpt lat="43.4251069" lon="12.1720915"><ele>378.0</ele><time>2026-03-28T10:35:31.163Z</time></trkpt><trkpt lat="43.4249858" lon="12.1720802"><ele>378.0</ele><time>2026-03-28T10:35:32.165Z</time></trkpt><trkpt lat="43.4248777" lon="12.1720445"><ele>378.0</ele><time>2026-03-28T10:35:33.163Z</time></trkpt><trkpt lat="43.4247914" lon="12.1719699"><ele>378.0</ele><time>2026-03-28T10:35:34.161Z</time></trkpt><trkpt lat="43.4247238" lon="12.1718566"><ele>378.0</ele><time>2026-03-28T10:35:35.16Z</time></trkpt><trkpt lat="43.4246608" lon="12.1717253"><ele>375.5</ele><time>2026-03-28T10:35:36.174Z</time></trkpt><trkpt lat="43.4245923" lon="12.1715858"><ele>373.0</ele><time>2026-03-28T10:35:37.159Z</time></trkpt><trkpt lat="43.4245211" lon="12.1714364"><ele>370.5</ele><time>2026-03-28T10:35:38.177Z</time></trkpt><trkpt lat="43.424465" lon="12.1712711"><ele>368.0</ele><time>2026-03-28T10:35:39.163Z</time></trkpt><trkpt lat="43.4244348" lon="12.1710906"><ele>368.0</ele><time>2026-03-28T10:35:40.167Z</time></trkpt><trkpt lat="43.4244292" lon="12.170903"><ele>368.0</ele><time>2026-03-28T10:35:41.169Z</time></trkpt><trkpt lat="43.4244458" lon="12.1707143"><ele>368.0</ele><time>2026-03-28T10:35:42.173Z</time></trkpt><trkpt lat="43.4244771" lon="12.1705273"><ele>368.0</ele><time>2026-03-28T10:35:43.165Z</time></trkpt><trkpt lat="43.4245136" lon="12.1703469"><ele>369.0</ele><time>2026-03-28T10:35:44.169Z</time></trkpt><trkpt lat="43.424544" lon="12.1701839"><ele>370.0</ele><time>2026-03-28T10:35:45.163Z</time></trkpt><trkpt lat="43.4245609" lon="12.1700448"><ele>371.0</ele><time>2026-03-28T10:35:46.17Z</time></trkpt><trkpt lat="43.4245528" lon="12.1699249"><ele>372.0</ele><time>2026-03-28T10:35:47.17Z</time></trkpt><trkpt lat="43.424525" lon="12.1698317"><ele>373.0</ele><time>2026-03-28T10:35:48.165Z</time></trkpt><trkpt lat="43.4244621" lon="12.1697199"><ele>375.14285714285717</ele><time>2026-03-28T10:35:50.17Z</time></trkpt><trkpt lat="43.4244073" lon="12.1696392"><ele>377.28571428571433</ele><time>2026-03-28T10:35:52.168Z</time></trkpt><trkpt lat="43.424348" lon="12.1695881"><ele>379.42857142857144</ele><time>2026-03-28T10:35:56.168Z</time></trkpt><trkpt lat="43.4242849" lon="12.1695487"><ele>381.57142857142856</ele><time>2026-03-28T10:36:41.169Z</time></trkpt><trkpt lat="43.4243543" lon="12.1695815"><ele>383.7142857142857</ele><time>2026-03-28T10:42:24.178Z</time></trkpt><trkpt lat="43.4244089" lon="12.1696279"><ele>385.85714285714283</ele><time>2026-03-28T10:42:26.185Z</time></trkpt><trkpt lat="43.4244559" lon="12.1697118"><ele>388.0</ele><time>2026-03-28T10:42:28.186Z</time></trkpt><trkpt lat="43.4245033" lon="12.1697865"><ele>388.0</ele><time>2026-03-28T10:42:30.178Z</time></trkpt><trkpt lat="43.4245058" lon="12.1696845"><ele>388.0</ele><time>2026-03-28T10:42:42.157Z</time></trkpt><trkpt lat="43.4244448" lon="12.1695568"><ele>388.0</ele><time>2026-03-28T10:42:44.163Z</time></trkpt><trkpt lat="43.4243662" lon="12.1694659"><ele>388.0</ele><time>2026-03-28T10:42:46.179Z</time></trkpt><trkpt lat="43.4242821" lon="12.1694099"><ele>388.0</ele><time>2026-03-28T10:42:48.163Z</time></trkpt><trkpt lat="43.4242007" lon="12.1693409"><ele>388.0</ele><time>2026-03-28T10:42:50.156Z</time></trkpt><trkpt lat="43.4241415" lon="12.1692473"><ele>388.0</ele><time>2026-03-28T10:42:52.167Z</time></trkpt><trkpt lat="43.4240614" lon="12.169133"><ele>388.0</ele><time>2026-03-28T10:42:54.161Z</time></trkpt><trkpt lat="43.4239827" lon="12.1690202"><ele>388.0</ele><time>2026-03-28T10:42:56.16Z</time></trkpt><trkpt lat="43.4239152" lon="12.1689143"><ele>388.0</ele><time>2026-03-28T10:42:58.165Z</time></trkpt><trkpt lat="43.4238559" lon="12.1688233"><ele>386.33333333333337</ele><time>2026-03-28T10:43:00.2Z</time></trkpt><trkpt lat="43.4238042" lon="12.1687425"><ele>384.6666666666667</ele><time>2026-03-28T10:43:02.174Z</time></trkpt><trkpt lat="43.4237278" lon="12.1686437"><ele>383.0</ele><time>2026-03-28T10:43:04.164Z</time></trkpt><trkpt lat="43.4236777" lon="12.1685876"><ele>381.33333333333337</ele><time>2026-03-28T10:43:05.159Z</time></trkpt><trkpt lat="43.4236262" lon="12.1685317"><ele>379.6666666666667</ele><time>2026-03-28T10:43:06.164Z</time></trkpt><trkpt lat="43.4235644" lon="12.1684697"><ele>378.0</ele><time>2026-03-28T10:43:07.166Z</time></trkpt><trkpt lat="43.423503" lon="12.1684106"><ele>378.0</ele><time>2026-03-28T10:43:08.172Z</time></trkpt><trkpt lat="43.4234406" lon="12.1683455"><ele>378.0</ele><time>2026-03-28T10:43:09.17Z</time></trkpt><trkpt lat="43.4233792" lon="12.1682778"><ele>378.0</ele><time>2026-03-28T10:43:10.164Z</time></trkpt><trkpt lat="43.4233256" lon="12.1682047"><ele>378.0</ele><time>2026-03-28T10:43:11.163Z</time></trkpt><trkpt lat="43.4232815" lon="12.1681204"><ele>378.0</ele><time>2026-03-28T10:43:12.176Z</time></trkpt><trkpt lat="43.4232548" lon="12.168024"><ele>378.0</ele><time>2026-03-28T10:43:13.17Z</time></trkpt><trkpt lat="43.4232512" lon="12.1679161"><ele>377.59999999999997</ele><time>2026-03-28T10:43:14.169Z</time></trkpt><trkpt lat="43.4232725" lon="12.1677968"><ele>377.2</ele><time>2026-03-28T10:43:15.171Z</time></trkpt><trkpt lat="43.4233137" lon="12.1676651"><ele>376.8</ele><time>2026-03-28T10:43:16.174Z</time></trkpt><trkpt lat="43.4233707" lon="12.1675348"><ele>376.4</ele><time>2026-03-28T10:43:17.164Z</time></trkpt><trkpt lat="43.4234361" lon="12.1674115"><ele>376.0</ele><time>2026-03-28T10:43:18.177Z</time></trkpt><trkpt lat="43.4235065" lon="12.1672888"><ele>372.5</ele><time>2026-03-28T10:43:19.165Z</time></trkpt><trkpt lat="43.4235838" lon="12.1671677"><ele>369.0</ele><time>2026-03-28T10:43:20.167Z</time></trkpt><trkpt lat="43.4236627" lon="12.1670475"><ele>365.5</ele><time>2026-03-28T10:43:21.175Z</time></trkpt><trkpt lat="43.4237426" lon="12.1669211"><ele>362.0</ele><time>2026-03-28T10:43:22.164Z</time></trkpt><trkpt lat="43.4238199" lon="12.1668011"><ele>365.8</ele><time>2026-03-28T10:43:23.176Z</time></trkpt><trkpt lat="43.4238953" lon="12.1666914"><ele>369.6</ele><time>2026-03-28T10:43:24.171Z</time></trkpt><trkpt lat="43.4239659" lon="12.1665886"><ele>373.40000000000003</ele><time>2026-03-28T10:43:25.169Z</time></trkpt><trkpt lat="43.4240327" lon="12.1664908"><ele>377.20000000000005</ele><time>2026-03-28T10:43:26.165Z</time></trkpt><trkpt lat="43.4240874" lon="12.1663933"><ele>381.0</ele><time>2026-03-28T10:43:27.166Z</time></trkpt><trkpt lat="43.4241075" lon="12.1662656"><ele>381.0</ele><time>2026-03-28T10:43:28.166Z</time></trkpt><trkpt lat="43.4240987" lon="12.1661339"><ele>381.0</ele><time>2026-03-28T10:43:29.167Z</time></trkpt><trkpt lat="43.4240777" lon="12.1659919"><ele>381.0</ele><time>2026-03-28T10:43:30.162Z</time></trkpt><trkpt lat="43.4240659" lon="12.1658347"><ele>381.0</ele><time>2026-03-28T10:43:31.168Z</time></trkpt><trkpt lat="43.4240734" lon="12.1656667"><ele>381.0</ele><time>2026-03-28T10:43:32.17Z</time></trkpt><trkpt lat="43.4241098" lon="12.1654988"><ele>379.0</ele><time>2026-03-28T10:43:33.165Z</time></trkpt><trkpt lat="43.4241669" lon="12.1653356"><ele>377.0</ele><time>2026-03-28T10:43:34.169Z</time></trkpt><trkpt lat="43.4242337" lon="12.1651759"><ele>375.0</ele><time>2026-03-28T10:43:35.173Z</time></trkpt><trkpt lat="43.4242998" lon="12.165017"><ele>373.0</ele><time>2026-03-28T10:43:36.163Z</time></trkpt><trkpt lat="43.4243757" lon="12.1648685"><ele>373.25</ele><time>2026-03-28T10:43:37.168Z</time></trkpt><trkpt lat="43.4244629" lon="12.1647443"><ele>373.5</ele><time>2026-03-28T10:43:38.169Z</time></trkpt><trkpt lat="43.4245535" lon="12.1646393"><ele>373.75</ele><time>2026-03-28T10:43:39.171Z</time></trkpt><trkpt lat="43.4246287" lon="12.1645338"><ele>374.0</ele><time>2026-03-28T10:43:40.168Z</time></trkpt><trkpt lat="43.4246799" lon="12.1644116"><ele>374.0</ele><time>2026-03-28T10:43:41.17Z</time></trkpt><trkpt lat="43.4247061" lon="12.1642656"><ele>374.0</ele><time>2026-03-28T10:43:42.163Z</time></trkpt><trkpt lat="43.4247158" lon="12.1641061"><ele>374.0</ele><time>2026-03-28T10:43:43.163Z</time></trkpt><trkpt lat="43.4247227" lon="12.1639346"><ele>374.0</ele><time>2026-03-28T10:43:44.162Z</time></trkpt><trkpt lat="43.4247224" lon="12.1637639"><ele>374.75</ele><time>2026-03-28T10:43:45.176Z</time></trkpt><trkpt lat="43.4247203" lon="12.1635858"><ele>375.5</ele><time>2026-03-28T10:43:46.169Z</time></trkpt><trkpt lat="43.4247146" lon="12.163405"><ele>376.25</ele><time>2026-03-28T10:43:47.175Z</time></trkpt><trkpt lat="43.4247044" lon="12.1632184"><ele>377.0</ele><time>2026-03-28T10:43:48.172Z</time></trkpt><trkpt lat="43.424685" lon="12.1630275"><ele>378.25</ele><time>2026-03-28T10:43:49.165Z</time></trkpt><trkpt lat="43.4246564" lon="12.1628352"><ele>379.5</ele><time>2026-03-28T10:43:50.175Z</time></trkpt><trkpt lat="43.4246229" lon="12.1626378"><ele>380.75</ele><time>2026-03-28T10:43:51.172Z</time></trkpt><trkpt lat="43.4245864" lon="12.1624331"><ele>382.0</ele><time>2026-03-28T10:43:52.166Z</time></trkpt><trkpt lat="43.4245489" lon="12.1622256"><ele>378.0</ele><time>2026-03-28T10:43:53.175Z</time></trkpt><trkpt lat="43.4245104" lon="12.1620151"><ele>374.0</ele><time>2026-03-28T10:43:54.167Z</time></trkpt><trkpt lat="43.4244686" lon="12.1618167"><ele>370.0</ele><time>2026-03-28T10:43:55.168Z</time></trkpt><trkpt lat="43.4244175" lon="12.1616328"><ele>373.25</ele><time>2026-03-28T10:43:56.167Z</time></trkpt><trkpt lat="43.4243542" lon="12.1614673"><ele>376.5</ele><time>2026-03-28T10:43:57.174Z</time></trkpt><trkpt lat="43.4242764" lon="12.161323"><ele>379.75</ele><time>2026-03-28T10:43:58.161Z</time></trkpt><trkpt lat="43.4241872" lon="12.1611907"><ele>383.0</ele><time>2026-03-28T10:43:59.171Z</time></trkpt><trkpt lat="43.4240943" lon="12.1610605"><ele>383.0</ele><time>2026-03-28T10:44:00.167Z</time></trkpt><trkpt lat="43.4240023" lon="12.1609249"><ele>383.0</ele><time>2026-03-28T10:44:01.167Z</time></trkpt><trkpt lat="43.4239149" lon="12.160781"><ele>383.0</ele><time>2026-03-28T10:44:02.168Z</time></trkpt><trkpt lat="43.4238313" lon="12.160631"><ele>383.0</ele><time>2026-03-28T10:44:03.162Z</time></trkpt><trkpt lat="43.4237504" lon="12.1604762"><ele>378.5</ele><time>2026-03-28T10:44:04.166Z</time></trkpt><trkpt lat="43.4236693" lon="12.160323"><ele>374.0</ele><time>2026-03-28T10:44:05.179Z</time></trkpt><trkpt lat="43.423587" lon="12.1601738"><ele>369.5</ele><time>2026-03-28T10:44:06.17Z</time></trkpt><trkpt lat="43.4235132" lon="12.1600179"><ele>365.0</ele><time>2026-03-28T10:44:07.165Z</time></trkpt><trkpt lat="43.4234579" lon="12.1598489"><ele>365.0</ele><time>2026-03-28T10:44:08.165Z</time></trkpt><trkpt lat="43.4234078" lon="12.1596772"><ele>365.0</ele><time>2026-03-28T10:44:09.166Z</time></trkpt><trkpt lat="43.4233407" lon="12.1595173"><ele>365.0</ele><time>2026-03-28T10:44:10.165Z</time></trkpt><trkpt lat="43.423267" lon="12.1593435"><ele>365.0</ele><time>2026-03-28T10:44:11.176Z</time></trkpt><trkpt lat="43.4231851" lon="12.1591762"><ele>365.5</ele><time>2026-03-28T10:44:12.17Z</time></trkpt><trkpt lat="43.4231001" lon="12.1590209"><ele>366.0</ele><time>2026-03-28T10:44:13.168Z</time></trkpt><trkpt lat="43.4230138" lon="12.158861"><ele>366.5</ele><time>2026-03-28T10:44:14.163Z</time></trkpt><trkpt lat="43.4229265" lon="12.1587021"><ele>367.0</ele><time>2026-03-28T10:44:15.16Z</time></trkpt><trkpt lat="43.4228402" lon="12.1585404"><ele>366.0</ele><time>2026-03-28T10:44:16.166Z</time></trkpt><trkpt lat="43.4227566" lon="12.1583781"><ele>365.0</ele><time>2026-03-28T10:44:17.178Z</time></trkpt><trkpt lat="43.4226747" lon="12.1582159"><ele>364.0</ele><time>2026-03-28T10:44:18.17Z</time></trkpt><trkpt lat="43.4225916" lon="12.1580511"><ele>363.0</ele><time>2026-03-28T10:44:19.169Z</time></trkpt><trkpt lat="43.4225099" lon="12.1578876"><ele>363.0</ele><time>2026-03-28T10:44:20.168Z</time></trkpt><trkpt lat="43.422427" lon="12.1577238"><ele>363.0</ele><time>2026-03-28T10:44:21.167Z</time></trkpt><trkpt lat="43.4223445" lon="12.1575594"><ele>363.0</ele><time>2026-03-28T10:44:22.18Z</time></trkpt><trkpt lat="43.4222602" lon="12.1573949"><ele>363.0</ele><time>2026-03-28T10:44:23.167Z</time></trkpt><trkpt lat="43.4221736" lon="12.1572289"><ele>363.5</ele><time>2026-03-28T10:44:24.158Z</time></trkpt><trkpt lat="43.4220885" lon="12.1570619"><ele>364.0</ele><time>2026-03-28T10:44:25.167Z</time></trkpt><trkpt lat="43.4220049" lon="12.1568934"><ele>364.5</ele><time>2026-03-28T10:44:26.174Z</time></trkpt><trkpt lat="43.4219213" lon="12.1567213"><ele>365.0</ele><time>2026-03-28T10:44:27.168Z</time></trkpt><trkpt lat="43.4218366" lon="12.1565499"><ele>366.0</ele><time>2026-03-28T10:44:28.166Z</time></trkpt><trkpt lat="43.4217464" lon="12.1563806"><ele>367.0</ele><time>2026-03-28T10:44:29.171Z</time></trkpt><trkpt lat="43.4216513" lon="12.1562158"><ele>368.0</ele><time>2026-03-28T10:44:30.164Z</time></trkpt><trkpt lat="43.4215502" lon="12.1560592"><ele>368.0</ele><time>2026-03-28T10:44:31.179Z</time></trkpt><trkpt lat="43.4214387" lon="12.1559171"><ele>368.0</ele><time>2026-03-28T10:44:32.166Z</time></trkpt><trkpt lat="43.4213245" lon="12.1557758"><ele>368.0</ele><time>2026-03-28T10:44:33.173Z</time></trkpt><trkpt lat="43.4212104" lon="12.1556339"><ele>368.0</ele><time>2026-03-28T10:44:34.166Z</time></trkpt><trkpt lat="43.4210974" lon="12.1554915"><ele>368.0</ele><time>2026-03-28T10:44:35.169Z</time></trkpt><trkpt lat="43.4209914" lon="12.1553447"><ele>368.0</ele><time>2026-03-28T10:44:36.171Z</time></trkpt><trkpt lat="43.4209012" lon="12.155186"><ele>368.0</ele><time>2026-03-28T10:44:37.17Z</time></trkpt><trkpt lat="43.4208298" lon="12.1550122"><ele>368.0</ele><time>2026-03-28T10:44:38.168Z</time></trkpt><trkpt lat="43.4207755" lon="12.1548283"><ele>368.0</ele><time>2026-03-28T10:44:39.166Z</time></trkpt><trkpt lat="43.4207289" lon="12.1546393"><ele>368.0</ele><time>2026-03-28T10:44:40.17Z</time></trkpt><trkpt lat="43.4206828" lon="12.154448"><ele>368.25</ele><time>2026-03-28T10:44:41.165Z</time></trkpt><trkpt lat="43.4206353" lon="12.1542564"><ele>368.5</ele><time>2026-03-28T10:44:42.176Z</time></trkpt><trkpt lat="43.4205863" lon="12.1540645"><ele>368.75</ele><time>2026-03-28T10:44:43.174Z</time></trkpt><trkpt lat="43.4205355" lon="12.1538742"><ele>369.0</ele><time>2026-03-28T10:44:44.173Z</time></trkpt><trkpt lat="43.4204814" lon="12.1536867"><ele>369.0</ele><time>2026-03-28T10:44:45.164Z</time></trkpt><trkpt lat="43.4204237" lon="12.1535017"><ele>369.0</ele><time>2026-03-28T10:44:46.177Z</time></trkpt><trkpt lat="43.4203627" lon="12.1533192"><ele>369.0</ele><time>2026-03-28T10:44:47.181Z</time></trkpt><trkpt lat="43.420295" lon="12.1531414"><ele>369.0</ele><time>2026-03-28T10:44:48.164Z</time></trkpt><trkpt lat="43.4202098" lon="12.1529783"><ele>372.6666666666667</ele><time>2026-03-28T10:44:49.164Z</time></trkpt><trkpt lat="43.420106" lon="12.1528344"><ele>376.33333333333337</ele><time>2026-03-28T10:44:50.162Z</time></trkpt><trkpt lat="43.4199894" lon="12.1527029"><ele>380.0</ele><time>2026-03-28T10:44:51.169Z</time></trkpt><trkpt lat="43.4198682" lon="12.152573"><ele>380.0</ele><time>2026-03-28T10:44:52.166Z</time></trkpt><trkpt lat="43.4197465" lon="12.1524412"><ele>380.0</ele><time>2026-03-28T10:44:53.169Z</time></trkpt><trkpt lat="43.4196221" lon="12.1523119"><ele>380.0</ele><time>2026-03-28T10:44:54.169Z</time></trkpt><trkpt lat="43.4194922" lon="12.1521917"><ele>379.6666666666667</ele><time>2026-03-28T10:44:55.164Z</time></trkpt><trkpt lat="43.4193632" lon="12.1520992"><ele>379.3333333333333</ele><time>2026-03-28T10:44:56.168Z</time></trkpt><trkpt lat="43.4192137" lon="12.1520323"><ele>379.0</ele><time>2026-03-28T10:44:57.166Z</time></trkpt><trkpt lat="43.4190644" lon="12.1519744"><ele>379.0</ele><time>2026-03-28T10:44:58.172Z</time></trkpt><trkpt lat="43.4189136" lon="12.1519216"><ele>379.0</ele><time>2026-03-28T10:44:59.173Z</time></trkpt><trkpt lat="43.4187661" lon="12.1518717"><ele>379.0</ele><time>2026-03-28T10:45:00.17Z</time></trkpt><trkpt lat="43.418622" lon="12.1518168"><ele>377.0</ele><time>2026-03-28T10:45:01.163Z</time></trkpt><trkpt lat="43.4184785" lon="12.1517686"><ele>375.0</ele><time>2026-03-28T10:45:02.165Z</time></trkpt><trkpt lat="43.4183511" lon="12.1516919"><ele>373.0</ele><time>2026-03-28T10:45:03.17Z</time></trkpt><trkpt lat="43.4182352" lon="12.1516184"><ele>371.0</ele><time>2026-03-28T10:45:04.168Z</time></trkpt><trkpt lat="43.4181413" lon="12.1515492"><ele>371.0</ele><time>2026-03-28T10:45:05.173Z</time></trkpt><trkpt lat="43.4180749" lon="12.1514854"><ele>371.0</ele><time>2026-03-28T10:45:06.169Z</time></trkpt><trkpt lat="43.4179641" lon="12.151455"><ele>371.0</ele><time>2026-03-28T10:45:08.175Z</time></trkpt><trkpt lat="43.4178977" lon="12.1515019"><ele>371.0</ele><time>2026-03-28T10:45:09.162Z</time></trkpt><trkpt lat="43.4178164" lon="12.1515832"><ele>371.0</ele><time>2026-03-28T10:45:10.167Z</time></trkpt><trkpt lat="43.4177229" lon="12.1516813"><ele>370.25</ele><time>2026-03-28T10:45:11.166Z</time></trkpt><trkpt lat="43.4176186" lon="12.1517855"><ele>369.5</ele><time>2026-03-28T10:45:12.166Z</time></trkpt><trkpt lat="43.417522" lon="12.1518825"><ele>368.75</ele><time>2026-03-28T10:45:13.173Z</time></trkpt><trkpt lat="43.417438" lon="12.1519724"><ele>368.0</ele><time>2026-03-28T10:45:14.167Z</time></trkpt><trkpt lat="43.4173648" lon="12.1520609"><ele>368.0</ele><time>2026-03-28T10:45:15.174Z</time></trkpt><trkpt lat="43.4172841" lon="12.1521409"><ele>368.0</ele><time>2026-03-28T10:45:16.165Z</time></trkpt><trkpt lat="43.4172449" lon="12.1522697"><ele>368.0</ele><time>2026-03-28T10:45:17.177Z</time></trkpt><trkpt lat="43.4172088" lon="12.1524182"><ele>368.0</ele><time>2026-03-28T10:45:18.165Z</time></trkpt><trkpt lat="43.4171852" lon="12.1525893"><ele>368.0</ele><time>2026-03-28T10:45:19.161Z</time></trkpt><trkpt lat="43.4171498" lon="12.1527537"><ele>369.75</ele><time>2026-03-28T10:45:20.173Z</time></trkpt><trkpt lat="43.4171062" lon="12.1529385"><ele>371.5</ele><time>2026-03-28T10:45:21.169Z</time></trkpt><trkpt lat="43.4170548" lon="12.1531207"><ele>373.25</ele><time>2026-03-28T10:45:22.167Z</time></trkpt><trkpt lat="43.4169985" lon="12.1532924"><ele>375.0</ele><time>2026-03-28T10:45:23.173Z</time></trkpt><trkpt lat="43.4169437" lon="12.1534378"><ele>375.2</ele><time>2026-03-28T10:45:24.173Z</time></trkpt><trkpt lat="43.4168775" lon="12.1535659"><ele>375.4</ele><time>2026-03-28T10:45:25.166Z</time></trkpt><trkpt lat="43.4168165" lon="12.153658"><ele>375.6</ele><time>2026-03-28T10:45:26.175Z</time></trkpt><trkpt lat="43.4167508" lon="12.1537353"><ele>375.8</ele><time>2026-03-28T10:45:27.174Z</time></trkpt><trkpt lat="43.4166675" lon="12.1538074"><ele>376.0</ele><time>2026-03-28T10:45:28.167Z</time></trkpt><trkpt lat="43.4165711" lon="12.1538712"><ele>376.0</ele><time>2026-03-28T10:45:29.185Z</time></trkpt><trkpt lat="43.4164688" lon="12.1539438"><ele>376.0</ele><time>2026-03-28T10:45:30.174Z</time></trkpt><trkpt lat="43.4163717" lon="12.1540548"><ele>376.0</ele><time>2026-03-28T10:45:31.168Z</time></trkpt><trkpt lat="43.4162674" lon="12.1541807"><ele>376.0</ele><time>2026-03-28T10:45:32.169Z</time></trkpt><trkpt lat="43.4161568" lon="12.1543112"><ele>379.5</ele><time>2026-03-28T10:45:33.166Z</time></trkpt><trkpt lat="43.4160385" lon="12.1544342"><ele>383.0</ele><time>2026-03-28T10:45:34.172Z</time></trkpt><trkpt lat="43.4159114" lon="12.1545405"><ele>386.5</ele><time>2026-03-28T10:45:35.173Z</time></trkpt><trkpt lat="43.4157788" lon="12.154642"><ele>390.0</ele><time>2026-03-28T10:45:36.158Z</time></trkpt><trkpt lat="43.4156441" lon="12.1547365"><ele>390.0</ele><time>2026-03-28T10:45:37.164Z</time></trkpt><trkpt lat="43.4155114" lon="12.1548135"><ele>390.0</ele><time>2026-03-28T10:45:38.172Z</time></trkpt><trkpt lat="43.4153732" lon="12.1548841"><ele>390.0</ele><time>2026-03-28T10:45:39.171Z</time></trkpt><trkpt lat="43.4152285" lon="12.1549114"><ele>390.0</ele><time>2026-03-28T10:45:40.171Z</time></trkpt><trkpt lat="43.415106" lon="12.1549103"><ele>392.6</ele><time>2026-03-28T10:45:41.165Z</time></trkpt><trkpt lat="43.4150082" lon="12.1549293"><ele>395.2</ele><time>2026-03-28T10:45:42.177Z</time></trkpt><trkpt lat="43.4149175" lon="12.1549772"><ele>397.79999999999995</ele><time>2026-03-28T10:45:43.166Z</time></trkpt><trkpt lat="43.414824" lon="12.1550494"><ele>400.4</ele><time>2026-03-28T10:45:44.164Z</time></trkpt><trkpt lat="43.4147597" lon="12.1551697"><ele>403.0</ele><time>2026-03-28T10:45:45.162Z</time></trkpt><trkpt lat="43.4147052" lon="12.1552874"><ele>406.2</ele><time>2026-03-28T10:45:46.157Z</time></trkpt><trkpt lat="43.4146383" lon="12.1553754"><ele>409.4</ele><time>2026-03-28T10:45:47.173Z</time></trkpt><trkpt lat="43.4145593" lon="12.1554346"><ele>412.59999999999997</ele><time>2026-03-28T10:45:48.163Z</time></trkpt><trkpt lat="43.4144832" lon="12.1554719"><ele>415.79999999999995</ele><time>2026-03-28T10:45:49.163Z</time></trkpt><trkpt lat="43.4143688" lon="12.1554811"><ele>419.0</ele><time>2026-03-28T10:45:51.163Z</time></trkpt><trkpt lat="43.4143282" lon="12.1553444"><ele>418.99999999999994</ele><time>2026-03-28T10:45:53.158Z</time></trkpt><trkpt lat="43.4143506" lon="12.1552396"><ele>419.0</ele><time>2026-03-28T10:45:54.16Z</time></trkpt><trkpt lat="43.4143654" lon="12.1551451"><ele>419.0</ele><time>2026-03-28T10:45:55.159Z</time></trkpt><trkpt lat="43.4143716" lon="12.1550573"><ele>419.0</ele><time>2026-03-28T10:45:56.165Z</time></trkpt><trkpt lat="43.4142911" lon="12.1549779"><ele>418.99999999999994</ele><time>2026-03-28T10:45:58.162Z</time></trkpt><trkpt lat="43.4142104" lon="12.1549912"><ele>419.0</ele><time>2026-03-28T10:45:59.163Z</time></trkpt><trkpt lat="43.4141158" lon="12.1550397"><ele>419.0</ele><time>2026-03-28T10:46:00.163Z</time></trkpt><trkpt lat="43.4140062" lon="12.1551374"><ele>419.0</ele><time>2026-03-28T10:46:01.164Z</time></trkpt><trkpt lat="43.4139232" lon="12.1552212"><ele>419.0</ele><time>2026-03-28T10:46:02.164Z</time></trkpt><trkpt lat="43.4138047" lon="12.1553328"><ele>419.0</ele><time>2026-03-28T10:46:03.177Z</time></trkpt><trkpt lat="43.4136857" lon="12.1554202"><ele>423.25</ele><time>2026-03-28T10:46:04.167Z</time></trkpt><trkpt lat="43.4135778" lon="12.1555227"><ele>427.5</ele><time>2026-03-28T10:46:05.167Z</time></trkpt><trkpt lat="43.4134639" lon="12.1556485"><ele>431.75</ele><time>2026-03-28T10:46:06.169Z</time></trkpt><trkpt lat="43.4133547" lon="12.1557685"><ele>436.0</ele><time>2026-03-28T10:46:07.154Z</time></trkpt><trkpt lat="43.4132588" lon="12.155882"><ele>438.25</ele><time>2026-03-28T10:46:08.169Z</time></trkpt><trkpt lat="43.4131614" lon="12.1560033"><ele>440.5</ele><time>2026-03-28T10:46:09.164Z</time></trkpt><trkpt lat="43.4130723" lon="12.1561386"><ele>442.75</ele><time>2026-03-28T10:46:10.168Z</time></trkpt><trkpt lat="43.4130253" lon="12.1562645"><ele>445.0</ele><time>2026-03-28T10:46:11.174Z</time></trkpt><trkpt lat="43.4130087" lon="12.1563825"><ele>445.0</ele><time>2026-03-28T10:46:12.161Z</time></trkpt><trkpt lat="43.4130005" lon="12.1564977"><ele>445.0</ele><time>2026-03-28T10:46:13.162Z</time></trkpt><trkpt lat="43.4130547" lon="12.1565662"><ele>445.0</ele><time>2026-03-28T10:46:14.16Z</time></trkpt><trkpt lat="43.4131355" lon="12.1566489"><ele>445.0</ele><time>2026-03-28T10:46:15.162Z</time></trkpt><trkpt lat="43.4132208" lon="12.1567461"><ele>445.0</ele><time>2026-03-28T10:46:16.167Z</time></trkpt><trkpt lat="43.4132753" lon="12.1568554"><ele>446.4</ele><time>2026-03-28T10:46:17.163Z</time></trkpt><trkpt lat="43.4132962" lon="12.1569691"><ele>447.8</ele><time>2026-03-28T10:46:18.171Z</time></trkpt><trkpt lat="43.4132918" lon="12.1570753"><ele>449.20000000000005</ele><time>2026-03-28T10:46:19.165Z</time></trkpt><trkpt lat="43.4132327" lon="12.1571701"><ele>450.6</ele><time>2026-03-28T10:46:21.164Z</time></trkpt><trkpt lat="43.4131068" lon="12.1571298"><ele>452.0</ele><time>2026-03-28T10:46:23.159Z</time></trkpt><trkpt lat="43.4130361" lon="12.1570679"><ele>455.20000000000005</ele><time>2026-03-28T10:46:24.165Z</time></trkpt><trkpt lat="43.4129002" lon="12.1570779"><ele>458.40000000000003</ele><time>2026-03-28T10:46:26.172Z</time></trkpt><trkpt lat="43.4128248" lon="12.1571338"><ele>461.59999999999997</ele><time>2026-03-28T10:46:27.167Z</time></trkpt><trkpt lat="43.4127409" lon="12.1571842"><ele>464.79999999999995</ele><time>2026-03-28T10:46:28.169Z</time></trkpt><trkpt lat="43.4126485" lon="12.157231"><ele>468.0</ele><time>2026-03-28T10:46:29.166Z</time></trkpt><trkpt lat="43.4125518" lon="12.1572681"><ele>468.0</ele><time>2026-03-28T10:46:30.154Z</time></trkpt><trkpt lat="43.4124523" lon="12.157299"><ele>467.99999999999994</ele><time>2026-03-28T10:46:31.164Z</time></trkpt><trkpt lat="43.4123651" lon="12.1573239"><ele>467.99999999999994</ele><time>2026-03-28T10:46:32.179Z</time></trkpt><trkpt lat="43.4122605" lon="12.1573584"><ele>468.0</ele><time>2026-03-28T10:46:33.164Z</time></trkpt><trkpt lat="43.4121625" lon="12.1573879"><ele>468.0</ele><time>2026-03-28T10:46:34.165Z</time></trkpt><trkpt lat="43.412064" lon="12.1574181"><ele>472.0</ele><time>2026-03-28T10:46:35.164Z</time></trkpt><trkpt lat="43.4119728" lon="12.1574435"><ele>476.0</ele><time>2026-03-28T10:46:36.177Z</time></trkpt><trkpt lat="43.4118784" lon="12.1574766"><ele>480.0</ele><time>2026-03-28T10:46:37.168Z</time></trkpt><trkpt lat="43.4117859" lon="12.1575094"><ele>484.0</ele><time>2026-03-28T10:46:38.176Z</time></trkpt><trkpt lat="43.4117039" lon="12.157528"><ele>488.0</ele><time>2026-03-28T10:46:39.177Z</time></trkpt><trkpt lat="43.4116305" lon="12.1575275"><ele>492.0</ele><time>2026-03-28T10:46:40.171Z</time></trkpt><trkpt lat="43.4115204" lon="12.1574617"><ele>490.5</ele><time>2026-03-28T10:46:42.157Z</time></trkpt><trkpt lat="43.4114362" lon="12.1573264"><ele>489.0</ele><time>2026-03-28T10:46:44.158Z</time></trkpt><trkpt lat="43.4113954" lon="12.1572478"><ele>487.5</ele><time>2026-03-28T10:46:45.184Z</time></trkpt><trkpt lat="43.4113493" lon="12.1571699"><ele>486.0</ele><time>2026-03-28T10:46:46.17Z</time></trkpt><trkpt lat="43.4112986" lon="12.1571016"><ele>484.5</ele><time>2026-03-28T10:46:47.168Z</time></trkpt><trkpt lat="43.4112438" lon="12.1570327"><ele>483.0</ele><time>2026-03-28T10:46:48.176Z</time></trkpt><trkpt lat="43.4111877" lon="12.1569604"><ele>484.1428571428571</ele><time>2026-03-28T10:46:49.18Z</time></trkpt><trkpt lat="43.4111317" lon="12.1568834"><ele>485.2857142857143</ele><time>2026-03-28T10:46:50.164Z</time></trkpt><trkpt lat="43.4110757" lon="12.156806"><ele>486.42857142857144</ele><time>2026-03-28T10:46:51.171Z</time></trkpt><trkpt lat="43.4110221" lon="12.1567301"><ele>487.57142857142856</ele><time>2026-03-28T10:46:52.165Z</time></trkpt><trkpt lat="43.4109766" lon="12.1566609"><ele>488.71428571428567</ele><time>2026-03-28T10:46:53.178Z</time></trkpt><trkpt lat="43.410924" lon="12.1566004"><ele>489.85714285714283</ele><time>2026-03-28T10:46:54.172Z</time></trkpt><trkpt lat="43.4108735" lon="12.1565408"><ele>491.0</ele><time>2026-03-28T10:46:55.167Z</time></trkpt><trkpt lat="43.4108108" lon="12.1565056"><ele>491.0</ele><time>2026-03-28T10:46:56.179Z</time></trkpt><trkpt lat="43.4106811" lon="12.1564582"><ele>491.0</ele><time>2026-03-28T10:46:58.167Z</time></trkpt><trkpt lat="43.4105512" lon="12.1564396"><ele>491.0</ele><time>2026-03-28T10:47:00.174Z</time></trkpt><trkpt lat="43.4104847" lon="12.156454"><ele>491.0</ele><time>2026-03-28T10:47:01.169Z</time></trkpt><trkpt lat="43.4104109" lon="12.1564892"><ele>491.0</ele><time>2026-03-28T10:47:02.169Z</time></trkpt><trkpt lat="43.4103407" lon="12.1565107"><ele>495.3333333333333</ele><time>2026-03-28T10:47:03.172Z</time></trkpt><trkpt lat="43.4102479" lon="12.156506"><ele>499.66666666666663</ele><time>2026-03-28T10:47:05.17Z</time></trkpt><trkpt lat="43.4101979" lon="12.1565973"><ele>504.0</ele><time>2026-03-28T10:47:08.16Z</time></trkpt><trkpt lat="43.4102804" lon="12.1566584"><ele>508.33333333333337</ele><time>2026-03-28T10:47:10.167Z</time></trkpt><trkpt lat="43.4103693" lon="12.1567215"><ele>512.6666666666667</ele><time>2026-03-28T10:47:12.165Z</time></trkpt><trkpt lat="43.4103682" lon="12.1568251"><ele>517.0</ele><time>2026-03-28T10:47:14.168Z</time></trkpt><trkpt lat="43.4102667" lon="12.1568443"><ele>519.0</ele><time>2026-03-28T10:47:16.161Z</time></trkpt><trkpt lat="43.4102067" lon="12.1567988"><ele>521.0</ele><time>2026-03-28T10:47:17.166Z</time></trkpt><trkpt lat="43.4100796" lon="12.1567844"><ele>523.0</ele><time>2026-03-28T10:47:19.16Z</time></trkpt><trkpt lat="43.4100109" lon="12.156787"><ele>525.0</ele><time>2026-03-28T10:47:20.174Z</time></trkpt><trkpt lat="43.4099397" lon="12.1567718"><ele>527.0</ele><time>2026-03-28T10:47:21.168Z</time></trkpt><trkpt lat="43.4098658" lon="12.1567477"><ele>529.0</ele><time>2026-03-28T10:47:22.164Z</time></trkpt><trkpt lat="43.4097933" lon="12.1566997"><ele>529.0</ele><time>2026-03-28T10:47:23.161Z</time></trkpt><trkpt lat="43.4097343" lon="12.1566333"><ele>529.0</ele><time>2026-03-28T10:47:24.173Z</time></trkpt><trkpt lat="43.4096834" lon="12.1565539"><ele>529.0</ele><time>2026-03-28T10:47:25.172Z</time></trkpt><trkpt lat="43.4096524" lon="12.1564002"><ele>529.0</ele><time>2026-03-28T10:47:27.164Z</time></trkpt><trkpt lat="43.4096464" lon="12.1562746"><ele>529.0</ele><time>2026-03-28T10:47:29.17Z</time></trkpt><trkpt lat="43.4095748" lon="12.1562169"><ele>529.0</ele><time>2026-03-28T10:47:32.178Z</time></trkpt><trkpt lat="43.409492" lon="12.156222"><ele>532.5</ele><time>2026-03-28T10:47:34.175Z</time></trkpt><trkpt lat="43.4094121" lon="12.1561876"><ele>536.0</ele><time>2026-03-28T10:47:36.169Z</time></trkpt><trkpt lat="43.4093598" lon="12.1561177"><ele>539.5</ele><time>2026-03-28T10:47:37.177Z</time></trkpt><trkpt lat="43.4093165" lon="12.1560229"><ele>543.0</ele><time>2026-03-28T10:47:38.167Z</time></trkpt><trkpt lat="43.4092751" lon="12.1559191"><ele>546.5</ele><time>2026-03-28T10:47:39.171Z</time></trkpt><trkpt lat="43.4092382" lon="12.155834"><ele>550.0</ele><time>2026-03-28T10:47:40.166Z</time></trkpt><trkpt lat="43.4091942" lon="12.1557434"><ele>551.0</ele><time>2026-03-28T10:47:41.167Z</time></trkpt><trkpt lat="43.4091551" lon="12.1556641"><ele>552.0</ele><time>2026-03-28T10:47:42.17Z</time></trkpt><trkpt lat="43.4091123" lon="12.1555875"><ele>553.0</ele><time>2026-03-28T10:47:43.168Z</time></trkpt><trkpt lat="43.4090615" lon="12.1555226"><ele>554.0</ele><time>2026-03-28T10:47:44.169Z</time></trkpt><trkpt lat="43.409003" lon="12.1554829"><ele>555.0</ele><time>2026-03-28T10:47:45.17Z</time></trkpt><trkpt lat="43.4089362" lon="12.1554546"><ele>556.0</ele><time>2026-03-28T10:47:46.168Z</time></trkpt><trkpt lat="43.4088218" lon="12.1554223"><ele>556.0</ele><time>2026-03-28T10:47:48.167Z</time></trkpt><trkpt lat="43.4087069" lon="12.1553917"><ele>556.0</ele><time>2026-03-28T10:47:50.164Z</time></trkpt><trkpt lat="43.4085813" lon="12.1553857"><ele>556.0</ele><time>2026-03-28T10:47:52.16Z</time></trkpt><trkpt lat="43.4084514" lon="12.155365"><ele>556.0</ele><time>2026-03-28T10:47:54.166Z</time></trkpt><trkpt lat="43.408384" lon="12.1554078"><ele>556.0</ele><time>2026-03-28T10:47:55.177Z</time></trkpt><trkpt lat="43.4083113" lon="12.1554564"><ele>556.0</ele><time>2026-03-28T10:47:57.171Z</time></trkpt><trkpt lat="43.4083028" lon="12.1555504"><ele>556.0</ele><time>2026-03-28T10:48:06.162Z</time></trkpt><trkpt lat="43.4083778" lon="12.1556131"><ele>556.0</ele><time>2026-03-28T10:48:08.17Z</time></trkpt><trkpt lat="43.4084368" lon="12.1556622"><ele>556.0</ele><time>2026-03-28T10:48:09.178Z</time></trkpt><trkpt lat="43.4084959" lon="12.1557424"><ele>556.0</ele><time>2026-03-28T10:48:10.176Z</time></trkpt><trkpt lat="43.408553" lon="12.1558124"><ele>556.0</ele><time>2026-03-28T10:48:11.168Z</time></trkpt><trkpt lat="43.4086055" lon="12.1558777"><ele>556.1666666666667</ele><time>2026-03-28T10:48:12.176Z</time></trkpt><trkpt lat="43.4086627" lon="12.1559475"><ele>556.3333333333334</ele><time>2026-03-28T10:48:13.173Z</time></trkpt><trkpt lat="43.4087112" lon="12.1560268"><ele>556.5</ele><time>2026-03-28T10:48:14.175Z</time></trkpt><trkpt lat="43.4087647" lon="12.1561568"><ele>556.6666666666666</ele><time>2026-03-28T10:48:16.183Z</time></trkpt><trkpt lat="43.4087992" lon="12.1562611"><ele>556.8333333333333</ele><time>2026-03-28T10:48:18.177Z</time></trkpt><trkpt lat="43.4087756" lon="12.1563875"><ele>557.0</ele><time>2026-03-28T10:48:21.175Z</time></trkpt><trkpt lat="43.4087761" lon="12.1565023"><ele>558.6666666666666</ele><time>2026-03-28T10:48:23.177Z</time></trkpt><trkpt lat="43.4087735" lon="12.1566079"><ele>560.3333333333333</ele><time>2026-03-28T10:48:25.169Z</time></trkpt><trkpt lat="43.408756" lon="12.1567744"><ele>562.0</ele><time>2026-03-28T10:48:27.172Z</time></trkpt><trkpt lat="43.4087286" lon="12.156877"><ele>563.6666666666666</ele><time>2026-03-28T10:48:28.178Z</time></trkpt><trkpt lat="43.4087064" lon="12.1569633"><ele>565.3333333333334</ele><time>2026-03-28T10:48:29.18Z</time></trkpt><trkpt lat="43.4086958" lon="12.1570847"><ele>567.0</ele><time>2026-03-28T10:48:31.172Z</time></trkpt><trkpt lat="43.4087131" lon="12.1572215"><ele>567.0</ele><time>2026-03-28T10:48:33.186Z</time></trkpt><trkpt lat="43.4087557" lon="12.157331"><ele>567.0</ele><time>2026-03-28T10:48:35.177Z</time></trkpt><trkpt lat="43.4087875" lon="12.1574374"><ele>567.0</ele><time>2026-03-28T10:48:37.171Z</time></trkpt><trkpt lat="43.4087729" lon="12.1575417"><ele>567.0</ele><time>2026-03-28T10:48:39.186Z</time></trkpt><trkpt lat="43.4087469" lon="12.1576223"><ele>567.0</ele><time>2026-03-28T10:48:41.175Z</time></trkpt><trkpt lat="43.408716" lon="12.1577301"><ele>567.0</ele><time>2026-03-28T10:48:43.185Z</time></trkpt><trkpt lat="43.4086923" lon="12.1578415"><ele>568.2</ele><time>2026-03-28T10:48:45.179Z</time></trkpt><trkpt lat="43.4086977" lon="12.1579493"><ele>569.4000000000001</ele><time>2026-03-28T10:48:47.172Z</time></trkpt><trkpt lat="43.4087195" lon="12.1580873"><ele>570.5999999999999</ele><time>2026-03-28T10:48:49.168Z</time></trkpt><trkpt lat="43.4087303" lon="12.1582211"><ele>571.8</ele><time>2026-03-28T10:48:51.178Z</time></trkpt><trkpt lat="43.4087332" lon="12.1583667"><ele>573.0</ele><time>2026-03-28T10:48:53.177Z</time></trkpt><trkpt lat="43.4087267" lon="12.1585021"><ele>574.4</ele><time>2026-03-28T10:48:55.179Z</time></trkpt><trkpt lat="43.4087078" lon="12.1586226"><ele>575.8</ele><time>2026-03-28T10:48:57.17Z</time></trkpt><trkpt lat="43.4086903" lon="12.1588"><ele>577.2</ele><time>2026-03-28T10:48:59.176Z</time></trkpt><trkpt lat="43.4086774" lon="12.158909"><ele>578.6</ele><time>2026-03-28T10:49:00.173Z</time></trkpt><trkpt lat="43.4086566" lon="12.1590139"><ele>580.0</ele><time>2026-03-28T10:49:02.177Z</time></trkpt><trkpt lat="43.4086551" lon="12.1591424"><ele>581.6</ele><time>2026-03-28T10:49:05.182Z</time></trkpt><trkpt lat="43.4086418" lon="12.1592882"><ele>583.2</ele><time>2026-03-28T10:49:07.166Z</time></trkpt><trkpt lat="43.4085989" lon="12.1594203"><ele>584.8</ele><time>2026-03-28T10:49:09.181Z</time></trkpt><trkpt lat="43.4085716" lon="12.1595826"><ele>586.4</ele><time>2026-03-28T10:49:11.175Z</time></trkpt><trkpt lat="43.4085538" lon="12.1597015"><ele>588.0</ele><time>2026-03-28T10:49:13.18Z</time></trkpt><trkpt lat="43.4085229" lon="12.1598364"><ele>589.3333333333334</ele><time>2026-03-28T10:49:15.19Z</time></trkpt><trkpt lat="43.4084878" lon="12.1599957"><ele>590.6666666666666</ele><time>2026-03-28T10:49:17.167Z</time></trkpt><trkpt lat="43.4084534" lon="12.1601565"><ele>592.0</ele><time>2026-03-28T10:49:19.171Z</time></trkpt><trkpt lat="43.4084375" lon="12.1602473"><ele>593.3333333333333</ele><time>2026-03-28T10:49:20.169Z</time></trkpt><trkpt lat="43.4084237" lon="12.1603397"><ele>594.6666666666666</ele><time>2026-03-28T10:49:21.169Z</time></trkpt><trkpt lat="43.4084111" lon="12.1604324"><ele>596.0</ele><time>2026-03-28T10:49:22.176Z</time></trkpt><trkpt lat="43.4083831" lon="12.1605967"><ele>598.0</ele><time>2026-03-28T10:49:24.175Z</time></trkpt><trkpt lat="43.4083414" lon="12.1607501"><ele>600.0</ele><time>2026-03-28T10:49:26.169Z</time></trkpt><trkpt lat="43.4083028" lon="12.1608859"><ele>602.0</ele><time>2026-03-28T10:49:28.171Z</time></trkpt><trkpt lat="43.4082677" lon="12.1609632"><ele>604.0</ele><time>2026-03-28T10:49:29.169Z</time></trkpt><trkpt lat="43.408226" lon="12.1611169"><ele>606.0</ele><time>2026-03-28T10:49:31.173Z</time></trkpt><trkpt lat="43.4082249" lon="12.1612398"><ele>606.0</ele><time>2026-03-28T10:49:33.171Z</time></trkpt><trkpt lat="43.4082426" lon="12.1613302"><ele>606.0</ele><time>2026-03-28T10:49:35.175Z</time></trkpt><trkpt lat="43.4082889" lon="12.1614085"><ele>606.0</ele><time>2026-03-28T10:49:37.183Z</time></trkpt><trkpt lat="43.4083624" lon="12.1614735"><ele>606.0</ele><time>2026-03-28T10:49:39.17Z</time></trkpt><trkpt lat="43.4084526" lon="12.1615293"><ele>606.0</ele><time>2026-03-28T10:49:41.183Z</time></trkpt><trkpt lat="43.4085256" lon="12.1616088"><ele>606.0</ele><time>2026-03-28T10:49:43.179Z</time></trkpt><trkpt lat="43.4085897" lon="12.161736"><ele>605.8333333333334</ele><time>2026-03-28T10:49:45.173Z</time></trkpt><trkpt lat="43.4086283" lon="12.1618121"><ele>605.6666666666666</ele><time>2026-03-28T10:49:46.167Z</time></trkpt><trkpt lat="43.4086666" lon="12.1618821"><ele>605.5</ele><time>2026-03-28T10:49:47.173Z</time></trkpt><trkpt lat="43.4086979" lon="12.1619605"><ele>605.3333333333333</ele><time>2026-03-28T10:49:49.175Z</time></trkpt><trkpt lat="43.4087374" lon="12.1620474"><ele>605.1666666666666</ele><time>2026-03-28T10:49:51.176Z</time></trkpt><trkpt lat="43.4088044" lon="12.1621461"><ele>605.0</ele><time>2026-03-28T10:49:53.173Z</time></trkpt><trkpt lat="43.4088727" lon="12.1622573"><ele>603.8333333333333</ele><time>2026-03-28T10:49:55.176Z</time></trkpt><trkpt lat="43.4089121" lon="12.162347"><ele>602.6666666666666</ele><time>2026-03-28T10:49:57.173Z</time></trkpt><trkpt lat="43.4089647" lon="12.1624454"><ele>601.5</ele><time>2026-03-28T10:50:00.176Z</time></trkpt><trkpt lat="43.4090146" lon="12.1625114"><ele>600.3333333333334</ele><time>2026-03-28T10:50:02.174Z</time></trkpt><trkpt lat="43.4090766" lon="12.1625969"><ele>599.1666666666667</ele><time>2026-03-28T10:50:04.164Z</time></trkpt><trkpt lat="43.4091576" lon="12.1627184"><ele>598.0</ele><time>2026-03-28T10:50:06.169Z</time></trkpt><trkpt lat="43.4092393" lon="12.1628698"><ele>598.0</ele><time>2026-03-28T10:50:08.176Z</time></trkpt><trkpt lat="43.4092788" lon="12.1629451"><ele>598.0</ele><time>2026-03-28T10:50:09.178Z</time></trkpt><trkpt lat="43.4093462" lon="12.1630858"><ele>598.0</ele><time>2026-03-28T10:50:11.173Z</time></trkpt><trkpt lat="43.4093779" lon="12.1631766"><ele>598.0</ele><time>2026-03-28T10:50:12.169Z</time></trkpt><trkpt lat="43.4094096" lon="12.163269"><ele>598.0</ele><time>2026-03-28T10:50:13.17Z</time></trkpt><trkpt lat="43.4094462" lon="12.163364"><ele>598.0</ele><time>2026-03-28T10:50:14.18Z</time></trkpt><trkpt lat="43.4094799" lon="12.1634538"><ele>597.6666666666667</ele><time>2026-03-28T10:50:15.173Z</time></trkpt><trkpt lat="43.4095091" lon="12.1635455"><ele>597.3333333333334</ele><time>2026-03-28T10:50:16.179Z</time></trkpt><trkpt lat="43.4095393" lon="12.1636452"><ele>597.0</ele><time>2026-03-28T10:50:17.17Z</time></trkpt><trkpt lat="43.4095738" lon="12.1637371"><ele>596.6666666666666</ele><time>2026-03-28T10:50:18.18Z</time></trkpt><trkpt lat="43.4096094" lon="12.16383"><ele>596.3333333333333</ele><time>2026-03-28T10:50:19.185Z</time></trkpt><trkpt lat="43.4096475" lon="12.1639248"><ele>596.0</ele><time>2026-03-28T10:50:20.173Z</time></trkpt><trkpt lat="43.4096814" lon="12.1640255"><ele>595.7142857142857</ele><time>2026-03-28T10:50:21.172Z</time></trkpt><trkpt lat="43.4097104" lon="12.1641163"><ele>595.4285714285713</ele><time>2026-03-28T10:50:22.178Z</time></trkpt><trkpt lat="43.409741" lon="12.1642033"><ele>595.1428571428571</ele><time>2026-03-28T10:50:23.172Z</time></trkpt><trkpt lat="43.4097728" lon="12.1642853"><ele>594.8571428571429</ele><time>2026-03-28T10:50:24.178Z</time></trkpt><trkpt lat="43.4098085" lon="12.1643666"><ele>594.5714285714287</ele><time>2026-03-28T10:50:25.178Z</time></trkpt><trkpt lat="43.4098399" lon="12.1644499"><ele>594.2857142857143</ele><time>2026-03-28T10:50:26.172Z</time></trkpt><trkpt lat="43.4098807" lon="12.1645716"><ele>594.0</ele><time>2026-03-28T10:50:28.171Z</time></trkpt><trkpt lat="43.409913" lon="12.1646545"><ele>594.0</ele><time>2026-03-28T10:50:30.171Z</time></trkpt><trkpt lat="43.4099527" lon="12.1647809"><ele>594.0</ele><time>2026-03-28T10:50:32.172Z</time></trkpt><trkpt lat="43.4099875" lon="12.1649221"><ele>594.0</ele><time>2026-03-28T10:50:34.18Z</time></trkpt><trkpt lat="43.4099898" lon="12.1650382"><ele>594.0</ele><time>2026-03-28T10:50:36.173Z</time></trkpt><trkpt lat="43.4099295" lon="12.1652226"><ele>594.0</ele><time>2026-03-28T10:50:38.17Z</time></trkpt><trkpt lat="43.4098906" lon="12.1653233"><ele>595.0</ele><time>2026-03-28T10:50:39.169Z</time></trkpt><trkpt lat="43.4098631" lon="12.1654104"><ele>596.0</ele><time>2026-03-28T10:50:40.166Z</time></trkpt><trkpt lat="43.409826" lon="12.1655524"><ele>597.0</ele><time>2026-03-28T10:50:42.165Z</time></trkpt><trkpt lat="43.4098193" lon="12.1657115"><ele>598.0</ele><time>2026-03-28T10:50:44.167Z</time></trkpt><trkpt lat="43.4098682" lon="12.1658586"><ele>599.0</ele><time>2026-03-28T10:50:46.166Z</time></trkpt><trkpt lat="43.4099081" lon="12.1660051"><ele>600.0</ele><time>2026-03-28T10:50:48.168Z</time></trkpt><trkpt lat="43.4099053" lon="12.166093"><ele>601.0</ele><time>2026-03-28T10:50:49.167Z</time></trkpt><trkpt lat="43.4099116" lon="12.1662399"><ele>602.0</ele><time>2026-03-28T10:50:51.174Z</time></trkpt><trkpt lat="43.409946" lon="12.1664049"><ele>603.0</ele><time>2026-03-28T10:50:53.169Z</time></trkpt><trkpt lat="43.4099679" lon="12.1664914"><ele>604.0</ele><time>2026-03-28T10:50:54.168Z</time></trkpt><trkpt lat="43.4099839" lon="12.16665"><ele>604.6666666666667</ele><time>2026-03-28T10:50:56.168Z</time></trkpt><trkpt lat="43.4099801" lon="12.1667463"><ele>605.3333333333334</ele><time>2026-03-28T10:50:57.16Z</time></trkpt><trkpt lat="43.4099177" lon="12.1668673"><ele>606.0</ele><time>2026-03-28T10:50:59.164Z</time></trkpt><trkpt lat="43.4098432" lon="12.1669939"><ele>606.6666666666666</ele><time>2026-03-28T10:51:01.17Z</time></trkpt><trkpt lat="43.4097945" lon="12.1670665"><ele>607.3333333333333</ele><time>2026-03-28T10:51:02.17Z</time></trkpt><trkpt lat="43.4097455" lon="12.1671317"><ele>608.0</ele><time>2026-03-28T10:51:03.165Z</time></trkpt><trkpt lat="43.4097157" lon="12.1672125"><ele>608.0</ele><time>2026-03-28T10:51:04.165Z</time></trkpt><trkpt lat="43.4096941" lon="12.1673128"><ele>608.0</ele><time>2026-03-28T10:51:05.168Z</time></trkpt><trkpt lat="43.4096835" lon="12.167422"><ele>608.0</ele><time>2026-03-28T10:51:06.167Z</time></trkpt><trkpt lat="43.4096619" lon="12.1675255"><ele>608.0</ele><time>2026-03-28T10:51:07.168Z</time></trkpt><trkpt lat="43.4096279" lon="12.1676121"><ele>608.0</ele><time>2026-03-28T10:51:08.17Z</time></trkpt><trkpt lat="43.4096081" lon="12.1677037"><ele>608.0</ele><time>2026-03-28T10:51:09.168Z</time></trkpt><trkpt lat="43.4095851" lon="12.1678095"><ele>606.7142857142857</ele><time>2026-03-28T10:51:10.165Z</time></trkpt><trkpt lat="43.4095585" lon="12.1678991"><ele>605.4285714285714</ele><time>2026-03-28T10:51:11.169Z</time></trkpt><trkpt lat="43.4095221" lon="12.1679866"><ele>604.1428571428571</ele><time>2026-03-28T10:51:12.17Z</time></trkpt><trkpt lat="43.4094742" lon="12.1680684"><ele>602.8571428571429</ele><time>2026-03-28T10:51:13.167Z</time></trkpt><trkpt lat="43.4094195" lon="12.1681351"><ele>601.5714285714286</ele><time>2026-03-28T10:51:14.167Z</time></trkpt><trkpt lat="43.4093622" lon="12.1681994"><ele>600.2857142857143</ele><time>2026-03-28T10:51:15.167Z</time></trkpt><trkpt lat="43.4092998" lon="12.1682638"><ele>599.0</ele><time>2026-03-28T10:51:16.168Z</time></trkpt><trkpt lat="43.4092268" lon="12.1683343"><ele>599.0</ele><time>2026-03-28T10:51:17.169Z</time></trkpt><trkpt lat="43.4091707" lon="12.1683919"><ele>599.0</ele><time>2026-03-28T10:51:18.165Z</time></trkpt><trkpt lat="43.4091157" lon="12.1684428"><ele>599.0</ele><time>2026-03-28T10:51:19.181Z</time></trkpt><trkpt lat="43.4090469" lon="12.1685322"><ele>599.0</ele><time>2026-03-28T10:51:21.166Z</time></trkpt><trkpt lat="43.4089806" lon="12.1686397"><ele>599.0</ele><time>2026-03-28T10:51:23.17Z</time></trkpt><trkpt lat="43.408947" lon="12.1688133"><ele>599.0</ele><time>2026-03-28T10:51:25.166Z</time></trkpt><trkpt lat="43.4089405" lon="12.1689037"><ele>599.0</ele><time>2026-03-28T10:51:26.169Z</time></trkpt><trkpt lat="43.4089636" lon="12.1690705"><ele>599.0</ele><time>2026-03-28T10:51:28.167Z</time></trkpt><trkpt lat="43.4089866" lon="12.1692186"><ele>599.0</ele><time>2026-03-28T10:51:30.167Z</time></trkpt><trkpt lat="43.4090652" lon="12.1693391"><ele>599.0</ele><time>2026-03-28T10:51:32.175Z</time></trkpt><trkpt lat="43.4091485" lon="12.1694704"><ele>599.6666666666666</ele><time>2026-03-28T10:51:34.17Z</time></trkpt><trkpt lat="43.4091885" lon="12.1695451"><ele>600.3333333333333</ele><time>2026-03-28T10:51:35.169Z</time></trkpt><trkpt lat="43.4092272" lon="12.1696318"><ele>601.0</ele><time>2026-03-28T10:51:36.178Z</time></trkpt><trkpt lat="43.4092559" lon="12.1697224"><ele>601.6666666666666</ele><time>2026-03-28T10:51:37.166Z</time></trkpt><trkpt lat="43.4092713" lon="12.1698145"><ele>602.3333333333334</ele><time>2026-03-28T10:51:38.169Z</time></trkpt><trkpt lat="43.4093053" lon="12.1699526"><ele>603.0</ele><time>2026-03-28T10:51:40.191Z</time></trkpt><trkpt lat="43.4093805" lon="12.1700909"><ele>600.8333333333334</ele><time>2026-03-28T10:51:42.169Z</time></trkpt><trkpt lat="43.409412" lon="12.1701735"><ele>598.6666666666666</ele><time>2026-03-28T10:51:43.171Z</time></trkpt><trkpt lat="43.4094283" lon="12.1702573"><ele>596.5</ele><time>2026-03-28T10:51:44.174Z</time></trkpt><trkpt lat="43.409427" lon="12.1703578"><ele>594.3333333333333</ele><time>2026-03-28T10:51:45.164Z</time></trkpt><trkpt lat="43.409411" lon="12.1704695"><ele>592.1666666666666</ele><time>2026-03-28T10:51:46.172Z</time></trkpt><trkpt lat="43.4093975" lon="12.1705818"><ele>590.0</ele><time>2026-03-28T10:51:47.17Z</time></trkpt><trkpt lat="43.4093823" lon="12.1707127"><ele>589.8</ele><time>2026-03-28T10:51:48.169Z</time></trkpt><trkpt lat="43.4093305" lon="12.170815"><ele>589.6</ele><time>2026-03-28T10:51:49.173Z</time></trkpt><trkpt lat="43.4092732" lon="12.1709158"><ele>589.4</ele><time>2026-03-28T10:51:50.167Z</time></trkpt><trkpt lat="43.4092263" lon="12.1710027"><ele>589.2</ele><time>2026-03-28T10:51:51.17Z</time></trkpt><trkpt lat="43.4091837" lon="12.1710773"><ele>589.0</ele><time>2026-03-28T10:51:52.169Z</time></trkpt><trkpt lat="43.4090997" lon="12.1712109"><ele>589.0</ele><time>2026-03-28T10:51:54.165Z</time></trkpt><trkpt lat="43.4090492" lon="12.1712932"><ele>589.0</ele><time>2026-03-28T10:51:55.174Z</time></trkpt><trkpt lat="43.4089991" lon="12.1713752"><ele>589.0</ele><time>2026-03-28T10:51:56.173Z</time></trkpt><trkpt lat="43.4089413" lon="12.1714646"><ele>589.0</ele><time>2026-03-28T10:51:58.175Z</time></trkpt><trkpt lat="43.4088977" lon="12.1715471"><ele>589.0</ele><time>2026-03-28T10:52:00.186Z</time></trkpt><trkpt lat="43.408854" lon="12.1716169"><ele>589.0</ele><time>2026-03-28T10:52:01.168Z</time></trkpt><trkpt lat="43.4087949" lon="12.1717218"><ele>588.3333333333334</ele><time>2026-03-28T10:52:02.179Z</time></trkpt><trkpt lat="43.4087429" lon="12.1718324"><ele>587.6666666666667</ele><time>2026-03-28T10:52:03.172Z</time></trkpt><trkpt lat="43.4086966" lon="12.1719273"><ele>587.0</ele><time>2026-03-28T10:52:04.167Z</time></trkpt><trkpt lat="43.4086506" lon="12.1719873"><ele>586.3333333333334</ele><time>2026-03-28T10:52:05.174Z</time></trkpt><trkpt lat="43.4086027" lon="12.1720503"><ele>585.6666666666666</ele><time>2026-03-28T10:52:07.171Z</time></trkpt><trkpt lat="43.4085948" lon="12.1721705"><ele>585.0</ele><time>2026-03-28T10:52:10.166Z</time></trkpt><trkpt lat="43.4085882" lon="12.1722836"><ele>585.1666666666666</ele><time>2026-03-28T10:52:12.166Z</time></trkpt><trkpt lat="43.4085697" lon="12.172434"><ele>585.3333333333334</ele><time>2026-03-28T10:52:14.184Z</time></trkpt><trkpt lat="43.408498" lon="12.1725714"><ele>585.5</ele><time>2026-03-28T10:52:16.171Z</time></trkpt><trkpt lat="43.408454" lon="12.1726373"><ele>585.6666666666667</ele><time>2026-03-28T10:52:17.167Z</time></trkpt><trkpt lat="43.4084008" lon="12.172705"><ele>585.8333333333334</ele><time>2026-03-28T10:52:18.173Z</time></trkpt><trkpt lat="43.4083645" lon="12.1727895"><ele>586.0</ele><time>2026-03-28T10:52:19.167Z</time></trkpt><trkpt lat="43.4083357" lon="12.1728687"><ele>586.0</ele><time>2026-03-28T10:52:20.18Z</time></trkpt><trkpt lat="43.408282" lon="12.1729853"><ele>586.0</ele><time>2026-03-28T10:52:22.175Z</time></trkpt><trkpt lat="43.4081983" lon="12.1730976"><ele>586.0</ele><time>2026-03-28T10:52:24.173Z</time></trkpt><trkpt lat="43.4081437" lon="12.1731558"><ele>586.0</ele><time>2026-03-28T10:52:25.165Z</time></trkpt><trkpt lat="43.4081036" lon="12.1732385"><ele>586.0</ele><time>2026-03-28T10:52:26.173Z</time></trkpt><trkpt lat="43.4080818" lon="12.1733368"><ele>586.0</ele><time>2026-03-28T10:52:27.173Z</time></trkpt><trkpt lat="43.408071" lon="12.1734449"><ele>584.4</ele><time>2026-03-28T10:52:28.172Z</time></trkpt><trkpt lat="43.4080614" lon="12.1736068"><ele>582.8</ele><time>2026-03-28T10:52:30.17Z</time></trkpt><trkpt lat="43.4080743" lon="12.1737691"><ele>581.1999999999999</ele><time>2026-03-28T10:52:32.177Z</time></trkpt><trkpt lat="43.4080932" lon="12.1738552"><ele>579.6</ele><time>2026-03-28T10:52:33.17Z</time></trkpt><trkpt lat="43.4081167" lon="12.1739407"><ele>578.0</ele><time>2026-03-28T10:52:34.171Z</time></trkpt><trkpt lat="43.4081628" lon="12.1740984"><ele>576.0</ele><time>2026-03-28T10:52:36.167Z</time></trkpt><trkpt lat="43.4081884" lon="12.1741813"><ele>574.0</ele><time>2026-03-28T10:52:37.177Z</time></trkpt><trkpt lat="43.4082191" lon="12.174263"><ele>572.0</ele><time>2026-03-28T10:52:38.176Z</time></trkpt><trkpt lat="43.4082743" lon="12.1744169"><ele>570.0</ele><time>2026-03-28T10:52:40.17Z</time></trkpt><trkpt lat="43.4083139" lon="12.1745736"><ele>568.0</ele><time>2026-03-28T10:52:42.169Z</time></trkpt><trkpt lat="43.4083407" lon="12.1747224"><ele>568.0</ele><time>2026-03-28T10:52:44.17Z</time></trkpt><trkpt lat="43.4083645" lon="12.1748158"><ele>568.0</ele><time>2026-03-28T10:52:46.174Z</time></trkpt><trkpt lat="43.4083799" lon="12.1749008"><ele>568.0</ele><time>2026-03-28T10:52:48.171Z</time></trkpt><trkpt lat="43.4083914" lon="12.1750297"><ele>568.0</ele><time>2026-03-28T10:52:50.175Z</time></trkpt><trkpt lat="43.4083923" lon="12.1751412"><ele>568.0</ele><time>2026-03-28T10:52:52.168Z</time></trkpt><trkpt lat="43.4084147" lon="12.1752748"><ele>568.0</ele><time>2026-03-28T10:52:54.169Z</time></trkpt><trkpt lat="43.4084625" lon="12.175408"><ele>567.0</ele><time>2026-03-28T10:52:56.167Z</time></trkpt><trkpt lat="43.4085054" lon="12.1755199"><ele>566.0</ele><time>2026-03-28T10:52:58.171Z</time></trkpt><trkpt lat="43.4085459" lon="12.1755971"><ele>565.0</ele><time>2026-03-28T10:53:00.185Z</time></trkpt><trkpt lat="43.4085755" lon="12.1756902"><ele>564.0</ele><time>2026-03-28T10:53:02.181Z</time></trkpt><trkpt lat="43.4085882" lon="12.1758104"><ele>563.0</ele><time>2026-03-28T10:53:04.17Z</time></trkpt><trkpt lat="43.408601" lon="12.1759444"><ele>562.0</ele><time>2026-03-28T10:53:07.169Z</time></trkpt><trkpt lat="43.4086053" lon="12.1760831"><ele>558.8000000000001</ele><time>2026-03-28T10:53:09.164Z</time></trkpt><trkpt lat="43.4086078" lon="12.176236"><ele>555.6</ele><time>2026-03-28T10:53:11.172Z</time></trkpt><trkpt lat="43.4086129" lon="12.1763974"><ele>552.4000000000001</ele><time>2026-03-28T10:53:13.185Z</time></trkpt><trkpt lat="43.4086076" lon="12.1765548"><ele>549.2</ele><time>2026-03-28T10:53:15.18Z</time></trkpt><trkpt lat="43.4086044" lon="12.1766466"><ele>546.0</ele><time>2026-03-28T10:53:16.169Z</time></trkpt><trkpt lat="43.4086057" lon="12.176736"><ele>543.8</ele><time>2026-03-28T10:53:17.175Z</time></trkpt><trkpt lat="43.4086097" lon="12.1768306"><ele>541.6</ele><time>2026-03-28T10:53:18.164Z</time></trkpt><trkpt lat="43.4086245" lon="12.17692"><ele>539.4</ele><time>2026-03-28T10:53:19.167Z</time></trkpt><trkpt lat="43.4086432" lon="12.1770745"><ele>537.2</ele><time>2026-03-28T10:53:21.168Z</time></trkpt><trkpt lat="43.4086361" lon="12.1771943"><ele>535.0</ele><time>2026-03-28T10:53:23.168Z</time></trkpt><trkpt lat="43.408523" lon="12.1773039"><ele>535.0</ele><time>2026-03-28T10:53:25.183Z</time></trkpt><trkpt lat="43.4084464" lon="12.1773466"><ele>535.0</ele><time>2026-03-28T10:53:26.16Z</time></trkpt><trkpt lat="43.4083767" lon="12.177379"><ele>535.0</ele><time>2026-03-28T10:53:27.17Z</time></trkpt><trkpt lat="43.40826" lon="12.1774172"><ele>535.0</ele><time>2026-03-28T10:53:29.17Z</time></trkpt><trkpt lat="43.4081763" lon="12.1774491"><ele>535.0</ele><time>2026-03-28T10:53:31.168Z</time></trkpt><trkpt lat="43.4081122" lon="12.1774832"><ele>535.0</ele><time>2026-03-28T10:53:34.177Z</time></trkpt><trkpt lat="43.4080097" lon="12.177458"><ele>533.8333333333334</ele><time>2026-03-28T10:53:37.179Z</time></trkpt><trkpt lat="43.4079434" lon="12.1774091"><ele>532.6666666666667</ele><time>2026-03-28T10:53:38.168Z</time></trkpt><trkpt lat="43.4078856" lon="12.1773488"><ele>531.5</ele><time>2026-03-28T10:53:39.18Z</time></trkpt><trkpt lat="43.4078152" lon="12.1772969"><ele>530.3333333333334</ele><time>2026-03-28T10:53:40.17Z</time></trkpt><trkpt lat="43.4077147" lon="12.1772457"><ele>529.1666666666666</ele><time>2026-03-28T10:53:41.172Z</time></trkpt><trkpt lat="43.4076169" lon="12.1771938"><ele>528.0</ele><time>2026-03-28T10:53:42.18Z</time></trkpt><trkpt lat="43.4075225" lon="12.177144"><ele>528.0</ele><time>2026-03-28T10:53:43.164Z</time></trkpt><trkpt lat="43.407424" lon="12.1771043"><ele>528.0</ele><time>2026-03-28T10:53:44.175Z</time></trkpt><trkpt lat="43.4073307" lon="12.1770644"><ele>528.0</ele><time>2026-03-28T10:53:45.17Z</time></trkpt><trkpt lat="43.4072489" lon="12.177018"><ele>528.0</ele><time>2026-03-28T10:53:46.175Z</time></trkpt><trkpt lat="43.40718" lon="12.1769627"><ele>528.0</ele><time>2026-03-28T10:53:47.175Z</time></trkpt><trkpt lat="43.4071217" lon="12.1769011"><ele>528.0</ele><time>2026-03-28T10:53:48.166Z</time></trkpt><trkpt lat="43.4070773" lon="12.1768344"><ele>527.8</ele><time>2026-03-28T10:53:49.171Z</time></trkpt><trkpt lat="43.4070249" lon="12.1767052"><ele>527.5999999999999</ele><time>2026-03-28T10:53:51.169Z</time></trkpt><trkpt lat="43.4069868" lon="12.1765321"><ele>527.4000000000001</ele><time>2026-03-28T10:53:53.171Z</time></trkpt><trkpt lat="43.4069466" lon="12.1764437"><ele>527.2</ele><time>2026-03-28T10:53:54.17Z</time></trkpt><trkpt lat="43.4068974" lon="12.1763686"><ele>527.0</ele><time>2026-03-28T10:53:55.17Z</time></trkpt><trkpt lat="43.4068355" lon="12.1762989"><ele>527.0</ele><time>2026-03-28T10:53:56.169Z</time></trkpt><trkpt lat="43.4067723" lon="12.1762348"><ele>527.0</ele><time>2026-03-28T10:53:57.163Z</time></trkpt><trkpt lat="43.4067087" lon="12.1761776"><ele>527.0</ele><time>2026-03-28T10:53:58.166Z</time></trkpt><trkpt lat="43.4066381" lon="12.1761268"><ele>527.0</ele><time>2026-03-28T10:53:59.171Z</time></trkpt><trkpt lat="43.4065634" lon="12.1760778"><ele>527.0</ele><time>2026-03-28T10:54:00.178Z</time></trkpt><trkpt lat="43.406491" lon="12.1760282"><ele>527.0</ele><time>2026-03-28T10:54:01.174Z</time></trkpt><trkpt lat="43.4064275" lon="12.1759769"><ele>527.0</ele><time>2026-03-28T10:54:02.165Z</time></trkpt><trkpt lat="43.406378" lon="12.175917"><ele>527.0</ele><time>2026-03-28T10:54:03.173Z</time></trkpt><trkpt lat="43.4063272" lon="12.1757756"><ele>527.0</ele><time>2026-03-28T10:54:05.169Z</time></trkpt><trkpt lat="43.406289" lon="12.1756966"><ele>527.0</ele><time>2026-03-28T10:54:07.169Z</time></trkpt><trkpt lat="43.4062188" lon="12.1757177"><ele>527.0</ele><time>2026-03-28T10:54:12.161Z</time></trkpt><trkpt lat="43.4061591" lon="12.1757677"><ele>527.0</ele><time>2026-03-28T10:54:14.163Z</time></trkpt><trkpt lat="43.4060845" lon="12.1758333"><ele>527.6</ele><time>2026-03-28T10:54:16.158Z</time></trkpt><trkpt lat="43.405999" lon="12.1758992"><ele>528.2</ele><time>2026-03-28T10:54:18.18Z</time></trkpt><trkpt lat="43.4059021" lon="12.1759549"><ele>528.8</ele><time>2026-03-28T10:54:20.197Z</time></trkpt><trkpt lat="43.4058024" lon="12.1759998"><ele>529.4</ele><time>2026-03-28T10:54:22.174Z</time></trkpt><trkpt lat="43.4057022" lon="12.1760281"><ele>530.0</ele><time>2026-03-28T10:54:24.191Z</time></trkpt><trkpt lat="43.4055743" lon="12.1760071"><ele>531.6666666666666</ele><time>2026-03-28T10:54:26.179Z</time></trkpt><trkpt lat="43.4054935" lon="12.1759817"><ele>533.3333333333333</ele><time>2026-03-28T10:54:27.181Z</time></trkpt><trkpt lat="43.4054083" lon="12.1759566"><ele>535.0</ele><time>2026-03-28T10:54:28.179Z</time></trkpt><trkpt lat="43.4053212" lon="12.1759433"><ele>536.6666666666666</ele><time>2026-03-28T10:54:29.179Z</time></trkpt><trkpt lat="43.4052345" lon="12.1759491"><ele>538.3333333333334</ele><time>2026-03-28T10:54:30.189Z</time></trkpt><trkpt lat="43.4051616" lon="12.1759695"><ele>540.0</ele><time>2026-03-28T10:54:31.172Z</time></trkpt><trkpt lat="43.4050981" lon="12.1759969"><ele>540.0</ele><time>2026-03-28T10:54:32.164Z</time></trkpt><trkpt lat="43.4050191" lon="12.1760411"><ele>540.0</ele><time>2026-03-28T10:54:34.179Z</time></trkpt><trkpt lat="43.4049727" lon="12.1761277"><ele>540.0</ele><time>2026-03-28T10:54:37.157Z</time></trkpt><trkpt lat="43.4049551" lon="12.1762452"><ele>540.0</ele><time>2026-03-28T10:55:09.171Z</time></trkpt><trkpt lat="43.4049041" lon="12.1763136"><ele>540.0</ele><time>2026-03-28T10:55:11.162Z</time></trkpt><trkpt lat="43.4048425" lon="12.1763837"><ele>540.0</ele><time>2026-03-28T10:55:13.156Z</time></trkpt><trkpt lat="43.4047692" lon="12.1764802"><ele>537.2</ele><time>2026-03-28T10:55:15.171Z</time></trkpt><trkpt lat="43.404683" lon="12.1765715"><ele>534.4</ele><time>2026-03-28T10:55:17.173Z</time></trkpt><trkpt lat="43.4045838" lon="12.1766314"><ele>531.6</ele><time>2026-03-28T10:55:19.161Z</time></trkpt><trkpt lat="43.404513" lon="12.1766522"><ele>528.8</ele><time>2026-03-28T10:55:20.163Z</time></trkpt><trkpt lat="43.4044324" lon="12.1766619"><ele>526.0</ele><time>2026-03-28T10:55:21.172Z</time></trkpt><trkpt lat="43.4043437" lon="12.1766703"><ele>526.0</ele><time>2026-03-28T10:55:22.169Z</time></trkpt><trkpt lat="43.4042495" lon="12.1766766"><ele>526.0</ele><time>2026-03-28T10:55:23.166Z</time></trkpt><trkpt lat="43.4041533" lon="12.1766807"><ele>526.0</ele><time>2026-03-28T10:55:24.165Z</time></trkpt><trkpt lat="43.4040536" lon="12.1766907"><ele>526.0</ele><time>2026-03-28T10:55:25.168Z</time></trkpt><trkpt lat="43.403958" lon="12.1767002"><ele>526.0</ele><time>2026-03-28T10:55:26.169Z</time></trkpt><trkpt lat="43.4038713" lon="12.1767028"><ele>526.1666666666667</ele><time>2026-03-28T10:55:27.168Z</time></trkpt><trkpt lat="43.4037904" lon="12.1767049"><ele>526.3333333333334</ele><time>2026-03-28T10:55:28.168Z</time></trkpt><trkpt lat="43.4037117" lon="12.1767146"><ele>526.5</ele><time>2026-03-28T10:55:29.167Z</time></trkpt><trkpt lat="43.4036287" lon="12.1767386"><ele>526.6666666666666</ele><time>2026-03-28T10:55:30.17Z</time></trkpt><trkpt lat="43.4035473" lon="12.1767736"><ele>526.8333333333333</ele><time>2026-03-28T10:55:31.179Z</time></trkpt><trkpt lat="43.4034716" lon="12.1768067"><ele>527.0</ele><time>2026-03-28T10:55:32.173Z</time></trkpt><trkpt lat="43.4033949" lon="12.176846"><ele>527.0</ele><time>2026-03-28T10:55:33.169Z</time></trkpt><trkpt lat="43.4033081" lon="12.1768912"><ele>527.0</ele><time>2026-03-28T10:55:34.17Z</time></trkpt><trkpt lat="43.4032204" lon="12.1769384"><ele>527.0</ele><time>2026-03-28T10:55:35.177Z</time></trkpt><trkpt lat="43.403135" lon="12.1769889"><ele>527.0</ele><time>2026-03-28T10:55:36.176Z</time></trkpt><trkpt lat="43.4030555" lon="12.1770526"><ele>527.0</ele><time>2026-03-28T10:55:37.169Z</time></trkpt><trkpt lat="43.4029832" lon="12.1771271"><ele>525.6</ele><time>2026-03-28T10:55:38.166Z</time></trkpt><trkpt lat="43.4029111" lon="12.1772053"><ele>524.2</ele><time>2026-03-28T10:55:39.164Z</time></trkpt><trkpt lat="43.4028423" lon="12.1772808"><ele>522.8</ele><time>2026-03-28T10:55:40.166Z</time></trkpt><trkpt lat="43.40277" lon="12.1773619"><ele>521.4</ele><time>2026-03-28T10:55:41.168Z</time></trkpt><trkpt lat="43.4026994" lon="12.1774443"><ele>520.0</ele><time>2026-03-28T10:55:42.166Z</time></trkpt><trkpt lat="43.4026353" lon="12.1775205"><ele>520.0000000000001</ele><time>2026-03-28T10:55:43.168Z</time></trkpt><trkpt lat="43.4025858" lon="12.1775908"><ele>520.0</ele><time>2026-03-28T10:55:44.167Z</time></trkpt><trkpt lat="43.4025292" lon="12.1776772"><ele>520.0</ele><time>2026-03-28T10:55:46.165Z</time></trkpt><trkpt lat="43.4025093" lon="12.1777701"><ele>520.0</ele><time>2026-03-28T10:55:48.173Z</time></trkpt><trkpt lat="43.4024959" lon="12.1778556"><ele>520.0</ele><time>2026-03-28T10:55:51.173Z</time></trkpt><trkpt lat="43.4024693" lon="12.1779776"><ele>520.0000000000001</ele><time>2026-03-28T10:56:08.177Z</time></trkpt><trkpt lat="43.4024454" lon="12.1780623"><ele>520.0</ele><time>2026-03-28T10:56:09.171Z</time></trkpt><trkpt lat="43.402412" lon="12.1781544"><ele>520.8333333333334</ele><time>2026-03-28T10:56:10.17Z</time></trkpt><trkpt lat="43.4023701" lon="12.1782642"><ele>521.6666666666667</ele><time>2026-03-28T10:56:11.175Z</time></trkpt><trkpt lat="43.4023239" lon="12.1783892"><ele>522.5</ele><time>2026-03-28T10:56:12.174Z</time></trkpt><trkpt lat="43.4022835" lon="12.1785001"><ele>523.3333333333334</ele><time>2026-03-28T10:56:13.168Z</time></trkpt><trkpt lat="43.4022466" lon="12.1785884"><ele>524.1666666666666</ele><time>2026-03-28T10:56:14.17Z</time></trkpt><trkpt lat="43.4022057" lon="12.178662"><ele>525.0</ele><time>2026-03-28T10:56:15.17Z</time></trkpt><trkpt lat="43.4021598" lon="12.1787306"><ele>525.0</ele><time>2026-03-28T10:56:16.172Z</time></trkpt><trkpt lat="43.402072" lon="12.1788275"><ele>525.0</ele><time>2026-03-28T10:56:18.172Z</time></trkpt><trkpt lat="43.4019994" lon="12.1788683"><ele>525.0</ele><time>2026-03-28T10:56:20.173Z</time></trkpt><trkpt lat="43.4019197" lon="12.178857"><ele>525.0</ele><time>2026-03-28T10:56:22.179Z</time></trkpt><trkpt lat="43.4018211" lon="12.1788238"><ele>525.0</ele><time>2026-03-28T10:56:24.173Z</time></trkpt><trkpt lat="43.4017481" lon="12.1788069"><ele>525.0</ele><time>2026-03-28T10:56:25.171Z</time></trkpt><trkpt lat="43.401671" lon="12.1787915"><ele>525.0</ele><time>2026-03-28T10:56:26.171Z</time></trkpt><trkpt lat="43.4016086" lon="12.1787795"><ele>525.0</ele><time>2026-03-28T10:56:27.176Z</time></trkpt><trkpt lat="43.4014867" lon="12.1787654"><ele>525.0</ele><time>2026-03-28T10:56:29.173Z</time></trkpt><trkpt lat="43.4014118" lon="12.1787503"><ele>525.0</ele><time>2026-03-28T10:56:30.173Z</time></trkpt><trkpt lat="43.4013403" lon="12.1787322"><ele>525.0</ele><time>2026-03-28T10:56:31.174Z</time></trkpt><trkpt lat="43.401222" lon="12.1786909"><ele>524.7142857142857</ele><time>2026-03-28T10:56:33.169Z</time></trkpt><trkpt lat="43.4011574" lon="12.1786794"><ele>524.4285714285714</ele><time>2026-03-28T10:56:34.167Z</time></trkpt><trkpt lat="43.4010905" lon="12.1786737"><ele>524.1428571428571</ele><time>2026-03-28T10:56:35.164Z</time></trkpt><trkpt lat="43.4010182" lon="12.1786878"><ele>523.8571428571429</ele><time>2026-03-28T10:56:36.157Z</time></trkpt><trkpt lat="43.4009383" lon="12.1787395"><ele>523.5714285714286</ele><time>2026-03-28T10:56:37.176Z</time></trkpt><trkpt lat="43.40087" lon="12.1787951"><ele>523.2857142857142</ele><time>2026-03-28T10:56:38.176Z</time></trkpt><trkpt lat="43.4008051" lon="12.1788367"><ele>523.0</ele><time>2026-03-28T10:56:39.178Z</time></trkpt><trkpt lat="43.4007352" lon="12.1788551"><ele>522.9999999999999</ele><time>2026-03-28T10:56:40.178Z</time></trkpt><trkpt lat="43.4006698" lon="12.1788722"><ele>523.0</ele><time>2026-03-28T10:56:41.174Z</time></trkpt><trkpt lat="43.400597" lon="12.1788905"><ele>523.0</ele><time>2026-03-28T10:56:42.188Z</time></trkpt><trkpt lat="43.4005248" lon="12.1789068"><ele>523.0</ele><time>2026-03-28T10:56:43.17Z</time></trkpt><trkpt lat="43.4004553" lon="12.1789188"><ele>523.0</ele><time>2026-03-28T10:56:44.178Z</time></trkpt><trkpt lat="43.4003815" lon="12.1789402"><ele>522.9999999999999</ele><time>2026-03-28T10:56:45.174Z</time></trkpt><trkpt lat="43.4003089" lon="12.1789663"><ele>523.0</ele><time>2026-03-28T10:56:46.174Z</time></trkpt><trkpt lat="43.4002399" lon="12.1790029"><ele>520.1666666666667</ele><time>2026-03-28T10:56:47.171Z</time></trkpt><trkpt lat="43.4001482" lon="12.1790642"><ele>517.3333333333334</ele><time>2026-03-28T10:56:48.17Z</time></trkpt><trkpt lat="43.4000653" lon="12.1791272"><ele>514.5</ele><time>2026-03-28T10:56:49.173Z</time></trkpt><trkpt lat="43.3999906" lon="12.1791863"><ele>511.66666666666663</ele><time>2026-03-28T10:56:50.165Z</time></trkpt><trkpt lat="43.3999238" lon="12.179266"><ele>508.8333333333333</ele><time>2026-03-28T10:56:51.177Z</time></trkpt><trkpt lat="43.3998641" lon="12.1793342"><ele>506.0</ele><time>2026-03-28T10:56:52.169Z</time></trkpt><trkpt lat="43.3997983" lon="12.179391"><ele>506.0</ele><time>2026-03-28T10:56:53.173Z</time></trkpt><trkpt lat="43.3997321" lon="12.1794484"><ele>506.0</ele><time>2026-03-28T10:56:54.177Z</time></trkpt><trkpt lat="43.3996728" lon="12.1794917"><ele>506.0</ele><time>2026-03-28T10:56:55.167Z</time></trkpt><trkpt lat="43.3995803" lon="12.1795657"><ele>506.0</ele><time>2026-03-28T10:56:57.168Z</time></trkpt><trkpt lat="43.3994847" lon="12.1796446"><ele>506.0</ele><time>2026-03-28T10:56:59.165Z</time></trkpt><trkpt lat="43.3993694" lon="12.1797384"><ele>505.66666666666663</ele><time>2026-03-28T10:57:01.172Z</time></trkpt><trkpt lat="43.399285" lon="12.1797987"><ele>505.3333333333333</ele><time>2026-03-28T10:57:02.17Z</time></trkpt><trkpt lat="43.3992039" lon="12.1798602"><ele>505.0</ele><time>2026-03-28T10:57:03.188Z</time></trkpt><trkpt lat="43.3991363" lon="12.179921"><ele>504.66666666666663</ele><time>2026-03-28T10:57:04.166Z</time></trkpt><trkpt lat="43.3990776" lon="12.1799797"><ele>504.3333333333333</ele><time>2026-03-28T10:57:05.166Z</time></trkpt><trkpt lat="43.3990214" lon="12.1800431"><ele>504.0</ele><time>2026-03-28T10:57:06.171Z</time></trkpt><trkpt lat="43.3989722" lon="12.1800994"><ele>502.6</ele><time>2026-03-28T10:57:07.173Z</time></trkpt><trkpt lat="43.3988826" lon="12.1801991"><ele>501.2</ele><time>2026-03-28T10:57:09.166Z</time></trkpt><trkpt lat="43.398828" lon="12.1802947"><ele>499.80000000000007</ele><time>2026-03-28T10:57:11.169Z</time></trkpt><trkpt lat="43.39883" lon="12.1804088"><ele>498.40000000000003</ele><time>2026-03-28T10:57:13.17Z</time></trkpt><trkpt lat="43.3988425" lon="12.1805847"><ele>497.0</ele><time>2026-03-28T10:57:15.165Z</time></trkpt><trkpt lat="43.3988516" lon="12.1807056"><ele>496.49999999999994</ele><time>2026-03-28T10:57:16.166Z</time></trkpt><trkpt lat="43.3988522" lon="12.1808196"><ele>496.0</ele><time>2026-03-28T10:57:17.172Z</time></trkpt><trkpt lat="43.3988514" lon="12.1809197"><ele>495.5</ele><time>2026-03-28T10:57:18.166Z</time></trkpt><trkpt lat="43.39884" lon="12.1810085"><ele>495.0</ele><time>2026-03-28T10:57:19.175Z</time></trkpt><trkpt lat="43.3988114" lon="12.1811869"><ele>494.49999999999994</ele><time>2026-03-28T10:57:21.169Z</time></trkpt><trkpt lat="43.3987816" lon="12.1812695"><ele>494.0</ele><time>2026-03-28T10:57:22.163Z</time></trkpt><trkpt lat="43.3987503" lon="12.1813459"><ele>494.0</ele><time>2026-03-28T10:57:23.166Z</time></trkpt><trkpt lat="43.3986834" lon="12.181461"><ele>494.0</ele><time>2026-03-28T10:57:25.169Z</time></trkpt><trkpt lat="43.3985966" lon="12.1815457"><ele>494.0</ele><time>2026-03-28T10:57:27.159Z</time></trkpt><trkpt lat="43.3984961" lon="12.1816194"><ele>494.0</ele><time>2026-03-28T10:57:29.169Z</time></trkpt><trkpt lat="43.3983946" lon="12.1817013"><ele>494.0</ele><time>2026-03-28T10:57:31.166Z</time></trkpt><trkpt lat="43.3983354" lon="12.1817608"><ele>495.0</ele><time>2026-03-28T10:57:32.175Z</time></trkpt><trkpt lat="43.3982767" lon="12.1818196"><ele>496.0</ele><time>2026-03-28T10:57:33.18Z</time></trkpt><trkpt lat="43.3981859" lon="12.1819068"><ele>497.0</ele><time>2026-03-28T10:57:35.182Z</time></trkpt><trkpt lat="43.3981146" lon="12.181984"><ele>498.0</ele><time>2026-03-28T10:57:37.173Z</time></trkpt><trkpt lat="43.3980471" lon="12.1820674"><ele>499.0</ele><time>2026-03-28T10:57:39.175Z</time></trkpt><trkpt lat="43.3979702" lon="12.182176"><ele>496.79999999999995</ele><time>2026-03-28T10:57:41.168Z</time></trkpt><trkpt lat="43.3978813" lon="12.1822938"><ele>494.59999999999997</ele><time>2026-03-28T10:57:43.169Z</time></trkpt><trkpt lat="43.3978234" lon="12.18235"><ele>492.4</ele><time>2026-03-28T10:57:44.166Z</time></trkpt><trkpt lat="43.3977417" lon="12.182431"><ele>490.2</ele><time>2026-03-28T10:57:46.17Z</time></trkpt><trkpt lat="43.3976674" lon="12.1824907"><ele>488.0</ele><time>2026-03-28T10:57:48.172Z</time></trkpt><trkpt lat="43.3975996" lon="12.1825046"><ele>487.99999999999994</ele><time>2026-03-28T10:57:52.167Z</time></trkpt><trkpt lat="43.3975272" lon="12.1824743"><ele>488.0</ele><time>2026-03-28T10:57:58.164Z</time></trkpt><trkpt lat="43.3974531" lon="12.1824409"><ele>488.0</ele><time>2026-03-28T10:58:00.169Z</time></trkpt><trkpt lat="43.3973782" lon="12.1824741"><ele>488.0</ele><time>2026-03-28T10:58:02.167Z</time></trkpt><trkpt lat="43.397315" lon="12.1825434"><ele>487.99999999999994</ele><time>2026-03-28T10:58:04.166Z</time></trkpt><trkpt lat="43.3972297" lon="12.1825837"><ele>488.0</ele><time>2026-03-28T10:58:07.164Z</time></trkpt><trkpt lat="43.3971706" lon="12.1826195"><ele>484.4</ele><time>2026-03-28T10:58:09.172Z</time></trkpt><trkpt lat="43.397082" lon="12.1826712"><ele>480.79999999999995</ele><time>2026-03-28T10:58:11.165Z</time></trkpt><trkpt lat="43.3969846" lon="12.1827322"><ele>477.2</ele><time>2026-03-28T10:58:13.167Z</time></trkpt><trkpt lat="43.396917" lon="12.1827787"><ele>473.6</ele><time>2026-03-28T10:58:15.174Z</time></trkpt><trkpt lat="43.3968707" lon="12.1827017"><ele>470.0</ele><time>2026-03-28T10:58:19.164Z</time></trkpt><trkpt lat="43.396905" lon="12.1825653"><ele>469.99999999999994</ele><time>2026-03-28T10:58:21.161Z</time></trkpt><trkpt lat="43.3969257" lon="12.1824671"><ele>470.0</ele><time>2026-03-28T10:58:22.163Z</time></trkpt><trkpt lat="43.3969431" lon="12.1823502"><ele>470.0</ele><time>2026-03-28T10:58:23.164Z</time></trkpt><trkpt lat="43.3969556" lon="12.1822219"><ele>470.0</ele><time>2026-03-28T10:58:24.167Z</time></trkpt><trkpt lat="43.3969653" lon="12.1820923"><ele>469.99999999999994</ele><time>2026-03-28T10:58:25.168Z</time></trkpt><trkpt lat="43.3969765" lon="12.1819586"><ele>470.0</ele><time>2026-03-28T10:58:26.165Z</time></trkpt><trkpt lat="43.3969898" lon="12.1818253"><ele>469.0</ele><time>2026-03-28T10:58:27.155Z</time></trkpt><trkpt lat="43.397006" lon="12.1816896"><ele>468.0</ele><time>2026-03-28T10:58:28.162Z</time></trkpt><trkpt lat="43.3970284" lon="12.1815526"><ele>467.0</ele><time>2026-03-28T10:58:29.163Z</time></trkpt><trkpt lat="43.3970528" lon="12.1814213"><ele>466.0</ele><time>2026-03-28T10:58:30.164Z</time></trkpt><trkpt lat="43.3970758" lon="12.1812836"><ele>465.0</ele><time>2026-03-28T10:58:31.156Z</time></trkpt><trkpt lat="43.3971009" lon="12.181141"><ele>464.0</ele><time>2026-03-28T10:58:32.17Z</time></trkpt><trkpt lat="43.3971284" lon="12.1809939"><ele>463.0</ele><time>2026-03-28T10:58:33.162Z</time></trkpt><trkpt lat="43.3971571" lon="12.1808423"><ele>462.0</ele><time>2026-03-28T10:58:34.163Z</time></trkpt><trkpt lat="43.3971844" lon="12.1806875"><ele>461.0</ele><time>2026-03-28T10:58:35.165Z</time></trkpt><trkpt lat="43.3972095" lon="12.1805226"><ele>464.75</ele><time>2026-03-28T10:58:36.164Z</time></trkpt><trkpt lat="43.3972347" lon="12.1803504"><ele>468.5</ele><time>2026-03-28T10:58:37.166Z</time></trkpt><trkpt lat="43.3972599" lon="12.1801786"><ele>472.25</ele><time>2026-03-28T10:58:38.186Z</time></trkpt><trkpt lat="43.3972851" lon="12.180015"><ele>476.0</ele><time>2026-03-28T10:58:39.174Z</time></trkpt><trkpt lat="43.3973117" lon="12.1798565"><ele>475.6</ele><time>2026-03-28T10:58:40.173Z</time></trkpt><trkpt lat="43.3973382" lon="12.1797025"><ele>475.20000000000005</ele><time>2026-03-28T10:58:41.166Z</time></trkpt><trkpt lat="43.3973631" lon="12.1795576"><ele>474.79999999999995</ele><time>2026-03-28T10:58:42.167Z</time></trkpt><trkpt lat="43.3973895" lon="12.1794157"><ele>474.4</ele><time>2026-03-28T10:58:43.165Z</time></trkpt><trkpt lat="43.3974127" lon="12.1792717"><ele>474.0</ele><time>2026-03-28T10:58:44.171Z</time></trkpt><trkpt lat="43.397428" lon="12.1791278"><ele>475.0</ele><time>2026-03-28T10:58:45.169Z</time></trkpt><trkpt lat="43.3974323" lon="12.1789937"><ele>476.0</ele><time>2026-03-28T10:58:46.168Z</time></trkpt><trkpt lat="43.3974211" lon="12.1788604"><ele>477.0</ele><time>2026-03-28T10:58:47.164Z</time></trkpt><trkpt lat="43.3973942" lon="12.178729"><ele>478.0</ele><time>2026-03-28T10:58:48.169Z</time></trkpt><trkpt lat="43.3973498" lon="12.1785985"><ele>479.0</ele><time>2026-03-28T10:58:49.17Z</time></trkpt><trkpt lat="43.3972905" lon="12.1784679"><ele>479.0</ele><time>2026-03-28T10:58:50.166Z</time></trkpt><trkpt lat="43.3972273" lon="12.178343"><ele>479.0</ele><time>2026-03-28T10:58:51.175Z</time></trkpt><trkpt lat="43.3971673" lon="12.1782275"><ele>479.0</ele><time>2026-03-28T10:58:52.176Z</time></trkpt><trkpt lat="43.3971071" lon="12.1781128"><ele>479.0</ele><time>2026-03-28T10:58:53.166Z</time></trkpt><trkpt lat="43.397051" lon="12.1779968"><ele>479.0</ele><time>2026-03-28T10:58:54.163Z</time></trkpt><trkpt lat="43.397" lon="12.1778729"><ele>477.2</ele><time>2026-03-28T10:58:55.165Z</time></trkpt><trkpt lat="43.3969531" lon="12.1777419"><ele>475.4</ele><time>2026-03-28T10:58:56.166Z</time></trkpt><trkpt lat="43.3969048" lon="12.177611"><ele>473.6</ele><time>2026-03-28T10:58:57.161Z</time></trkpt><trkpt lat="43.3968577" lon="12.1774818"><ele>471.8</ele><time>2026-03-28T10:58:58.169Z</time></trkpt><trkpt lat="43.396808" lon="12.1773537"><ele>470.0</ele><time>2026-03-28T10:58:59.182Z</time></trkpt><trkpt lat="43.3967574" lon="12.1772216"><ele>470.0</ele><time>2026-03-28T10:59:00.171Z</time></trkpt><trkpt lat="43.3967155" lon="12.1770941"><ele>470.0</ele><time>2026-03-28T10:59:01.162Z</time></trkpt><trkpt lat="43.3966791" lon="12.1769693"><ele>470.0</ele><time>2026-03-28T10:59:02.161Z</time></trkpt><trkpt lat="43.3966446" lon="12.1768506"><ele>470.0</ele><time>2026-03-28T10:59:03.168Z</time></trkpt><trkpt lat="43.3966121" lon="12.1767331"><ele>470.0</ele><time>2026-03-28T10:59:04.169Z</time></trkpt><trkpt lat="43.3965778" lon="12.1766039"><ele>473.0</ele><time>2026-03-28T10:59:05.166Z</time></trkpt><trkpt lat="43.3965422" lon="12.1764672"><ele>476.0</ele><time>2026-03-28T10:59:06.157Z</time></trkpt><trkpt lat="43.3964999" lon="12.1763263"><ele>479.0</ele><time>2026-03-28T10:59:07.171Z</time></trkpt><trkpt lat="43.3964505" lon="12.1761922"><ele>482.0</ele><time>2026-03-28T10:59:08.168Z</time></trkpt><trkpt lat="43.3963961" lon="12.1760827"><ele>485.0</ele><time>2026-03-28T10:59:09.171Z</time></trkpt><trkpt lat="43.3963411" lon="12.1759908"><ele>483.0</ele><time>2026-03-28T10:59:10.163Z</time></trkpt><trkpt lat="43.396287" lon="12.1758913"><ele>481.0</ele><time>2026-03-28T10:59:11.164Z</time></trkpt><trkpt lat="43.3962375" lon="12.1757748"><ele>479.0</ele><time>2026-03-28T10:59:12.162Z</time></trkpt><trkpt lat="43.3961948" lon="12.1756557"><ele>477.0</ele><time>2026-03-28T10:59:13.177Z</time></trkpt><trkpt lat="43.3961645" lon="12.1755645"><ele>475.0</ele><time>2026-03-28T10:59:14.17Z</time></trkpt><trkpt lat="43.3961168" lon="12.1754441"><ele>475.0</ele><time>2026-03-28T10:59:16.168Z</time></trkpt><trkpt lat="43.3960815" lon="12.1753465"><ele>475.00000000000006</ele><time>2026-03-28T10:59:18.17Z</time></trkpt><trkpt lat="43.3960561" lon="12.1752512"><ele>475.0</ele><time>2026-03-28T10:59:20.169Z</time></trkpt><trkpt lat="43.3960731" lon="12.1753555"><ele>475.0</ele><time>2026-03-28T10:59:27.174Z</time></trkpt><trkpt lat="43.3961125" lon="12.1754304"><ele>475.00000000000006</ele><time>2026-03-28T10:59:28.176Z</time></trkpt><trkpt lat="43.3961529" lon="12.1755224"><ele>475.0</ele><time>2026-03-28T10:59:29.17Z</time></trkpt><trkpt lat="43.3961846" lon="12.1756052"><ele>475.0</ele><time>2026-03-28T10:59:30.172Z</time></trkpt><trkpt lat="43.3962357" lon="12.1757412"><ele>474.0</ele><time>2026-03-28T10:59:32.175Z</time></trkpt><trkpt lat="43.3962595" lon="12.1758303"><ele>473.0</ele><time>2026-03-28T10:59:34.18Z</time></trkpt><trkpt lat="43.3961996" lon="12.1758988"><ele>472.0</ele><time>2026-03-28T10:59:38.169Z</time></trkpt><trkpt lat="43.396101" lon="12.1759085"><ele>471.0</ele><time>2026-03-28T10:59:40.165Z</time></trkpt><trkpt lat="43.395992" lon="12.1759223"><ele>470.0</ele><time>2026-03-28T10:59:42.17Z</time></trkpt><trkpt lat="43.3958755" lon="12.1759468"><ele>469.99999999999994</ele><time>2026-03-28T10:59:44.177Z</time></trkpt><trkpt lat="43.3958028" lon="12.175946"><ele>470.0</ele><time>2026-03-28T10:59:45.182Z</time></trkpt><trkpt lat="43.3957372" lon="12.1759465"><ele>470.0</ele><time>2026-03-28T10:59:46.164Z</time></trkpt><trkpt lat="43.3956637" lon="12.1759432"><ele>470.0</ele><time>2026-03-28T10:59:47.167Z</time></trkpt><trkpt lat="43.3955929" lon="12.1759411"><ele>469.99999999999994</ele><time>2026-03-28T10:59:48.167Z</time></trkpt><trkpt lat="43.3954983" lon="12.1759532"><ele>470.0</ele><time>2026-03-28T10:59:50.17Z</time></trkpt><trkpt lat="43.3954305" lon="12.1759973"><ele>467.4</ele><time>2026-03-28T10:59:52.166Z</time></trkpt><trkpt lat="43.3953555" lon="12.176087"><ele>464.8</ele><time>2026-03-28T10:59:54.168Z</time></trkpt><trkpt lat="43.3952531" lon="12.1761612"><ele>462.20000000000005</ele><time>2026-03-28T10:59:56.169Z</time></trkpt><trkpt lat="43.3951917" lon="12.1761916"><ele>459.6</ele><time>2026-03-28T10:59:57.172Z</time></trkpt><trkpt lat="43.3950682" lon="12.176249"><ele>457.0</ele><time>2026-03-28T10:59:59.17Z</time></trkpt><trkpt lat="43.3950073" lon="12.1762717"><ele>457.00000000000006</ele><time>2026-03-28T11:00:00.173Z</time></trkpt><trkpt lat="43.3949413" lon="12.1763037"><ele>457.0</ele><time>2026-03-28T11:00:01.177Z</time></trkpt><trkpt lat="43.3948688" lon="12.1763513"><ele>457.00000000000006</ele><time>2026-03-28T11:00:02.171Z</time></trkpt><trkpt lat="43.3948034" lon="12.1763992"><ele>457.00000000000006</ele><time>2026-03-28T11:00:03.169Z</time></trkpt><trkpt lat="43.3947423" lon="12.176446"><ele>457.0</ele><time>2026-03-28T11:00:04.174Z</time></trkpt><trkpt lat="43.3946865" lon="12.17649"><ele>457.00000000000006</ele><time>2026-03-28T11:00:05.172Z</time></trkpt><trkpt lat="43.3946268" lon="12.1765408"><ele>457.00000000000006</ele><time>2026-03-28T11:00:06.168Z</time></trkpt><trkpt lat="43.3945604" lon="12.1765674"><ele>453.40000000000003</ele><time>2026-03-28T11:00:07.159Z</time></trkpt><trkpt lat="43.3944965" lon="12.1765845"><ele>449.80000000000007</ele><time>2026-03-28T11:00:08.17Z</time></trkpt><trkpt lat="43.3943732" lon="12.1766117"><ele>446.2</ele><time>2026-03-28T11:00:10.166Z</time></trkpt><trkpt lat="43.394308" lon="12.1766212"><ele>442.6</ele><time>2026-03-28T11:00:11.172Z</time></trkpt><trkpt lat="43.3941961" lon="12.176648"><ele>439.0</ele><time>2026-03-28T11:00:13.171Z</time></trkpt><trkpt lat="43.3940763" lon="12.1766711"><ele>439.0</ele><time>2026-03-28T11:00:15.166Z</time></trkpt><trkpt lat="43.3940125" lon="12.1766785"><ele>439.0</ele><time>2026-03-28T11:00:16.172Z</time></trkpt><trkpt lat="43.3939431" lon="12.1766896"><ele>439.0</ele><time>2026-03-28T11:00:17.17Z</time></trkpt><trkpt lat="43.3938718" lon="12.1767046"><ele>439.0</ele><time>2026-03-28T11:00:18.168Z</time></trkpt><trkpt lat="43.3938054" lon="12.176718"><ele>439.0</ele><time>2026-03-28T11:00:19.169Z</time></trkpt><trkpt lat="43.3937425" lon="12.1767269"><ele>439.0</ele><time>2026-03-28T11:00:20.17Z</time></trkpt><trkpt lat="43.3936296" lon="12.1767169"><ele>439.0</ele><time>2026-03-28T11:00:22.173Z</time></trkpt><trkpt lat="43.3935179" lon="12.1766544"><ele>438.0</ele><time>2026-03-28T11:00:24.165Z</time></trkpt><trkpt lat="43.3934292" lon="12.1765854"><ele>437.0</ele><time>2026-03-28T11:00:26.168Z</time></trkpt><trkpt lat="43.3933439" lon="12.1765811"><ele>436.0</ele><time>2026-03-28T11:00:29.179Z</time></trkpt><trkpt lat="43.3932203" lon="12.176632"><ele>435.0</ele><time>2026-03-28T11:00:31.166Z</time></trkpt><trkpt lat="43.3931482" lon="12.1766662"><ele>434.0</ele><time>2026-03-28T11:00:32.171Z</time></trkpt><trkpt lat="43.3930732" lon="12.1766899"><ele>433.16666666666663</ele><time>2026-03-28T11:00:33.167Z</time></trkpt><trkpt lat="43.3930058" lon="12.1767159"><ele>432.3333333333333</ele><time>2026-03-28T11:00:34.172Z</time></trkpt><trkpt lat="43.3929404" lon="12.1767486"><ele>431.5</ele><time>2026-03-28T11:00:35.173Z</time></trkpt><trkpt lat="43.3928795" lon="12.176794"><ele>430.66666666666663</ele><time>2026-03-28T11:00:36.174Z</time></trkpt><trkpt lat="43.3928189" lon="12.1768359"><ele>429.8333333333333</ele><time>2026-03-28T11:00:37.167Z</time></trkpt><trkpt lat="43.3927099" lon="12.1768804"><ele>429.0</ele><time>2026-03-28T11:00:39.168Z</time></trkpt><trkpt lat="43.3925842" lon="12.1768536"><ele>429.0</ele><time>2026-03-28T11:00:41.168Z</time></trkpt><trkpt lat="43.3925085" lon="12.1768525"><ele>429.0</ele><time>2026-03-28T11:00:42.172Z</time></trkpt><trkpt lat="43.3924337" lon="12.1768533"><ele>429.0</ele><time>2026-03-28T11:00:43.171Z</time></trkpt><trkpt lat="43.3923183" lon="12.1768524"><ele>429.0</ele><time>2026-03-28T11:00:45.164Z</time></trkpt><trkpt lat="43.3922426" lon="12.1768213"><ele>429.0</ele><time>2026-03-28T11:00:47.165Z</time></trkpt><trkpt lat="43.3921709" lon="12.1767881"><ele>429.0</ele><time>2026-03-28T11:00:49.176Z</time></trkpt><trkpt lat="43.3921014" lon="12.176758"><ele>427.6666666666667</ele><time>2026-03-28T11:00:51.17Z</time></trkpt><trkpt lat="43.3920336" lon="12.176694"><ele>426.33333333333337</ele><time>2026-03-28T11:00:53.156Z</time></trkpt><trkpt lat="43.3919269" lon="12.1767327"><ele>425.0</ele><time>2026-03-28T11:00:55.163Z</time></trkpt><trkpt lat="43.3918559" lon="12.1767556"><ele>423.6666666666667</ele><time>2026-03-28T11:00:56.161Z</time></trkpt><trkpt lat="43.391776" lon="12.1767799"><ele>422.33333333333337</ele><time>2026-03-28T11:00:57.173Z</time></trkpt><trkpt lat="43.391692" lon="12.1767939"><ele>421.0</ele><time>2026-03-28T11:00:58.163Z</time></trkpt><trkpt lat="43.3916204" lon="12.1768025"><ele>421.00000000000006</ele><time>2026-03-28T11:00:59.167Z</time></trkpt><trkpt lat="43.3915418" lon="12.1768122"><ele>421.0</ele><time>2026-03-28T11:01:01.17Z</time></trkpt><trkpt lat="43.3914628" lon="12.1767891"><ele>421.0</ele><time>2026-03-28T11:01:04.168Z</time></trkpt><trkpt lat="43.3914029" lon="12.1767574"><ele>421.0</ele><time>2026-03-28T11:01:06.165Z</time></trkpt><trkpt lat="43.3913215" lon="12.1767395"><ele>421.00000000000006</ele><time>2026-03-28T11:01:08.165Z</time></trkpt><trkpt lat="43.3912201" lon="12.1767205"><ele>421.0</ele><time>2026-03-28T11:01:10.165Z</time></trkpt><trkpt lat="43.391157" lon="12.1766881"><ele>420.50000000000006</ele><time>2026-03-28T11:01:11.172Z</time></trkpt><trkpt lat="43.391088" lon="12.1766364"><ele>420.0</ele><time>2026-03-28T11:01:12.171Z</time></trkpt><trkpt lat="43.3910174" lon="12.1765896"><ele>419.5</ele><time>2026-03-28T11:01:13.17Z</time></trkpt><trkpt lat="43.3909343" lon="12.1765421"><ele>419.0</ele><time>2026-03-28T11:01:14.176Z</time></trkpt><trkpt lat="43.390859" lon="12.1765038"><ele>418.50000000000006</ele><time>2026-03-28T11:01:15.168Z</time></trkpt><trkpt lat="43.3907944" lon="12.1764881"><ele>418.0</ele><time>2026-03-28T11:01:16.164Z</time></trkpt><trkpt lat="43.390708" lon="12.1764726"><ele>418.00000000000006</ele><time>2026-03-28T11:01:17.169Z</time></trkpt><trkpt lat="43.3906224" lon="12.1764566"><ele>418.0</ele><time>2026-03-28T11:01:18.166Z</time></trkpt><trkpt lat="43.390528" lon="12.176435"><ele>418.0</ele><time>2026-03-28T11:01:19.167Z</time></trkpt><trkpt lat="43.390446" lon="12.1764278"><ele>418.0</ele><time>2026-03-28T11:01:20.167Z</time></trkpt><trkpt lat="43.3903793" lon="12.1764134"><ele>418.00000000000006</ele><time>2026-03-28T11:01:21.169Z</time></trkpt><trkpt lat="43.3903123" lon="12.1763955"><ele>418.0</ele><time>2026-03-28T11:01:22.17Z</time></trkpt><trkpt lat="43.3902366" lon="12.1763663"><ele>418.4</ele><time>2026-03-28T11:01:23.171Z</time></trkpt><trkpt lat="43.3901394" lon="12.1763146"><ele>418.79999999999995</ele><time>2026-03-28T11:01:24.167Z</time></trkpt><trkpt lat="43.3900565" lon="12.1762557"><ele>419.2</ele><time>2026-03-28T11:01:25.173Z</time></trkpt><trkpt lat="43.389994" lon="12.1762083"><ele>419.6</ele><time>2026-03-28T11:01:26.163Z</time></trkpt><trkpt lat="43.3899009" lon="12.1761723"><ele>420.0</ele><time>2026-03-28T11:01:28.171Z</time></trkpt><trkpt lat="43.3898019" lon="12.1761211"><ele>417.0</ele><time>2026-03-28T11:01:30.176Z</time></trkpt><trkpt lat="43.3896744" lon="12.1760862"><ele>414.0</ele><time>2026-03-28T11:01:32.174Z</time></trkpt><trkpt lat="43.3896063" lon="12.1760945"><ele>411.0</ele><time>2026-03-28T11:01:33.171Z</time></trkpt><trkpt lat="43.3895076" lon="12.1761378"><ele>408.0</ele><time>2026-03-28T11:01:35.173Z</time></trkpt><trkpt lat="43.389426" lon="12.1761473"><ele>405.0</ele><time>2026-03-28T11:01:40.162Z</time></trkpt><trkpt lat="43.3893495" lon="12.1761576"><ele>404.99999999999994</ele><time>2026-03-28T11:01:43.171Z</time></trkpt><trkpt lat="43.3892831" lon="12.1761905"><ele>405.0</ele><time>2026-03-28T11:01:46.177Z</time></trkpt><trkpt lat="43.3892109" lon="12.1762274"><ele>405.0</ele><time>2026-03-28T11:01:48.172Z</time></trkpt><trkpt lat="43.3891478" lon="12.1762651"><ele>405.0</ele><time>2026-03-28T11:01:49.174Z</time></trkpt><trkpt lat="43.3890739" lon="12.1763044"><ele>405.0</ele><time>2026-03-28T11:01:50.175Z</time></trkpt><trkpt lat="43.3890001" lon="12.1763401"><ele>404.99999999999994</ele><time>2026-03-28T11:01:51.177Z</time></trkpt><trkpt lat="43.3889333" lon="12.1763709"><ele>405.0</ele><time>2026-03-28T11:01:52.173Z</time></trkpt><trkpt lat="43.3888624" lon="12.1764049"><ele>403.1666666666667</ele><time>2026-03-28T11:01:53.173Z</time></trkpt><trkpt lat="43.388802" lon="12.1764341"><ele>401.33333333333337</ele><time>2026-03-28T11:01:54.172Z</time></trkpt><trkpt lat="43.388713" lon="12.1764766"><ele>399.5</ele><time>2026-03-28T11:01:56.174Z</time></trkpt><trkpt lat="43.3886512" lon="12.1764986"><ele>397.6666666666667</ele><time>2026-03-28T11:01:59.168Z</time></trkpt><trkpt lat="43.3885716" lon="12.1765105"><ele>395.83333333333337</ele><time>2026-03-28T11:02:11.165Z</time></trkpt><trkpt lat="43.3885054" lon="12.1765207"><ele>394.0</ele><time>2026-03-28T11:02:18.176Z</time></trkpt><trkpt lat="43.3884208" lon="12.1765607"><ele>394.00000000000006</ele><time>2026-03-28T11:02:20.17Z</time></trkpt><trkpt lat="43.3883268" lon="12.1766123"><ele>394.0</ele><time>2026-03-28T11:02:22.171Z</time></trkpt><trkpt lat="43.3882538" lon="12.1766415"><ele>394.0</ele><time>2026-03-28T11:02:23.166Z</time></trkpt><trkpt lat="43.3881801" lon="12.1766677"><ele>394.0</ele><time>2026-03-28T11:02:24.168Z</time></trkpt><trkpt lat="43.3881053" lon="12.1766948"><ele>394.00000000000006</ele><time>2026-03-28T11:02:25.171Z</time></trkpt><trkpt lat="43.3880334" lon="12.1767208"><ele>394.0</ele><time>2026-03-28T11:02:26.179Z</time></trkpt><trkpt lat="43.3879643" lon="12.1767344"><ele>391.79999999999995</ele><time>2026-03-28T11:02:27.176Z</time></trkpt><trkpt lat="43.3878452" lon="12.1767257"><ele>389.59999999999997</ele><time>2026-03-28T11:02:29.177Z</time></trkpt><trkpt lat="43.3877358" lon="12.176701"><ele>387.4</ele><time>2026-03-28T11:02:31.17Z</time></trkpt><trkpt lat="43.3876397" lon="12.1766512"><ele>385.2</ele><time>2026-03-28T11:02:33.169Z</time></trkpt><trkpt lat="43.3875726" lon="12.1766038"><ele>383.0</ele><time>2026-03-28T11:02:35.169Z</time></trkpt><trkpt lat="43.3874787" lon="12.1764823"><ele>381.85714285714283</ele><time>2026-03-28T11:02:37.163Z</time></trkpt><trkpt lat="43.3874316" lon="12.1764135"><ele>380.71428571428567</ele><time>2026-03-28T11:02:38.17Z</time></trkpt><trkpt lat="43.3873864" lon="12.1763483"><ele>379.57142857142856</ele><time>2026-03-28T11:02:39.165Z</time></trkpt><trkpt lat="43.3873137" lon="12.1762593"><ele>378.42857142857144</ele><time>2026-03-28T11:02:41.174Z</time></trkpt><trkpt lat="43.3872526" lon="12.1762279"><ele>377.2857142857143</ele><time>2026-03-28T11:02:43.163Z</time></trkpt><trkpt lat="43.3871948" lon="12.1762637"><ele>376.14285714285717</ele><time>2026-03-28T11:02:45.157Z</time></trkpt><trkpt lat="43.3871413" lon="12.1763533"><ele>375.0</ele><time>2026-03-28T11:02:47.156Z</time></trkpt><trkpt lat="43.3870945" lon="12.1764468"><ele>374.0</ele><time>2026-03-28T11:02:50.172Z</time></trkpt><trkpt lat="43.3870488" lon="12.1765592"><ele>373.0</ele><time>2026-03-28T11:02:53.172Z</time></trkpt><trkpt lat="43.3870347" lon="12.1766925"><ele>372.0</ele><time>2026-03-28T11:02:55.172Z</time></trkpt><trkpt lat="43.3870438" lon="12.1767873"><ele>371.0</ele><time>2026-03-28T11:02:56.171Z</time></trkpt><trkpt lat="43.3870607" lon="12.1768897"><ele>370.0</ele><time>2026-03-28T11:02:57.169Z</time></trkpt><trkpt lat="43.3870827" lon="12.1769829"><ele>369.0</ele><time>2026-03-28T11:02:58.171Z</time></trkpt><trkpt lat="43.387111" lon="12.1770742"><ele>369.0</ele><time>2026-03-28T11:02:59.169Z</time></trkpt><trkpt lat="43.3871438" lon="12.1771591"><ele>369.0</ele><time>2026-03-28T11:03:00.16Z</time></trkpt><trkpt lat="43.3871882" lon="12.177251"><ele>369.0</ele><time>2026-03-28T11:03:01.164Z</time></trkpt><trkpt lat="43.3872417" lon="12.177348"><ele>369.0</ele><time>2026-03-28T11:03:02.173Z</time></trkpt><trkpt lat="43.3872939" lon="12.1774371"><ele>369.0</ele><time>2026-03-28T11:03:03.168Z</time></trkpt><trkpt lat="43.3873471" lon="12.1775265"><ele>369.0</ele><time>2026-03-28T11:03:04.17Z</time></trkpt><trkpt lat="43.3873997" lon="12.1776147"><ele>369.5</ele><time>2026-03-28T11:03:05.169Z</time></trkpt><trkpt lat="43.3874511" lon="12.1776991"><ele>370.0</ele><time>2026-03-28T11:03:06.17Z</time></trkpt><trkpt lat="43.3875027" lon="12.1777811"><ele>370.5</ele><time>2026-03-28T11:03:07.161Z</time></trkpt><trkpt lat="43.3875489" lon="12.177859"><ele>371.0</ele><time>2026-03-28T11:03:08.165Z</time></trkpt><trkpt lat="43.3875901" lon="12.177934"><ele>371.5</ele><time>2026-03-28T11:03:09.171Z</time></trkpt><trkpt lat="43.3876584" lon="12.178064"><ele>372.0</ele><time>2026-03-28T11:03:11.188Z</time></trkpt><trkpt lat="43.3877095" lon="12.1781925"><ele>368.6</ele><time>2026-03-28T11:03:13.167Z</time></trkpt><trkpt lat="43.3877217" lon="12.1783156"><ele>365.20000000000005</ele><time>2026-03-28T11:03:15.175Z</time></trkpt><trkpt lat="43.3876931" lon="12.1784246"><ele>361.8</ele><time>2026-03-28T11:03:17.174Z</time></trkpt><trkpt lat="43.3876351" lon="12.1785368"><ele>358.4</ele><time>2026-03-28T11:03:19.163Z</time></trkpt><trkpt lat="43.3875493" lon="12.1786419"><ele>355.0</ele><time>2026-03-28T11:03:21.173Z</time></trkpt><trkpt lat="43.3874494" lon="12.178735"><ele>355.0</ele><time>2026-03-28T11:03:23.165Z</time></trkpt><trkpt lat="43.387352" lon="12.1788172"><ele>355.0</ele><time>2026-03-28T11:03:25.167Z</time></trkpt><trkpt lat="43.3872596" lon="12.1788864"><ele>355.0</ele><time>2026-03-28T11:03:27.165Z</time></trkpt><trkpt lat="43.3871775" lon="12.1789491"><ele>355.0</ele><time>2026-03-28T11:03:29.163Z</time></trkpt><trkpt lat="43.3870912" lon="12.1790144"><ele>355.0</ele><time>2026-03-28T11:03:31.167Z</time></trkpt><trkpt lat="43.3870123" lon="12.1790721"><ele>351.0</ele><time>2026-03-28T11:03:33.176Z</time></trkpt><trkpt lat="43.3869304" lon="12.1791273"><ele>347.0</ele><time>2026-03-28T11:03:35.179Z</time></trkpt><trkpt lat="43.3868349" lon="12.1791961"><ele>343.0</ele><time>2026-03-28T11:03:37.171Z</time></trkpt><trkpt lat="43.3867697" lon="12.1792452"><ele>339.0</ele><time>2026-03-28T11:03:38.178Z</time></trkpt><trkpt lat="43.3867104" lon="12.1792973"><ele>335.0</ele><time>2026-03-28T11:03:39.173Z</time></trkpt><trkpt lat="43.3866517" lon="12.1793493"><ele>331.0</ele><time>2026-03-28T11:03:40.169Z</time></trkpt><trkpt lat="43.3865475" lon="12.1794467"><ele>331.0</ele><time>2026-03-28T11:03:42.165Z</time></trkpt><trkpt lat="43.3864421" lon="12.1795342"><ele>331.0</ele><time>2026-03-28T11:03:44.169Z</time></trkpt><trkpt lat="43.3863821" lon="12.1795715"><ele>331.0</ele><time>2026-03-28T11:03:45.171Z</time></trkpt><trkpt lat="43.3863173" lon="12.1795985"><ele>331.0</ele><time>2026-03-28T11:03:46.17Z</time></trkpt><trkpt lat="43.3862544" lon="12.1796135"><ele>331.0</ele><time>2026-03-28T11:03:47.169Z</time></trkpt><trkpt lat="43.3861366" lon="12.1796345"><ele>331.0</ele><time>2026-03-28T11:03:49.161Z</time></trkpt><trkpt lat="43.3860193" lon="12.1796569"><ele>329.57142857142856</ele><time>2026-03-28T11:03:51.165Z</time></trkpt><trkpt lat="43.3859557" lon="12.1796519"><ele>328.1428571428571</ele><time>2026-03-28T11:03:52.163Z</time></trkpt><trkpt lat="43.3858913" lon="12.1796308"><ele>326.71428571428567</ele><time>2026-03-28T11:03:53.161Z</time></trkpt><trkpt lat="43.3858329" lon="12.1795964"><ele>325.2857142857143</ele><time>2026-03-28T11:03:54.153Z</time></trkpt><trkpt lat="43.3857711" lon="12.1795482"><ele>323.85714285714283</ele><time>2026-03-28T11:03:55.167Z</time></trkpt><trkpt lat="43.3857036" lon="12.1794965"><ele>322.4285714285714</ele><time>2026-03-28T11:03:56.179Z</time></trkpt><trkpt lat="43.3856236" lon="12.1794482"><ele>321.0</ele><time>2026-03-28T11:03:57.157Z</time></trkpt><trkpt lat="43.3855401" lon="12.1794069"><ele>319.3333333333333</ele><time>2026-03-28T11:03:58.165Z</time></trkpt><trkpt lat="43.3854626" lon="12.1793708"><ele>317.6666666666667</ele><time>2026-03-28T11:03:59.168Z</time></trkpt><trkpt lat="43.3853884" lon="12.1793388"><ele>316.0</ele><time>2026-03-28T11:04:00.169Z</time></trkpt><trkpt lat="43.3853117" lon="12.1793057"><ele>314.33333333333337</ele><time>2026-03-28T11:04:01.177Z</time></trkpt><trkpt lat="43.3852399" lon="12.1792751"><ele>312.6666666666667</ele><time>2026-03-28T11:04:02.171Z</time></trkpt><trkpt lat="43.3851139" lon="12.1792221"><ele>311.0</ele><time>2026-03-28T11:04:04.171Z</time></trkpt><trkpt lat="43.3850444" lon="12.1791916"><ele>311.0</ele><time>2026-03-28T11:04:05.174Z</time></trkpt><trkpt lat="43.384963" lon="12.17915"><ele>311.0</ele><time>2026-03-28T11:04:06.171Z</time></trkpt><trkpt lat="43.3848677" lon="12.1791032"><ele>311.0</ele><time>2026-03-28T11:04:07.17Z</time></trkpt><trkpt lat="43.3847694" lon="12.1790531"><ele>311.0</ele><time>2026-03-28T11:04:08.166Z</time></trkpt><trkpt lat="43.3846692" lon="12.1790109"><ele>311.0</ele><time>2026-03-28T11:04:09.174Z</time></trkpt><trkpt lat="43.3845633" lon="12.1789675"><ele>311.0</ele><time>2026-03-28T11:04:10.171Z</time></trkpt><trkpt lat="43.3844425" lon="12.1789189"><ele>311.0</ele><time>2026-03-28T11:04:11.169Z</time></trkpt><trkpt lat="43.3843194" lon="12.178866"><ele>311.0</ele><time>2026-03-28T11:04:12.16Z</time></trkpt><trkpt lat="43.3841928" lon="12.1788132"><ele>311.0</ele><time>2026-03-28T11:04:13.171Z</time></trkpt><trkpt lat="43.3840681" lon="12.1787622"><ele>311.0</ele><time>2026-03-28T11:04:14.166Z</time></trkpt><trkpt lat="43.3839456" lon="12.1787102"><ele>311.0</ele><time>2026-03-28T11:04:15.172Z</time></trkpt><trkpt lat="43.3838283" lon="12.1786614"><ele>311.0</ele><time>2026-03-28T11:04:16.168Z</time></trkpt><trkpt lat="43.3837073" lon="12.1786087"><ele>311.0</ele><time>2026-03-28T11:04:17.172Z</time></trkpt><trkpt lat="43.3835912" lon="12.1785558"><ele>308.6</ele><time>2026-03-28T11:04:18.176Z</time></trkpt><trkpt lat="43.3834815" lon="12.1785092"><ele>306.20000000000005</ele><time>2026-03-28T11:04:19.166Z</time></trkpt><trkpt lat="43.3833786" lon="12.1784656"><ele>303.79999999999995</ele><time>2026-03-28T11:04:20.165Z</time></trkpt><trkpt lat="43.3832797" lon="12.1784244"><ele>301.4</ele><time>2026-03-28T11:04:21.169Z</time></trkpt><trkpt lat="43.3831778" lon="12.1783806"><ele>299.0</ele><time>2026-03-28T11:04:22.168Z</time></trkpt><trkpt lat="43.383069" lon="12.1783348"><ele>298.59999999999997</ele><time>2026-03-28T11:04:23.169Z</time></trkpt><trkpt lat="43.3829623" lon="12.1782899"><ele>298.2</ele><time>2026-03-28T11:04:24.169Z</time></trkpt><trkpt lat="43.3828567" lon="12.1782474"><ele>297.79999999999995</ele><time>2026-03-28T11:04:25.171Z</time></trkpt><trkpt lat="43.3827556" lon="12.1782114"><ele>297.4</ele><time>2026-03-28T11:04:26.175Z</time></trkpt><trkpt lat="43.382661" lon="12.1781806"><ele>297.0</ele><time>2026-03-28T11:04:27.174Z</time></trkpt><trkpt lat="43.3825715" lon="12.1781506"><ele>297.0</ele><time>2026-03-28T11:04:28.166Z</time></trkpt><trkpt lat="43.382503" lon="12.1781234"><ele>297.0</ele><time>2026-03-28T11:04:29.171Z</time></trkpt><trkpt lat="43.3824264" lon="12.1780806"><ele>297.0</ele><time>2026-03-28T11:04:31.167Z</time></trkpt><trkpt lat="43.382348" lon="12.1780127"><ele>297.0</ele><time>2026-03-28T11:04:33.179Z</time></trkpt><trkpt lat="43.3822943" lon="12.1779563"><ele>297.0</ele><time>2026-03-28T11:04:34.164Z</time></trkpt><trkpt lat="43.3822222" lon="12.1778747"><ele>297.0</ele><time>2026-03-28T11:04:35.159Z</time></trkpt><trkpt lat="43.3821457" lon="12.1777865"><ele>294.6</ele><time>2026-03-28T11:04:36.168Z</time></trkpt><trkpt lat="43.3820686" lon="12.1776872"><ele>292.2</ele><time>2026-03-28T11:04:37.168Z</time></trkpt><trkpt lat="43.3819956" lon="12.1775808"><ele>289.8</ele><time>2026-03-28T11:04:38.166Z</time></trkpt><trkpt lat="43.3819294" lon="12.1774765"><ele>287.4</ele><time>2026-03-28T11:04:39.169Z</time></trkpt><trkpt lat="43.3818662" lon="12.1773702"><ele>285.0</ele><time>2026-03-28T11:04:40.165Z</time></trkpt><trkpt lat="43.3818044" lon="12.1772585"><ele>285.0</ele><time>2026-03-28T11:04:41.167Z</time></trkpt><trkpt lat="43.3817462" lon="12.1771431"><ele>285.0</ele><time>2026-03-28T11:04:42.168Z</time></trkpt><trkpt lat="43.3816968" lon="12.1770186"><ele>285.0</ele><time>2026-03-28T11:04:43.165Z</time></trkpt><trkpt lat="43.3816552" lon="12.1768901"><ele>285.0</ele><time>2026-03-28T11:04:44.168Z</time></trkpt><trkpt lat="43.3816198" lon="12.1767651"><ele>285.0</ele><time>2026-03-28T11:04:45.171Z</time></trkpt><trkpt lat="43.3815913" lon="12.1766519"><ele>285.0</ele><time>2026-03-28T11:04:46.178Z</time></trkpt><trkpt lat="43.3815672" lon="12.1765584"><ele>285.0</ele><time>2026-03-28T11:04:47.173Z</time></trkpt><trkpt lat="43.3815183" lon="12.17644"><ele>285.0</ele><time>2026-03-28T11:04:49.17Z</time></trkpt><trkpt lat="43.3814405" lon="12.1763803"><ele>285.0</ele><time>2026-03-28T11:04:55.164Z</time></trkpt><trkpt lat="43.3813521" lon="12.1764289"><ele>285.0</ele><time>2026-03-28T11:04:57.154Z</time></trkpt><trkpt lat="43.3812982" lon="12.1765119"><ele>285.0</ele><time>2026-03-28T11:04:58.17Z</time></trkpt><trkpt lat="43.3812427" lon="12.1765982"><ele>283.8</ele><time>2026-03-28T11:04:59.166Z</time></trkpt><trkpt lat="43.3811719" lon="12.1767093"><ele>282.6</ele><time>2026-03-28T11:05:00.169Z</time></trkpt><trkpt lat="43.3811014" lon="12.1768188"><ele>281.4</ele><time>2026-03-28T11:05:01.164Z</time></trkpt><trkpt lat="43.3810364" lon="12.1769166"><ele>280.2</ele><time>2026-03-28T11:05:02.169Z</time></trkpt><trkpt lat="43.3809692" lon="12.1770091"><ele>279.0</ele><time>2026-03-28T11:05:03.174Z</time></trkpt><trkpt lat="43.3808899" lon="12.1771171"><ele>279.0</ele><time>2026-03-28T11:05:04.162Z</time></trkpt><trkpt lat="43.380811" lon="12.1772356"><ele>279.0</ele><time>2026-03-28T11:05:05.164Z</time></trkpt><trkpt lat="43.3807256" lon="12.1773685"><ele>279.0</ele><time>2026-03-28T11:05:06.166Z</time></trkpt><trkpt lat="43.3806374" lon="12.1774972"><ele>279.0</ele><time>2026-03-28T11:05:07.167Z</time></trkpt><trkpt lat="43.3805557" lon="12.177613"><ele>278.5</ele><time>2026-03-28T11:05:08.168Z</time></trkpt><trkpt lat="43.3804879" lon="12.1777121"><ele>278.0</ele><time>2026-03-28T11:05:09.173Z</time></trkpt><trkpt lat="43.3804352" lon="12.1777867"><ele>277.5</ele><time>2026-03-28T11:05:10.175Z</time></trkpt><trkpt lat="43.3803374" lon="12.1778129"><ele>277.0</ele><time>2026-03-28T11:05:12.164Z</time></trkpt><trkpt lat="43.3802747" lon="12.1777729"><ele>276.5</ele><time>2026-03-28T11:05:13.164Z</time></trkpt><trkpt lat="43.380201" lon="12.1777178"><ele>276.0</ele><time>2026-03-28T11:05:14.17Z</time></trkpt><trkpt lat="43.3801161" lon="12.1776698"><ele>276.0</ele><time>2026-03-28T11:05:15.168Z</time></trkpt><trkpt lat="43.3800274" lon="12.1776276"><ele>276.0</ele><time>2026-03-28T11:05:16.162Z</time></trkpt><trkpt lat="43.3799362" lon="12.177581"><ele>276.0</ele><time>2026-03-28T11:05:17.16Z</time></trkpt><trkpt lat="43.3798491" lon="12.1775384"><ele>276.0</ele><time>2026-03-28T11:05:18.17Z</time></trkpt><trkpt lat="43.3797679" lon="12.1774987"><ele>276.0</ele><time>2026-03-28T11:05:19.17Z</time></trkpt><trkpt lat="43.3796973" lon="12.177463"><ele>276.0</ele><time>2026-03-28T11:05:20.167Z</time></trkpt><trkpt lat="43.3796369" lon="12.1774325"><ele>275.8</ele><time>2026-03-28T11:05:21.171Z</time></trkpt><trkpt lat="43.379519" lon="12.1773764"><ele>275.6</ele><time>2026-03-28T11:05:23.167Z</time></trkpt><trkpt lat="43.3794536" lon="12.1773428"><ele>275.4</ele><time>2026-03-28T11:05:24.169Z</time></trkpt><trkpt lat="43.379372" lon="12.1773048"><ele>275.2</ele><time>2026-03-28T11:05:25.172Z</time></trkpt><trkpt lat="43.3792747" lon="12.177263"><ele>275.0</ele><time>2026-03-28T11:05:26.174Z</time></trkpt><trkpt lat="43.379168" lon="12.1772147"><ele>274.75</ele><time>2026-03-28T11:05:27.169Z</time></trkpt><trkpt lat="43.3790548" lon="12.1771574"><ele>274.5</ele><time>2026-03-28T11:05:28.167Z</time></trkpt><trkpt lat="43.3789342" lon="12.1770955"><ele>274.25</ele><time>2026-03-28T11:05:29.167Z</time></trkpt><trkpt lat="43.3788113" lon="12.1770326"><ele>274.0</ele><time>2026-03-28T11:05:30.173Z</time></trkpt><trkpt lat="43.3786858" lon="12.176965"><ele>274.0</ele><time>2026-03-28T11:05:31.166Z</time></trkpt><trkpt lat="43.3785585" lon="12.1768945"><ele>274.0</ele><time>2026-03-28T11:05:32.165Z</time></trkpt><trkpt lat="43.3784303" lon="12.17682"><ele>274.0</ele><time>2026-03-28T11:05:33.171Z</time></trkpt><trkpt lat="43.3783007" lon="12.1767349"><ele>274.0</ele><time>2026-03-28T11:05:34.187Z</time></trkpt><trkpt lat="43.3781738" lon="12.1766353"><ele>274.0</ele><time>2026-03-28T11:05:35.172Z</time></trkpt><trkpt lat="43.3780503" lon="12.1765239"><ele>274.0</ele><time>2026-03-28T11:05:36.155Z</time></trkpt><trkpt lat="43.3779269" lon="12.1764138"><ele>274.0</ele><time>2026-03-28T11:05:37.157Z</time></trkpt><trkpt lat="43.3778116" lon="12.1763126"><ele>274.0</ele><time>2026-03-28T11:05:38.167Z</time></trkpt><trkpt lat="43.3777037" lon="12.1762295"><ele>273.8333333333333</ele><time>2026-03-28T11:05:39.173Z</time></trkpt><trkpt lat="43.3776061" lon="12.1761544"><ele>273.66666666666663</ele><time>2026-03-28T11:05:40.172Z</time></trkpt><trkpt lat="43.3775249" lon="12.1760821"><ele>273.5</ele><time>2026-03-28T11:05:41.168Z</time></trkpt><trkpt lat="43.3774674" lon="12.1759998"><ele>273.3333333333333</ele><time>2026-03-28T11:05:42.174Z</time></trkpt><trkpt lat="43.3774411" lon="12.1759069"><ele>273.1666666666667</ele><time>2026-03-28T11:05:43.155Z</time></trkpt><trkpt lat="43.3774409" lon="12.1758022"><ele>273.0</ele><time>2026-03-28T11:05:44.159Z</time></trkpt><trkpt lat="43.3774455" lon="12.1756855"><ele>272.75</ele><time>2026-03-28T11:05:45.165Z</time></trkpt><trkpt lat="43.3774292" lon="12.1755537"><ele>272.5</ele><time>2026-03-28T11:05:46.166Z</time></trkpt><trkpt lat="43.3773896" lon="12.175412"><ele>272.25</ele><time>2026-03-28T11:05:47.154Z</time></trkpt><trkpt lat="43.3773412" lon="12.1752582"><ele>272.0</ele><time>2026-03-28T11:05:48.17Z</time></trkpt><trkpt lat="43.3772928" lon="12.1750938"><ele>272.0</ele><time>2026-03-28T11:05:49.166Z</time></trkpt><trkpt lat="43.3772431" lon="12.1749206"><ele>272.0</ele><time>2026-03-28T11:05:50.165Z</time></trkpt><trkpt lat="43.3771919" lon="12.174745"><ele>272.0</ele><time>2026-03-28T11:05:51.167Z</time></trkpt><trkpt lat="43.3771347" lon="12.1745754"><ele>272.0</ele><time>2026-03-28T11:05:52.168Z</time></trkpt><trkpt lat="43.3770606" lon="12.1744115"><ele>272.75</ele><time>2026-03-28T11:05:53.166Z</time></trkpt><trkpt lat="43.3769725" lon="12.1742555"><ele>273.5</ele><time>2026-03-28T11:05:54.163Z</time></trkpt><trkpt lat="43.3768773" lon="12.1741004"><ele>274.25</ele><time>2026-03-28T11:05:55.173Z</time></trkpt><trkpt lat="43.3767792" lon="12.1739446"><ele>275.0</ele><time>2026-03-28T11:05:56.156Z</time></trkpt><trkpt lat="43.3766784" lon="12.1737891"><ele>275.0</ele><time>2026-03-28T11:05:57.169Z</time></trkpt><trkpt lat="43.3765806" lon="12.1736408"><ele>275.0</ele><time>2026-03-28T11:05:58.166Z</time></trkpt><trkpt lat="43.3764968" lon="12.1735014"><ele>275.0</ele><time>2026-03-28T11:05:59.175Z</time></trkpt><trkpt lat="43.3764319" lon="12.1733694"><ele>275.0</ele><time>2026-03-28T11:06:00.17Z</time></trkpt><trkpt lat="43.3763907" lon="12.1732367"><ele>274.8</ele><time>2026-03-28T11:06:01.16Z</time></trkpt><trkpt lat="43.3763827" lon="12.1731038"><ele>274.6</ele><time>2026-03-28T11:06:02.161Z</time></trkpt><trkpt lat="43.3764076" lon="12.1729685"><ele>274.4</ele><time>2026-03-28T11:06:03.169Z</time></trkpt><trkpt lat="43.3764575" lon="12.1728337"><ele>274.2</ele><time>2026-03-28T11:06:04.154Z</time></trkpt><trkpt lat="43.3765208" lon="12.1726966"><ele>274.0</ele><time>2026-03-28T11:06:05.164Z</time></trkpt><trkpt lat="43.3765878" lon="12.172551"><ele>274.0</ele><time>2026-03-28T11:06:06.165Z</time></trkpt><trkpt lat="43.376656" lon="12.1723996"><ele>274.0</ele><time>2026-03-28T11:06:07.173Z</time></trkpt><trkpt lat="43.3767213" lon="12.172244"><ele>274.0</ele><time>2026-03-28T11:06:08.164Z</time></trkpt><trkpt lat="43.3767693" lon="12.1720775"><ele>274.0</ele><time>2026-03-28T11:06:09.173Z</time></trkpt><trkpt lat="43.3767908" lon="12.1719049"><ele>275.4</ele><time>2026-03-28T11:06:10.16Z</time></trkpt><trkpt lat="43.3767821" lon="12.171738"><ele>276.79999999999995</ele><time>2026-03-28T11:06:11.166Z</time></trkpt><trkpt lat="43.3767467" lon="12.1715878"><ele>278.20000000000005</ele><time>2026-03-28T11:06:12.169Z</time></trkpt><trkpt lat="43.3766908" lon="12.171461"><ele>279.6</ele><time>2026-03-28T11:06:13.171Z</time></trkpt><trkpt lat="43.376629" lon="12.1713587"><ele>281.0</ele><time>2026-03-28T11:06:14.171Z</time></trkpt><trkpt lat="43.3765724" lon="12.1712774"><ele>282.33333333333337</ele><time>2026-03-28T11:06:15.165Z</time></trkpt><trkpt lat="43.376515" lon="12.1712218"><ele>283.6666666666667</ele><time>2026-03-28T11:06:16.182Z</time></trkpt><trkpt lat="43.3764527" lon="12.1712006"><ele>285.0</ele><time>2026-03-28T11:06:17.164Z</time></trkpt><trkpt lat="43.3763829" lon="12.171181"><ele>286.3333333333333</ele><time>2026-03-28T11:06:18.169Z</time></trkpt><trkpt lat="43.3762894" lon="12.171206"><ele>287.66666666666663</ele><time>2026-03-28T11:06:19.167Z</time></trkpt><trkpt lat="43.3761773" lon="12.1712341"><ele>289.0</ele><time>2026-03-28T11:06:20.163Z</time></trkpt><trkpt lat="43.3760518" lon="12.171254"><ele>289.0</ele><time>2026-03-28T11:06:21.165Z</time></trkpt><trkpt lat="43.3759146" lon="12.1712719"><ele>289.0</ele><time>2026-03-28T11:06:22.172Z</time></trkpt><trkpt lat="43.3757765" lon="12.1712963"><ele>289.0</ele><time>2026-03-28T11:06:23.167Z</time></trkpt><trkpt lat="43.3756423" lon="12.1713291"><ele>289.0</ele><time>2026-03-28T11:06:24.172Z</time></trkpt><trkpt lat="43.3755155" lon="12.1713675"><ele>287.8</ele><time>2026-03-28T11:06:25.167Z</time></trkpt><trkpt lat="43.375402" lon="12.1714188"><ele>286.59999999999997</ele><time>2026-03-28T11:06:26.165Z</time></trkpt><trkpt lat="43.3752999" lon="12.1714804"><ele>285.4</ele><time>2026-03-28T11:06:27.164Z</time></trkpt><trkpt lat="43.3752153" lon="12.1715411"><ele>284.2</ele><time>2026-03-28T11:06:28.178Z</time></trkpt><trkpt lat="43.3751444" lon="12.1715837"><ele>283.0</ele><time>2026-03-28T11:06:29.171Z</time></trkpt><trkpt lat="43.3750795" lon="12.1715995"><ele>283.0</ele><time>2026-03-28T11:06:30.171Z</time></trkpt><trkpt lat="43.3749795" lon="12.171513"><ele>283.0</ele><time>2026-03-28T11:06:32.166Z</time></trkpt><trkpt lat="43.3749291" lon="12.1714398"><ele>283.0</ele><time>2026-03-28T11:06:33.166Z</time></trkpt><trkpt lat="43.3748824" lon="12.1713305"><ele>283.0</ele><time>2026-03-28T11:06:34.169Z</time></trkpt><trkpt lat="43.3748285" lon="12.1712223"><ele>283.0</ele><time>2026-03-28T11:06:35.176Z</time></trkpt><trkpt lat="43.3747609" lon="12.1711047"><ele>282.4</ele><time>2026-03-28T11:06:36.175Z</time></trkpt><trkpt lat="43.3746847" lon="12.1709988"><ele>281.8</ele><time>2026-03-28T11:06:37.181Z</time></trkpt><trkpt lat="43.3746039" lon="12.1709165"><ele>281.2</ele><time>2026-03-28T11:06:38.173Z</time></trkpt><trkpt lat="43.3745093" lon="12.1708536"><ele>280.6</ele><time>2026-03-28T11:06:39.178Z</time></trkpt><trkpt lat="43.3744026" lon="12.1708106"><ele>280.0</ele><time>2026-03-28T11:06:40.166Z</time></trkpt><trkpt lat="43.3742846" lon="12.1707753"><ele>280.0</ele><time>2026-03-28T11:06:41.16Z</time></trkpt><trkpt lat="43.3741641" lon="12.1707504"><ele>280.0</ele><time>2026-03-28T11:06:42.168Z</time></trkpt><trkpt lat="43.3740456" lon="12.1707495"><ele>280.0</ele><time>2026-03-28T11:06:43.168Z</time></trkpt><trkpt lat="43.3739309" lon="12.1707784"><ele>280.0</ele><time>2026-03-28T11:06:44.172Z</time></trkpt><trkpt lat="43.3738164" lon="12.1708359"><ele>281.5</ele><time>2026-03-28T11:06:45.166Z</time></trkpt><trkpt lat="43.3737015" lon="12.1709084"><ele>283.0</ele><time>2026-03-28T11:06:46.166Z</time></trkpt><trkpt lat="43.373587" lon="12.1709884"><ele>284.5</ele><time>2026-03-28T11:06:47.166Z</time></trkpt><trkpt lat="43.3734728" lon="12.1710707"><ele>286.0</ele><time>2026-03-28T11:06:48.162Z</time></trkpt><trkpt lat="43.3733719" lon="12.1711706"><ele>286.0</ele><time>2026-03-28T11:06:49.169Z</time></trkpt><trkpt lat="43.3732937" lon="12.1712819"><ele>286.0</ele><time>2026-03-28T11:06:50.17Z</time></trkpt><trkpt lat="43.3732411" lon="12.1713996"><ele>286.0</ele><time>2026-03-28T11:06:51.174Z</time></trkpt><trkpt lat="43.3732062" lon="12.1715412"><ele>286.0</ele><time>2026-03-28T11:06:52.176Z</time></trkpt><trkpt lat="43.3731739" lon="12.1716927"><ele>286.0</ele><time>2026-03-28T11:06:53.171Z</time></trkpt><trkpt lat="43.3731609" lon="12.1718599"><ele>285.5</ele><time>2026-03-28T11:06:54.165Z</time></trkpt><trkpt lat="43.3731492" lon="12.1720325"><ele>285.0</ele><time>2026-03-28T11:06:55.17Z</time></trkpt><trkpt lat="43.3731467" lon="12.1722057"><ele>284.5</ele><time>2026-03-28T11:06:56.174Z</time></trkpt><trkpt lat="43.3731638" lon="12.1723677"><ele>284.0</ele><time>2026-03-28T11:06:57.166Z</time></trkpt><trkpt lat="43.3732099" lon="12.1725089"><ele>286.0</ele><time>2026-03-28T11:06:58.169Z</time></trkpt><trkpt lat="43.3732834" lon="12.1726247"><ele>288.0</ele><time>2026-03-28T11:06:59.167Z</time></trkpt><trkpt lat="43.3733727" lon="12.1727238"><ele>290.0</ele><time>2026-03-28T11:07:00.172Z</time></trkpt><trkpt lat="43.3734598" lon="12.1728323"><ele>292.0</ele><time>2026-03-28T11:07:01.171Z</time></trkpt><trkpt lat="43.3735364" lon="12.1729531"><ele>292.0</ele><time>2026-03-28T11:07:02.164Z</time></trkpt><trkpt lat="43.3735901" lon="12.1730715"><ele>292.0</ele><time>2026-03-28T11:07:03.162Z</time></trkpt><trkpt lat="43.3736168" lon="12.1731825"><ele>292.0</ele><time>2026-03-28T11:07:04.169Z</time></trkpt><trkpt lat="43.3736413" lon="12.1732868"><ele>292.0</ele><time>2026-03-28T11:07:05.161Z</time></trkpt><trkpt lat="43.3736095" lon="12.1733925"><ele>292.0</ele><time>2026-03-28T11:07:06.168Z</time></trkpt><trkpt lat="43.3735524" lon="12.1735014"><ele>292.0</ele><time>2026-03-28T11:07:07.164Z</time></trkpt><trkpt lat="43.3734794" lon="12.1736107"><ele>293.75</ele><time>2026-03-28T11:07:08.165Z</time></trkpt><trkpt lat="43.3733965" lon="12.1737284"><ele>295.5</ele><time>2026-03-28T11:07:09.169Z</time></trkpt><trkpt lat="43.3733089" lon="12.1738515"><ele>297.25</ele><time>2026-03-28T11:07:10.166Z</time></trkpt><trkpt lat="43.3732278" lon="12.173973"><ele>299.0</ele><time>2026-03-28T11:07:11.168Z</time></trkpt><trkpt lat="43.3731614" lon="12.1740892"><ele>299.0</ele><time>2026-03-28T11:07:12.175Z</time></trkpt><trkpt lat="43.3731167" lon="12.1742049"><ele>299.0</ele><time>2026-03-28T11:07:13.17Z</time></trkpt><trkpt lat="43.373074" lon="12.1743178"><ele>299.0</ele><time>2026-03-28T11:07:14.167Z</time></trkpt><trkpt lat="43.3730821" lon="12.1744608"><ele>299.0</ele><time>2026-03-28T11:07:15.167Z</time></trkpt><trkpt lat="43.3731001" lon="12.17462"><ele>299.0</ele><time>2026-03-28T11:07:16.172Z</time></trkpt><trkpt lat="43.373106" lon="12.1747865"><ele>299.0</ele><time>2026-03-28T11:07:17.159Z</time></trkpt><trkpt lat="43.373094" lon="12.1749603"><ele>299.0</ele><time>2026-03-28T11:07:18.169Z</time></trkpt><trkpt lat="43.3730662" lon="12.1751296"><ele>299.0</ele><time>2026-03-28T11:07:19.183Z</time></trkpt><trkpt lat="43.3730198" lon="12.1752865"><ele>299.0</ele><time>2026-03-28T11:07:20.159Z</time></trkpt><trkpt lat="43.3729562" lon="12.1754338"><ele>300.75</ele><time>2026-03-28T11:07:21.173Z</time></trkpt><trkpt lat="43.3728792" lon="12.1755752"><ele>302.5</ele><time>2026-03-28T11:07:22.172Z</time></trkpt><trkpt lat="43.3727915" lon="12.1757054"><ele>304.25</ele><time>2026-03-28T11:07:23.171Z</time></trkpt><trkpt lat="43.3727015" lon="12.1758335"><ele>306.0</ele><time>2026-03-28T11:07:24.168Z</time></trkpt><trkpt lat="43.3726202" lon="12.1759732"><ele>306.0</ele><time>2026-03-28T11:07:25.168Z</time></trkpt><trkpt lat="43.3725609" lon="12.1761155"><ele>306.0</ele><time>2026-03-28T11:07:26.169Z</time></trkpt><trkpt lat="43.3725098" lon="12.1762441"><ele>306.0</ele><time>2026-03-28T11:07:27.173Z</time></trkpt><trkpt lat="43.3724748" lon="12.1763577"><ele>306.0</ele><time>2026-03-28T11:07:28.168Z</time></trkpt><trkpt lat="43.3724607" lon="12.1764828"><ele>306.0</ele><time>2026-03-28T11:07:29.177Z</time></trkpt><trkpt lat="43.3724619" lon="12.176616"><ele>306.5</ele><time>2026-03-28T11:07:30.168Z</time></trkpt><trkpt lat="43.3724898" lon="12.1767762"><ele>307.0</ele><time>2026-03-28T11:07:31.171Z</time></trkpt><trkpt lat="43.3725204" lon="12.176951"><ele>307.5</ele><time>2026-03-28T11:07:32.166Z</time></trkpt><trkpt lat="43.3725459" lon="12.1771329"><ele>308.0</ele><time>2026-03-28T11:07:33.163Z</time></trkpt><trkpt lat="43.3725679" lon="12.1773133"><ele>309.25</ele><time>2026-03-28T11:07:34.172Z</time></trkpt><trkpt lat="43.3725978" lon="12.1774925"><ele>310.5</ele><time>2026-03-28T11:07:35.171Z</time></trkpt><trkpt lat="43.3726242" lon="12.1776585"><ele>311.75</ele><time>2026-03-28T11:07:36.167Z</time></trkpt><trkpt lat="43.3726516" lon="12.1778071"><ele>313.0</ele><time>2026-03-28T11:07:37.161Z</time></trkpt><trkpt lat="43.3726902" lon="12.1779108"><ele>313.0</ele><time>2026-03-28T11:07:38.165Z</time></trkpt><trkpt lat="43.3727423" lon="12.177983"><ele>313.0</ele><time>2026-03-28T11:07:39.166Z</time></trkpt><trkpt lat="43.3727899" lon="12.1780437"><ele>313.0</ele><time>2026-03-28T11:07:40.167Z</time></trkpt><trkpt lat="43.3728571" lon="12.1780686"><ele>313.0</ele><time>2026-03-28T11:07:41.162Z</time></trkpt><trkpt lat="43.3729362" lon="12.1780788"><ele>313.0</ele><time>2026-03-28T11:07:42.164Z</time></trkpt><trkpt lat="43.3730037" lon="12.1781364"><ele>313.0</ele><time>2026-03-28T11:07:43.161Z</time></trkpt><trkpt lat="43.3730558" lon="12.1781889"><ele>313.0</ele><time>2026-03-28T11:07:44.167Z</time></trkpt><trkpt lat="43.373048" lon="12.1783036"><ele>309.2</ele><time>2026-03-28T11:07:45.155Z</time></trkpt><trkpt lat="43.3730398" lon="12.1784354"><ele>305.4</ele><time>2026-03-28T11:07:46.17Z</time></trkpt><trkpt lat="43.3730252" lon="12.1785818"><ele>301.59999999999997</ele><time>2026-03-28T11:07:47.159Z</time></trkpt><trkpt lat="43.3730284" lon="12.1787318"><ele>297.8</ele><time>2026-03-28T11:07:48.163Z</time></trkpt><trkpt lat="43.3730525" lon="12.1788889"><ele>294.0</ele><time>2026-03-28T11:07:49.164Z</time></trkpt><trkpt lat="43.373094" lon="12.1790386"><ele>293.5</ele><time>2026-03-28T11:07:50.163Z</time></trkpt><trkpt lat="43.3731621" lon="12.1791744"><ele>293.0</ele><time>2026-03-28T11:07:51.163Z</time></trkpt><trkpt lat="43.3732608" lon="12.1793057"><ele>292.5</ele><time>2026-03-28T11:07:52.166Z</time></trkpt><trkpt lat="43.3733483" lon="12.1794406"><ele>292.0</ele><time>2026-03-28T11:07:53.159Z</time></trkpt><trkpt lat="43.3734291" lon="12.1795644"><ele>292.0</ele><time>2026-03-28T11:07:54.168Z</time></trkpt><trkpt lat="43.373492" lon="12.1796965"><ele>292.0</ele><time>2026-03-28T11:07:55.162Z</time></trkpt><trkpt lat="43.3735347" lon="12.1798268"><ele>292.0</ele><time>2026-03-28T11:07:56.163Z</time></trkpt><trkpt lat="43.3735537" lon="12.1799682"><ele>292.0</ele><time>2026-03-28T11:07:57.164Z</time></trkpt><trkpt lat="43.3735711" lon="12.1801009"><ele>292.0</ele><time>2026-03-28T11:07:58.166Z</time></trkpt><trkpt lat="43.3735276" lon="12.1802316"><ele>292.5</ele><time>2026-03-28T11:07:59.168Z</time></trkpt><trkpt lat="43.3734798" lon="12.1803648"><ele>293.0</ele><time>2026-03-28T11:08:00.154Z</time></trkpt><trkpt lat="43.373391" lon="12.1804889"><ele>293.5</ele><time>2026-03-28T11:08:01.169Z</time></trkpt><trkpt lat="43.3732929" lon="12.180606"><ele>294.0</ele><time>2026-03-28T11:08:02.167Z</time></trkpt><trkpt lat="43.373198" lon="12.1807136"><ele>292.0</ele><time>2026-03-28T11:08:03.164Z</time></trkpt><trkpt lat="43.3731048" lon="12.1808188"><ele>290.0</ele><time>2026-03-28T11:08:04.174Z</time></trkpt><trkpt lat="43.3730226" lon="12.1809088"><ele>288.0</ele><time>2026-03-28T11:08:05.164Z</time></trkpt><trkpt lat="43.3729563" lon="12.1809863"><ele>286.0</ele><time>2026-03-28T11:08:06.172Z</time></trkpt><trkpt lat="43.3729006" lon="12.1810382"><ele>284.0</ele><time>2026-03-28T11:08:07.161Z</time></trkpt><trkpt lat="43.372817" lon="12.1810943"><ele>284.0</ele><time>2026-03-28T11:08:09.168Z</time></trkpt><trkpt lat="43.3727345" lon="12.1810695"><ele>284.0</ele><time>2026-03-28T11:08:11.169Z</time></trkpt><trkpt lat="43.3726521" lon="12.1810512"><ele>284.0</ele><time>2026-03-28T11:08:18.163Z</time></trkpt><trkpt lat="43.3725663" lon="12.1810303"><ele>284.0</ele><time>2026-03-28T11:08:20.163Z</time></trkpt><trkpt lat="43.3724944" lon="12.1810216"><ele>284.0</ele><time>2026-03-28T11:08:21.168Z</time></trkpt><trkpt lat="43.3724169" lon="12.1810255"><ele>284.0</ele><time>2026-03-28T11:08:22.163Z</time></trkpt><trkpt lat="43.3723207" lon="12.1810456"><ele>284.0</ele><time>2026-03-28T11:08:23.162Z</time></trkpt><trkpt lat="43.3722104" lon="12.1810798"><ele>284.0</ele><time>2026-03-28T11:08:24.161Z</time></trkpt><trkpt lat="43.3721032" lon="12.1811198"><ele>284.0</ele><time>2026-03-28T11:08:25.166Z</time></trkpt><trkpt lat="43.3719945" lon="12.1811615"><ele>284.0</ele><time>2026-03-28T11:08:26.171Z</time></trkpt><trkpt lat="43.3718803" lon="12.1812082"><ele>284.75</ele><time>2026-03-28T11:08:27.163Z</time></trkpt><trkpt lat="43.3717621" lon="12.1812686"><ele>285.5</ele><time>2026-03-28T11:08:28.169Z</time></trkpt><trkpt lat="43.371644" lon="12.1813437"><ele>286.25</ele><time>2026-03-28T11:08:29.171Z</time></trkpt><trkpt lat="43.3715335" lon="12.1814329"><ele>287.0</ele><time>2026-03-28T11:08:30.166Z</time></trkpt><trkpt lat="43.3714372" lon="12.1815364"><ele>286.8</ele><time>2026-03-28T11:08:31.169Z</time></trkpt><trkpt lat="43.3713596" lon="12.1816419"><ele>286.6</ele><time>2026-03-28T11:08:32.167Z</time></trkpt><trkpt lat="43.3712824" lon="12.1817387"><ele>286.40000000000003</ele><time>2026-03-28T11:08:33.169Z</time></trkpt><trkpt lat="43.371208" lon="12.1818385"><ele>286.2</ele><time>2026-03-28T11:08:34.163Z</time></trkpt><trkpt lat="43.3711187" lon="12.181909"><ele>286.0</ele><time>2026-03-28T11:08:35.176Z</time></trkpt><trkpt lat="43.3710019" lon="12.1819393"><ele>286.0</ele><time>2026-03-28T11:08:36.167Z</time></trkpt><trkpt lat="43.3708833" lon="12.1819428"><ele>286.0</ele><time>2026-03-28T11:08:37.163Z</time></trkpt><trkpt lat="43.3707555" lon="12.1819378"><ele>286.0</ele><time>2026-03-28T11:08:38.169Z</time></trkpt><trkpt lat="43.3706226" lon="12.18194"><ele>286.0</ele><time>2026-03-28T11:08:39.184Z</time></trkpt><trkpt lat="43.3704916" lon="12.181944"><ele>286.25</ele><time>2026-03-28T11:08:40.169Z</time></trkpt><trkpt lat="43.3703584" lon="12.1819467"><ele>286.5</ele><time>2026-03-28T11:08:41.171Z</time></trkpt><trkpt lat="43.3702222" lon="12.1819435"><ele>286.75</ele><time>2026-03-28T11:08:42.168Z</time></trkpt><trkpt lat="43.3700858" lon="12.1819402"><ele>287.0</ele><time>2026-03-28T11:08:43.17Z</time></trkpt><trkpt lat="43.3699489" lon="12.1819376"><ele>287.0</ele><time>2026-03-28T11:08:44.166Z</time></trkpt><trkpt lat="43.3698131" lon="12.1819394"><ele>287.0</ele><time>2026-03-28T11:08:45.162Z</time></trkpt><trkpt lat="43.3696875" lon="12.1819413"><ele>287.0</ele><time>2026-03-28T11:08:46.167Z</time></trkpt><trkpt lat="43.3695803" lon="12.181944"><ele>287.0</ele><time>2026-03-28T11:08:47.178Z</time></trkpt><trkpt lat="43.3694894" lon="12.1819409"><ele>288.0</ele><time>2026-03-28T11:08:48.17Z</time></trkpt><trkpt lat="43.3694134" lon="12.1819376"><ele>289.0</ele><time>2026-03-28T11:08:49.176Z</time></trkpt><trkpt lat="43.3692972" lon="12.1819218"><ele>290.0</ele><time>2026-03-28T11:08:51.166Z</time></trkpt><trkpt lat="43.3692173" lon="12.1818391"><ele>291.0</ele><time>2026-03-28T11:08:53.17Z</time></trkpt><trkpt lat="43.3691529" lon="12.1817808"><ele>292.0</ele><time>2026-03-28T11:08:55.17Z</time></trkpt><trkpt lat="43.3690528" lon="12.1818295"><ele>292.0</ele><time>2026-03-28T11:08:57.167Z</time></trkpt><trkpt lat="43.3689962" lon="12.1818781"><ele>292.0</ele><time>2026-03-28T11:08:58.169Z</time></trkpt><trkpt lat="43.3689383" lon="12.1819277"><ele>292.0</ele><time>2026-03-28T11:08:59.174Z</time></trkpt><trkpt lat="43.3688415" lon="12.1820028"><ele>292.0</ele><time>2026-03-28T11:09:01.175Z</time></trkpt><trkpt lat="43.3687461" lon="12.1820705"><ele>292.0</ele><time>2026-03-28T11:09:03.176Z</time></trkpt><trkpt lat="43.3686328" lon="12.1821523"><ele>290.4</ele><time>2026-03-28T11:09:05.169Z</time></trkpt><trkpt lat="43.368557" lon="12.1822077"><ele>288.79999999999995</ele><time>2026-03-28T11:09:06.18Z</time></trkpt><trkpt lat="43.3684813" lon="12.1822647"><ele>287.2</ele><time>2026-03-28T11:09:07.184Z</time></trkpt><trkpt lat="43.3684045" lon="12.1823233"><ele>285.59999999999997</ele><time>2026-03-28T11:09:08.168Z</time></trkpt><trkpt lat="43.3683206" lon="12.1823984"><ele>284.0</ele><time>2026-03-28T11:09:09.188Z</time></trkpt><trkpt lat="43.3682267" lon="12.1824775"><ele>283.0</ele><time>2026-03-28T11:09:10.16Z</time></trkpt><trkpt lat="43.3681287" lon="12.1825497"><ele>282.0</ele><time>2026-03-28T11:09:11.177Z</time></trkpt><trkpt lat="43.3680316" lon="12.1826226"><ele>281.0</ele><time>2026-03-28T11:09:12.169Z</time></trkpt><trkpt lat="43.3679262" lon="12.1826978"><ele>280.0</ele><time>2026-03-28T11:09:13.173Z</time></trkpt><trkpt lat="43.3678174" lon="12.1827737"><ele>278.5</ele><time>2026-03-28T11:09:14.181Z</time></trkpt><trkpt lat="43.3677129" lon="12.1828486"><ele>277.0</ele><time>2026-03-28T11:09:15.182Z</time></trkpt><trkpt lat="43.3676068" lon="12.18292"><ele>275.5</ele><time>2026-03-28T11:09:16.175Z</time></trkpt><trkpt lat="43.3675075" lon="12.1829892"><ele>274.0</ele><time>2026-03-28T11:09:17.188Z</time></trkpt><trkpt lat="43.3674156" lon="12.183051"><ele>274.0</ele><time>2026-03-28T11:09:18.17Z</time></trkpt><trkpt lat="43.3673253" lon="12.1831087"><ele>274.0</ele><time>2026-03-28T11:09:19.169Z</time></trkpt><trkpt lat="43.3672427" lon="12.183166"><ele>274.0</ele><time>2026-03-28T11:09:20.171Z</time></trkpt><trkpt lat="43.3671654" lon="12.1832166"><ele>274.0</ele><time>2026-03-28T11:09:21.162Z</time></trkpt><trkpt lat="43.3670882" lon="12.1832731"><ele>274.0</ele><time>2026-03-28T11:09:22.157Z</time></trkpt><trkpt lat="43.3670143" lon="12.1833325"><ele>273.8</ele><time>2026-03-28T11:09:23.169Z</time></trkpt><trkpt lat="43.3669451" lon="12.1833914"><ele>273.59999999999997</ele><time>2026-03-28T11:09:24.164Z</time></trkpt><trkpt lat="43.3668762" lon="12.1834547"><ele>273.4</ele><time>2026-03-28T11:09:25.166Z</time></trkpt><trkpt lat="43.3667982" lon="12.183528"><ele>273.2</ele><time>2026-03-28T11:09:26.167Z</time></trkpt><trkpt lat="43.3667139" lon="12.1836108"><ele>273.0</ele><time>2026-03-28T11:09:27.151Z</time></trkpt><trkpt lat="43.3666252" lon="12.1837011"><ele>273.0</ele><time>2026-03-28T11:09:28.175Z</time></trkpt><trkpt lat="43.3665412" lon="12.1837892"><ele>273.0</ele><time>2026-03-28T11:09:29.163Z</time></trkpt><trkpt lat="43.3664649" lon="12.1838694"><ele>273.0</ele><time>2026-03-28T11:09:30.165Z</time></trkpt><trkpt lat="43.3663912" lon="12.1839489"><ele>273.0</ele><time>2026-03-28T11:09:31.165Z</time></trkpt><trkpt lat="43.3663149" lon="12.1840295"><ele>273.0</ele><time>2026-03-28T11:09:32.175Z</time></trkpt><trkpt lat="43.3662393" lon="12.1841018"><ele>273.5</ele><time>2026-03-28T11:09:33.171Z</time></trkpt><trkpt lat="43.3661705" lon="12.184157"><ele>274.0</ele><time>2026-03-28T11:09:34.168Z</time></trkpt><trkpt lat="43.3661016" lon="12.1842002"><ele>274.5</ele><time>2026-03-28T11:09:35.161Z</time></trkpt><trkpt lat="43.3660268" lon="12.1842304"><ele>275.0</ele><time>2026-03-28T11:09:36.168Z</time></trkpt><trkpt lat="43.3659437" lon="12.1842385"><ele>275.5</ele><time>2026-03-28T11:09:37.163Z</time></trkpt><trkpt lat="43.3658454" lon="12.1842171"><ele>276.0</ele><time>2026-03-28T11:09:38.177Z</time></trkpt><trkpt lat="43.3657364" lon="12.1841728"><ele>276.0</ele><time>2026-03-28T11:09:39.167Z</time></trkpt><trkpt lat="43.365623" lon="12.1841291"><ele>276.0</ele><time>2026-03-28T11:09:40.159Z</time></trkpt><trkpt lat="43.3655045" lon="12.1840841"><ele>276.0</ele><time>2026-03-28T11:09:41.155Z</time></trkpt><trkpt lat="43.3653919" lon="12.1840385"><ele>276.0</ele><time>2026-03-28T11:09:42.167Z</time></trkpt><trkpt lat="43.3652792" lon="12.1839952"><ele>277.3333333333333</ele><time>2026-03-28T11:09:43.167Z</time></trkpt><trkpt lat="43.3651809" lon="12.1839566"><ele>278.6666666666667</ele><time>2026-03-28T11:09:44.172Z</time></trkpt><trkpt lat="43.3650914" lon="12.1839257"><ele>280.0</ele><time>2026-03-28T11:09:45.169Z</time></trkpt><trkpt lat="43.3650125" lon="12.1839143"><ele>281.33333333333337</ele><time>2026-03-28T11:09:46.165Z</time></trkpt><trkpt lat="43.3649413" lon="12.1839322"><ele>282.6666666666667</ele><time>2026-03-28T11:09:47.169Z</time></trkpt><trkpt lat="43.3648817" lon="12.1839818"><ele>284.0</ele><time>2026-03-28T11:09:48.172Z</time></trkpt><trkpt lat="43.364841" lon="12.1840603"><ele>284.0</ele><time>2026-03-28T11:09:49.159Z</time></trkpt><trkpt lat="43.3648212" lon="12.1841664"><ele>284.0</ele><time>2026-03-28T11:09:50.163Z</time></trkpt><trkpt lat="43.3648176" lon="12.1843046"><ele>284.0</ele><time>2026-03-28T11:09:51.167Z</time></trkpt><trkpt lat="43.3648236" lon="12.1844598"><ele>284.0</ele><time>2026-03-28T11:09:52.172Z</time></trkpt><trkpt lat="43.3648336" lon="12.184612"><ele>284.0</ele><time>2026-03-28T11:09:53.167Z</time></trkpt><trkpt lat="43.3648441" lon="12.1847509"><ele>285.1666666666667</ele><time>2026-03-28T11:09:54.163Z</time></trkpt><trkpt lat="43.3648578" lon="12.1848733"><ele>286.33333333333337</ele><time>2026-03-28T11:09:55.17Z</time></trkpt><trkpt lat="43.3648714" lon="12.1849831"><ele>287.5</ele><time>2026-03-28T11:09:56.163Z</time></trkpt><trkpt lat="43.3649051" lon="12.1850734"><ele>288.6666666666667</ele><time>2026-03-28T11:09:57.167Z</time></trkpt><trkpt lat="43.3649466" lon="12.1851531"><ele>289.8333333333333</ele><time>2026-03-28T11:09:58.167Z</time></trkpt><trkpt lat="43.3649796" lon="12.1852318"><ele>291.0</ele><time>2026-03-28T11:09:59.174Z</time></trkpt><trkpt lat="43.3650063" lon="12.1853432"><ele>291.0</ele><time>2026-03-28T11:10:01.172Z</time></trkpt><trkpt lat="43.3649572" lon="12.1854162"><ele>291.0</ele><time>2026-03-28T11:10:07.167Z</time></trkpt><trkpt lat="43.3648873" lon="12.1855551"><ele>291.0</ele><time>2026-03-28T11:10:09.17Z</time></trkpt><trkpt lat="43.364825" lon="12.1856642"><ele>291.0</ele><time>2026-03-28T11:10:10.169Z</time></trkpt><trkpt lat="43.3647381" lon="12.1857845"><ele>291.0</ele><time>2026-03-28T11:10:11.167Z</time></trkpt><trkpt lat="43.3646432" lon="12.1859099"><ele>292.0</ele><time>2026-03-28T11:10:12.167Z</time></trkpt><trkpt lat="43.3645536" lon="12.1860352"><ele>293.0</ele><time>2026-03-28T11:10:13.167Z</time></trkpt><trkpt lat="43.3644727" lon="12.1861611"><ele>294.0</ele><time>2026-03-28T11:10:14.164Z</time></trkpt><trkpt lat="43.3644061" lon="12.1862952"><ele>295.0</ele><time>2026-03-28T11:10:15.169Z</time></trkpt><trkpt lat="43.3643418" lon="12.1864235"><ele>294.6</ele><time>2026-03-28T11:10:16.169Z</time></trkpt><trkpt lat="43.3643175" lon="12.1865649"><ele>294.2</ele><time>2026-03-28T11:10:17.168Z</time></trkpt><trkpt lat="43.364318" lon="12.1867004"><ele>293.8</ele><time>2026-03-28T11:10:18.165Z</time></trkpt><trkpt lat="43.3643441" lon="12.1868291"><ele>293.4</ele><time>2026-03-28T11:10:19.17Z</time></trkpt><trkpt lat="43.3643721" lon="12.1869601"><ele>293.0</ele><time>2026-03-28T11:10:20.168Z</time></trkpt><trkpt lat="43.364421" lon="12.187069"><ele>293.0</ele><time>2026-03-28T11:10:21.176Z</time></trkpt><trkpt lat="43.3644666" lon="12.1871806"><ele>293.0</ele><time>2026-03-28T11:10:22.172Z</time></trkpt><trkpt lat="43.3645088" lon="12.1873036"><ele>293.0</ele><time>2026-03-28T11:10:23.162Z</time></trkpt><trkpt lat="43.3645549" lon="12.1874364"><ele>293.0</ele><time>2026-03-28T11:10:24.161Z</time></trkpt><trkpt lat="43.3646142" lon="12.1875826"><ele>293.0</ele><time>2026-03-28T11:10:25.166Z</time></trkpt><trkpt lat="43.3646911" lon="12.187737"><ele>288.33333333333337</ele><time>2026-03-28T11:10:26.175Z</time></trkpt><trkpt lat="43.3647903" lon="12.1878998"><ele>283.6666666666667</ele><time>2026-03-28T11:10:27.161Z</time></trkpt><trkpt lat="43.3649029" lon="12.1880572"><ele>279.0</ele><time>2026-03-28T11:10:28.166Z</time></trkpt><trkpt lat="43.3650181" lon="12.1882187"><ele>277.6666666666667</ele><time>2026-03-28T11:10:29.16Z</time></trkpt><trkpt lat="43.3651359" lon="12.1883822"><ele>276.33333333333337</ele><time>2026-03-28T11:10:30.166Z</time></trkpt><trkpt lat="43.3652557" lon="12.1885491"><ele>275.0</ele><time>2026-03-28T11:10:31.17Z</time></trkpt><trkpt lat="43.3653785" lon="12.1887188"><ele>275.0</ele><time>2026-03-28T11:10:32.17Z</time></trkpt><trkpt lat="43.3655014" lon="12.1888806"><ele>275.0</ele><time>2026-03-28T11:10:33.162Z</time></trkpt><trkpt lat="43.3656079" lon="12.189035"><ele>275.0</ele><time>2026-03-28T11:10:34.164Z</time></trkpt><trkpt lat="43.3657103" lon="12.1891757"><ele>274.0</ele><time>2026-03-28T11:10:35.171Z</time></trkpt><trkpt lat="43.3658042" lon="12.1893048"><ele>273.0</ele><time>2026-03-28T11:10:36.169Z</time></trkpt><trkpt lat="43.3658871" lon="12.1894218"><ele>272.0</ele><time>2026-03-28T11:10:37.157Z</time></trkpt><trkpt lat="43.3659559" lon="12.1895299"><ele>271.0</ele><time>2026-03-28T11:10:38.164Z</time></trkpt><trkpt lat="43.3660058" lon="12.1896307"><ele>270.0</ele><time>2026-03-28T11:10:39.163Z</time></trkpt><trkpt lat="43.3660316" lon="12.1897207"><ele>270.0</ele><time>2026-03-28T11:10:40.163Z</time></trkpt><trkpt lat="43.3660487" lon="12.1898763"><ele>270.0</ele><time>2026-03-28T11:10:42.157Z</time></trkpt><trkpt lat="43.3659874" lon="12.1900422"><ele>270.0</ele><time>2026-03-28T11:10:44.162Z</time></trkpt><trkpt lat="43.3659254" lon="12.1901348"><ele>270.0</ele><time>2026-03-28T11:10:45.168Z</time></trkpt><trkpt lat="43.3658486" lon="12.1902411"><ele>270.0</ele><time>2026-03-28T11:10:46.169Z</time></trkpt><trkpt lat="43.3657667" lon="12.1903765"><ele>270.0</ele><time>2026-03-28T11:10:47.17Z</time></trkpt><trkpt lat="43.3656871" lon="12.1905459"><ele>270.0</ele><time>2026-03-28T11:10:48.165Z</time></trkpt><trkpt lat="43.365616" lon="12.1907355"><ele>270.0</ele><time>2026-03-28T11:10:49.174Z</time></trkpt><trkpt lat="43.365559" lon="12.1909208"><ele>271.0</ele><time>2026-03-28T11:10:50.164Z</time></trkpt><trkpt lat="43.3655091" lon="12.1910924"><ele>272.0</ele><time>2026-03-28T11:10:51.165Z</time></trkpt><trkpt lat="43.36546" lon="12.1912504"><ele>273.0</ele><time>2026-03-28T11:10:52.167Z</time></trkpt><trkpt lat="43.3654059" lon="12.1913929"><ele>274.0</ele><time>2026-03-28T11:10:53.166Z</time></trkpt><trkpt lat="43.3653427" lon="12.1915092"><ele>274.0</ele><time>2026-03-28T11:10:54.16Z</time></trkpt><trkpt lat="43.3652616" lon="12.1916092"><ele>274.0</ele><time>2026-03-28T11:10:55.163Z</time></trkpt><trkpt lat="43.3651668" lon="12.1917018"><ele>274.0</ele><time>2026-03-28T11:10:56.166Z</time></trkpt><trkpt lat="43.3650503" lon="12.191773"><ele>274.0</ele><time>2026-03-28T11:10:57.165Z</time></trkpt><trkpt lat="43.3649415" lon="12.1918335"><ele>274.0</ele><time>2026-03-28T11:10:58.163Z</time></trkpt><trkpt lat="43.3648285" lon="12.1918775"><ele>274.0</ele><time>2026-03-28T11:10:59.166Z</time></trkpt><trkpt lat="43.3647089" lon="12.1919183"><ele>274.0</ele><time>2026-03-28T11:11:00.161Z</time></trkpt><trkpt lat="43.3645794" lon="12.1919222"><ele>274.0</ele><time>2026-03-28T11:11:01.163Z</time></trkpt><trkpt lat="43.3644553" lon="12.1919284"><ele>276.0</ele><time>2026-03-28T11:11:02.164Z</time></trkpt><trkpt lat="43.3643266" lon="12.1919292"><ele>278.0</ele><time>2026-03-28T11:11:03.163Z</time></trkpt><trkpt lat="43.3642172" lon="12.1919292"><ele>280.0</ele><time>2026-03-28T11:11:04.176Z</time></trkpt><trkpt lat="43.3641264" lon="12.191931"><ele>282.0</ele><time>2026-03-28T11:11:05.165Z</time></trkpt><trkpt lat="43.364056" lon="12.1919489"><ele>284.0</ele><time>2026-03-28T11:11:06.163Z</time></trkpt><trkpt lat="43.3639567" lon="12.1919865"><ele>284.0</ele><time>2026-03-28T11:11:08.175Z</time></trkpt><trkpt lat="43.3638735" lon="12.191949"><ele>284.0</ele><time>2026-03-28T11:11:10.156Z</time></trkpt><trkpt lat="43.3637892" lon="12.1918593"><ele>284.0</ele><time>2026-03-28T11:11:12.164Z</time></trkpt><trkpt lat="43.3637786" lon="12.1917199"><ele>284.0</ele><time>2026-03-28T11:11:14.166Z</time></trkpt><trkpt lat="43.3638364" lon="12.1915673"><ele>284.0</ele><time>2026-03-28T11:11:16.165Z</time></trkpt><trkpt lat="43.3638718" lon="12.1914946"><ele>286.0</ele><time>2026-03-28T11:11:17.165Z</time></trkpt><trkpt lat="43.3639118" lon="12.1914252"><ele>288.0</ele><time>2026-03-28T11:11:18.163Z</time></trkpt><trkpt lat="43.3639599" lon="12.1913617"><ele>290.0</ele><time>2026-03-28T11:11:19.164Z</time></trkpt><trkpt lat="43.3640138" lon="12.1913077"><ele>292.0</ele><time>2026-03-28T11:11:20.167Z</time></trkpt><trkpt lat="43.3641129" lon="12.1912247"><ele>294.0</ele><time>2026-03-28T11:11:22.163Z</time></trkpt><trkpt lat="43.3641677" lon="12.1911722"><ele>296.0</ele><time>2026-03-28T11:11:24.165Z</time></trkpt><trkpt lat="43.3641068" lon="12.1911182"><ele>296.0</ele><time>2026-03-28T11:11:28.152Z</time></trkpt><trkpt lat="43.3639741" lon="12.1911555"><ele>296.0</ele><time>2026-03-28T11:11:30.161Z</time></trkpt><trkpt lat="43.3638892" lon="12.1911782"><ele>296.0</ele><time>2026-03-28T11:11:31.169Z</time></trkpt><trkpt lat="43.3637964" lon="12.1912094"><ele>296.0</ele><time>2026-03-28T11:11:32.158Z</time></trkpt><trkpt lat="43.3637043" lon="12.1912477"><ele>296.0</ele><time>2026-03-28T11:11:33.168Z</time></trkpt><trkpt lat="43.3636212" lon="12.1912673"><ele>298.83333333333337</ele><time>2026-03-28T11:11:34.16Z</time></trkpt><trkpt lat="43.3635285" lon="12.1912757"><ele>301.6666666666667</ele><time>2026-03-28T11:11:35.163Z</time></trkpt><trkpt lat="43.3634319" lon="12.1912866"><ele>304.5</ele><time>2026-03-28T11:11:36.165Z</time></trkpt><trkpt lat="43.3633529" lon="12.1912642"><ele>307.3333333333333</ele><time>2026-03-28T11:11:37.168Z</time></trkpt><trkpt lat="43.3632649" lon="12.191247"><ele>310.16666666666663</ele><time>2026-03-28T11:11:38.166Z</time></trkpt><trkpt lat="43.3631807" lon="12.1912292"><ele>313.0</ele><time>2026-03-28T11:11:39.178Z</time></trkpt><trkpt lat="43.3630971" lon="12.1912081"><ele>314.3333333333333</ele><time>2026-03-28T11:11:40.178Z</time></trkpt><trkpt lat="43.3630204" lon="12.1911497"><ele>315.66666666666663</ele><time>2026-03-28T11:11:41.175Z</time></trkpt><trkpt lat="43.3629516" lon="12.1910775"><ele>317.0</ele><time>2026-03-28T11:11:42.169Z</time></trkpt><trkpt lat="43.3628816" lon="12.1909936"><ele>318.3333333333333</ele><time>2026-03-28T11:11:43.151Z</time></trkpt><trkpt lat="43.362821" lon="12.1909492"><ele>319.6666666666667</ele><time>2026-03-28T11:11:44.168Z</time></trkpt><trkpt lat="43.3627534" lon="12.1909089"><ele>321.0</ele><time>2026-03-28T11:11:45.164Z</time></trkpt><trkpt lat="43.3626863" lon="12.1908677"><ele>321.0</ele><time>2026-03-28T11:11:46.165Z</time></trkpt><trkpt lat="43.3625753" lon="12.1909363"><ele>321.0</ele><time>2026-03-28T11:11:48.163Z</time></trkpt><trkpt lat="43.362511" lon="12.1909986"><ele>321.0</ele><time>2026-03-28T11:11:49.163Z</time></trkpt><trkpt lat="43.3624412" lon="12.1910508"><ele>321.0</ele><time>2026-03-28T11:11:50.162Z</time></trkpt><trkpt lat="43.3623784" lon="12.1911014"><ele>321.0</ele><time>2026-03-28T11:11:51.165Z</time></trkpt><trkpt lat="43.3623186" lon="12.1911324"><ele>321.0</ele><time>2026-03-28T11:11:52.166Z</time></trkpt><trkpt lat="43.362221" lon="12.1911735"><ele>320.6666666666667</ele><time>2026-03-28T11:11:54.165Z</time></trkpt><trkpt lat="43.3621494" lon="12.1912087"><ele>320.3333333333333</ele><time>2026-03-28T11:11:56.173Z</time></trkpt><trkpt lat="43.3621245" lon="12.1913514"><ele>320.0</ele><time>2026-03-28T11:12:02.166Z</time></trkpt><trkpt lat="43.362109" lon="12.1914775"><ele>319.66666666666663</ele><time>2026-03-28T11:12:04.169Z</time></trkpt><trkpt lat="43.3621193" lon="12.1915822"><ele>319.3333333333333</ele><time>2026-03-28T11:12:07.179Z</time></trkpt><trkpt lat="43.3621001" lon="12.1916765"><ele>319.0</ele><time>2026-03-28T11:12:09.166Z</time></trkpt><trkpt lat="43.3620821" lon="12.1918412"><ele>316.8333333333333</ele><time>2026-03-28T11:12:11.178Z</time></trkpt><trkpt lat="43.3620911" lon="12.1920029"><ele>314.66666666666663</ele><time>2026-03-28T11:12:14.173Z</time></trkpt><trkpt lat="43.3621014" lon="12.1921057"><ele>312.5</ele><time>2026-03-28T11:12:15.171Z</time></trkpt><trkpt lat="43.3621123" lon="12.1922064"><ele>310.3333333333333</ele><time>2026-03-28T11:12:16.175Z</time></trkpt><trkpt lat="43.3621266" lon="12.1923054"><ele>308.1666666666667</ele><time>2026-03-28T11:12:17.177Z</time></trkpt><trkpt lat="43.3621362" lon="12.1924207"><ele>306.0</ele><time>2026-03-28T11:12:18.173Z</time></trkpt><trkpt lat="43.3621551" lon="12.1925088"><ele>305.1666666666667</ele><time>2026-03-28T11:12:19.172Z</time></trkpt><trkpt lat="43.3621927" lon="12.1926731"><ele>304.3333333333333</ele><time>2026-03-28T11:12:21.165Z</time></trkpt><trkpt lat="43.362205" lon="12.1927812"><ele>303.5</ele><time>2026-03-28T11:12:22.162Z</time></trkpt><trkpt lat="43.362234" lon="12.1928743"><ele>302.66666666666663</ele><time>2026-03-28T11:12:23.174Z</time></trkpt><trkpt lat="43.3622471" lon="12.1929667"><ele>301.8333333333333</ele><time>2026-03-28T11:12:24.168Z</time></trkpt><trkpt lat="43.3622543" lon="12.1930647"><ele>301.0</ele><time>2026-03-28T11:12:25.166Z</time></trkpt><trkpt lat="43.3622639" lon="12.1932275"><ele>300.6</ele><time>2026-03-28T11:12:27.163Z</time></trkpt><trkpt lat="43.3622495" lon="12.1933363"><ele>300.20000000000005</ele><time>2026-03-28T11:12:29.178Z</time></trkpt><trkpt lat="43.3621624" lon="12.1934114"><ele>299.79999999999995</ele><time>2026-03-28T11:12:34.169Z</time></trkpt><trkpt lat="43.3620748" lon="12.1933282"><ele>299.4</ele><time>2026-03-28T11:12:36.161Z</time></trkpt><trkpt lat="43.3619829" lon="12.1932286"><ele>299.0</ele><time>2026-03-28T11:12:38.17Z</time></trkpt><trkpt lat="43.3619247" lon="12.1931662"><ele>299.0</ele><time>2026-03-28T11:12:39.168Z</time></trkpt><trkpt lat="43.361854" lon="12.1930809"><ele>299.0</ele><time>2026-03-28T11:12:40.168Z</time></trkpt><trkpt lat="43.3617722" lon="12.192981"><ele>299.0</ele><time>2026-03-28T11:12:41.164Z</time></trkpt><trkpt lat="43.3616876" lon="12.1928813"><ele>299.0</ele><time>2026-03-28T11:12:42.169Z</time></trkpt><trkpt lat="43.3615957" lon="12.1927747"><ele>299.0</ele><time>2026-03-28T11:12:43.176Z</time></trkpt><trkpt lat="43.3614935" lon="12.1926765"><ele>299.0</ele><time>2026-03-28T11:12:44.172Z</time></trkpt><trkpt lat="43.361377" lon="12.192597"><ele>299.0</ele><time>2026-03-28T11:12:45.171Z</time></trkpt><trkpt lat="43.3612525" lon="12.1925366"><ele>299.0</ele><time>2026-03-28T11:12:46.172Z</time></trkpt><trkpt lat="43.3611281" lon="12.1924848"><ele>299.0</ele><time>2026-03-28T11:12:47.171Z</time></trkpt><trkpt lat="43.3610058" lon="12.1924331"><ele>298.25</ele><time>2026-03-28T11:12:48.176Z</time></trkpt><trkpt lat="43.3608833" lon="12.1923793"><ele>297.5</ele><time>2026-03-28T11:12:49.177Z</time></trkpt><trkpt lat="43.3607652" lon="12.1923291"><ele>296.75</ele><time>2026-03-28T11:12:50.168Z</time></trkpt><trkpt lat="43.3606499" lon="12.1922858"><ele>296.0</ele><time>2026-03-28T11:12:51.188Z</time></trkpt><trkpt lat="43.3605324" lon="12.1922551"><ele>295.25</ele><time>2026-03-28T11:12:52.167Z</time></trkpt><trkpt lat="43.3604089" lon="12.1922469"><ele>294.5</ele><time>2026-03-28T11:12:53.171Z</time></trkpt><trkpt lat="43.3602887" lon="12.1922645"><ele>293.75</ele><time>2026-03-28T11:12:54.167Z</time></trkpt><trkpt lat="43.3601752" lon="12.1922828"><ele>293.0</ele><time>2026-03-28T11:12:55.167Z</time></trkpt><trkpt lat="43.3600761" lon="12.1923243"><ele>290.83333333333337</ele><time>2026-03-28T11:12:56.171Z</time></trkpt><trkpt lat="43.359986" lon="12.1923594"><ele>288.6666666666667</ele><time>2026-03-28T11:12:57.169Z</time></trkpt><trkpt lat="43.3599068" lon="12.1923909"><ele>286.5</ele><time>2026-03-28T11:12:58.169Z</time></trkpt><trkpt lat="43.3598445" lon="12.1924271"><ele>284.3333333333333</ele><time>2026-03-28T11:12:59.165Z</time></trkpt><trkpt lat="43.3597688" lon="12.1925457"><ele>282.16666666666663</ele><time>2026-03-28T11:13:01.168Z</time></trkpt><trkpt lat="43.3597462" lon="12.192651"><ele>280.0</ele><time>2026-03-28T11:13:02.169Z</time></trkpt><trkpt lat="43.3597625" lon="12.1928018"><ele>280.0</ele><time>2026-03-28T11:13:03.168Z</time></trkpt><trkpt lat="43.3597683" lon="12.1929714"><ele>280.0</ele><time>2026-03-28T11:13:04.164Z</time></trkpt><trkpt lat="43.359747" lon="12.1931425"><ele>280.0</ele><time>2026-03-28T11:13:05.161Z</time></trkpt><trkpt lat="43.3597246" lon="12.1933134"><ele>280.0</ele><time>2026-03-28T11:13:06.17Z</time></trkpt><trkpt lat="43.35964" lon="12.1934509"><ele>278.5</ele><time>2026-03-28T11:13:07.163Z</time></trkpt><trkpt lat="43.3595347" lon="12.1935663"><ele>277.0</ele><time>2026-03-28T11:13:08.162Z</time></trkpt><trkpt lat="43.3594156" lon="12.1936746"><ele>275.5</ele><time>2026-03-28T11:13:09.166Z</time></trkpt><trkpt lat="43.3592871" lon="12.1937701"><ele>274.0</ele><time>2026-03-28T11:13:10.168Z</time></trkpt><trkpt lat="43.3591535" lon="12.1938577"><ele>274.0</ele><time>2026-03-28T11:13:11.16Z</time></trkpt><trkpt lat="43.3590251" lon="12.1939387"><ele>274.0</ele><time>2026-03-28T11:13:12.175Z</time></trkpt><trkpt lat="43.3589068" lon="12.1940182"><ele>274.0</ele><time>2026-03-28T11:13:13.168Z</time></trkpt><trkpt lat="43.3588161" lon="12.1941237"><ele>274.0</ele><time>2026-03-28T11:13:14.17Z</time></trkpt><trkpt lat="43.3587318" lon="12.194227"><ele>273.0</ele><time>2026-03-28T11:13:15.168Z</time></trkpt><trkpt lat="43.3586987" lon="12.1943871"><ele>272.0</ele><time>2026-03-28T11:13:16.168Z</time></trkpt><trkpt lat="43.358684" lon="12.1945617"><ele>271.0</ele><time>2026-03-28T11:13:17.168Z</time></trkpt><trkpt lat="43.3586803" lon="12.1947489"><ele>270.0</ele><time>2026-03-28T11:13:18.173Z</time></trkpt><trkpt lat="43.358678" lon="12.1949441"><ele>270.0</ele><time>2026-03-28T11:13:19.17Z</time></trkpt><trkpt lat="43.3586759" lon="12.1951438"><ele>270.0</ele><time>2026-03-28T11:13:20.172Z</time></trkpt><trkpt lat="43.3586666" lon="12.1953472"><ele>270.0</ele><time>2026-03-28T11:13:21.164Z</time></trkpt><trkpt lat="43.3586602" lon="12.1955547"><ele>270.0</ele><time>2026-03-28T11:13:22.161Z</time></trkpt><trkpt lat="43.3586512" lon="12.1957663"><ele>270.0</ele><time>2026-03-28T11:13:23.168Z</time></trkpt><trkpt lat="43.3586375" lon="12.1959708"><ele>270.0</ele><time>2026-03-28T11:13:24.165Z</time></trkpt><trkpt lat="43.3586185" lon="12.1961753"><ele>270.0</ele><time>2026-03-28T11:13:25.17Z</time></trkpt><trkpt lat="43.3585875" lon="12.1963753"><ele>270.0</ele><time>2026-03-28T11:13:26.168Z</time></trkpt><trkpt lat="43.3585465" lon="12.1965686"><ele>270.75</ele><time>2026-03-28T11:13:27.18Z</time></trkpt><trkpt lat="43.3585057" lon="12.1967592"><ele>271.5</ele><time>2026-03-28T11:13:28.166Z</time></trkpt><trkpt lat="43.3584776" lon="12.1969522"><ele>272.25</ele><time>2026-03-28T11:13:29.169Z</time></trkpt><trkpt lat="43.3584497" lon="12.1971442"><ele>273.0</ele><time>2026-03-28T11:13:30.174Z</time></trkpt><trkpt lat="43.3584175" lon="12.1973431"><ele>273.3333333333333</ele><time>2026-03-28T11:13:31.169Z</time></trkpt><trkpt lat="43.3583768" lon="12.1975449"><ele>273.66666666666663</ele><time>2026-03-28T11:13:32.163Z</time></trkpt><trkpt lat="43.3583298" lon="12.197748"><ele>274.0</ele><time>2026-03-28T11:13:33.183Z</time></trkpt><trkpt lat="43.3582794" lon="12.197954"><ele>274.0</ele><time>2026-03-28T11:13:34.169Z</time></trkpt><trkpt lat="43.3582284" lon="12.1981632"><ele>274.0</ele><time>2026-03-28T11:13:35.166Z</time></trkpt><trkpt lat="43.3581771" lon="12.1983746"><ele>274.0</ele><time>2026-03-28T11:13:36.173Z</time></trkpt><trkpt lat="43.3581254" lon="12.1985873"><ele>273.3333333333333</ele><time>2026-03-28T11:13:37.169Z</time></trkpt><trkpt lat="43.3580726" lon="12.1987996"><ele>272.6666666666667</ele><time>2026-03-28T11:13:38.174Z</time></trkpt><trkpt lat="43.3580191" lon="12.1990105"><ele>272.0</ele><time>2026-03-28T11:13:39.165Z</time></trkpt><trkpt lat="43.3579654" lon="12.199222"><ele>270.33333333333337</ele><time>2026-03-28T11:13:40.171Z</time></trkpt><trkpt lat="43.3579122" lon="12.1994333"><ele>268.6666666666667</ele><time>2026-03-28T11:13:41.165Z</time></trkpt><trkpt lat="43.3578623" lon="12.1996434"><ele>267.0</ele><time>2026-03-28T11:13:42.164Z</time></trkpt><trkpt lat="43.3578254" lon="12.1998447"><ele>267.0</ele><time>2026-03-28T11:13:43.169Z</time></trkpt><trkpt lat="43.357807" lon="12.2000434"><ele>267.0</ele><time>2026-03-28T11:13:44.171Z</time></trkpt><trkpt lat="43.357802" lon="12.2002361"><ele>267.0</ele><time>2026-03-28T11:13:45.166Z</time></trkpt><trkpt lat="43.3577966" lon="12.2004152"><ele>267.0</ele><time>2026-03-28T11:13:46.158Z</time></trkpt><trkpt lat="43.3577787" lon="12.2005761"><ele>266.75</ele><time>2026-03-28T11:13:47.168Z</time></trkpt><trkpt lat="43.3577565" lon="12.2007257"><ele>266.5</ele><time>2026-03-28T11:13:48.168Z</time></trkpt><trkpt lat="43.3576852" lon="12.200857"><ele>266.25</ele><time>2026-03-28T11:13:49.167Z</time></trkpt><trkpt lat="43.3575806" lon="12.2009564"><ele>266.0</ele><time>2026-03-28T11:13:50.17Z</time></trkpt><trkpt lat="43.3574585" lon="12.2010175"><ele>266.0</ele><time>2026-03-28T11:13:51.16Z</time></trkpt><trkpt lat="43.3573289" lon="12.2010651"><ele>266.0</ele><time>2026-03-28T11:13:52.171Z</time></trkpt><trkpt lat="43.3571939" lon="12.2011092"><ele>266.0</ele><time>2026-03-28T11:13:53.165Z</time></trkpt><trkpt lat="43.3570528" lon="12.2011579"><ele>266.0</ele><time>2026-03-28T11:13:54.187Z</time></trkpt><trkpt lat="43.3569103" lon="12.2012057"><ele>266.0</ele><time>2026-03-28T11:13:55.17Z</time></trkpt><trkpt lat="43.356776" lon="12.2012605"><ele>266.0</ele><time>2026-03-28T11:13:56.168Z</time></trkpt><trkpt lat="43.3566464" lon="12.2013406"><ele>266.0</ele><time>2026-03-28T11:13:57.168Z</time></trkpt><trkpt lat="43.3565215" lon="12.2014439"><ele>266.0</ele><time>2026-03-28T11:13:58.17Z</time></trkpt><trkpt lat="43.3564027" lon="12.201558"><ele>266.5</ele><time>2026-03-28T11:13:59.178Z</time></trkpt><trkpt lat="43.3562862" lon="12.2016754"><ele>267.0</ele><time>2026-03-28T11:14:00.163Z</time></trkpt><trkpt lat="43.3561662" lon="12.2017794"><ele>267.5</ele><time>2026-03-28T11:14:01.171Z</time></trkpt><trkpt lat="43.3560374" lon="12.2018605"><ele>268.0</ele><time>2026-03-28T11:14:02.168Z</time></trkpt><trkpt lat="43.355902" lon="12.2019116"><ele>268.0</ele><time>2026-03-28T11:14:03.166Z</time></trkpt><trkpt lat="43.3557649" lon="12.2019382"><ele>268.0</ele><time>2026-03-28T11:14:04.174Z</time></trkpt><trkpt lat="43.3556247" lon="12.2019529"><ele>268.0</ele><time>2026-03-28T11:14:05.163Z</time></trkpt><trkpt lat="43.3554833" lon="12.2019646"><ele>268.0</ele><time>2026-03-28T11:14:06.171Z</time></trkpt><trkpt lat="43.3553405" lon="12.2019749"><ele>268.25</ele><time>2026-03-28T11:14:07.165Z</time></trkpt><trkpt lat="43.3551954" lon="12.2019818"><ele>268.5</ele><time>2026-03-28T11:14:08.173Z</time></trkpt><trkpt lat="43.3550482" lon="12.2019803"><ele>268.75</ele><time>2026-03-28T11:14:09.169Z</time></trkpt><trkpt lat="43.354898" lon="12.2019739"><ele>269.0</ele><time>2026-03-28T11:14:10.164Z</time></trkpt><trkpt lat="43.3547456" lon="12.2019626"><ele>269.33333333333337</ele><time>2026-03-28T11:14:11.168Z</time></trkpt><trkpt lat="43.3545925" lon="12.20195"><ele>269.6666666666667</ele><time>2026-03-28T11:14:12.166Z</time></trkpt><trkpt lat="43.3544383" lon="12.2019405"><ele>270.0</ele><time>2026-03-28T11:14:13.177Z</time></trkpt><trkpt lat="43.3542842" lon="12.2019367"><ele>270.0</ele><time>2026-03-28T11:14:14.165Z</time></trkpt><trkpt lat="43.3541308" lon="12.2019372"><ele>270.0</ele><time>2026-03-28T11:14:15.185Z</time></trkpt><trkpt lat="43.3539768" lon="12.2019451"><ele>270.0</ele><time>2026-03-28T11:14:16.171Z</time></trkpt><trkpt lat="43.3538233" lon="12.2019671"><ele>270.6666666666667</ele><time>2026-03-28T11:14:17.168Z</time></trkpt><trkpt lat="43.353671" lon="12.2020002"><ele>271.33333333333337</ele><time>2026-03-28T11:14:18.161Z</time></trkpt><trkpt lat="43.3535211" lon="12.2020295"><ele>272.0</ele><time>2026-03-28T11:14:19.168Z</time></trkpt><trkpt lat="43.3533737" lon="12.2020823"><ele>272.0</ele><time>2026-03-28T11:14:20.159Z</time></trkpt><trkpt lat="43.3532488" lon="12.2021406"><ele>272.0</ele><time>2026-03-28T11:14:21.165Z</time></trkpt><trkpt lat="43.3531442" lon="12.2022249"><ele>272.0</ele><time>2026-03-28T11:14:22.167Z</time></trkpt><trkpt lat="43.3530671" lon="12.2023254"><ele>272.0</ele><time>2026-03-28T11:14:23.157Z</time></trkpt><trkpt lat="43.3530195" lon="12.202444"><ele>274.25</ele><time>2026-03-28T11:14:24.167Z</time></trkpt><trkpt lat="43.3529871" lon="12.2025811"><ele>276.5</ele><time>2026-03-28T11:14:25.168Z</time></trkpt><trkpt lat="43.3529707" lon="12.2027344"><ele>278.75</ele><time>2026-03-28T11:14:26.158Z</time></trkpt><trkpt lat="43.3529599" lon="12.2028981"><ele>281.0</ele><time>2026-03-28T11:14:27.165Z</time></trkpt><trkpt lat="43.3529524" lon="12.2030699"><ele>280.5</ele><time>2026-03-28T11:14:28.167Z</time></trkpt><trkpt lat="43.352943" lon="12.2032481"><ele>280.0</ele><time>2026-03-28T11:14:29.163Z</time></trkpt><trkpt lat="43.3529333" lon="12.2034316"><ele>279.5</ele><time>2026-03-28T11:14:30.163Z</time></trkpt><trkpt lat="43.3529276" lon="12.2036229"><ele>279.0</ele><time>2026-03-28T11:14:31.168Z</time></trkpt><trkpt lat="43.3529247" lon="12.2038152"><ele>278.5</ele><time>2026-03-28T11:14:32.174Z</time></trkpt><trkpt lat="43.3529337" lon="12.2040117"><ele>278.0</ele><time>2026-03-28T11:14:33.163Z</time></trkpt><trkpt lat="43.3529537" lon="12.2042107"><ele>277.5</ele><time>2026-03-28T11:14:34.17Z</time></trkpt><trkpt lat="43.3529779" lon="12.2044048"><ele>277.0</ele><time>2026-03-28T11:14:35.172Z</time></trkpt><trkpt lat="43.3530003" lon="12.2046014"><ele>277.0</ele><time>2026-03-28T11:14:36.181Z</time></trkpt><trkpt lat="43.3530147" lon="12.2047966"><ele>277.0</ele><time>2026-03-28T11:14:37.17Z</time></trkpt><trkpt lat="43.3530203" lon="12.2049837"><ele>277.0</ele><time>2026-03-28T11:14:38.167Z</time></trkpt><trkpt lat="43.3530113" lon="12.2051707"><ele>277.0</ele><time>2026-03-28T11:14:39.169Z</time></trkpt><trkpt lat="43.3529851" lon="12.2053543"><ele>277.25</ele><time>2026-03-28T11:14:40.165Z</time></trkpt><trkpt lat="43.3529431" lon="12.2055306"><ele>277.5</ele><time>2026-03-28T11:14:41.16Z</time></trkpt><trkpt lat="43.3528929" lon="12.205705"><ele>277.75</ele><time>2026-03-28T11:14:42.167Z</time></trkpt><trkpt lat="43.3528408" lon="12.2058834"><ele>278.0</ele><time>2026-03-28T11:14:43.174Z</time></trkpt><trkpt lat="43.3527888" lon="12.2060623"><ele>278.0</ele><time>2026-03-28T11:14:44.161Z</time></trkpt><trkpt lat="43.352739" lon="12.2062445"><ele>278.0</ele><time>2026-03-28T11:14:45.164Z</time></trkpt><trkpt lat="43.3526905" lon="12.2064329"><ele>278.0</ele><time>2026-03-28T11:14:46.168Z</time></trkpt><trkpt lat="43.3526523" lon="12.2066288"><ele>278.0</ele><time>2026-03-28T11:14:47.166Z</time></trkpt><trkpt lat="43.3526267" lon="12.2068334"><ele>276.6666666666667</ele><time>2026-03-28T11:14:48.169Z</time></trkpt><trkpt lat="43.3526156" lon="12.2070429"><ele>275.3333333333333</ele><time>2026-03-28T11:14:49.159Z</time></trkpt><trkpt lat="43.3526183" lon="12.2072551"><ele>274.0</ele><time>2026-03-28T11:14:50.161Z</time></trkpt><trkpt lat="43.3526242" lon="12.2074706"><ele>273.3333333333333</ele><time>2026-03-28T11:14:51.169Z</time></trkpt><trkpt lat="43.3526286" lon="12.2076892"><ele>272.6666666666667</ele><time>2026-03-28T11:14:52.167Z</time></trkpt><trkpt lat="43.3526307" lon="12.2079091"><ele>272.0</ele><time>2026-03-28T11:14:53.165Z</time></trkpt><trkpt lat="43.3526282" lon="12.2081269"><ele>271.33333333333337</ele><time>2026-03-28T11:14:54.17Z</time></trkpt><trkpt lat="43.3526247" lon="12.2083445"><ele>270.6666666666667</ele><time>2026-03-28T11:14:55.166Z</time></trkpt><trkpt lat="43.3526197" lon="12.2085561"><ele>270.0</ele><time>2026-03-28T11:14:56.164Z</time></trkpt><trkpt lat="43.3526142" lon="12.2087611"><ele>270.0</ele><time>2026-03-28T11:14:57.18Z</time></trkpt><trkpt lat="43.3526115" lon="12.2089652"><ele>270.0</ele><time>2026-03-28T11:14:58.165Z</time></trkpt><trkpt lat="43.3526134" lon="12.2091729"><ele>270.0</ele><time>2026-03-28T11:14:59.171Z</time></trkpt><trkpt lat="43.3526133" lon="12.2093846"><ele>270.0</ele><time>2026-03-28T11:15:00.172Z</time></trkpt><trkpt lat="43.3526034" lon="12.2095981"><ele>270.0</ele><time>2026-03-28T11:15:01.174Z</time></trkpt><trkpt lat="43.3525782" lon="12.2098105"><ele>270.0</ele><time>2026-03-28T11:15:02.17Z</time></trkpt><trkpt lat="43.352536" lon="12.2100178"><ele>270.0</ele><time>2026-03-28T11:15:03.166Z</time></trkpt><trkpt lat="43.3524848" lon="12.2102231"><ele>270.0</ele><time>2026-03-28T11:15:04.171Z</time></trkpt><trkpt lat="43.3524307" lon="12.2104274"><ele>270.0</ele><time>2026-03-28T11:15:05.163Z</time></trkpt><trkpt lat="43.3523764" lon="12.2106324"><ele>269.3333333333333</ele><time>2026-03-28T11:15:06.167Z</time></trkpt><trkpt lat="43.3523231" lon="12.2108388"><ele>268.66666666666663</ele><time>2026-03-28T11:15:07.156Z</time></trkpt><trkpt lat="43.35227" lon="12.2110447"><ele>268.0</ele><time>2026-03-28T11:15:08.16Z</time></trkpt><trkpt lat="43.3522143" lon="12.2112481"><ele>269.0</ele><time>2026-03-28T11:15:09.162Z</time></trkpt><trkpt lat="43.3521557" lon="12.2114497"><ele>270.0</ele><time>2026-03-28T11:15:10.155Z</time></trkpt><trkpt lat="43.3520942" lon="12.2116505"><ele>271.0</ele><time>2026-03-28T11:15:11.153Z</time></trkpt><trkpt lat="43.3520325" lon="12.2118486"><ele>271.0</ele><time>2026-03-28T11:15:12.159Z</time></trkpt><trkpt lat="43.3519765" lon="12.212047"><ele>271.0</ele><time>2026-03-28T11:15:13.156Z</time></trkpt><trkpt lat="43.3519265" lon="12.2122481"><ele>271.0</ele><time>2026-03-28T11:15:14.168Z</time></trkpt><trkpt lat="43.3518936" lon="12.2124547"><ele>270.3333333333333</ele><time>2026-03-28T11:15:15.176Z</time></trkpt><trkpt lat="43.3518814" lon="12.2126644"><ele>269.6666666666667</ele><time>2026-03-28T11:15:16.184Z</time></trkpt><trkpt lat="43.35189" lon="12.2128738"><ele>269.0</ele><time>2026-03-28T11:15:17.162Z</time></trkpt><trkpt lat="43.3519147" lon="12.2130803"><ele>268.5</ele><time>2026-03-28T11:15:18.168Z</time></trkpt><trkpt lat="43.3519457" lon="12.2132846"><ele>268.0</ele><time>2026-03-28T11:15:19.171Z</time></trkpt><trkpt lat="43.3519776" lon="12.2134863"><ele>267.5</ele><time>2026-03-28T11:15:20.174Z</time></trkpt><trkpt lat="43.3520046" lon="12.2136851"><ele>267.0</ele><time>2026-03-28T11:15:21.165Z</time></trkpt><trkpt lat="43.3520135" lon="12.2138757"><ele>266.25</ele><time>2026-03-28T11:15:22.169Z</time></trkpt><trkpt lat="43.3519935" lon="12.2140633"><ele>265.5</ele><time>2026-03-28T11:15:23.167Z</time></trkpt><trkpt lat="43.3519421" lon="12.214242"><ele>264.75</ele><time>2026-03-28T11:15:24.165Z</time></trkpt><trkpt lat="43.3518665" lon="12.2144062"><ele>264.0</ele><time>2026-03-28T11:15:25.165Z</time></trkpt><trkpt lat="43.3517817" lon="12.2145667"><ele>264.0</ele><time>2026-03-28T11:15:26.169Z</time></trkpt><trkpt lat="43.3516956" lon="12.2147318"><ele>264.0</ele><time>2026-03-28T11:15:27.164Z</time></trkpt><trkpt lat="43.3516106" lon="12.2149034"><ele>264.0</ele><time>2026-03-28T11:15:28.183Z</time></trkpt><trkpt lat="43.3515304" lon="12.2150848"><ele>264.3333333333333</ele><time>2026-03-28T11:15:29.173Z</time></trkpt><trkpt lat="43.3514534" lon="12.2152741"><ele>264.66666666666663</ele><time>2026-03-28T11:15:30.179Z</time></trkpt><trkpt lat="43.351375" lon="12.2154656"><ele>265.0</ele><time>2026-03-28T11:15:31.165Z</time></trkpt><trkpt lat="43.3512918" lon="12.2156573"><ele>266.0</ele><time>2026-03-28T11:15:32.17Z</time></trkpt><trkpt lat="43.351206" lon="12.2158484"><ele>267.0</ele><time>2026-03-28T11:15:33.169Z</time></trkpt><trkpt lat="43.3511194" lon="12.2160375"><ele>268.0</ele><time>2026-03-28T11:15:34.174Z</time></trkpt><trkpt lat="43.3510343" lon="12.2162201"><ele>268.0</ele><time>2026-03-28T11:15:35.17Z</time></trkpt><trkpt lat="43.3509545" lon="12.2163897"><ele>268.0</ele><time>2026-03-28T11:15:36.17Z</time></trkpt><trkpt lat="43.3508787" lon="12.2165499"><ele>268.0</ele><time>2026-03-28T11:15:37.168Z</time></trkpt><trkpt lat="43.3508032" lon="12.2167061"><ele>268.0</ele><time>2026-03-28T11:15:38.164Z</time></trkpt><trkpt lat="43.3507255" lon="12.2168537"><ele>268.5</ele><time>2026-03-28T11:15:39.182Z</time></trkpt><trkpt lat="43.3506414" lon="12.2169808"><ele>269.0</ele><time>2026-03-28T11:15:40.165Z</time></trkpt><trkpt lat="43.3505464" lon="12.2170772"><ele>269.5</ele><time>2026-03-28T11:15:41.161Z</time></trkpt><trkpt lat="43.3504426" lon="12.2171211"><ele>270.0</ele><time>2026-03-28T11:15:42.17Z</time></trkpt><trkpt lat="43.3503444" lon="12.2171025"><ele>270.0</ele><time>2026-03-28T11:15:43.17Z</time></trkpt><trkpt lat="43.3502587" lon="12.217039"><ele>270.0</ele><time>2026-03-28T11:15:44.164Z</time></trkpt><trkpt lat="43.3501665" lon="12.2169638"><ele>270.0</ele><time>2026-03-28T11:15:45.155Z</time></trkpt><trkpt lat="43.3500626" lon="12.2168929"><ele>270.0</ele><time>2026-03-28T11:15:46.165Z</time></trkpt><trkpt lat="43.3499449" lon="12.2168385"><ele>270.0</ele><time>2026-03-28T11:15:47.177Z</time></trkpt><trkpt lat="43.3498153" lon="12.2168082"><ele>272.0</ele><time>2026-03-28T11:15:48.164Z</time></trkpt><trkpt lat="43.349677" lon="12.2168024"><ele>274.0</ele><time>2026-03-28T11:15:49.165Z</time></trkpt><trkpt lat="43.3495344" lon="12.2168197"><ele>276.0</ele><time>2026-03-28T11:15:50.168Z</time></trkpt><trkpt lat="43.3493901" lon="12.2168514"><ele>278.0</ele><time>2026-03-28T11:15:51.158Z</time></trkpt><trkpt lat="43.3492453" lon="12.2168908"><ele>278.0</ele><time>2026-03-28T11:15:52.166Z</time></trkpt><trkpt lat="43.3490983" lon="12.2169201"><ele>278.0</ele><time>2026-03-28T11:15:53.166Z</time></trkpt><trkpt lat="43.3489502" lon="12.2169262"><ele>278.0</ele><time>2026-03-28T11:15:54.165Z</time></trkpt><trkpt lat="43.3488065" lon="12.2169083"><ele>278.0</ele><time>2026-03-28T11:15:55.164Z</time></trkpt><trkpt lat="43.3486783" lon="12.216863"><ele>276.75</ele><time>2026-03-28T11:15:56.159Z</time></trkpt><trkpt lat="43.348556" lon="12.2168066"><ele>275.5</ele><time>2026-03-28T11:15:57.164Z</time></trkpt><trkpt lat="43.3484251" lon="12.216767"><ele>274.25</ele><time>2026-03-28T11:15:58.171Z</time></trkpt><trkpt lat="43.348292" lon="12.2167676"><ele>273.0</ele><time>2026-03-28T11:15:59.166Z</time></trkpt><trkpt lat="43.3481576" lon="12.2168051"><ele>273.0</ele><time>2026-03-28T11:16:00.162Z</time></trkpt><trkpt lat="43.3480271" lon="12.2168747"><ele>273.0</ele><time>2026-03-28T11:16:01.164Z</time></trkpt><trkpt lat="43.3478999" lon="12.216948"><ele>273.0</ele><time>2026-03-28T11:16:02.174Z</time></trkpt><trkpt lat="43.3477857" lon="12.2170402"><ele>273.0</ele><time>2026-03-28T11:16:03.157Z</time></trkpt><trkpt lat="43.3476686" lon="12.2171173"><ele>273.0</ele><time>2026-03-28T11:16:04.162Z</time></trkpt><trkpt lat="43.3475396" lon="12.2171802"><ele>273.0</ele><time>2026-03-28T11:16:05.168Z</time></trkpt><trkpt lat="43.3474066" lon="12.2172229"><ele>273.0</ele><time>2026-03-28T11:16:06.166Z</time></trkpt><trkpt lat="43.3472702" lon="12.2172483"><ele>273.0</ele><time>2026-03-28T11:16:07.165Z</time></trkpt><trkpt lat="43.3471284" lon="12.2172523"><ele>274.75</ele><time>2026-03-28T11:16:08.172Z</time></trkpt><trkpt lat="43.346989" lon="12.2172204"><ele>276.5</ele><time>2026-03-28T11:16:09.167Z</time></trkpt><trkpt lat="43.3468533" lon="12.2171543"><ele>278.25</ele><time>2026-03-28T11:16:10.164Z</time></trkpt><trkpt lat="43.3467141" lon="12.2170947"><ele>280.0</ele><time>2026-03-28T11:16:11.168Z</time></trkpt><trkpt lat="43.3465677" lon="12.2170828"><ele>280.0</ele><time>2026-03-28T11:16:12.168Z</time></trkpt><trkpt lat="43.3464241" lon="12.217117"><ele>280.0</ele><time>2026-03-28T11:16:13.171Z</time></trkpt><trkpt lat="43.3462802" lon="12.2171699"><ele>280.0</ele><time>2026-03-28T11:16:14.164Z</time></trkpt><trkpt lat="43.3461426" lon="12.2172229"><ele>280.0</ele><time>2026-03-28T11:16:15.163Z</time></trkpt><trkpt lat="43.3460008" lon="12.2172727"><ele>280.0</ele><time>2026-03-28T11:16:16.166Z</time></trkpt><trkpt lat="43.3458623" lon="12.2172691"><ele>280.0</ele><time>2026-03-28T11:16:17.153Z</time></trkpt><trkpt lat="43.3457161" lon="12.2172608"><ele>280.0</ele><time>2026-03-28T11:16:18.177Z</time></trkpt><trkpt lat="43.3455933" lon="12.217183"><ele>280.0</ele><time>2026-03-28T11:16:19.162Z</time></trkpt><trkpt lat="43.345473" lon="12.217093"><ele>280.0</ele><time>2026-03-28T11:16:20.17Z</time></trkpt><trkpt lat="43.3453803" lon="12.2169582"><ele>280.0</ele><time>2026-03-28T11:16:21.171Z</time></trkpt><trkpt lat="43.3453148" lon="12.2168368"><ele>280.0</ele><time>2026-03-28T11:16:22.16Z</time></trkpt><trkpt lat="43.3452523" lon="12.2167352"><ele>280.0</ele><time>2026-03-28T11:16:23.168Z</time></trkpt><trkpt lat="43.3451747" lon="12.2166834"><ele>280.0</ele><time>2026-03-28T11:16:24.168Z</time></trkpt><trkpt lat="43.3450845" lon="12.2166843"><ele>280.0</ele><time>2026-03-28T11:16:25.155Z</time></trkpt><trkpt lat="43.344994" lon="12.2167097"><ele>280.0</ele><time>2026-03-28T11:16:26.168Z</time></trkpt><trkpt lat="43.344897" lon="12.2167783"><ele>280.0</ele><time>2026-03-28T11:16:27.169Z</time></trkpt><trkpt lat="43.3447897" lon="12.2168567"><ele>280.0</ele><time>2026-03-28T11:16:28.173Z</time></trkpt><trkpt lat="43.3446715" lon="12.216931"><ele>283.75</ele><time>2026-03-28T11:16:29.167Z</time></trkpt><trkpt lat="43.3445488" lon="12.2170107"><ele>287.5</ele><time>2026-03-28T11:16:30.166Z</time></trkpt><trkpt lat="43.3444215" lon="12.2171018"><ele>291.25</ele><time>2026-03-28T11:16:31.165Z</time></trkpt><trkpt lat="43.3442933" lon="12.2171984"><ele>295.0</ele><time>2026-03-28T11:16:32.162Z</time></trkpt><trkpt lat="43.3441579" lon="12.2172989"><ele>289.66666666666663</ele><time>2026-03-28T11:16:33.166Z</time></trkpt><trkpt lat="43.3440177" lon="12.2173977"><ele>284.3333333333333</ele><time>2026-03-28T11:16:34.169Z</time></trkpt><trkpt lat="43.3438718" lon="12.2174942"><ele>279.0</ele><time>2026-03-28T11:16:35.165Z</time></trkpt><trkpt lat="43.343727" lon="12.217591"><ele>279.0</ele><time>2026-03-28T11:16:36.162Z</time></trkpt><trkpt lat="43.3435796" lon="12.2176965"><ele>279.0</ele><time>2026-03-28T11:16:37.174Z</time></trkpt><trkpt lat="43.3434342" lon="12.217794"><ele>279.0</ele><time>2026-03-28T11:16:38.164Z</time></trkpt><trkpt lat="43.3432997" lon="12.2178773"><ele>279.0</ele><time>2026-03-28T11:16:39.162Z</time></trkpt><trkpt lat="43.3431708" lon="12.2179552"><ele>279.0</ele><time>2026-03-28T11:16:40.17Z</time></trkpt><trkpt lat="43.3430601" lon="12.2180331"><ele>279.0</ele><time>2026-03-28T11:16:41.166Z</time></trkpt><trkpt lat="43.3429624" lon="12.2181045"><ele>279.0</ele><time>2026-03-28T11:16:42.175Z</time></trkpt><trkpt lat="43.3428774" lon="12.2181699"><ele>278.1666666666667</ele><time>2026-03-28T11:16:43.183Z</time></trkpt><trkpt lat="43.3428068" lon="12.2182337"><ele>277.3333333333333</ele><time>2026-03-28T11:16:44.166Z</time></trkpt><trkpt lat="43.3427643" lon="12.2183067"><ele>276.5</ele><time>2026-03-28T11:16:45.162Z</time></trkpt><trkpt lat="43.3426941" lon="12.218414"><ele>275.66666666666663</ele><time>2026-03-28T11:16:47.165Z</time></trkpt><trkpt lat="43.34265" lon="12.2185161"><ele>274.8333333333333</ele><time>2026-03-28T11:17:19.158Z</time></trkpt><trkpt lat="43.3427212" lon="12.2186109"><ele>274.0</ele><time>2026-03-28T11:17:21.164Z</time></trkpt><trkpt lat="43.3427876" lon="12.2186674"><ele>274.0</ele><time>2026-03-28T11:17:22.164Z</time></trkpt><trkpt lat="43.3428569" lon="12.2187291"><ele>274.0</ele><time>2026-03-28T11:17:23.162Z</time></trkpt><trkpt lat="43.3429335" lon="12.2188037"><ele>274.0</ele><time>2026-03-28T11:17:24.165Z</time></trkpt><trkpt lat="43.3430177" lon="12.2188893"><ele>274.0</ele><time>2026-03-28T11:17:25.164Z</time></trkpt><trkpt lat="43.3431013" lon="12.2189769"><ele>274.0</ele><time>2026-03-28T11:17:26.166Z</time></trkpt><trkpt lat="43.3431872" lon="12.2190693"><ele>273.25</ele><time>2026-03-28T11:17:27.17Z</time></trkpt><trkpt lat="43.3432795" lon="12.2191686"><ele>272.5</ele><time>2026-03-28T11:17:28.163Z</time></trkpt><trkpt lat="43.3433758" lon="12.2192727"><ele>271.75</ele><time>2026-03-28T11:17:29.168Z</time></trkpt><trkpt lat="43.3434756" lon="12.2193812"><ele>271.0</ele><time>2026-03-28T11:17:30.166Z</time></trkpt><trkpt lat="43.3435796" lon="12.2194941"><ele>271.0</ele><time>2026-03-28T11:17:31.166Z</time></trkpt><trkpt lat="43.343683" lon="12.2196098"><ele>271.0</ele><time>2026-03-28T11:17:32.168Z</time></trkpt><trkpt lat="43.3437825" lon="12.2197286"><ele>271.0</ele><time>2026-03-28T11:17:33.167Z</time></trkpt><trkpt lat="43.3438807" lon="12.2198509"><ele>271.0</ele><time>2026-03-28T11:17:34.168Z</time></trkpt><trkpt lat="43.3439776" lon="12.2199734"><ele>270.6</ele><time>2026-03-28T11:17:35.167Z</time></trkpt><trkpt lat="43.344067" lon="12.2200898"><ele>270.20000000000005</ele><time>2026-03-28T11:17:36.169Z</time></trkpt><trkpt lat="43.344148" lon="12.2201967"><ele>269.79999999999995</ele><time>2026-03-28T11:17:37.165Z</time></trkpt><trkpt lat="43.3442217" lon="12.2202992"><ele>269.4</ele><time>2026-03-28T11:17:38.17Z</time></trkpt><trkpt lat="43.3442924" lon="12.2204071"><ele>269.0</ele><time>2026-03-28T11:17:39.168Z</time></trkpt><trkpt lat="43.3443655" lon="12.2205205"><ele>269.0</ele><time>2026-03-28T11:17:40.176Z</time></trkpt><trkpt lat="43.3444432" lon="12.2206371"><ele>269.0</ele><time>2026-03-28T11:17:41.178Z</time></trkpt><trkpt lat="43.3445225" lon="12.2207582"><ele>269.0</ele><time>2026-03-28T11:17:42.17Z</time></trkpt><trkpt lat="43.3446015" lon="12.2208816"><ele>269.0</ele><time>2026-03-28T11:17:43.167Z</time></trkpt><trkpt lat="43.3446822" lon="12.2210035"><ele>269.5</ele><time>2026-03-28T11:17:44.169Z</time></trkpt><trkpt lat="43.3447632" lon="12.2211254"><ele>270.0</ele><time>2026-03-28T11:17:45.168Z</time></trkpt><trkpt lat="43.3448437" lon="12.2212471"><ele>270.5</ele><time>2026-03-28T11:17:46.162Z</time></trkpt><trkpt lat="43.3449252" lon="12.2213683"><ele>271.0</ele><time>2026-03-28T11:17:47.166Z</time></trkpt><trkpt lat="43.3450057" lon="12.221491"><ele>271.5</ele><time>2026-03-28T11:17:48.171Z</time></trkpt><trkpt lat="43.3450861" lon="12.2216124"><ele>272.0</ele><time>2026-03-28T11:17:49.167Z</time></trkpt><trkpt lat="43.3451661" lon="12.2217316"><ele>272.5</ele><time>2026-03-28T11:17:50.169Z</time></trkpt><trkpt lat="43.3452434" lon="12.2218463"><ele>273.0</ele><time>2026-03-28T11:17:51.167Z</time></trkpt><trkpt lat="43.345316" lon="12.2219531"><ele>273.0</ele><time>2026-03-28T11:17:52.167Z</time></trkpt><trkpt lat="43.3453805" lon="12.2220555"><ele>273.0</ele><time>2026-03-28T11:17:53.168Z</time></trkpt><trkpt lat="43.3454371" lon="12.2221536"><ele>273.0</ele><time>2026-03-28T11:17:54.173Z</time></trkpt><trkpt lat="43.3454925" lon="12.2222395"><ele>273.0</ele><time>2026-03-28T11:17:55.173Z</time></trkpt><trkpt lat="43.3455431" lon="12.2223188"><ele>273.0</ele><time>2026-03-28T11:17:56.165Z</time></trkpt><trkpt lat="43.3455865" lon="12.2223878"><ele>273.0</ele><time>2026-03-28T11:17:57.17Z</time></trkpt><trkpt lat="43.3456306" lon="12.222498"><ele>273.0</ele><time>2026-03-28T11:17:59.165Z</time></trkpt><trkpt lat="43.3456696" lon="12.2225866"><ele>273.0</ele><time>2026-03-28T11:18:07.172Z</time></trkpt><trkpt lat="43.3456434" lon="12.2224677"><ele>273.0</ele><time>2026-03-28T11:23:23.158Z</time></trkpt><trkpt lat="43.3455747" lon="12.2223656"><ele>273.0</ele><time>2026-03-28T11:23:25.157Z</time></trkpt><trkpt lat="43.3455254" lon="12.2222919"><ele>273.0</ele><time>2026-03-28T11:23:27.175Z</time></trkpt><trkpt lat="43.3455004" lon="12.2222066"><ele>273.0</ele><time>2026-03-28T11:23:30.177Z</time></trkpt><trkpt lat="43.3454467" lon="12.222148"><ele>273.0</ele><time>2026-03-28T11:58:42.165Z</time></trkpt><trkpt lat="43.3453999" lon="12.2220079"><ele>273.0</ele><time>2026-03-28T11:58:44.172Z</time></trkpt><trkpt lat="43.3453537" lon="12.2219395"><ele>273.0</ele><time>2026-03-28T11:58:45.166Z</time></trkpt><trkpt lat="43.3453062" lon="12.2218673"><ele>273.0</ele><time>2026-03-28T11:58:46.163Z</time></trkpt><trkpt lat="43.345249" lon="12.2217896"><ele>273.0</ele><time>2026-03-28T11:58:47.177Z</time></trkpt><trkpt lat="43.3451928" lon="12.2217102"><ele>273.0</ele><time>2026-03-28T11:58:48.181Z</time></trkpt><trkpt lat="43.34514" lon="12.2216285"><ele>273.0</ele><time>2026-03-28T11:58:49.178Z</time></trkpt><trkpt lat="43.3450805" lon="12.2215409"><ele>273.0</ele><time>2026-03-28T11:58:50.173Z</time></trkpt><trkpt lat="43.3450129" lon="12.2214449"><ele>273.0</ele><time>2026-03-28T11:58:51.175Z</time></trkpt><trkpt lat="43.3449439" lon="12.221338"><ele>273.0</ele><time>2026-03-28T11:58:52.178Z</time></trkpt><trkpt lat="43.3448731" lon="12.2212258"><ele>273.0</ele><time>2026-03-28T11:58:53.173Z</time></trkpt><trkpt lat="43.3448001" lon="12.2211132"><ele>272.6</ele><time>2026-03-28T11:58:54.186Z</time></trkpt><trkpt lat="43.3447243" lon="12.2209999"><ele>272.20000000000005</ele><time>2026-03-28T11:58:55.184Z</time></trkpt><trkpt lat="43.3446499" lon="12.2208908"><ele>271.8</ele><time>2026-03-28T11:58:56.177Z</time></trkpt><trkpt lat="43.3445826" lon="12.2207951"><ele>271.40000000000003</ele><time>2026-03-28T11:58:57.181Z</time></trkpt><trkpt lat="43.3445222" lon="12.2207111"><ele>271.0</ele><time>2026-03-28T11:58:58.18Z</time></trkpt><trkpt lat="43.3444696" lon="12.2206385"><ele>270.7142857142857</ele><time>2026-03-28T11:58:59.189Z</time></trkpt><trkpt lat="43.3444226" lon="12.2205757"><ele>270.42857142857144</ele><time>2026-03-28T11:59:00.177Z</time></trkpt><trkpt lat="43.3443752" lon="12.2205183"><ele>270.14285714285717</ele><time>2026-03-28T11:59:01.18Z</time></trkpt><trkpt lat="43.3443265" lon="12.2204628"><ele>269.8571428571429</ele><time>2026-03-28T11:59:02.18Z</time></trkpt><trkpt lat="43.3442596" lon="12.2204413"><ele>269.5714285714286</ele><time>2026-03-28T11:59:03.183Z</time></trkpt><trkpt lat="43.3441901" lon="12.2204268"><ele>269.2857142857143</ele><time>2026-03-28T11:59:04.183Z</time></trkpt><trkpt lat="43.3441173" lon="12.2204219"><ele>269.0</ele><time>2026-03-28T11:59:05.177Z</time></trkpt><trkpt lat="43.344051" lon="12.220444"><ele>269.0</ele><time>2026-03-28T11:59:06.178Z</time></trkpt><trkpt lat="43.3439869" lon="12.220476"><ele>269.0</ele><time>2026-03-28T11:59:07.176Z</time></trkpt><trkpt lat="43.3439265" lon="12.2205028"><ele>269.0</ele><time>2026-03-28T11:59:08.184Z</time></trkpt><trkpt lat="43.3438055" lon="12.2205518"><ele>269.0</ele><time>2026-03-28T11:59:10.181Z</time></trkpt><trkpt lat="43.3437407" lon="12.220579"><ele>269.0</ele><time>2026-03-28T11:59:11.183Z</time></trkpt><trkpt lat="43.3436746" lon="12.2206031"><ele>269.0</ele><time>2026-03-28T11:59:12.172Z</time></trkpt><trkpt lat="43.3436061" lon="12.2206285"><ele>269.0</ele><time>2026-03-28T11:59:13.178Z</time></trkpt><trkpt lat="43.3435374" lon="12.2206574"><ele>269.0</ele><time>2026-03-28T11:59:14.182Z</time></trkpt><trkpt lat="43.3434718" lon="12.2206791"><ele>269.0</ele><time>2026-03-28T11:59:15.174Z</time></trkpt><trkpt lat="43.3433795" lon="12.2207044"><ele>269.0</ele><time>2026-03-28T11:59:17.182Z</time></trkpt><trkpt lat="43.3433015" lon="12.2207276"><ele>269.0</ele><time>2026-03-28T12:00:05.175Z</time></trkpt><trkpt lat="43.3432027" lon="12.2207584"><ele>269.0</ele><time>2026-03-28T12:00:07.177Z</time></trkpt><trkpt lat="43.3431365" lon="12.2207737"><ele>269.0</ele><time>2026-03-28T12:00:08.175Z</time></trkpt><trkpt lat="43.3430607" lon="12.220794"><ele>269.0</ele><time>2026-03-28T12:00:09.169Z</time></trkpt><trkpt lat="43.3429819" lon="12.2208145"><ele>269.0</ele><time>2026-03-28T12:00:10.174Z</time></trkpt><trkpt lat="43.3428979" lon="12.2208309"><ele>269.0</ele><time>2026-03-28T12:00:11.168Z</time></trkpt><trkpt lat="43.3428053" lon="12.2208473"><ele>269.0</ele><time>2026-03-28T12:00:12.162Z</time></trkpt><trkpt lat="43.3427133" lon="12.2208585"><ele>269.0</ele><time>2026-03-28T12:00:13.169Z</time></trkpt><trkpt lat="43.3426243" lon="12.2208585"><ele>269.2</ele><time>2026-03-28T12:00:14.178Z</time></trkpt><trkpt lat="43.3425411" lon="12.2208457"><ele>269.4</ele><time>2026-03-28T12:00:15.168Z</time></trkpt><trkpt lat="43.3424529" lon="12.2208158"><ele>269.6</ele><time>2026-03-28T12:00:16.167Z</time></trkpt><trkpt lat="43.3423645" lon="12.2207653"><ele>269.8</ele><time>2026-03-28T12:00:17.168Z</time></trkpt><trkpt lat="43.3422722" lon="12.2206934"><ele>270.0</ele><time>2026-03-28T12:00:18.186Z</time></trkpt><trkpt lat="43.342174" lon="12.2206176"><ele>270.0</ele><time>2026-03-28T12:00:19.168Z</time></trkpt><trkpt lat="43.3420755" lon="12.2205111"><ele>270.0</ele><time>2026-03-28T12:00:20.166Z</time></trkpt><trkpt lat="43.3419826" lon="12.2204034"><ele>270.0</ele><time>2026-03-28T12:00:21.18Z</time></trkpt><trkpt lat="43.3418916" lon="12.2202889"><ele>270.0</ele><time>2026-03-28T12:00:22.165Z</time></trkpt><trkpt lat="43.3417961" lon="12.2201643"><ele>270.0</ele><time>2026-03-28T12:00:23.17Z</time></trkpt><trkpt lat="43.3416963" lon="12.220036"><ele>270.0</ele><time>2026-03-28T12:00:24.162Z</time></trkpt><trkpt lat="43.3415923" lon="12.2199027"><ele>270.0</ele><time>2026-03-28T12:00:25.173Z</time></trkpt><trkpt lat="43.3414867" lon="12.2197651"><ele>270.0</ele><time>2026-03-28T12:00:26.165Z</time></trkpt><trkpt lat="43.3413852" lon="12.2196209"><ele>270.0</ele><time>2026-03-28T12:00:27.167Z</time></trkpt><trkpt lat="43.341285" lon="12.2194806"><ele>270.0</ele><time>2026-03-28T12:00:28.17Z</time></trkpt><trkpt lat="43.3411962" lon="12.2193322"><ele>270.0</ele><time>2026-03-28T12:00:29.166Z</time></trkpt><trkpt lat="43.3411109" lon="12.2191737"><ele>270.0</ele><time>2026-03-28T12:00:30.167Z</time></trkpt><trkpt lat="43.3410277" lon="12.2190152"><ele>270.0</ele><time>2026-03-28T12:00:31.165Z</time></trkpt><trkpt lat="43.340944" lon="12.2188529"><ele>270.0</ele><time>2026-03-28T12:00:32.16Z</time></trkpt><trkpt lat="43.3408608" lon="12.2186929"><ele>270.0</ele><time>2026-03-28T12:00:33.167Z</time></trkpt><trkpt lat="43.3407808" lon="12.21853"><ele>270.0</ele><time>2026-03-28T12:00:34.166Z</time></trkpt><trkpt lat="43.3406991" lon="12.2183618"><ele>270.0</ele><time>2026-03-28T12:00:35.165Z</time></trkpt><trkpt lat="43.3406179" lon="12.2181954"><ele>270.0</ele><time>2026-03-28T12:00:36.17Z</time></trkpt><trkpt lat="43.340544" lon="12.2180173"><ele>270.0</ele><time>2026-03-28T12:00:37.165Z</time></trkpt><trkpt lat="43.3404799" lon="12.2178307"><ele>270.0</ele><time>2026-03-28T12:00:38.165Z</time></trkpt><trkpt lat="43.3404187" lon="12.2176489"><ele>270.0</ele><time>2026-03-28T12:00:39.174Z</time></trkpt><trkpt lat="43.340357" lon="12.2174687"><ele>270.0</ele><time>2026-03-28T12:00:40.164Z</time></trkpt><trkpt lat="43.3402974" lon="12.217293"><ele>270.0</ele><time>2026-03-28T12:00:41.174Z</time></trkpt><trkpt lat="43.3402405" lon="12.2171155"><ele>270.0</ele><time>2026-03-28T12:00:42.17Z</time></trkpt><trkpt lat="43.3401294" lon="12.2167571"><ele>270.5</ele><time>2026-03-28T12:00:44.177Z</time></trkpt><trkpt lat="43.3400776" lon="12.2165769"><ele>271.0</ele><time>2026-03-28T12:00:45.168Z</time></trkpt><trkpt lat="43.3400232" lon="12.216397"><ele>271.5</ele><time>2026-03-28T12:00:46.171Z</time></trkpt><trkpt lat="43.3399728" lon="12.216216"><ele>272.0</ele><time>2026-03-28T12:00:47.17Z</time></trkpt><trkpt lat="43.3399256" lon="12.2160303"><ele>272.25</ele><time>2026-03-28T12:00:48.175Z</time></trkpt><trkpt lat="43.3398786" lon="12.2158406"><ele>272.5</ele><time>2026-03-28T12:00:49.166Z</time></trkpt><trkpt lat="43.3398318" lon="12.2156488"><ele>272.75</ele><time>2026-03-28T12:00:50.179Z</time></trkpt><trkpt lat="43.3397836" lon="12.2154557"><ele>273.0</ele><time>2026-03-28T12:00:51.173Z</time></trkpt><trkpt lat="43.3397358" lon="12.2152612"><ele>272.75</ele><time>2026-03-28T12:00:52.17Z</time></trkpt><trkpt lat="43.3396897" lon="12.2150647"><ele>272.5</ele><time>2026-03-28T12:00:53.172Z</time></trkpt><trkpt lat="43.3396419" lon="12.2148678"><ele>272.25</ele><time>2026-03-28T12:00:54.18Z</time></trkpt><trkpt lat="43.3395913" lon="12.2146768"><ele>272.0</ele><time>2026-03-28T12:00:55.174Z</time></trkpt><trkpt lat="43.3395381" lon="12.2145021"><ele>272.0</ele><time>2026-03-28T12:00:56.172Z</time></trkpt><trkpt lat="43.3394766" lon="12.2143479"><ele>272.0</ele><time>2026-03-28T12:00:57.176Z</time></trkpt><trkpt lat="43.3393976" lon="12.2142161"><ele>272.0</ele><time>2026-03-28T12:00:58.169Z</time></trkpt><trkpt lat="43.3392981" lon="12.2141185"><ele>272.0</ele><time>2026-03-28T12:00:59.186Z</time></trkpt><trkpt lat="43.3391944" lon="12.2140577"><ele>272.0</ele><time>2026-03-28T12:01:00.169Z</time></trkpt><trkpt lat="43.3390983" lon="12.2140246"><ele>272.0</ele><time>2026-03-28T12:01:01.169Z</time></trkpt><trkpt lat="43.3390019" lon="12.2139917"><ele>272.0</ele><time>2026-03-28T12:01:02.176Z</time></trkpt><trkpt lat="43.3388945" lon="12.2139731"><ele>272.0</ele><time>2026-03-28T12:01:03.177Z</time></trkpt><trkpt lat="43.3387781" lon="12.213964"><ele>272.0</ele><time>2026-03-28T12:01:04.178Z</time></trkpt><trkpt lat="43.3386519" lon="12.2139505"><ele>272.0</ele><time>2026-03-28T12:01:05.185Z</time></trkpt><trkpt lat="43.3385205" lon="12.2139285"><ele>272.0</ele><time>2026-03-28T12:01:06.168Z</time></trkpt><trkpt lat="43.3383864" lon="12.2138943"><ele>272.0</ele><time>2026-03-28T12:01:07.172Z</time></trkpt><trkpt lat="43.3382529" lon="12.2138376"><ele>272.0</ele><time>2026-03-28T12:01:08.172Z</time></trkpt><trkpt lat="43.3381194" lon="12.2137625"><ele>272.0</ele><time>2026-03-28T12:01:09.17Z</time></trkpt><trkpt lat="43.3379878" lon="12.2136702"><ele>272.0</ele><time>2026-03-28T12:01:10.165Z</time></trkpt><trkpt lat="43.337857" lon="12.2135643"><ele>272.0</ele><time>2026-03-28T12:01:11.184Z</time></trkpt><trkpt lat="43.337726" lon="12.2134487"><ele>272.0</ele><time>2026-03-28T12:01:12.172Z</time></trkpt><trkpt lat="43.3375958" lon="12.2133278"><ele>272.0</ele><time>2026-03-28T12:01:13.177Z</time></trkpt><trkpt lat="43.3374675" lon="12.2132031"><ele>272.0</ele><time>2026-03-28T12:01:14.164Z</time></trkpt><trkpt lat="43.3373407" lon="12.2130763"><ele>272.25</ele><time>2026-03-28T12:01:15.18Z</time></trkpt><trkpt lat="43.3372187" lon="12.2129478"><ele>272.5</ele><time>2026-03-28T12:01:16.182Z</time></trkpt><trkpt lat="43.3371066" lon="12.2128226"><ele>272.75</ele><time>2026-03-28T12:01:17.176Z</time></trkpt><trkpt lat="43.3370013" lon="12.2127015"><ele>273.0</ele><time>2026-03-28T12:01:18.164Z</time></trkpt><trkpt lat="43.3368961" lon="12.2125835"><ele>273.0</ele><time>2026-03-28T12:01:19.17Z</time></trkpt><trkpt lat="43.3367961" lon="12.2124676"><ele>273.0</ele><time>2026-03-28T12:01:20.176Z</time></trkpt><trkpt lat="43.3367014" lon="12.2123505"><ele>273.0</ele><time>2026-03-28T12:01:21.178Z</time></trkpt><trkpt lat="43.3366089" lon="12.2122323"><ele>273.0</ele><time>2026-03-28T12:01:22.166Z</time></trkpt><trkpt lat="43.336515" lon="12.2121099"><ele>273.5</ele><time>2026-03-28T12:01:23.168Z</time></trkpt><trkpt lat="43.3364274" lon="12.2119959"><ele>274.0</ele><time>2026-03-28T12:01:24.171Z</time></trkpt><trkpt lat="43.336265" lon="12.2118097"><ele>274.5</ele><time>2026-03-28T12:01:26.185Z</time></trkpt><trkpt lat="43.3361826" lon="12.2117467"><ele>275.0</ele><time>2026-03-28T12:01:27.173Z</time></trkpt><trkpt lat="43.3360866" lon="12.2117126"><ele>275.0</ele><time>2026-03-28T12:01:28.172Z</time></trkpt><trkpt lat="43.3359765" lon="12.2117055"><ele>275.0</ele><time>2026-03-28T12:01:29.182Z</time></trkpt><trkpt lat="43.3358608" lon="12.2117065"><ele>275.0</ele><time>2026-03-28T12:01:30.17Z</time></trkpt><trkpt lat="43.3357431" lon="12.2116972"><ele>275.0</ele><time>2026-03-28T12:01:31.174Z</time></trkpt><trkpt lat="43.3356225" lon="12.2116727"><ele>276.0</ele><time>2026-03-28T12:01:32.17Z</time></trkpt><trkpt lat="43.3354983" lon="12.2116596"><ele>277.0</ele><time>2026-03-28T12:01:33.175Z</time></trkpt><trkpt lat="43.3353738" lon="12.2116623"><ele>278.0</ele><time>2026-03-28T12:01:34.172Z</time></trkpt><trkpt lat="43.3352502" lon="12.2116764"><ele>279.0</ele><time>2026-03-28T12:01:35.177Z</time></trkpt><trkpt lat="43.3351262" lon="12.2116914"><ele>279.0</ele><time>2026-03-28T12:01:36.177Z</time></trkpt><trkpt lat="43.3350128" lon="12.2117048"><ele>279.0</ele><time>2026-03-28T12:01:37.177Z</time></trkpt><trkpt lat="43.3349182" lon="12.2117161"><ele>279.0</ele><time>2026-03-28T12:01:38.176Z</time></trkpt><trkpt lat="43.3348394" lon="12.2117269"><ele>279.0</ele><time>2026-03-28T12:01:39.179Z</time></trkpt><trkpt lat="43.3347384" lon="12.2117114"><ele>279.0</ele><time>2026-03-28T12:01:41.167Z</time></trkpt><trkpt lat="43.3347124" lon="12.2115759"><ele>281.0</ele><time>2026-03-28T12:01:43.201Z</time></trkpt><trkpt lat="43.3346929" lon="12.2114063"><ele>283.0</ele><time>2026-03-28T12:01:45.18Z</time></trkpt><trkpt lat="43.3346825" lon="12.2113018"><ele>285.0</ele><time>2026-03-28T12:01:46.182Z</time></trkpt><trkpt lat="43.334674" lon="12.2111937"><ele>287.0</ele><time>2026-03-28T12:01:47.179Z</time></trkpt><trkpt lat="43.3346618" lon="12.2110862"><ele>289.0</ele><time>2026-03-28T12:01:48.179Z</time></trkpt><trkpt lat="43.3346499" lon="12.210984"><ele>291.0</ele><time>2026-03-28T12:01:49.175Z</time></trkpt><trkpt lat="43.3346429" lon="12.2108924"><ele>291.0</ele><time>2026-03-28T12:01:50.178Z</time></trkpt><trkpt lat="43.3346242" lon="12.21077"><ele>291.0</ele><time>2026-03-28T12:01:52.166Z</time></trkpt><trkpt lat="43.3345884" lon="12.2106493"><ele>291.0</ele><time>2026-03-28T12:01:54.171Z</time></trkpt><trkpt lat="43.3345407" lon="12.2105404"><ele>291.0</ele><time>2026-03-28T12:01:56.176Z</time></trkpt><trkpt lat="43.3344773" lon="12.2104232"><ele>291.0</ele><time>2026-03-28T12:01:58.18Z</time></trkpt><trkpt lat="43.3343519" lon="12.2103963"><ele>290.7142857142857</ele><time>2026-03-28T12:02:00.172Z</time></trkpt><trkpt lat="43.3342804" lon="12.2104004"><ele>290.4285714285714</ele><time>2026-03-28T12:02:01.185Z</time></trkpt><trkpt lat="43.3342158" lon="12.2104094"><ele>290.1428571428571</ele><time>2026-03-28T12:02:02.171Z</time></trkpt><trkpt lat="43.334152" lon="12.2104271"><ele>289.85714285714283</ele><time>2026-03-28T12:02:03.167Z</time></trkpt><trkpt lat="43.3340848" lon="12.2104556"><ele>289.57142857142856</ele><time>2026-03-28T12:02:04.18Z</time></trkpt><trkpt lat="43.3340218" lon="12.2104878"><ele>289.2857142857143</ele><time>2026-03-28T12:02:05.17Z</time></trkpt><trkpt lat="43.3339592" lon="12.2105271"><ele>289.0</ele><time>2026-03-28T12:02:06.165Z</time></trkpt><trkpt lat="43.3338962" lon="12.2105706"><ele>290.66666666666663</ele><time>2026-03-28T12:02:07.172Z</time></trkpt><trkpt lat="43.3338409" lon="12.2106222"><ele>292.3333333333333</ele><time>2026-03-28T12:02:08.169Z</time></trkpt><trkpt lat="43.3337796" lon="12.2106628"><ele>294.0</ele><time>2026-03-28T12:02:09.176Z</time></trkpt><trkpt lat="43.3336436" lon="12.2106685"><ele>295.6666666666667</ele><time>2026-03-28T12:02:11.164Z</time></trkpt><trkpt lat="43.3335746" lon="12.2106543"><ele>297.33333333333337</ele><time>2026-03-28T12:02:12.177Z</time></trkpt><trkpt lat="43.3335085" lon="12.2106433"><ele>299.0</ele><time>2026-03-28T12:02:13.18Z</time></trkpt><trkpt lat="43.3334238" lon="12.2106315"><ele>299.0</ele><time>2026-03-28T12:02:14.169Z</time></trkpt><trkpt lat="43.3333375" lon="12.210623"><ele>299.0</ele><time>2026-03-28T12:02:15.181Z</time></trkpt><trkpt lat="43.3332481" lon="12.2106"><ele>299.0</ele><time>2026-03-28T12:02:16.181Z</time></trkpt><trkpt lat="43.3331578" lon="12.2105823"><ele>299.0</ele><time>2026-03-28T12:02:17.175Z</time></trkpt><trkpt lat="43.3330702" lon="12.2105654"><ele>299.0</ele><time>2026-03-28T12:02:18.175Z</time></trkpt><trkpt lat="43.332992" lon="12.2105609"><ele>299.0</ele><time>2026-03-28T12:02:19.174Z</time></trkpt><trkpt lat="43.3329086" lon="12.2105685"><ele>302.0</ele><time>2026-03-28T12:02:20.17Z</time></trkpt><trkpt lat="43.3328335" lon="12.2105925"><ele>305.0</ele><time>2026-03-28T12:02:21.182Z</time></trkpt><trkpt lat="43.332756" lon="12.2106493"><ele>308.0</ele><time>2026-03-28T12:02:22.172Z</time></trkpt><trkpt lat="43.3326845" lon="12.2106729"><ele>311.0</ele><time>2026-03-28T12:02:23.173Z</time></trkpt><trkpt lat="43.3325929" lon="12.2106528"><ele>314.0</ele><time>2026-03-28T12:02:24.161Z</time></trkpt><trkpt lat="43.3325129" lon="12.2106281"><ele>317.0</ele><time>2026-03-28T12:02:25.177Z</time></trkpt><trkpt lat="43.3324522" lon="12.2105867"><ele>317.0</ele><time>2026-03-28T12:02:26.178Z</time></trkpt><trkpt lat="43.3323813" lon="12.2105348"><ele>317.0</ele><time>2026-03-28T12:02:27.171Z</time></trkpt><trkpt lat="43.3323132" lon="12.2104714"><ele>317.0</ele><time>2026-03-28T12:02:28.177Z</time></trkpt><trkpt lat="43.3322511" lon="12.2103985"><ele>317.0</ele><time>2026-03-28T12:02:29.168Z</time></trkpt><trkpt lat="43.3321785" lon="12.2103399"><ele>317.0</ele><time>2026-03-28T12:02:30.176Z</time></trkpt><trkpt lat="43.3321175" lon="12.2103091"><ele>317.0</ele><time>2026-03-28T12:02:31.178Z</time></trkpt><trkpt lat="43.3320409" lon="12.2103075"><ele>318.83333333333337</ele><time>2026-03-28T12:02:32.165Z</time></trkpt><trkpt lat="43.3319664" lon="12.2103412"><ele>320.6666666666667</ele><time>2026-03-28T12:02:33.17Z</time></trkpt><trkpt lat="43.3318885" lon="12.2103967"><ele>322.5</ele><time>2026-03-28T12:02:34.165Z</time></trkpt><trkpt lat="43.3318139" lon="12.2104399"><ele>324.3333333333333</ele><time>2026-03-28T12:02:35.171Z</time></trkpt><trkpt lat="43.3317334" lon="12.2104743"><ele>326.16666666666663</ele><time>2026-03-28T12:02:36.174Z</time></trkpt><trkpt lat="43.3316354" lon="12.2105005"><ele>328.0</ele><time>2026-03-28T12:02:37.185Z</time></trkpt><trkpt lat="43.3315367" lon="12.210521"><ele>328.0</ele><time>2026-03-28T12:02:38.17Z</time></trkpt><trkpt lat="43.3314275" lon="12.210531"><ele>328.0</ele><time>2026-03-28T12:02:39.169Z</time></trkpt><trkpt lat="43.3313251" lon="12.2105534"><ele>328.0</ele><time>2026-03-28T12:02:40.171Z</time></trkpt><trkpt lat="43.3312245" lon="12.2105691"><ele>328.0</ele><time>2026-03-28T12:02:41.171Z</time></trkpt><trkpt lat="43.3311395" lon="12.2105828"><ele>328.0</ele><time>2026-03-28T12:02:42.17Z</time></trkpt><trkpt lat="43.3310635" lon="12.2105798"><ele>329.8333333333333</ele><time>2026-03-28T12:02:43.173Z</time></trkpt><trkpt lat="43.3309932" lon="12.2105593"><ele>331.66666666666663</ele><time>2026-03-28T12:02:44.16Z</time></trkpt><trkpt lat="43.3309326" lon="12.2105287"><ele>333.5</ele><time>2026-03-28T12:02:45.17Z</time></trkpt><trkpt lat="43.3308628" lon="12.2104799"><ele>335.3333333333333</ele><time>2026-03-28T12:02:46.166Z</time></trkpt><trkpt lat="43.3307911" lon="12.2104282"><ele>337.1666666666667</ele><time>2026-03-28T12:02:47.184Z</time></trkpt><trkpt lat="43.3307284" lon="12.2103964"><ele>339.0</ele><time>2026-03-28T12:02:48.182Z</time></trkpt><trkpt lat="43.3306658" lon="12.2102634"><ele>339.0</ele><time>2026-03-28T12:02:50.171Z</time></trkpt><trkpt lat="43.3306394" lon="12.2101483"><ele>339.0</ele><time>2026-03-28T12:02:52.182Z</time></trkpt><trkpt lat="43.3306243" lon="12.2100408"><ele>339.0</ele><time>2026-03-28T12:04:14.183Z</time></trkpt><trkpt lat="43.3305839" lon="12.2099121"><ele>339.0</ele><time>2026-03-28T12:04:16.178Z</time></trkpt><trkpt lat="43.330557" lon="12.2097839"><ele>339.0</ele><time>2026-03-28T12:04:18.178Z</time></trkpt><trkpt lat="43.3305332" lon="12.2096499"><ele>340.4285714285714</ele><time>2026-03-28T12:04:20.18Z</time></trkpt><trkpt lat="43.3305101" lon="12.2095544"><ele>341.8571428571429</ele><time>2026-03-28T12:04:21.179Z</time></trkpt><trkpt lat="43.3304887" lon="12.2094656"><ele>343.2857142857143</ele><time>2026-03-28T12:04:22.173Z</time></trkpt><trkpt lat="43.3304595" lon="12.2093664"><ele>344.71428571428567</ele><time>2026-03-28T12:04:23.171Z</time></trkpt><trkpt lat="43.3304302" lon="12.209278"><ele>346.1428571428571</ele><time>2026-03-28T12:04:24.169Z</time></trkpt><trkpt lat="43.3304007" lon="12.2091879"><ele>347.57142857142856</ele><time>2026-03-28T12:04:25.177Z</time></trkpt><trkpt lat="43.3303687" lon="12.2090975"><ele>349.0</ele><time>2026-03-28T12:04:26.17Z</time></trkpt><trkpt lat="43.3303405" lon="12.2090047"><ele>349.66666666666663</ele><time>2026-03-28T12:04:27.182Z</time></trkpt><trkpt lat="43.330321" lon="12.2089161"><ele>350.3333333333333</ele><time>2026-03-28T12:04:28.174Z</time></trkpt><trkpt lat="43.3303027" lon="12.2088277"><ele>351.0</ele><time>2026-03-28T12:04:29.174Z</time></trkpt><trkpt lat="43.3302946" lon="12.2087337"><ele>351.6666666666667</ele><time>2026-03-28T12:04:30.179Z</time></trkpt><trkpt lat="43.3302861" lon="12.2086444"><ele>352.33333333333337</ele><time>2026-03-28T12:04:31.169Z</time></trkpt><trkpt lat="43.3302518" lon="12.2084868"><ele>353.0</ele><time>2026-03-28T12:04:33.186Z</time></trkpt><trkpt lat="43.3302096" lon="12.208358"><ele>353.0</ele><time>2026-03-28T12:04:35.17Z</time></trkpt><trkpt lat="43.3301603" lon="12.2082398"><ele>353.0</ele><time>2026-03-28T12:04:37.174Z</time></trkpt><trkpt lat="43.330127" lon="12.2081526"><ele>353.0</ele><time>2026-03-28T12:04:41.173Z</time></trkpt><trkpt lat="43.3301174" lon="12.2080214"><ele>353.0</ele><time>2026-03-28T12:04:43.172Z</time></trkpt><trkpt lat="43.330105" lon="12.2079293"><ele>353.0</ele><time>2026-03-28T12:04:44.179Z</time></trkpt><trkpt lat="43.3300932" lon="12.2078281"><ele>353.0</ele><time>2026-03-28T12:04:45.178Z</time></trkpt><trkpt lat="43.3300815" lon="12.2077362"><ele>355.1666666666667</ele><time>2026-03-28T12:04:46.176Z</time></trkpt><trkpt lat="43.33007" lon="12.2076486"><ele>357.33333333333337</ele><time>2026-03-28T12:04:47.174Z</time></trkpt><trkpt lat="43.3300436" lon="12.2074893"><ele>359.5</ele><time>2026-03-28T12:04:49.169Z</time></trkpt><trkpt lat="43.3300251" lon="12.2073775"><ele>361.6666666666667</ele><time>2026-03-28T12:04:51.175Z</time></trkpt><trkpt lat="43.3299841" lon="12.2072908"><ele>363.8333333333333</ele><time>2026-03-28T12:04:53.187Z</time></trkpt><trkpt lat="43.3299516" lon="12.2071962"><ele>366.0</ele><time>2026-03-28T12:04:55.184Z</time></trkpt><trkpt lat="43.3299397" lon="12.2071066"><ele>366.2857142857143</ele><time>2026-03-28T12:04:57.184Z</time></trkpt><trkpt lat="43.3299352" lon="12.2070077"><ele>366.57142857142856</ele><time>2026-03-28T12:05:16.179Z</time></trkpt><trkpt lat="43.3299079" lon="12.2069273"><ele>366.8571428571429</ele><time>2026-03-28T12:05:19.173Z</time></trkpt><trkpt lat="43.3298657" lon="12.2068477"><ele>367.1428571428571</ele><time>2026-03-28T12:05:22.171Z</time></trkpt><trkpt lat="43.3298032" lon="12.2068367"><ele>367.4285714285714</ele><time>2026-03-28T12:05:25.181Z</time></trkpt><trkpt lat="43.3297196" lon="12.2068133"><ele>367.7142857142857</ele><time>2026-03-28T12:05:28.176Z</time></trkpt><trkpt lat="43.3296601" lon="12.2067755"><ele>368.0</ele><time>2026-03-28T12:05:31.166Z</time></trkpt><trkpt lat="43.3295998" lon="12.2067268"><ele>370.14285714285717</ele><time>2026-03-28T12:05:33.176Z</time></trkpt><trkpt lat="43.3295301" lon="12.2066762"><ele>372.2857142857143</ele><time>2026-03-28T12:05:36.179Z</time></trkpt><trkpt lat="43.329458" lon="12.2066226"><ele>374.42857142857144</ele><time>2026-03-28T12:05:39.179Z</time></trkpt><trkpt lat="43.3294065" lon="12.2065727"><ele>376.57142857142856</ele><time>2026-03-28T12:05:42.181Z</time></trkpt><trkpt lat="43.3293625" lon="12.2064801"><ele>378.71428571428567</ele><time>2026-03-28T12:05:57.193Z</time></trkpt><trkpt lat="43.3293024" lon="12.206424"><ele>380.85714285714283</ele><time>2026-03-28T12:06:00.167Z</time></trkpt><trkpt lat="43.3292487" lon="12.2063731"><ele>383.0</ele><time>2026-03-28T12:06:03.183Z</time></trkpt><trkpt lat="43.3291674" lon="12.2063692"><ele>383.0</ele><time>2026-03-28T12:06:06.178Z</time></trkpt><trkpt lat="43.3291024" lon="12.2064048"><ele>383.0</ele><time>2026-03-28T12:06:09.163Z</time></trkpt><trkpt lat="43.3290722" lon="12.2064937"><ele>383.0</ele><time>2026-03-28T12:06:12.167Z</time></trkpt><trkpt lat="43.329082" lon="12.2065892"><ele>383.0</ele><time>2026-03-28T12:11:38.182Z</time></trkpt><trkpt lat="43.329067" lon="12.206694"><ele>383.0</ele><time>2026-03-28T12:11:41.185Z</time></trkpt><trkpt lat="43.3290626" lon="12.2067875"><ele>383.0</ele><time>2026-03-28T12:11:43.174Z</time></trkpt><trkpt lat="43.3290464" lon="12.2068865"><ele>383.0</ele><time>2026-03-28T12:11:45.168Z</time></trkpt><trkpt lat="43.3290163" lon="12.2069841"><ele>384.0</ele><time>2026-03-28T12:11:47.18Z</time></trkpt><trkpt lat="43.3289789" lon="12.2070835"><ele>385.0</ele><time>2026-03-28T12:12:41.145Z</time></trkpt><trkpt lat="43.3290175" lon="12.2071601"><ele>386.0</ele><time>2026-03-28T12:12:46.18Z</time></trkpt><trkpt lat="43.3290687" lon="12.2072106"><ele>387.0</ele><time>2026-03-28T12:12:51.174Z</time></trkpt><trkpt lat="43.329064" lon="12.2071041"><ele>388.0</ele><time>2026-03-28T12:13:52.17Z</time></trkpt><trkpt lat="43.329021" lon="12.2070251"><ele>389.0</ele><time>2026-03-28T12:13:54.177Z</time></trkpt><trkpt lat="43.3290145" lon="12.2069362"><ele>390.0</ele><time>2026-03-28T12:13:56.187Z</time></trkpt><trkpt lat="43.3290363" lon="12.2068318"><ele>390.0</ele><time>2026-03-28T12:13:58.175Z</time></trkpt><trkpt lat="43.3290542" lon="12.2067311"><ele>390.0</ele><time>2026-03-28T12:14:01.176Z</time></trkpt><trkpt lat="43.329072" lon="12.206625"><ele>390.0</ele><time>2026-03-28T12:14:04.169Z</time></trkpt><trkpt lat="43.3290665" lon="12.2065053"><ele>390.0</ele><time>2026-03-28T12:14:09.179Z</time></trkpt><trkpt lat="43.3291008" lon="12.20641"><ele>390.0</ele><time>2026-03-28T12:14:13.177Z</time></trkpt><trkpt lat="43.3291568" lon="12.2063542"><ele>390.0</ele><time>2026-03-28T12:14:18.177Z</time></trkpt><trkpt lat="43.3292308" lon="12.2062854"><ele>389.0</ele><time>2026-03-28T12:15:33.157Z</time></trkpt><trkpt lat="43.3292136" lon="12.2061986"><ele>388.0</ele><time>2026-03-28T12:15:40.186Z</time></trkpt><trkpt lat="43.3291713" lon="12.206118"><ele>387.0</ele><time>2026-03-28T12:16:28.173Z</time></trkpt><trkpt lat="43.3291533" lon="12.2060299"><ele>386.0</ele><time>2026-03-28T12:17:23.154Z</time></trkpt><trkpt lat="43.3290909" lon="12.2059158"><ele>385.0</ele><time>2026-03-28T12:17:26.185Z</time></trkpt><trkpt lat="43.3290535" lon="12.2058364"><ele>384.0</ele><time>2026-03-28T12:17:28.167Z</time></trkpt><trkpt lat="43.3290162" lon="12.2057539"><ele>383.0</ele><time>2026-03-28T12:17:30.172Z</time></trkpt><trkpt lat="43.3290038" lon="12.2056586"><ele>382.85714285714283</ele><time>2026-03-28T12:17:32.17Z</time></trkpt><trkpt lat="43.3290005" lon="12.2055645"><ele>382.71428571428567</ele><time>2026-03-28T12:17:34.167Z</time></trkpt><trkpt lat="43.328985" lon="12.205473"><ele>382.57142857142856</ele><time>2026-03-28T12:17:36.17Z</time></trkpt><trkpt lat="43.3289619" lon="12.2053846"><ele>382.42857142857144</ele><time>2026-03-28T12:17:38.184Z</time></trkpt><trkpt lat="43.3289455" lon="12.2052978"><ele>382.2857142857143</ele><time>2026-03-28T12:17:40.174Z</time></trkpt><trkpt lat="43.3289377" lon="12.2052068"><ele>382.14285714285717</ele><time>2026-03-28T12:17:42.177Z</time></trkpt><trkpt lat="43.3289252" lon="12.2050802"><ele>382.0</ele><time>2026-03-28T12:17:45.173Z</time></trkpt><trkpt lat="43.328882" lon="12.2049953"><ele>386.2857142857143</ele><time>2026-03-28T12:17:50.174Z</time></trkpt><trkpt lat="43.3288559" lon="12.2049006"><ele>390.57142857142856</ele><time>2026-03-28T12:18:38.179Z</time></trkpt><trkpt lat="43.328793" lon="12.2048608"><ele>394.85714285714283</ele><time>2026-03-28T12:18:42.172Z</time></trkpt><trkpt lat="43.3287668" lon="12.2047608"><ele>399.1428571428571</ele><time>2026-03-28T12:18:56.17Z</time></trkpt><trkpt lat="43.3287561" lon="12.2046732"><ele>403.42857142857144</ele><time>2026-03-28T12:18:59.171Z</time></trkpt><trkpt lat="43.3287155" lon="12.2045936"><ele>407.71428571428567</ele><time>2026-03-28T12:19:02.169Z</time></trkpt><trkpt lat="43.3286603" lon="12.2045086"><ele>412.0</ele><time>2026-03-28T12:19:05.171Z</time></trkpt><trkpt lat="43.3286055" lon="12.2044326"><ele>412.1428571428571</ele><time>2026-03-28T12:19:08.168Z</time></trkpt><trkpt lat="43.3285657" lon="12.204349"><ele>412.2857142857143</ele><time>2026-03-28T12:19:12.169Z</time></trkpt><trkpt lat="43.3285271" lon="12.2042755"><ele>412.42857142857144</ele><time>2026-03-28T12:19:15.17Z</time></trkpt><trkpt lat="43.3285245" lon="12.2041833"><ele>412.57142857142856</ele><time>2026-03-28T12:19:19.165Z</time></trkpt><trkpt lat="43.3285853" lon="12.2041441"><ele>412.7142857142857</ele><time>2026-03-28T12:19:24.172Z</time></trkpt><trkpt lat="43.3286472" lon="12.2041148"><ele>412.85714285714283</ele><time>2026-03-28T12:19:26.166Z</time></trkpt><trkpt lat="43.3287147" lon="12.2040583"><ele>413.0</ele><time>2026-03-28T12:19:28.174Z</time></trkpt><trkpt lat="43.3287664" lon="12.2039984"><ele>414.66666666666663</ele><time>2026-03-28T12:19:32.174Z</time></trkpt><trkpt lat="43.3288147" lon="12.2038876"><ele>416.3333333333333</ele><time>2026-03-28T12:19:38.174Z</time></trkpt><trkpt lat="43.3288552" lon="12.2037995"><ele>418.0</ele><time>2026-03-28T12:19:41.172Z</time></trkpt><trkpt lat="43.3288763" lon="12.2036973"><ele>419.66666666666663</ele><time>2026-03-28T12:19:47.175Z</time></trkpt><trkpt lat="43.3288877" lon="12.2035942"><ele>421.3333333333333</ele><time>2026-03-28T12:19:50.179Z</time></trkpt><trkpt lat="43.3289011" lon="12.2035038"><ele>423.0</ele><time>2026-03-28T12:19:52.181Z</time></trkpt><trkpt lat="43.3289737" lon="12.2034058"><ele>419.1666666666667</ele><time>2026-03-28T12:19:55.175Z</time></trkpt><trkpt lat="43.3290341" lon="12.2033323"><ele>415.33333333333337</ele><time>2026-03-28T12:19:57.171Z</time></trkpt><trkpt lat="43.329084" lon="12.2032472"><ele>411.5</ele><time>2026-03-28T12:19:59.167Z</time></trkpt><trkpt lat="43.3291328" lon="12.2031587"><ele>407.6666666666667</ele><time>2026-03-28T12:20:01.182Z</time></trkpt><trkpt lat="43.3291774" lon="12.203082"><ele>403.83333333333337</ele><time>2026-03-28T12:20:03.177Z</time></trkpt><trkpt lat="43.3292229" lon="12.2029995"><ele>400.0</ele><time>2026-03-28T12:20:05.179Z</time></trkpt><trkpt lat="43.3292619" lon="12.2028723"><ele>400.00000000000006</ele><time>2026-03-28T12:20:08.167Z</time></trkpt><trkpt lat="43.3292862" lon="12.2027722"><ele>400.0</ele><time>2026-03-28T12:20:10.172Z</time></trkpt><trkpt lat="43.329288" lon="12.2026716"><ele>400.0</ele><time>2026-03-28T12:20:12.168Z</time></trkpt><trkpt lat="43.32927" lon="12.2025879"><ele>400.0</ele><time>2026-03-28T12:20:15.176Z</time></trkpt><trkpt lat="43.3292568" lon="12.2024855"><ele>400.00000000000006</ele><time>2026-03-28T12:20:19.165Z</time></trkpt><trkpt lat="43.3292596" lon="12.2025766"><ele>400.0</ele><time>2026-03-28T12:24:17.194Z</time></trkpt><trkpt lat="43.3292851" lon="12.2027063"><ele>400.00000000000006</ele><time>2026-03-28T12:24:21.199Z</time></trkpt><trkpt lat="43.3292725" lon="12.2028329"><ele>400.0</ele><time>2026-03-28T12:24:24.198Z</time></trkpt><trkpt lat="43.3292411" lon="12.2029321"><ele>400.0</ele><time>2026-03-28T12:24:27.191Z</time></trkpt><trkpt lat="43.3291945" lon="12.2030476"><ele>400.0</ele><time>2026-03-28T12:24:30.187Z</time></trkpt><trkpt lat="43.329161" lon="12.203124"><ele>400.00000000000006</ele><time>2026-03-28T12:24:33.198Z</time></trkpt><trkpt lat="43.3291079" lon="12.2032055"><ele>400.0</ele><time>2026-03-28T12:24:36.231Z</time></trkpt><trkpt lat="43.3290705" lon="12.2032952"><ele>399.14285714285717</ele><time>2026-03-28T12:24:38.191Z</time></trkpt><trkpt lat="43.32902" lon="12.2033553"><ele>398.2857142857143</ele><time>2026-03-28T12:24:40.195Z</time></trkpt><trkpt lat="43.3289392" lon="12.2034037"><ele>397.42857142857144</ele><time>2026-03-28T12:24:43.203Z</time></trkpt><trkpt lat="43.3289107" lon="12.2034839"><ele>396.57142857142856</ele><time>2026-03-28T12:24:46.195Z</time></trkpt><trkpt lat="43.3289085" lon="12.2035824"><ele>395.7142857142857</ele><time>2026-03-28T12:24:48.185Z</time></trkpt><trkpt lat="43.3289098" lon="12.2036775"><ele>394.8571428571429</ele><time>2026-03-28T12:24:51.19Z</time></trkpt><trkpt lat="43.3288977" lon="12.2037651"><ele>394.0</ele><time>2026-03-28T12:25:11.19Z</time></trkpt><trkpt lat="43.3288781" lon="12.20386"><ele>396.7142857142857</ele><time>2026-03-28T12:25:16.187Z</time></trkpt><trkpt lat="43.3288428" lon="12.2039761"><ele>399.42857142857144</ele><time>2026-03-28T12:25:20.192Z</time></trkpt><trkpt lat="43.3287963" lon="12.2040394"><ele>402.1428571428571</ele><time>2026-03-28T12:25:24.185Z</time></trkpt><trkpt lat="43.3287229" lon="12.2040532"><ele>404.8571428571429</ele><time>2026-03-28T12:25:29.184Z</time></trkpt><trkpt lat="43.3286574" lon="12.2040744"><ele>407.57142857142856</ele><time>2026-03-28T12:25:32.179Z</time></trkpt><trkpt lat="43.3286163" lon="12.204144"><ele>410.2857142857143</ele><time>2026-03-28T12:25:38.186Z</time></trkpt><trkpt lat="43.3286312" lon="12.2042336"><ele>413.0</ele><time>2026-03-28T12:25:41.194Z</time></trkpt><trkpt lat="43.3286724" lon="12.2043124"><ele>412.99999999999994</ele><time>2026-03-28T12:25:44.185Z</time></trkpt><trkpt lat="43.3287246" lon="12.204406"><ele>413.0</ele><time>2026-03-28T12:25:47.206Z</time></trkpt><trkpt lat="43.3287779" lon="12.2044615"><ele>413.0</ele><time>2026-03-28T12:25:49.181Z</time></trkpt><trkpt lat="43.3288117" lon="12.2045724"><ele>413.0</ele><time>2026-03-28T12:25:52.183Z</time></trkpt><trkpt lat="43.328819" lon="12.2046843"><ele>412.99999999999994</ele><time>2026-03-28T12:25:54.179Z</time></trkpt><trkpt lat="43.3288417" lon="12.2048042"><ele>413.0</ele><time>2026-03-28T12:25:57.19Z</time></trkpt><trkpt lat="43.3288853" lon="12.2048694"><ele>406.79999999999995</ele><time>2026-03-28T12:26:00.177Z</time></trkpt><trkpt lat="43.3289196" lon="12.2049994"><ele>400.6</ele><time>2026-03-28T12:26:07.183Z</time></trkpt><trkpt lat="43.3289483" lon="12.2051376"><ele>394.4</ele><time>2026-03-28T12:26:09.184Z</time></trkpt><trkpt lat="43.3289609" lon="12.2052519"><ele>388.20000000000005</ele><time>2026-03-28T12:26:11.179Z</time></trkpt><trkpt lat="43.3289706" lon="12.205375"><ele>382.0</ele><time>2026-03-28T12:26:13.187Z</time></trkpt><trkpt lat="43.3289887" lon="12.2054885"><ele>382.0</ele><time>2026-03-28T12:26:15.191Z</time></trkpt><trkpt lat="43.3290106" lon="12.2055908"><ele>382.0</ele><time>2026-03-28T12:26:17.207Z</time></trkpt><trkpt lat="43.3290208" lon="12.2056957"><ele>382.0</ele><time>2026-03-28T12:26:19.195Z</time></trkpt><trkpt lat="43.3290504" lon="12.205789"><ele>382.0</ele><time>2026-03-28T12:26:21.199Z</time></trkpt><trkpt lat="43.3290976" lon="12.2058705"><ele>382.0</ele><time>2026-03-28T12:26:23.186Z</time></trkpt><trkpt lat="43.3291554" lon="12.2059817"><ele>382.0</ele><time>2026-03-28T12:26:25.197Z</time></trkpt><trkpt lat="43.3292" lon="12.2060649"><ele>382.14285714285717</ele><time>2026-03-28T12:26:27.191Z</time></trkpt><trkpt lat="43.3292343" lon="12.2061414"><ele>382.2857142857143</ele><time>2026-03-28T12:26:29.186Z</time></trkpt><trkpt lat="43.3292719" lon="12.2062404"><ele>382.42857142857144</ele><time>2026-03-28T12:26:32.169Z</time></trkpt><trkpt lat="43.3292442" lon="12.2063203"><ele>382.57142857142856</ele><time>2026-03-28T12:29:44.184Z</time></trkpt><trkpt lat="43.3292928" lon="12.2064231"><ele>382.71428571428567</ele><time>2026-03-28T12:29:50.183Z</time></trkpt><trkpt lat="43.3293428" lon="12.2064842"><ele>382.85714285714283</ele><time>2026-03-28T12:29:53.191Z</time></trkpt><trkpt lat="43.3294003" lon="12.2065423"><ele>383.0</ele><time>2026-03-28T12:29:57.194Z</time></trkpt><trkpt lat="43.3294649" lon="12.2065828"><ele>384.1666666666667</ele><time>2026-03-28T12:30:00.191Z</time></trkpt><trkpt lat="43.3295386" lon="12.2066443"><ele>385.33333333333337</ele><time>2026-03-28T12:30:03.218Z</time></trkpt><trkpt lat="43.3296011" lon="12.2066927"><ele>386.5</ele><time>2026-03-28T12:30:06.182Z</time></trkpt><trkpt lat="43.3296602" lon="12.2067439"><ele>387.6666666666667</ele><time>2026-03-28T12:30:08.186Z</time></trkpt><trkpt lat="43.3297317" lon="12.206801"><ele>388.8333333333333</ele><time>2026-03-28T12:30:11.185Z</time></trkpt><trkpt lat="43.3297997" lon="12.2068664"><ele>390.0</ele><time>2026-03-28T12:30:13.19Z</time></trkpt><trkpt lat="43.3298679" lon="12.2069338"><ele>386.85714285714283</ele><time>2026-03-28T12:30:15.188Z</time></trkpt><trkpt lat="43.3299172" lon="12.2069905"><ele>383.71428571428567</ele><time>2026-03-28T12:30:17.187Z</time></trkpt><trkpt lat="43.3299565" lon="12.2070668"><ele>380.57142857142856</ele><time>2026-03-28T12:30:19.178Z</time></trkpt><trkpt lat="43.3299675" lon="12.2071565"><ele>377.42857142857144</ele><time>2026-03-28T12:30:21.198Z</time></trkpt><trkpt lat="43.3299823" lon="12.2072408"><ele>374.2857142857143</ele><time>2026-03-28T12:30:23.198Z</time></trkpt><trkpt lat="43.3300206" lon="12.207313"><ele>371.14285714285717</ele><time>2026-03-28T12:30:25.191Z</time></trkpt><trkpt lat="43.3300627" lon="12.2073997"><ele>368.0</ele><time>2026-03-28T12:30:27.187Z</time></trkpt><trkpt lat="43.3300772" lon="12.2075363"><ele>367.59999999999997</ele><time>2026-03-28T12:30:29.188Z</time></trkpt><trkpt lat="43.3300903" lon="12.2076775"><ele>367.2</ele><time>2026-03-28T12:30:31.181Z</time></trkpt><trkpt lat="43.3301019" lon="12.2077893"><ele>366.8</ele><time>2026-03-28T12:30:33.186Z</time></trkpt><trkpt lat="43.3301185" lon="12.2079121"><ele>366.4</ele><time>2026-03-28T12:30:35.191Z</time></trkpt><trkpt lat="43.3301419" lon="12.2080705"><ele>366.0</ele><time>2026-03-28T12:30:37.183Z</time></trkpt><trkpt lat="43.3301571" lon="12.208158"><ele>363.8333333333333</ele><time>2026-03-28T12:30:38.191Z</time></trkpt><trkpt lat="43.3302065" lon="12.2083202"><ele>361.6666666666667</ele><time>2026-03-28T12:30:40.184Z</time></trkpt><trkpt lat="43.3302348" lon="12.2084006"><ele>359.5</ele><time>2026-03-28T12:30:41.185Z</time></trkpt><trkpt lat="43.3302616" lon="12.2084879"><ele>357.33333333333337</ele><time>2026-03-28T12:30:42.2Z</time></trkpt><trkpt lat="43.330284" lon="12.2085824"><ele>355.1666666666667</ele><time>2026-03-28T12:30:43.195Z</time></trkpt><trkpt lat="43.3303055" lon="12.2086708"><ele>353.0</ele><time>2026-03-28T12:30:44.188Z</time></trkpt><trkpt lat="43.3303186" lon="12.2087768"><ele>353.0</ele><time>2026-03-28T12:30:45.188Z</time></trkpt><trkpt lat="43.3303324" lon="12.2088835"><ele>353.0</ele><time>2026-03-28T12:30:46.194Z</time></trkpt><trkpt lat="43.3303555" lon="12.208992"><ele>353.0</ele><time>2026-03-28T12:30:47.195Z</time></trkpt><trkpt lat="43.3303816" lon="12.2090911"><ele>353.0</ele><time>2026-03-28T12:30:48.19Z</time></trkpt><trkpt lat="43.3304211" lon="12.2092057"><ele>353.0</ele><time>2026-03-28T12:30:49.19Z</time></trkpt><trkpt lat="43.3304589" lon="12.2093185"><ele>353.0</ele><time>2026-03-28T12:30:50.191Z</time></trkpt><trkpt lat="43.3304921" lon="12.2094306"><ele>352.33333333333337</ele><time>2026-03-28T12:30:51.187Z</time></trkpt><trkpt lat="43.3305204" lon="12.2095344"><ele>351.6666666666667</ele><time>2026-03-28T12:30:52.192Z</time></trkpt><trkpt lat="43.3305456" lon="12.2096336"><ele>351.0</ele><time>2026-03-28T12:30:53.192Z</time></trkpt><trkpt lat="43.3305693" lon="12.209729"><ele>350.3333333333333</ele><time>2026-03-28T12:30:54.194Z</time></trkpt><trkpt lat="43.3305888" lon="12.2098174"><ele>349.66666666666663</ele><time>2026-03-28T12:30:55.207Z</time></trkpt><trkpt lat="43.3306194" lon="12.2099706"><ele>349.0</ele><time>2026-03-28T12:30:57.188Z</time></trkpt><trkpt lat="43.3306533" lon="12.2101337"><ele>347.0</ele><time>2026-03-28T12:30:59.187Z</time></trkpt><trkpt lat="43.3306936" lon="12.2102817"><ele>345.0</ele><time>2026-03-28T12:31:01.191Z</time></trkpt><trkpt lat="43.3307588" lon="12.2103974"><ele>343.0</ele><time>2026-03-28T12:31:03.196Z</time></trkpt><trkpt lat="43.3308482" lon="12.2104659"><ele>341.0</ele><time>2026-03-28T12:31:05.189Z</time></trkpt><trkpt lat="43.3309477" lon="12.2105039"><ele>339.0</ele><time>2026-03-28T12:31:07.195Z</time></trkpt><trkpt lat="43.3310349" lon="12.2105594"><ele>339.0</ele><time>2026-03-28T12:31:09.18Z</time></trkpt><trkpt lat="43.3311266" lon="12.2105727"><ele>339.0</ele><time>2026-03-28T12:31:11.182Z</time></trkpt><trkpt lat="43.3311948" lon="12.2105671"><ele>339.0</ele><time>2026-03-28T12:31:12.17Z</time></trkpt><trkpt lat="43.3312606" lon="12.2105536"><ele>339.0</ele><time>2026-03-28T12:31:13.165Z</time></trkpt><trkpt lat="43.3313215" lon="12.2105314"><ele>339.0</ele><time>2026-03-28T12:31:14.195Z</time></trkpt><trkpt lat="43.3313904" lon="12.21051"><ele>339.0</ele><time>2026-03-28T12:31:15.19Z</time></trkpt><trkpt lat="43.3314868" lon="12.2104967"><ele>336.79999999999995</ele><time>2026-03-28T12:31:16.187Z</time></trkpt><trkpt lat="43.3315912" lon="12.2104807"><ele>334.59999999999997</ele><time>2026-03-28T12:31:17.187Z</time></trkpt><trkpt lat="43.33169" lon="12.210463"><ele>332.4</ele><time>2026-03-28T12:31:18.182Z</time></trkpt><trkpt lat="43.3317769" lon="12.2104334"><ele>330.2</ele><time>2026-03-28T12:31:19.179Z</time></trkpt><trkpt lat="43.3318611" lon="12.2103857"><ele>328.0</ele><time>2026-03-28T12:31:20.185Z</time></trkpt><trkpt lat="43.3319443" lon="12.210336"><ele>328.0</ele><time>2026-03-28T12:31:21.182Z</time></trkpt><trkpt lat="43.3320163" lon="12.2102995"><ele>328.0</ele><time>2026-03-28T12:31:22.189Z</time></trkpt><trkpt lat="43.332082" lon="12.2102669"><ele>328.0</ele><time>2026-03-28T12:31:23.184Z</time></trkpt><trkpt lat="43.3321468" lon="12.2102605"><ele>328.0</ele><time>2026-03-28T12:31:24.183Z</time></trkpt><trkpt lat="43.3322139" lon="12.2102903"><ele>328.0</ele><time>2026-03-28T12:31:25.187Z</time></trkpt><trkpt lat="43.3322927" lon="12.2103695"><ele>328.0</ele><time>2026-03-28T12:31:26.189Z</time></trkpt><trkpt lat="43.332361" lon="12.2104381"><ele>326.16666666666663</ele><time>2026-03-28T12:31:27.19Z</time></trkpt><trkpt lat="43.3324207" lon="12.2105009"><ele>324.3333333333333</ele><time>2026-03-28T12:31:28.192Z</time></trkpt><trkpt lat="43.332475" lon="12.2105533"><ele>322.5</ele><time>2026-03-28T12:31:29.191Z</time></trkpt><trkpt lat="43.3325392" lon="12.2105956"><ele>320.6666666666667</ele><time>2026-03-28T12:31:30.19Z</time></trkpt><trkpt lat="43.3326061" lon="12.210617"><ele>318.83333333333337</ele><time>2026-03-28T12:31:31.197Z</time></trkpt><trkpt lat="43.3326865" lon="12.2106341"><ele>317.0</ele><time>2026-03-28T12:31:32.189Z</time></trkpt><trkpt lat="43.3327755" lon="12.210607"><ele>317.0</ele><time>2026-03-28T12:31:33.179Z</time></trkpt><trkpt lat="43.3328581" lon="12.2105624"><ele>317.0</ele><time>2026-03-28T12:31:34.188Z</time></trkpt><trkpt lat="43.3329338" lon="12.210539"><ele>317.0</ele><time>2026-03-28T12:31:35.191Z</time></trkpt><trkpt lat="43.3330091" lon="12.2105103"><ele>317.0</ele><time>2026-03-28T12:31:36.186Z</time></trkpt><trkpt lat="43.3330934" lon="12.2105148"><ele>317.0</ele><time>2026-03-28T12:31:37.193Z</time></trkpt><trkpt lat="43.333194" lon="12.2105337"><ele>317.0</ele><time>2026-03-28T12:31:38.191Z</time></trkpt><trkpt lat="43.3333031" lon="12.2105549"><ele>313.4</ele><time>2026-03-28T12:31:39.193Z</time></trkpt><trkpt lat="43.3334177" lon="12.210579"><ele>309.79999999999995</ele><time>2026-03-28T12:31:40.197Z</time></trkpt><trkpt lat="43.3335317" lon="12.2106007"><ele>306.2</ele><time>2026-03-28T12:31:41.185Z</time></trkpt><trkpt lat="43.3336322" lon="12.2106197"><ele>302.59999999999997</ele><time>2026-03-28T12:31:42.188Z</time></trkpt><trkpt lat="43.333714" lon="12.2106227"><ele>299.0</ele><time>2026-03-28T12:31:43.179Z</time></trkpt><trkpt lat="43.3337908" lon="12.2106213"><ele>299.0</ele><time>2026-03-28T12:31:44.186Z</time></trkpt><trkpt lat="43.3338547" lon="12.2105911"><ele>299.0</ele><time>2026-03-28T12:31:45.188Z</time></trkpt><trkpt lat="43.3339587" lon="12.210527"><ele>299.0</ele><time>2026-03-28T12:31:47.185Z</time></trkpt><trkpt lat="43.3340641" lon="12.2104591"><ele>299.0</ele><time>2026-03-28T12:31:49.208Z</time></trkpt><trkpt lat="43.3341282" lon="12.2104287"><ele>299.0</ele><time>2026-03-28T12:31:50.185Z</time></trkpt><trkpt lat="43.3342487" lon="12.2103991"><ele>297.0</ele><time>2026-03-28T12:31:52.19Z</time></trkpt><trkpt lat="43.3343495" lon="12.2103824"><ele>295.0</ele><time>2026-03-28T12:31:54.187Z</time></trkpt><trkpt lat="43.3344439" lon="12.2103801"><ele>293.0</ele><time>2026-03-28T12:31:56.184Z</time></trkpt><trkpt lat="43.3345184" lon="12.2104163"><ele>291.0</ele><time>2026-03-28T12:31:58.184Z</time></trkpt><trkpt lat="43.3345806" lon="12.2105259"><ele>289.0</ele><time>2026-03-28T12:32:00.185Z</time></trkpt><trkpt lat="43.3346181" lon="12.2106292"><ele>289.3333333333333</ele><time>2026-03-28T12:32:02.192Z</time></trkpt><trkpt lat="43.3346312" lon="12.2107177"><ele>289.66666666666663</ele><time>2026-03-28T12:32:04.193Z</time></trkpt><trkpt lat="43.3346537" lon="12.2108226"><ele>290.0</ele><time>2026-03-28T12:32:07.192Z</time></trkpt><trkpt lat="43.3346632" lon="12.2109117"><ele>290.3333333333333</ele><time>2026-03-28T12:32:09.193Z</time></trkpt><trkpt lat="43.3346641" lon="12.21103"><ele>290.6666666666667</ele><time>2026-03-28T12:32:11.182Z</time></trkpt><trkpt lat="43.3346844" lon="12.2111657"><ele>291.0</ele><time>2026-03-28T12:32:13.189Z</time></trkpt><trkpt lat="43.3347027" lon="12.2113213"><ele>291.0</ele><time>2026-03-28T12:32:15.194Z</time></trkpt><trkpt lat="43.334719" lon="12.2114804"><ele>291.0</ele><time>2026-03-28T12:32:17.189Z</time></trkpt><trkpt lat="43.3347345" lon="12.211623"><ele>291.0</ele><time>2026-03-28T12:32:19.189Z</time></trkpt><trkpt lat="43.3347743" lon="12.2117174"><ele>291.0</ele><time>2026-03-28T12:32:21.19Z</time></trkpt><trkpt lat="43.3348621" lon="12.2117386"><ele>291.0</ele><time>2026-03-28T12:32:23.193Z</time></trkpt><trkpt lat="43.3349383" lon="12.2117219"><ele>289.0</ele><time>2026-03-28T12:32:24.194Z</time></trkpt><trkpt lat="43.3350211" lon="12.2117041"><ele>287.0</ele><time>2026-03-28T12:32:25.192Z</time></trkpt><trkpt lat="43.3351072" lon="12.2116871"><ele>285.0</ele><time>2026-03-28T12:32:26.193Z</time></trkpt><trkpt lat="43.3351913" lon="12.2116752"><ele>283.0</ele><time>2026-03-28T12:32:27.205Z</time></trkpt><trkpt lat="43.3352706" lon="12.2116657"><ele>281.0</ele><time>2026-03-28T12:32:28.191Z</time></trkpt><trkpt lat="43.3353581" lon="12.2116575"><ele>279.0</ele><time>2026-03-28T12:32:29.188Z</time></trkpt><trkpt lat="43.3354498" lon="12.2116525"><ele>279.0</ele><time>2026-03-28T12:32:30.194Z</time></trkpt><trkpt lat="43.3355469" lon="12.2116541"><ele>279.0</ele><time>2026-03-28T12:32:31.185Z</time></trkpt><trkpt lat="43.3356381" lon="12.2116717"><ele>279.0</ele><time>2026-03-28T12:32:32.189Z</time></trkpt><trkpt lat="43.3357234" lon="12.2116917"><ele>279.0</ele><time>2026-03-28T12:32:33.2Z</time></trkpt><trkpt lat="43.3358017" lon="12.2117018"><ele>279.0</ele><time>2026-03-28T12:32:34.173Z</time></trkpt><trkpt lat="43.3358731" lon="12.2117003"><ele>279.0</ele><time>2026-03-28T12:32:35.188Z</time></trkpt><trkpt lat="43.3359415" lon="12.2116987"><ele>278.3333333333333</ele><time>2026-03-28T12:32:36.171Z</time></trkpt><trkpt lat="43.3360546" lon="12.2116985"><ele>277.6666666666667</ele><time>2026-03-28T12:32:38.169Z</time></trkpt><trkpt lat="43.3361609" lon="12.2117208"><ele>277.0</ele><time>2026-03-28T12:32:40.179Z</time></trkpt><trkpt lat="43.3362222" lon="12.211759"><ele>276.33333333333337</ele><time>2026-03-28T12:32:41.174Z</time></trkpt><trkpt lat="43.3362824" lon="12.2118155"><ele>275.6666666666667</ele><time>2026-03-28T12:32:42.173Z</time></trkpt><trkpt lat="43.3363393" lon="12.2118833"><ele>275.0</ele><time>2026-03-28T12:32:43.17Z</time></trkpt><trkpt lat="43.3363958" lon="12.2119491"><ele>275.0</ele><time>2026-03-28T12:32:44.17Z</time></trkpt><trkpt lat="43.3364571" lon="12.2120237"><ele>275.0</ele><time>2026-03-28T12:32:45.168Z</time></trkpt><trkpt lat="43.3365181" lon="12.212097"><ele>275.0</ele><time>2026-03-28T12:32:46.182Z</time></trkpt><trkpt lat="43.3365707" lon="12.2121627"><ele>275.0</ele><time>2026-03-28T12:32:47.171Z</time></trkpt><trkpt lat="43.3366443" lon="12.2122459"><ele>275.0</ele><time>2026-03-28T12:32:49.17Z</time></trkpt><trkpt lat="43.336715" lon="12.2122585"><ele>275.0</ele><time>2026-03-28T12:33:12.162Z</time></trkpt><trkpt lat="43.3368211" lon="12.2121937"><ele>275.0</ele><time>2026-03-28T12:33:15.181Z</time></trkpt><trkpt lat="43.336885" lon="12.2121548"><ele>275.0</ele><time>2026-03-28T12:33:16.172Z</time></trkpt><trkpt lat="43.3369566" lon="12.2121013"><ele>275.0</ele><time>2026-03-28T12:33:17.175Z</time></trkpt><trkpt lat="43.3370424" lon="12.2120366"><ele>275.0</ele><time>2026-03-28T12:33:18.172Z</time></trkpt><trkpt lat="43.3371309" lon="12.21198"><ele>275.0</ele><time>2026-03-28T12:33:19.174Z</time></trkpt><trkpt lat="43.3372143" lon="12.2119408"><ele>275.0</ele><time>2026-03-28T12:33:20.175Z</time></trkpt><trkpt lat="43.3372883" lon="12.2119053"><ele>275.5</ele><time>2026-03-28T12:33:21.169Z</time></trkpt><trkpt lat="43.3373606" lon="12.2118674"><ele>276.0</ele><time>2026-03-28T12:33:22.179Z</time></trkpt><trkpt lat="43.3374219" lon="12.2117879"><ele>276.5</ele><time>2026-03-28T12:33:23.172Z</time></trkpt><trkpt lat="43.3374855" lon="12.2117014"><ele>277.0</ele><time>2026-03-28T12:33:24.169Z</time></trkpt><trkpt lat="43.3375479" lon="12.2116117"><ele>277.5</ele><time>2026-03-28T12:33:25.17Z</time></trkpt><trkpt lat="43.3376059" lon="12.2115192"><ele>278.0</ele><time>2026-03-28T12:33:26.174Z</time></trkpt><trkpt lat="43.3376519" lon="12.2114363"><ele>279.1666666666667</ele><time>2026-03-28T12:33:27.166Z</time></trkpt><trkpt lat="43.3377231" lon="12.2113344"><ele>280.33333333333337</ele><time>2026-03-28T12:33:29.181Z</time></trkpt><trkpt lat="43.3377601" lon="12.2112421"><ele>281.5</ele><time>2026-03-28T12:34:17.16Z</time></trkpt><trkpt lat="43.3377377" lon="12.21111"><ele>282.6666666666667</ele><time>2026-03-28T12:34:19.193Z</time></trkpt><trkpt lat="43.3377059" lon="12.2110314"><ele>283.8333333333333</ele><time>2026-03-28T12:34:20.182Z</time></trkpt><trkpt lat="43.3376668" lon="12.2109417"><ele>285.0</ele><time>2026-03-28T12:34:21.202Z</time></trkpt><trkpt lat="43.337624" lon="12.2108395"><ele>285.0</ele><time>2026-03-28T12:34:22.186Z</time></trkpt><trkpt lat="43.3375786" lon="12.2107276"><ele>285.0</ele><time>2026-03-28T12:34:23.178Z</time></trkpt><trkpt lat="43.33753" lon="12.210608"><ele>285.0</ele><time>2026-03-28T12:34:24.184Z</time></trkpt><trkpt lat="43.3374811" lon="12.2104808"><ele>285.0</ele><time>2026-03-28T12:34:25.189Z</time></trkpt><trkpt lat="43.3374336" lon="12.2103485"><ele>285.0</ele><time>2026-03-28T12:34:26.192Z</time></trkpt><trkpt lat="43.3373831" lon="12.2102189"><ele>284.4</ele><time>2026-03-28T12:34:27.198Z</time></trkpt><trkpt lat="43.3373328" lon="12.2100859"><ele>283.8</ele><time>2026-03-28T12:34:28.189Z</time></trkpt><trkpt lat="43.3372812" lon="12.2099506"><ele>283.2</ele><time>2026-03-28T12:34:29.196Z</time></trkpt><trkpt lat="43.3372281" lon="12.209815"><ele>282.6</ele><time>2026-03-28T12:34:30.189Z</time></trkpt><trkpt lat="43.3371748" lon="12.209675"><ele>282.0</ele><time>2026-03-28T12:34:31.171Z</time></trkpt><trkpt lat="43.337119" lon="12.2095345"><ele>282.0</ele><time>2026-03-28T12:34:32.173Z</time></trkpt><trkpt lat="43.3370611" lon="12.209395"><ele>282.0</ele><time>2026-03-28T12:34:33.166Z</time></trkpt><trkpt lat="43.3370029" lon="12.2092535"><ele>282.0</ele><time>2026-03-28T12:34:34.158Z</time></trkpt><trkpt lat="43.3369459" lon="12.2091136"><ele>282.0</ele><time>2026-03-28T12:34:35.187Z</time></trkpt><trkpt lat="43.336889" lon="12.2089718"><ele>283.75</ele><time>2026-03-28T12:34:36.17Z</time></trkpt><trkpt lat="43.3368313" lon="12.208829"><ele>285.5</ele><time>2026-03-28T12:34:37.171Z</time></trkpt><trkpt lat="43.3367693" lon="12.2086777"><ele>287.25</ele><time>2026-03-28T12:34:38.196Z</time></trkpt><trkpt lat="43.3367101" lon="12.2085323"><ele>289.0</ele><time>2026-03-28T12:34:39.186Z</time></trkpt><trkpt lat="43.3366505" lon="12.2083863"><ele>289.0</ele><time>2026-03-28T12:34:40.184Z</time></trkpt><trkpt lat="43.3365931" lon="12.2082383"><ele>289.0</ele><time>2026-03-28T12:34:41.167Z</time></trkpt><trkpt lat="43.3365359" lon="12.2080906"><ele>289.0</ele><time>2026-03-28T12:34:42.189Z</time></trkpt><trkpt lat="43.3364736" lon="12.207939"><ele>289.0</ele><time>2026-03-28T12:34:43.193Z</time></trkpt><trkpt lat="43.3364071" lon="12.2077907"><ele>287.75</ele><time>2026-03-28T12:34:44.194Z</time></trkpt><trkpt lat="43.3363398" lon="12.2076437"><ele>286.5</ele><time>2026-03-28T12:34:45.171Z</time></trkpt><trkpt lat="43.3362727" lon="12.207496"><ele>285.25</ele><time>2026-03-28T12:34:46.164Z</time></trkpt><trkpt lat="43.3362017" lon="12.2073443"><ele>284.0</ele><time>2026-03-28T12:34:47.183Z</time></trkpt><trkpt lat="43.3361282" lon="12.207187"><ele>284.0</ele><time>2026-03-28T12:34:48.172Z</time></trkpt><trkpt lat="43.3360499" lon="12.2070301"><ele>284.0</ele><time>2026-03-28T12:34:49.19Z</time></trkpt><trkpt lat="43.3359658" lon="12.2068762"><ele>284.0</ele><time>2026-03-28T12:34:50.174Z</time></trkpt><trkpt lat="43.3358779" lon="12.2067218"><ele>284.0</ele><time>2026-03-28T12:34:51.178Z</time></trkpt><trkpt lat="43.335787" lon="12.206567"><ele>283.0</ele><time>2026-03-28T12:34:52.165Z</time></trkpt><trkpt lat="43.3356939" lon="12.2064205"><ele>282.0</ele><time>2026-03-28T12:34:53.17Z</time></trkpt><trkpt lat="43.3355997" lon="12.2062779"><ele>281.0</ele><time>2026-03-28T12:34:54.171Z</time></trkpt><trkpt lat="43.3355066" lon="12.2061367"><ele>280.0</ele><time>2026-03-28T12:34:55.175Z</time></trkpt><trkpt lat="43.3354231" lon="12.2059889"><ele>280.0</ele><time>2026-03-28T12:34:56.183Z</time></trkpt><trkpt lat="43.3353568" lon="12.2058352"><ele>280.0</ele><time>2026-03-28T12:34:57.171Z</time></trkpt><trkpt lat="43.3353153" lon="12.2056729"><ele>280.0</ele><time>2026-03-28T12:34:58.171Z</time></trkpt><trkpt lat="43.3353007" lon="12.205507"><ele>280.0</ele><time>2026-03-28T12:34:59.176Z</time></trkpt><trkpt lat="43.3353061" lon="12.2053418"><ele>280.0</ele><time>2026-03-28T12:35:00.166Z</time></trkpt><trkpt lat="43.3353295" lon="12.2051793"><ele>280.0</ele><time>2026-03-28T12:35:01.173Z</time></trkpt><trkpt lat="43.335364" lon="12.2050174"><ele>280.0</ele><time>2026-03-28T12:35:02.169Z</time></trkpt><trkpt lat="43.3354028" lon="12.2048547"><ele>280.0</ele><time>2026-03-28T12:35:03.187Z</time></trkpt><trkpt lat="43.3354451" lon="12.2046912"><ele>279.25</ele><time>2026-03-28T12:35:04.171Z</time></trkpt><trkpt lat="43.3354875" lon="12.2045219"><ele>278.5</ele><time>2026-03-28T12:35:05.174Z</time></trkpt><trkpt lat="43.3355299" lon="12.2043432"><ele>277.75</ele><time>2026-03-28T12:35:06.178Z</time></trkpt><trkpt lat="43.3355741" lon="12.2041588"><ele>277.0</ele><time>2026-03-28T12:35:07.181Z</time></trkpt><trkpt lat="43.3356245" lon="12.2039714"><ele>281.66666666666663</ele><time>2026-03-28T12:35:08.177Z</time></trkpt><trkpt lat="43.335682" lon="12.2037835"><ele>286.3333333333333</ele><time>2026-03-28T12:35:09.176Z</time></trkpt><trkpt lat="43.3357411" lon="12.2035925"><ele>291.0</ele><time>2026-03-28T12:35:10.173Z</time></trkpt><trkpt lat="43.3357968" lon="12.2033954"><ele>291.0</ele><time>2026-03-28T12:35:11.175Z</time></trkpt><trkpt lat="43.3358462" lon="12.2031924"><ele>291.0</ele><time>2026-03-28T12:35:12.178Z</time></trkpt><trkpt lat="43.3358858" lon="12.2029847"><ele>291.0</ele><time>2026-03-28T12:35:13.171Z</time></trkpt><trkpt lat="43.3359193" lon="12.2027751"><ele>289.6666666666667</ele><time>2026-03-28T12:35:14.177Z</time></trkpt><trkpt lat="43.3359501" lon="12.2025643"><ele>288.33333333333337</ele><time>2026-03-28T12:35:15.172Z</time></trkpt><trkpt lat="43.3359793" lon="12.2023551"><ele>287.0</ele><time>2026-03-28T12:35:16.174Z</time></trkpt><trkpt lat="43.3360061" lon="12.2021474"><ele>286.33333333333337</ele><time>2026-03-28T12:35:17.171Z</time></trkpt><trkpt lat="43.336024" lon="12.2019413"><ele>285.6666666666667</ele><time>2026-03-28T12:35:18.174Z</time></trkpt><trkpt lat="43.3360243" lon="12.2017317"><ele>285.0</ele><time>2026-03-28T12:35:19.171Z</time></trkpt><trkpt lat="43.3360068" lon="12.201532"><ele>286.25</ele><time>2026-03-28T12:35:20.162Z</time></trkpt><trkpt lat="43.3359675" lon="12.2013412"><ele>287.5</ele><time>2026-03-28T12:35:21.166Z</time></trkpt><trkpt lat="43.3359176" lon="12.2011553"><ele>288.75</ele><time>2026-03-28T12:35:22.164Z</time></trkpt><trkpt lat="43.3358641" lon="12.2009701"><ele>290.0</ele><time>2026-03-28T12:35:23.175Z</time></trkpt><trkpt lat="43.3358085" lon="12.2007851"><ele>291.5</ele><time>2026-03-28T12:35:24.181Z</time></trkpt><trkpt lat="43.3357559" lon="12.2005996"><ele>293.0</ele><time>2026-03-28T12:35:25.163Z</time></trkpt><trkpt lat="43.3357094" lon="12.20041"><ele>294.5</ele><time>2026-03-28T12:35:26.172Z</time></trkpt><trkpt lat="43.3356747" lon="12.2002154"><ele>296.0</ele><time>2026-03-28T12:35:27.169Z</time></trkpt><trkpt lat="43.3356542" lon="12.2000177"><ele>295.25</ele><time>2026-03-28T12:35:28.181Z</time></trkpt><trkpt lat="43.3356434" lon="12.1998257"><ele>294.5</ele><time>2026-03-28T12:35:29.171Z</time></trkpt><trkpt lat="43.3356362" lon="12.1996389"><ele>293.75</ele><time>2026-03-28T12:35:30.175Z</time></trkpt><trkpt lat="43.3356302" lon="12.1994629"><ele>293.0</ele><time>2026-03-28T12:35:31.17Z</time></trkpt><trkpt lat="43.3356236" lon="12.1993007"><ele>293.0</ele><time>2026-03-28T12:35:32.173Z</time></trkpt><trkpt lat="43.3356153" lon="12.1991625"><ele>293.0</ele><time>2026-03-28T12:35:33.167Z</time></trkpt><trkpt lat="43.3356081" lon="12.199046"><ele>293.0</ele><time>2026-03-28T12:35:34.182Z</time></trkpt><trkpt lat="43.335604" lon="12.198952"><ele>293.0</ele><time>2026-03-28T12:35:35.173Z</time></trkpt><trkpt lat="43.3355801" lon="12.1988396"><ele>293.0</ele><time>2026-03-28T12:35:37.172Z</time></trkpt><trkpt lat="43.3355125" lon="12.198816"><ele>293.0</ele><time>2026-03-28T12:35:39.172Z</time></trkpt><trkpt lat="43.3354505" lon="12.1988428"><ele>290.5</ele><time>2026-03-28T12:35:40.17Z</time></trkpt><trkpt lat="43.3353672" lon="12.1988722"><ele>288.0</ele><time>2026-03-28T12:35:41.17Z</time></trkpt><trkpt lat="43.33528" lon="12.1989032"><ele>285.5</ele><time>2026-03-28T12:35:42.181Z</time></trkpt><trkpt lat="43.3351918" lon="12.1989221"><ele>283.0</ele><time>2026-03-28T12:35:43.181Z</time></trkpt><trkpt lat="43.3351104" lon="12.1989362"><ele>280.5</ele><time>2026-03-28T12:35:44.173Z</time></trkpt><trkpt lat="43.3350332" lon="12.1989446"><ele>278.0</ele><time>2026-03-28T12:35:45.174Z</time></trkpt><trkpt lat="43.3349647" lon="12.1989394"><ele>278.0</ele><time>2026-03-28T12:35:46.177Z</time></trkpt><trkpt lat="43.3348879" lon="12.198924"><ele>278.0</ele><time>2026-03-28T12:35:48.173Z</time></trkpt><trkpt lat="43.3348113" lon="12.1988908"><ele>278.0</ele><time>2026-03-28T12:35:51.17Z</time></trkpt><trkpt lat="43.3347387" lon="12.1988471"><ele>278.0</ele><time>2026-03-28T12:35:58.17Z</time></trkpt><trkpt lat="43.3346528" lon="12.1988436"><ele>278.0</ele><time>2026-03-28T12:36:01.173Z</time></trkpt><trkpt lat="43.3345483" lon="12.1988445"><ele>278.0</ele><time>2026-03-28T12:36:03.171Z</time></trkpt><trkpt lat="43.3344654" lon="12.1988536"><ele>278.0</ele><time>2026-03-28T12:36:11.174Z</time></trkpt><trkpt lat="43.33437" lon="12.1988908"><ele>278.0</ele><time>2026-03-28T12:36:13.174Z</time></trkpt><trkpt lat="43.3342996" lon="12.1989177"><ele>278.0</ele><time>2026-03-28T12:36:14.177Z</time></trkpt><trkpt lat="43.3342227" lon="12.1989483"><ele>278.0</ele><time>2026-03-28T12:36:15.177Z</time></trkpt><trkpt lat="43.3341424" lon="12.1989803"><ele>278.0</ele><time>2026-03-28T12:36:16.181Z</time></trkpt><trkpt lat="43.3340563" lon="12.1990123"><ele>278.0</ele><time>2026-03-28T12:36:17.179Z</time></trkpt><trkpt lat="43.3339643" lon="12.1990464"><ele>279.8</ele><time>2026-03-28T12:36:18.174Z</time></trkpt><trkpt lat="43.3338666" lon="12.1990834"><ele>281.6</ele><time>2026-03-28T12:36:19.177Z</time></trkpt><trkpt lat="43.3337688" lon="12.1991225"><ele>283.4</ele><time>2026-03-28T12:36:20.173Z</time></trkpt><trkpt lat="43.333674" lon="12.1991646"><ele>285.2</ele><time>2026-03-28T12:36:21.182Z</time></trkpt><trkpt lat="43.3335827" lon="12.199207"><ele>287.0</ele><time>2026-03-28T12:36:22.177Z</time></trkpt><trkpt lat="43.3334923" lon="12.1992361"><ele>287.0</ele><time>2026-03-28T12:36:23.179Z</time></trkpt><trkpt lat="43.3334017" lon="12.1992471"><ele>287.0</ele><time>2026-03-28T12:36:24.17Z</time></trkpt><trkpt lat="43.3333096" lon="12.1992413"><ele>287.0</ele><time>2026-03-28T12:36:25.176Z</time></trkpt><trkpt lat="43.3332168" lon="12.1992217"><ele>287.0</ele><time>2026-03-28T12:36:26.169Z</time></trkpt><trkpt lat="43.3331253" lon="12.1991984"><ele>287.0</ele><time>2026-03-28T12:36:27.173Z</time></trkpt><trkpt lat="43.3330346" lon="12.1991763"><ele>286.8</ele><time>2026-03-28T12:36:28.173Z</time></trkpt><trkpt lat="43.3329493" lon="12.1991522"><ele>286.6</ele><time>2026-03-28T12:36:29.172Z</time></trkpt><trkpt lat="43.3328701" lon="12.1991254"><ele>286.40000000000003</ele><time>2026-03-28T12:36:30.193Z</time></trkpt><trkpt lat="43.3327902" lon="12.1990948"><ele>286.2</ele><time>2026-03-28T12:36:31.17Z</time></trkpt><trkpt lat="43.3327002" lon="12.1990508"><ele>286.0</ele><time>2026-03-28T12:36:32.176Z</time></trkpt><trkpt lat="43.3326052" lon="12.1989977"><ele>286.0</ele><time>2026-03-28T12:36:33.173Z</time></trkpt><trkpt lat="43.3325222" lon="12.1989392"><ele>286.0</ele><time>2026-03-28T12:36:34.174Z</time></trkpt><trkpt lat="43.3324557" lon="12.1988615"><ele>286.0</ele><time>2026-03-28T12:36:35.173Z</time></trkpt><trkpt lat="43.3323944" lon="12.1987558"><ele>286.0</ele><time>2026-03-28T12:36:36.173Z</time></trkpt><trkpt lat="43.3323289" lon="12.1986294"><ele>286.0</ele><time>2026-03-28T12:36:37.174Z</time></trkpt><trkpt lat="43.3322644" lon="12.1985086"><ele>290.0</ele><time>2026-03-28T12:36:38.172Z</time></trkpt><trkpt lat="43.3321816" lon="12.1983919"><ele>294.0</ele><time>2026-03-28T12:36:39.169Z</time></trkpt><trkpt lat="43.3321051" lon="12.19827"><ele>298.0</ele><time>2026-03-28T12:36:40.172Z</time></trkpt><trkpt lat="43.3320495" lon="12.1981297"><ele>302.0</ele><time>2026-03-28T12:36:41.165Z</time></trkpt><trkpt lat="43.3319971" lon="12.1979747"><ele>302.1666666666667</ele><time>2026-03-28T12:36:42.177Z</time></trkpt><trkpt lat="43.3319612" lon="12.1978301"><ele>302.33333333333337</ele><time>2026-03-28T12:36:43.17Z</time></trkpt><trkpt lat="43.3319329" lon="12.1977031"><ele>302.5</ele><time>2026-03-28T12:36:44.175Z</time></trkpt><trkpt lat="43.3319197" lon="12.197591"><ele>302.6666666666667</ele><time>2026-03-28T12:36:45.176Z</time></trkpt><trkpt lat="43.3319295" lon="12.197491"><ele>302.8333333333333</ele><time>2026-03-28T12:36:46.178Z</time></trkpt><trkpt lat="43.3319693" lon="12.1974079"><ele>303.0</ele><time>2026-03-28T12:36:47.167Z</time></trkpt><trkpt lat="43.3320195" lon="12.1973291"><ele>302.2</ele><time>2026-03-28T12:36:48.17Z</time></trkpt><trkpt lat="43.3321114" lon="12.1972845"><ele>301.4</ele><time>2026-03-28T12:36:49.171Z</time></trkpt><trkpt lat="43.3322119" lon="12.1972625"><ele>300.59999999999997</ele><time>2026-03-28T12:36:50.176Z</time></trkpt><trkpt lat="43.3323035" lon="12.1972446"><ele>299.8</ele><time>2026-03-28T12:36:51.183Z</time></trkpt><trkpt lat="43.3323913" lon="12.1972275"><ele>299.0</ele><time>2026-03-28T12:36:52.174Z</time></trkpt><trkpt lat="43.3324707" lon="12.1972008"><ele>299.0</ele><time>2026-03-28T12:36:53.176Z</time></trkpt><trkpt lat="43.3325405" lon="12.1971511"><ele>299.0</ele><time>2026-03-28T12:36:54.176Z</time></trkpt><trkpt lat="43.3326008" lon="12.197098"><ele>299.0</ele><time>2026-03-28T12:36:55.175Z</time></trkpt><trkpt lat="43.3326612" lon="12.1969788"><ele>299.0</ele><time>2026-03-28T12:36:56.174Z</time></trkpt><trkpt lat="43.332706" lon="12.1968373"><ele>299.0</ele><time>2026-03-28T12:36:57.175Z</time></trkpt><trkpt lat="43.332736" lon="12.1966636"><ele>300.5</ele><time>2026-03-28T12:36:58.171Z</time></trkpt><trkpt lat="43.3327576" lon="12.1964742"><ele>302.0</ele><time>2026-03-28T12:36:59.173Z</time></trkpt><trkpt lat="43.3327669" lon="12.196285"><ele>303.5</ele><time>2026-03-28T12:37:00.171Z</time></trkpt><trkpt lat="43.3327728" lon="12.1960891"><ele>305.0</ele><time>2026-03-28T12:37:01.176Z</time></trkpt><trkpt lat="43.3327734" lon="12.195895"><ele>305.0</ele><time>2026-03-28T12:37:02.169Z</time></trkpt><trkpt lat="43.3327703" lon="12.1957118"><ele>305.0</ele><time>2026-03-28T12:37:03.168Z</time></trkpt><trkpt lat="43.3327678" lon="12.1955408"><ele>305.0</ele><time>2026-03-28T12:37:04.177Z</time></trkpt><trkpt lat="43.3327567" lon="12.1953747"><ele>305.0</ele><time>2026-03-28T12:37:05.166Z</time></trkpt><trkpt lat="43.3327308" lon="12.1951981"><ele>304.5</ele><time>2026-03-28T12:37:06.175Z</time></trkpt><trkpt lat="43.332701" lon="12.1950127"><ele>304.0</ele><time>2026-03-28T12:37:07.166Z</time></trkpt><trkpt lat="43.3326759" lon="12.1948271"><ele>303.5</ele><time>2026-03-28T12:37:08.175Z</time></trkpt><trkpt lat="43.332671" lon="12.194624"><ele>303.0</ele><time>2026-03-28T12:37:09.174Z</time></trkpt><trkpt lat="43.332669" lon="12.1944176"><ele>301.25</ele><time>2026-03-28T12:37:10.174Z</time></trkpt><trkpt lat="43.3326597" lon="12.1942095"><ele>299.5</ele><time>2026-03-28T12:37:11.181Z</time></trkpt><trkpt lat="43.3326398" lon="12.1940109"><ele>297.75</ele><time>2026-03-28T12:37:12.184Z</time></trkpt><trkpt lat="43.3326162" lon="12.1938322"><ele>296.0</ele><time>2026-03-28T12:37:13.175Z</time></trkpt><trkpt lat="43.3325872" lon="12.1936741"><ele>294.33333333333337</ele><time>2026-03-28T12:37:14.171Z</time></trkpt><trkpt lat="43.3325461" lon="12.1935414"><ele>292.6666666666667</ele><time>2026-03-28T12:37:15.18Z</time></trkpt><trkpt lat="43.3324912" lon="12.1934426"><ele>291.0</ele><time>2026-03-28T12:37:16.181Z</time></trkpt><trkpt lat="43.3324325" lon="12.1933721"><ele>289.3333333333333</ele><time>2026-03-28T12:37:17.174Z</time></trkpt><trkpt lat="43.3323632" lon="12.1933191"><ele>287.66666666666663</ele><time>2026-03-28T12:37:18.18Z</time></trkpt><trkpt lat="43.3322959" lon="12.1932824"><ele>286.0</ele><time>2026-03-28T12:37:19.17Z</time></trkpt><trkpt lat="43.3322276" lon="12.1932505"><ele>287.3333333333333</ele><time>2026-03-28T12:37:20.171Z</time></trkpt><trkpt lat="43.3321373" lon="12.1932334"><ele>288.66666666666663</ele><time>2026-03-28T12:37:21.178Z</time></trkpt><trkpt lat="43.332032" lon="12.1932402"><ele>290.0</ele><time>2026-03-28T12:37:22.165Z</time></trkpt><trkpt lat="43.3319406" lon="12.1932212"><ele>291.3333333333333</ele><time>2026-03-28T12:37:23.178Z</time></trkpt><trkpt lat="43.3318608" lon="12.1932176"><ele>292.6666666666667</ele><time>2026-03-28T12:37:24.17Z</time></trkpt><trkpt lat="43.3317962" lon="12.1932352"><ele>294.0</ele><time>2026-03-28T12:37:25.181Z</time></trkpt><trkpt lat="43.3317429" lon="12.1932903"><ele>294.0</ele><time>2026-03-28T12:37:26.172Z</time></trkpt><trkpt lat="43.3316831" lon="12.1933803"><ele>294.0</ele><time>2026-03-28T12:37:27.175Z</time></trkpt><trkpt lat="43.3316483" lon="12.1934916"><ele>294.0</ele><time>2026-03-28T12:37:28.16Z</time></trkpt><trkpt lat="43.3315933" lon="12.1936163"><ele>294.0</ele><time>2026-03-28T12:37:29.175Z</time></trkpt><trkpt lat="43.3315128" lon="12.1937528"><ele>294.0</ele><time>2026-03-28T12:37:30.159Z</time></trkpt><trkpt lat="43.3314203" lon="12.1938758"><ele>293.25</ele><time>2026-03-28T12:37:31.173Z</time></trkpt><trkpt lat="43.3313254" lon="12.1939893"><ele>292.5</ele><time>2026-03-28T12:37:32.169Z</time></trkpt><trkpt lat="43.3312239" lon="12.1940916"><ele>291.75</ele><time>2026-03-28T12:37:33.176Z</time></trkpt><trkpt lat="43.3311291" lon="12.1941813"><ele>291.0</ele><time>2026-03-28T12:37:34.168Z</time></trkpt><trkpt lat="43.3310297" lon="12.1942552"><ele>293.40000000000003</ele><time>2026-03-28T12:37:35.167Z</time></trkpt><trkpt lat="43.330953" lon="12.1943204"><ele>295.8</ele><time>2026-03-28T12:37:36.176Z</time></trkpt><trkpt lat="43.3308728" lon="12.1943379"><ele>298.20000000000005</ele><time>2026-03-28T12:37:37.17Z</time></trkpt><trkpt lat="43.3308386" lon="12.1944552"><ele>300.6</ele><time>2026-03-28T12:37:39.186Z</time></trkpt><trkpt lat="43.3308775" lon="12.1946293"><ele>303.0</ele><time>2026-03-28T12:37:41.165Z</time></trkpt><trkpt lat="43.3309875" lon="12.1946971"><ele>303.0</ele><time>2026-03-28T12:37:43.169Z</time></trkpt><trkpt lat="43.331062" lon="12.1946617"><ele>303.0</ele><time>2026-03-28T12:37:44.165Z</time></trkpt><trkpt lat="43.3311309" lon="12.1945998"><ele>303.0</ele><time>2026-03-28T12:37:45.174Z</time></trkpt><trkpt lat="43.331212" lon="12.1945481"><ele>303.0</ele><time>2026-03-28T12:37:46.17Z</time></trkpt><trkpt lat="43.3313132" lon="12.1945385"><ele>303.0</ele><time>2026-03-28T12:37:47.174Z</time></trkpt><trkpt lat="43.3314264" lon="12.1945627"><ele>304.4</ele><time>2026-03-28T12:37:48.171Z</time></trkpt><trkpt lat="43.3315605" lon="12.1946006"><ele>305.8</ele><time>2026-03-28T12:37:49.171Z</time></trkpt><trkpt lat="43.3316821" lon="12.1946212"><ele>307.2</ele><time>2026-03-28T12:37:50.172Z</time></trkpt><trkpt lat="43.331776" lon="12.1946117"><ele>308.6</ele><time>2026-03-28T12:37:51.163Z</time></trkpt><trkpt lat="43.3318698" lon="12.1946233"><ele>310.0</ele><time>2026-03-28T12:37:52.17Z</time></trkpt><trkpt lat="43.3319479" lon="12.1946245"><ele>310.0</ele><time>2026-03-28T12:37:53.168Z</time></trkpt><trkpt lat="43.3320409" lon="12.1947325"><ele>310.0</ele><time>2026-03-28T12:37:55.163Z</time></trkpt><trkpt lat="43.3320234" lon="12.1948634"><ele>310.0</ele><time>2026-03-28T12:37:57.169Z</time></trkpt><trkpt lat="43.3319402" lon="12.1949581"><ele>310.0</ele><time>2026-03-28T12:37:59.167Z</time></trkpt><trkpt lat="43.3318577" lon="12.194977"><ele>310.0</ele><time>2026-03-28T12:38:00.166Z</time></trkpt><trkpt lat="43.3317602" lon="12.1950112"><ele>312.25</ele><time>2026-03-28T12:38:01.177Z</time></trkpt><trkpt lat="43.3316584" lon="12.1950867"><ele>314.5</ele><time>2026-03-28T12:38:02.169Z</time></trkpt><trkpt lat="43.3315336" lon="12.1951923"><ele>316.75</ele><time>2026-03-28T12:38:03.172Z</time></trkpt><trkpt lat="43.331414" lon="12.1953033"><ele>319.0</ele><time>2026-03-28T12:38:04.173Z</time></trkpt><trkpt lat="43.3312877" lon="12.1954141"><ele>319.0</ele><time>2026-03-28T12:38:05.171Z</time></trkpt><trkpt lat="43.3311656" lon="12.1955344"><ele>319.0</ele><time>2026-03-28T12:38:06.179Z</time></trkpt><trkpt lat="43.3310672" lon="12.1956167"><ele>319.0</ele><time>2026-03-28T12:38:07.18Z</time></trkpt><trkpt lat="43.3309647" lon="12.1957056"><ele>319.0</ele><time>2026-03-28T12:38:08.168Z</time></trkpt><trkpt lat="43.3308773" lon="12.195813"><ele>321.6</ele><time>2026-03-28T12:38:09.166Z</time></trkpt><trkpt lat="43.3308023" lon="12.1959328"><ele>324.2</ele><time>2026-03-28T12:38:10.172Z</time></trkpt><trkpt lat="43.330757" lon="12.1960108"><ele>326.8</ele><time>2026-03-28T12:38:11.174Z</time></trkpt><trkpt lat="43.3307061" lon="12.196085"><ele>329.40000000000003</ele><time>2026-03-28T12:38:12.172Z</time></trkpt><trkpt lat="43.3306058" lon="12.1961654"><ele>332.0</ele><time>2026-03-28T12:38:14.182Z</time></trkpt><trkpt lat="43.3304814" lon="12.1962193"><ele>332.0</ele><time>2026-03-28T12:38:16.179Z</time></trkpt><trkpt lat="43.3303774" lon="12.1962957"><ele>332.0</ele><time>2026-03-28T12:38:18.175Z</time></trkpt><trkpt lat="43.3302695" lon="12.1963492"><ele>332.0</ele><time>2026-03-28T12:38:20.172Z</time></trkpt><trkpt lat="43.3301635" lon="12.196376"><ele>332.0</ele><time>2026-03-28T12:38:22.165Z</time></trkpt><trkpt lat="43.3300936" lon="12.1964197"><ele>332.0</ele><time>2026-03-28T12:38:25.175Z</time></trkpt><trkpt lat="43.3300443" lon="12.1964788"><ele>334.40000000000003</ele><time>2026-03-28T12:38:27.184Z</time></trkpt><trkpt lat="43.3300396" lon="12.1965894"><ele>336.8</ele><time>2026-03-28T12:38:29.17Z</time></trkpt><trkpt lat="43.3300221" lon="12.1967061"><ele>339.2</ele><time>2026-03-28T12:38:31.179Z</time></trkpt><trkpt lat="43.3299415" lon="12.1967967"><ele>341.6</ele><time>2026-03-28T12:38:33.17Z</time></trkpt><trkpt lat="43.3298659" lon="12.1968489"><ele>344.0</ele><time>2026-03-28T12:38:34.178Z</time></trkpt><trkpt lat="43.3297735" lon="12.1968973"><ele>344.2</ele><time>2026-03-28T12:38:35.175Z</time></trkpt><trkpt lat="43.3296645" lon="12.1969363"><ele>344.4</ele><time>2026-03-28T12:38:36.166Z</time></trkpt><trkpt lat="43.3295565" lon="12.1969718"><ele>344.6</ele><time>2026-03-28T12:38:37.181Z</time></trkpt><trkpt lat="43.3294601" lon="12.1970165"><ele>344.8</ele><time>2026-03-28T12:38:38.177Z</time></trkpt><trkpt lat="43.3293638" lon="12.1970745"><ele>345.0</ele><time>2026-03-28T12:38:39.178Z</time></trkpt><trkpt lat="43.3292584" lon="12.1971409"><ele>345.0</ele><time>2026-03-28T12:38:40.172Z</time></trkpt><trkpt lat="43.3291442" lon="12.1971976"><ele>345.0</ele><time>2026-03-28T12:38:41.17Z</time></trkpt><trkpt lat="43.329021" lon="12.1972377"><ele>345.0</ele><time>2026-03-28T12:38:42.166Z</time></trkpt><trkpt lat="43.3288907" lon="12.1972576"><ele>345.0</ele><time>2026-03-28T12:38:43.173Z</time></trkpt><trkpt lat="43.3287678" lon="12.1972718"><ele>347.0</ele><time>2026-03-28T12:38:44.176Z</time></trkpt><trkpt lat="43.3286515" lon="12.1973001"><ele>349.0</ele><time>2026-03-28T12:38:45.178Z</time></trkpt><trkpt lat="43.3285335" lon="12.1973433"><ele>351.0</ele><time>2026-03-28T12:38:46.172Z</time></trkpt><trkpt lat="43.3284312" lon="12.1973912"><ele>353.0</ele><time>2026-03-28T12:38:47.172Z</time></trkpt><trkpt lat="43.3283487" lon="12.1974462"><ele>355.0</ele><time>2026-03-28T12:38:48.19Z</time></trkpt><trkpt lat="43.3282736" lon="12.19753"><ele>356.75</ele><time>2026-03-28T12:38:49.174Z</time></trkpt><trkpt lat="43.3281946" lon="12.1976215"><ele>358.5</ele><time>2026-03-28T12:38:50.175Z</time></trkpt><trkpt lat="43.3281034" lon="12.1977209"><ele>360.25</ele><time>2026-03-28T12:38:51.179Z</time></trkpt><trkpt lat="43.3279944" lon="12.1978111"><ele>362.0</ele><time>2026-03-28T12:38:52.181Z</time></trkpt><trkpt lat="43.3278924" lon="12.1979053"><ele>363.8</ele><time>2026-03-28T12:38:53.183Z</time></trkpt><trkpt lat="43.3278002" lon="12.1979928"><ele>365.6</ele><time>2026-03-28T12:38:54.162Z</time></trkpt><trkpt lat="43.3277134" lon="12.198059"><ele>367.40000000000003</ele><time>2026-03-28T12:38:55.171Z</time></trkpt><trkpt lat="43.3276313" lon="12.1981087"><ele>369.20000000000005</ele><time>2026-03-28T12:38:56.174Z</time></trkpt><trkpt lat="43.3275138" lon="12.1981208"><ele>371.0</ele><time>2026-03-28T12:38:57.167Z</time></trkpt><trkpt lat="43.3274176" lon="12.198123"><ele>371.0</ele><time>2026-03-28T12:38:58.176Z</time></trkpt><trkpt lat="43.3273057" lon="12.1981373"><ele>371.0</ele><time>2026-03-28T12:38:59.169Z</time></trkpt><trkpt lat="43.3271883" lon="12.1981952"><ele>371.0</ele><time>2026-03-28T12:39:00.181Z</time></trkpt><trkpt lat="43.3270846" lon="12.1982483"><ele>371.0</ele><time>2026-03-28T12:39:01.174Z</time></trkpt><trkpt lat="43.3269902" lon="12.1983211"><ele>372.25</ele><time>2026-03-28T12:39:02.163Z</time></trkpt><trkpt lat="43.3269039" lon="12.1984436"><ele>373.5</ele><time>2026-03-28T12:39:03.168Z</time></trkpt><trkpt lat="43.3268412" lon="12.1985799"><ele>374.75</ele><time>2026-03-28T12:39:04.172Z</time></trkpt><trkpt lat="43.3267768" lon="12.1987021"><ele>376.0</ele><time>2026-03-28T12:39:05.167Z</time></trkpt><trkpt lat="43.3267184" lon="12.1988249"><ele>376.0</ele><time>2026-03-28T12:39:06.172Z</time></trkpt><trkpt lat="43.3266563" lon="12.1989204"><ele>376.0</ele><time>2026-03-28T12:39:07.163Z</time></trkpt><trkpt lat="43.3265717" lon="12.1990117"><ele>376.0</ele><time>2026-03-28T12:39:08.177Z</time></trkpt><trkpt lat="43.3264758" lon="12.1990756"><ele>376.0</ele><time>2026-03-28T12:39:09.178Z</time></trkpt><trkpt lat="43.3263746" lon="12.199124"><ele>376.0</ele><time>2026-03-28T12:39:10.18Z</time></trkpt><trkpt lat="43.326273" lon="12.1991719"><ele>377.3333333333333</ele><time>2026-03-28T12:39:11.176Z</time></trkpt><trkpt lat="43.3261769" lon="12.1992158"><ele>378.66666666666663</ele><time>2026-03-28T12:39:12.172Z</time></trkpt><trkpt lat="43.3260928" lon="12.1992518"><ele>380.0</ele><time>2026-03-28T12:39:13.177Z</time></trkpt><trkpt lat="43.326022" lon="12.1992879"><ele>381.3333333333333</ele><time>2026-03-28T12:39:14.175Z</time></trkpt><trkpt lat="43.3259731" lon="12.1993532"><ele>382.6666666666667</ele><time>2026-03-28T12:39:15.169Z</time></trkpt><trkpt lat="43.325933" lon="12.1994226"><ele>384.0</ele><time>2026-03-28T12:39:16.173Z</time></trkpt><trkpt lat="43.3259395" lon="12.1995263"><ele>384.0</ele><time>2026-03-28T12:39:17.17Z</time></trkpt><trkpt lat="43.325968" lon="12.1996459"><ele>384.0</ele><time>2026-03-28T12:39:18.175Z</time></trkpt><trkpt lat="43.3260157" lon="12.1997732"><ele>384.0</ele><time>2026-03-28T12:39:19.176Z</time></trkpt><trkpt lat="43.3260688" lon="12.1999062"><ele>384.0</ele><time>2026-03-28T12:39:20.173Z</time></trkpt><trkpt lat="43.3261073" lon="12.200025"><ele>384.0</ele><time>2026-03-28T12:39:21.172Z</time></trkpt><trkpt lat="43.3261229" lon="12.2001193"><ele>386.4</ele><time>2026-03-28T12:39:22.178Z</time></trkpt><trkpt lat="43.3261333" lon="12.2002089"><ele>388.79999999999995</ele><time>2026-03-28T12:39:23.192Z</time></trkpt><trkpt lat="43.3260476" lon="12.2003333"><ele>391.20000000000005</ele><time>2026-03-28T12:39:25.173Z</time></trkpt><trkpt lat="43.3259764" lon="12.2003925"><ele>393.6</ele><time>2026-03-28T12:39:26.177Z</time></trkpt><trkpt lat="43.3259322" lon="12.2005288"><ele>396.0</ele><time>2026-03-28T12:39:28.167Z</time></trkpt><trkpt lat="43.3259554" lon="12.2006638"><ele>396.0</ele><time>2026-03-28T12:39:30.174Z</time></trkpt><trkpt lat="43.3260971" lon="12.2006428"><ele>396.0</ele><time>2026-03-28T12:39:32.161Z</time></trkpt><trkpt lat="43.3261841" lon="12.2006075"><ele>396.0</ele><time>2026-03-28T12:39:33.183Z</time></trkpt><trkpt lat="43.3262568" lon="12.2006018"><ele>396.0</ele><time>2026-03-28T12:39:34.173Z</time></trkpt><trkpt lat="43.3263259" lon="12.200628"><ele>396.0</ele><time>2026-03-28T12:39:35.171Z</time></trkpt><trkpt lat="43.3263817" lon="12.2006921"><ele>399.20000000000005</ele><time>2026-03-28T12:39:36.166Z</time></trkpt><trkpt lat="43.32644" lon="12.2007677"><ele>402.40000000000003</ele><time>2026-03-28T12:39:37.172Z</time></trkpt><trkpt lat="43.3264566" lon="12.2008945"><ele>405.6</ele><time>2026-03-28T12:39:38.171Z</time></trkpt><trkpt lat="43.3264693" lon="12.2010211"><ele>408.8</ele><time>2026-03-28T12:39:39.165Z</time></trkpt><trkpt lat="43.3264742" lon="12.2011643"><ele>412.0</ele><time>2026-03-28T12:39:40.171Z</time></trkpt><trkpt lat="43.3264902" lon="12.2012957"><ele>412.00000000000006</ele><time>2026-03-28T12:39:41.172Z</time></trkpt><trkpt lat="43.3265115" lon="12.2013805"><ele>412.0</ele><time>2026-03-28T12:39:42.172Z</time></trkpt><trkpt lat="43.3266237" lon="12.2014277"><ele>412.0</ele><time>2026-03-28T12:39:44.169Z</time></trkpt><trkpt lat="43.3267091" lon="12.201428"><ele>412.0</ele><time>2026-03-28T12:39:45.177Z</time></trkpt><trkpt lat="43.3267839" lon="12.2014538"><ele>412.00000000000006</ele><time>2026-03-28T12:39:46.175Z</time></trkpt><trkpt lat="43.3268178" lon="12.2015764"><ele>412.0</ele><time>2026-03-28T12:39:48.164Z</time></trkpt><trkpt lat="43.3267414" lon="12.2016802"><ele>414.8</ele><time>2026-03-28T12:39:50.183Z</time></trkpt><trkpt lat="43.3266567" lon="12.2017388"><ele>417.6</ele><time>2026-03-28T12:39:51.174Z</time></trkpt><trkpt lat="43.3265683" lon="12.2017987"><ele>420.40000000000003</ele><time>2026-03-28T12:39:52.169Z</time></trkpt><trkpt lat="43.3264768" lon="12.2018045"><ele>423.20000000000005</ele><time>2026-03-28T12:39:53.173Z</time></trkpt><trkpt lat="43.3263658" lon="12.2017708"><ele>426.0</ele><time>2026-03-28T12:39:54.166Z</time></trkpt><trkpt lat="43.3262634" lon="12.2017659"><ele>426.0</ele><time>2026-03-28T12:39:55.167Z</time></trkpt><trkpt lat="43.3261721" lon="12.2017645"><ele>426.0</ele><time>2026-03-28T12:39:56.177Z</time></trkpt><trkpt lat="43.3260824" lon="12.2017928"><ele>426.0</ele><time>2026-03-28T12:39:57.176Z</time></trkpt><trkpt lat="43.3259898" lon="12.2018559"><ele>426.0</ele><time>2026-03-28T12:39:58.161Z</time></trkpt><trkpt lat="43.325919" lon="12.2019516"><ele>426.0</ele><time>2026-03-28T12:39:59.167Z</time></trkpt><trkpt lat="43.3258619" lon="12.2020846"><ele>426.0</ele><time>2026-03-28T12:40:00.167Z</time></trkpt><trkpt lat="43.3258075" lon="12.202244"><ele>426.0</ele><time>2026-03-28T12:40:01.173Z</time></trkpt><trkpt lat="43.3257682" lon="12.2024185"><ele>426.0</ele><time>2026-03-28T12:40:02.173Z</time></trkpt><trkpt lat="43.3257241" lon="12.2025873"><ele>426.0</ele><time>2026-03-28T12:40:03.173Z</time></trkpt><trkpt lat="43.3256641" lon="12.202716"><ele>427.4</ele><time>2026-03-28T12:40:04.171Z</time></trkpt><trkpt lat="43.3256027" lon="12.2028346"><ele>428.8</ele><time>2026-03-28T12:40:05.177Z</time></trkpt><trkpt lat="43.3255286" lon="12.202918"><ele>430.19999999999993</ele><time>2026-03-28T12:40:06.167Z</time></trkpt><trkpt lat="43.3254478" lon="12.2029762"><ele>431.59999999999997</ele><time>2026-03-28T12:40:07.174Z</time></trkpt><trkpt lat="43.3253532" lon="12.2029923"><ele>433.0</ele><time>2026-03-28T12:40:08.172Z</time></trkpt><trkpt lat="43.3252603" lon="12.2029842"><ele>433.0</ele><time>2026-03-28T12:40:09.181Z</time></trkpt><trkpt lat="43.3251773" lon="12.2029813"><ele>432.99999999999994</ele><time>2026-03-28T12:40:10.174Z</time></trkpt><trkpt lat="43.3251156" lon="12.2030015"><ele>432.99999999999994</ele><time>2026-03-28T12:40:11.173Z</time></trkpt><trkpt lat="43.3250598" lon="12.2030797"><ele>433.0</ele><time>2026-03-28T12:40:12.179Z</time></trkpt><trkpt lat="43.3250063" lon="12.2031933"><ele>433.0</ele><time>2026-03-28T12:40:13.167Z</time></trkpt><trkpt lat="43.324953" lon="12.2033509"><ele>434.25</ele><time>2026-03-28T12:40:14.178Z</time></trkpt><trkpt lat="43.3249001" lon="12.2035115"><ele>435.5</ele><time>2026-03-28T12:40:15.169Z</time></trkpt><trkpt lat="43.3248382" lon="12.2036452"><ele>436.75</ele><time>2026-03-28T12:40:16.177Z</time></trkpt><trkpt lat="43.3247487" lon="12.2037584"><ele>438.0</ele><time>2026-03-28T12:40:17.175Z</time></trkpt><trkpt lat="43.3246426" lon="12.2038527"><ele>438.0</ele><time>2026-03-28T12:40:18.168Z</time></trkpt><trkpt lat="43.3245353" lon="12.2039442"><ele>438.0</ele><time>2026-03-28T12:40:19.171Z</time></trkpt><trkpt lat="43.3244353" lon="12.2040363"><ele>438.0</ele><time>2026-03-28T12:40:20.167Z</time></trkpt><trkpt lat="43.3243333" lon="12.2041225"><ele>438.0</ele><time>2026-03-28T12:40:21.169Z</time></trkpt><trkpt lat="43.3242286" lon="12.2041728"><ele>442.25</ele><time>2026-03-28T12:40:22.168Z</time></trkpt><trkpt lat="43.3241305" lon="12.2042344"><ele>446.5</ele><time>2026-03-28T12:40:23.173Z</time></trkpt><trkpt lat="43.3240397" lon="12.2043257"><ele>450.75</ele><time>2026-03-28T12:40:24.17Z</time></trkpt><trkpt lat="43.3239438" lon="12.2044161"><ele>455.0</ele><time>2026-03-28T12:40:25.172Z</time></trkpt><trkpt lat="43.3238426" lon="12.2044859"><ele>455.0</ele><time>2026-03-28T12:40:26.174Z</time></trkpt><trkpt lat="43.3237158" lon="12.2045272"><ele>455.0</ele><time>2026-03-28T12:40:27.171Z</time></trkpt><trkpt lat="43.3235876" lon="12.2045488"><ele>455.0</ele><time>2026-03-28T12:40:28.169Z</time></trkpt><trkpt lat="43.3234457" lon="12.2045847"><ele>455.0</ele><time>2026-03-28T12:40:29.178Z</time></trkpt><trkpt lat="43.3233129" lon="12.204615"><ele>454.99999999999994</ele><time>2026-03-28T12:40:30.171Z</time></trkpt><trkpt lat="43.3231978" lon="12.2046392"><ele>455.0</ele><time>2026-03-28T12:40:31.172Z</time></trkpt><trkpt lat="43.3231097" lon="12.204656"><ele>455.0</ele><time>2026-03-28T12:40:32.183Z</time></trkpt><trkpt lat="43.3230403" lon="12.2046716"><ele>455.0</ele><time>2026-03-28T12:40:33.17Z</time></trkpt><trkpt lat="43.3229746" lon="12.2046953"><ele>454.99999999999994</ele><time>2026-03-28T12:40:34.176Z</time></trkpt><trkpt lat="43.322921" lon="12.2047429"><ele>455.0</ele><time>2026-03-28T12:40:35.177Z</time></trkpt><trkpt lat="43.3228571" lon="12.2048597"><ele>453.0</ele><time>2026-03-28T12:40:37.168Z</time></trkpt><trkpt lat="43.3228517" lon="12.2049874"><ele>451.0</ele><time>2026-03-28T12:40:38.174Z</time></trkpt><trkpt lat="43.3228675" lon="12.2051647"><ele>449.0</ele><time>2026-03-28T12:40:39.166Z</time></trkpt><trkpt lat="43.3228782" lon="12.2053533"><ele>447.0</ele><time>2026-03-28T12:40:40.171Z</time></trkpt><trkpt lat="43.3228541" lon="12.205518"><ele>450.25</ele><time>2026-03-28T12:40:41.171Z</time></trkpt><trkpt lat="43.3228145" lon="12.2056673"><ele>453.5</ele><time>2026-03-28T12:40:42.173Z</time></trkpt><trkpt lat="43.322753" lon="12.2057914"><ele>456.75</ele><time>2026-03-28T12:40:43.169Z</time></trkpt><trkpt lat="43.3226645" lon="12.2058879"><ele>460.0</ele><time>2026-03-28T12:40:44.171Z</time></trkpt><trkpt lat="43.3225535" lon="12.2059648"><ele>460.0</ele><time>2026-03-28T12:40:45.172Z</time></trkpt><trkpt lat="43.322425" lon="12.2060452"><ele>460.0</ele><time>2026-03-28T12:40:46.163Z</time></trkpt><trkpt lat="43.3222975" lon="12.2061255"><ele>460.0</ele><time>2026-03-28T12:40:47.166Z</time></trkpt><trkpt lat="43.3221839" lon="12.2062427"><ele>460.0</ele><time>2026-03-28T12:40:48.171Z</time></trkpt><trkpt lat="43.3220665" lon="12.2063584"><ele>460.25</ele><time>2026-03-28T12:40:49.171Z</time></trkpt><trkpt lat="43.3219522" lon="12.2064586"><ele>460.5</ele><time>2026-03-28T12:40:50.171Z</time></trkpt><trkpt lat="43.3218434" lon="12.2065504"><ele>460.75</ele><time>2026-03-28T12:40:51.165Z</time></trkpt><trkpt lat="43.3217488" lon="12.2066174"><ele>461.0</ele><time>2026-03-28T12:40:52.158Z</time></trkpt><trkpt lat="43.3216546" lon="12.2066858"><ele>461.0</ele><time>2026-03-28T12:40:53.168Z</time></trkpt><trkpt lat="43.3215676" lon="12.2067951"><ele>461.0</ele><time>2026-03-28T12:40:54.166Z</time></trkpt><trkpt lat="43.3214866" lon="12.20692"><ele>461.0</ele><time>2026-03-28T12:40:55.175Z</time></trkpt><trkpt lat="43.3213904" lon="12.207066"><ele>461.0</ele><time>2026-03-28T12:40:56.17Z</time></trkpt><trkpt lat="43.3212761" lon="12.2071943"><ele>462.3333333333333</ele><time>2026-03-28T12:40:57.167Z</time></trkpt><trkpt lat="43.3211529" lon="12.2073312"><ele>463.66666666666663</ele><time>2026-03-28T12:40:58.164Z</time></trkpt><trkpt lat="43.3210363" lon="12.2074736"><ele>465.0</ele><time>2026-03-28T12:40:59.169Z</time></trkpt><trkpt lat="43.3209279" lon="12.2076143"><ele>465.0</ele><time>2026-03-28T12:41:00.169Z</time></trkpt><trkpt lat="43.3208184" lon="12.2077481"><ele>465.0</ele><time>2026-03-28T12:41:01.168Z</time></trkpt><trkpt lat="43.3207154" lon="12.2078869"><ele>465.0</ele><time>2026-03-28T12:41:02.165Z</time></trkpt><trkpt lat="43.3206173" lon="12.2080311"><ele>465.0</ele><time>2026-03-28T12:41:03.177Z</time></trkpt><trkpt lat="43.3205219" lon="12.2081744"><ele>467.0</ele><time>2026-03-28T12:41:04.185Z</time></trkpt><trkpt lat="43.3204317" lon="12.2083086"><ele>469.0</ele><time>2026-03-28T12:41:05.169Z</time></trkpt><trkpt lat="43.3203473" lon="12.2084234"><ele>471.0</ele><time>2026-03-28T12:41:06.17Z</time></trkpt><trkpt lat="43.3202666" lon="12.2085347"><ele>473.0</ele><time>2026-03-28T12:41:07.177Z</time></trkpt><trkpt lat="43.3201865" lon="12.208642"><ele>473.0</ele><time>2026-03-28T12:41:08.173Z</time></trkpt><trkpt lat="43.3200967" lon="12.2087411"><ele>473.0</ele><time>2026-03-28T12:41:09.168Z</time></trkpt><trkpt lat="43.3200019" lon="12.2088458"><ele>473.0</ele><time>2026-03-28T12:41:10.184Z</time></trkpt><trkpt lat="43.3198935" lon="12.2089288"><ele>473.0</ele><time>2026-03-28T12:41:11.175Z</time></trkpt><trkpt lat="43.3197788" lon="12.2090122"><ele>476.5</ele><time>2026-03-28T12:41:12.178Z</time></trkpt><trkpt lat="43.3196688" lon="12.2090907"><ele>480.0</ele><time>2026-03-28T12:41:13.168Z</time></trkpt><trkpt lat="43.3195639" lon="12.2091643"><ele>483.5</ele><time>2026-03-28T12:41:14.178Z</time></trkpt><trkpt lat="43.319466" lon="12.2092409"><ele>487.0</ele><time>2026-03-28T12:41:15.171Z</time></trkpt><trkpt lat="43.3193666" lon="12.2093194"><ele>487.0</ele><time>2026-03-28T12:41:16.174Z</time></trkpt><trkpt lat="43.3192531" lon="12.209389"><ele>487.0</ele><time>2026-03-28T12:41:17.172Z</time></trkpt><trkpt lat="43.3191362" lon="12.2094589"><ele>487.0</ele><time>2026-03-28T12:41:18.17Z</time></trkpt><trkpt lat="43.3190124" lon="12.2095014"><ele>487.0</ele><time>2026-03-28T12:41:19.168Z</time></trkpt><trkpt lat="43.3189016" lon="12.2095238"><ele>487.6</ele><time>2026-03-28T12:41:20.18Z</time></trkpt><trkpt lat="43.318797" lon="12.2095297"><ele>488.20000000000005</ele><time>2026-03-28T12:41:21.162Z</time></trkpt><trkpt lat="43.3187017" lon="12.2095465"><ele>488.8</ele><time>2026-03-28T12:41:22.171Z</time></trkpt><trkpt lat="43.3186079" lon="12.2095921"><ele>489.4</ele><time>2026-03-28T12:41:23.166Z</time></trkpt><trkpt lat="43.3185106" lon="12.2096682"><ele>490.0</ele><time>2026-03-28T12:41:24.174Z</time></trkpt><trkpt lat="43.3183928" lon="12.2097282"><ele>490.0</ele><time>2026-03-28T12:41:25.174Z</time></trkpt><trkpt lat="43.3182606" lon="12.2097605"><ele>490.0</ele><time>2026-03-28T12:41:26.171Z</time></trkpt><trkpt lat="43.3181373" lon="12.2097846"><ele>490.0</ele><time>2026-03-28T12:41:27.169Z</time></trkpt><trkpt lat="43.3180333" lon="12.2097979"><ele>490.0</ele><time>2026-03-28T12:41:28.175Z</time></trkpt><trkpt lat="43.3179352" lon="12.2097922"><ele>489.5</ele><time>2026-03-28T12:41:29.171Z</time></trkpt><trkpt lat="43.3178275" lon="12.2098022"><ele>489.0</ele><time>2026-03-28T12:41:30.163Z</time></trkpt><trkpt lat="43.3177042" lon="12.2098342"><ele>488.5</ele><time>2026-03-28T12:41:31.173Z</time></trkpt><trkpt lat="43.3175874" lon="12.2098863"><ele>488.0</ele><time>2026-03-28T12:41:32.162Z</time></trkpt><trkpt lat="43.3174764" lon="12.2099443"><ele>491.5</ele><time>2026-03-28T12:41:33.169Z</time></trkpt><trkpt lat="43.3173648" lon="12.21001"><ele>495.0</ele><time>2026-03-28T12:41:34.177Z</time></trkpt><trkpt lat="43.317256" lon="12.2100999"><ele>498.5</ele><time>2026-03-28T12:41:35.18Z</time></trkpt><trkpt lat="43.3171524" lon="12.2102189"><ele>502.0</ele><time>2026-03-28T12:41:36.171Z</time></trkpt><trkpt lat="43.3170441" lon="12.2103235"><ele>502.0</ele><time>2026-03-28T12:41:37.166Z</time></trkpt><trkpt lat="43.3169295" lon="12.2104234"><ele>502.0</ele><time>2026-03-28T12:41:38.17Z</time></trkpt><trkpt lat="43.3168074" lon="12.2105097"><ele>502.0</ele><time>2026-03-28T12:41:39.171Z</time></trkpt><trkpt lat="43.3166843" lon="12.2105989"><ele>502.0</ele><time>2026-03-28T12:41:40.171Z</time></trkpt><trkpt lat="43.3165671" lon="12.2106692"><ele>503.0</ele><time>2026-03-28T12:41:41.173Z</time></trkpt><trkpt lat="43.3164564" lon="12.2107293"><ele>504.00000000000006</ele><time>2026-03-28T12:41:42.178Z</time></trkpt><trkpt lat="43.3163549" lon="12.2107868"><ele>505.00000000000006</ele><time>2026-03-28T12:41:43.16Z</time></trkpt><trkpt lat="43.3162634" lon="12.2108455"><ele>506.0</ele><time>2026-03-28T12:41:44.172Z</time></trkpt><trkpt lat="43.3161754" lon="12.2109046"><ele>507.0</ele><time>2026-03-28T12:41:45.18Z</time></trkpt><trkpt lat="43.3160919" lon="12.2110014"><ele>507.0</ele><time>2026-03-28T12:41:46.163Z</time></trkpt><trkpt lat="43.3160073" lon="12.2111093"><ele>507.0</ele><time>2026-03-28T12:41:47.165Z</time></trkpt><trkpt lat="43.3159175" lon="12.2112182"><ele>507.0</ele><time>2026-03-28T12:41:48.173Z</time></trkpt><trkpt lat="43.31584" lon="12.2113216"><ele>507.0</ele><time>2026-03-28T12:41:49.18Z</time></trkpt><trkpt lat="43.3157646" lon="12.2114251"><ele>507.40000000000003</ele><time>2026-03-28T12:41:50.19Z</time></trkpt><trkpt lat="43.3157055" lon="12.2115451"><ele>507.80000000000007</ele><time>2026-03-28T12:41:51.171Z</time></trkpt><trkpt lat="43.3156524" lon="12.211669"><ele>508.2</ele><time>2026-03-28T12:41:52.187Z</time></trkpt><trkpt lat="43.3155927" lon="12.2117678"><ele>508.6</ele><time>2026-03-28T12:41:53.174Z</time></trkpt><trkpt lat="43.3155432" lon="12.211855"><ele>509.0</ele><time>2026-03-28T12:41:54.173Z</time></trkpt><trkpt lat="43.3155165" lon="12.2119418"><ele>512.2</ele><time>2026-03-28T12:41:56.175Z</time></trkpt><trkpt lat="43.315587" lon="12.2119834"><ele>515.4</ele><time>2026-03-28T12:41:59.167Z</time></trkpt><trkpt lat="43.3156832" lon="12.2118957"><ele>518.6</ele><time>2026-03-28T12:42:01.17Z</time></trkpt><trkpt lat="43.3157434" lon="12.2118203"><ele>521.8</ele><time>2026-03-28T12:42:02.174Z</time></trkpt><trkpt lat="43.3158153" lon="12.2117412"><ele>525.0</ele><time>2026-03-28T12:42:03.167Z</time></trkpt><trkpt lat="43.3159" lon="12.2116723"><ele>525.0</ele><time>2026-03-28T12:42:04.179Z</time></trkpt><trkpt lat="43.3159961" lon="12.2116143"><ele>525.0</ele><time>2026-03-28T12:42:05.169Z</time></trkpt><trkpt lat="43.3160965" lon="12.2115824"><ele>525.0</ele><time>2026-03-28T12:42:06.17Z</time></trkpt><trkpt lat="43.3161928" lon="12.2115556"><ele>525.0</ele><time>2026-03-28T12:42:07.168Z</time></trkpt><trkpt lat="43.3163042" lon="12.2115622"><ele>525.0</ele><time>2026-03-28T12:42:08.175Z</time></trkpt><trkpt lat="43.3164005" lon="12.2115629"><ele>524.6666666666666</ele><time>2026-03-28T12:42:09.17Z</time></trkpt><trkpt lat="43.316478" lon="12.2115363"><ele>524.3333333333334</ele><time>2026-03-28T12:42:10.169Z</time></trkpt><trkpt lat="43.3165432" lon="12.2114467"><ele>524.0</ele><time>2026-03-28T12:42:11.174Z</time></trkpt><trkpt lat="43.3166061" lon="12.2113558"><ele>523.6666666666667</ele><time>2026-03-28T12:42:12.174Z</time></trkpt><trkpt lat="43.3166732" lon="12.2112862"><ele>523.3333333333334</ele><time>2026-03-28T12:42:13.172Z</time></trkpt><trkpt lat="43.3167517" lon="12.2112432"><ele>523.0</ele><time>2026-03-28T12:42:14.166Z</time></trkpt><trkpt lat="43.3168489" lon="12.2112129"><ele>523.0</ele><time>2026-03-28T12:42:15.161Z</time></trkpt><trkpt lat="43.3169577" lon="12.2111881"><ele>523.0</ele><time>2026-03-28T12:42:16.165Z</time></trkpt><trkpt lat="43.3170628" lon="12.2111774"><ele>523.0</ele><time>2026-03-28T12:42:17.171Z</time></trkpt><trkpt lat="43.3171511" lon="12.2111871"><ele>523.0</ele><time>2026-03-28T12:42:18.17Z</time></trkpt><trkpt lat="43.3172459" lon="12.211222"><ele>523.0</ele><time>2026-03-28T12:42:19.168Z</time></trkpt><trkpt lat="43.3173482" lon="12.2112597"><ele>525.8</ele><time>2026-03-28T12:42:20.159Z</time></trkpt><trkpt lat="43.3174637" lon="12.2113066"><ele>528.5999999999999</ele><time>2026-03-28T12:42:21.175Z</time></trkpt><trkpt lat="43.3175569" lon="12.2113668"><ele>531.4000000000001</ele><time>2026-03-28T12:42:22.174Z</time></trkpt><trkpt lat="43.3176411" lon="12.2114197"><ele>534.2</ele><time>2026-03-28T12:42:23.184Z</time></trkpt><trkpt lat="43.3177168" lon="12.211499"><ele>537.0</ele><time>2026-03-28T12:42:24.174Z</time></trkpt><trkpt lat="43.3177824" lon="12.2115984"><ele>542.5</ele><time>2026-03-28T12:42:25.171Z</time></trkpt><trkpt lat="43.3178453" lon="12.2117104"><ele>548.0</ele><time>2026-03-28T12:42:26.17Z</time></trkpt><trkpt lat="43.3178934" lon="12.2118679"><ele>553.5</ele><time>2026-03-28T12:42:27.173Z</time></trkpt><trkpt lat="43.3179422" lon="12.2120372"><ele>559.0</ele><time>2026-03-28T12:42:28.176Z</time></trkpt><trkpt lat="43.3179925" lon="12.2122063"><ele>559.0</ele><time>2026-03-28T12:42:29.168Z</time></trkpt><trkpt lat="43.3180458" lon="12.2123794"><ele>559.0</ele><time>2026-03-28T12:42:30.173Z</time></trkpt><trkpt lat="43.3181" lon="12.2125561"><ele>559.0</ele><time>2026-03-28T12:42:31.176Z</time></trkpt><trkpt lat="43.3181541" lon="12.2127409"><ele>559.0</ele><time>2026-03-28T12:42:32.164Z</time></trkpt><trkpt lat="43.3182117" lon="12.2129189"><ele>559.0</ele><time>2026-03-28T12:42:33.173Z</time></trkpt><trkpt lat="43.3182612" lon="12.213075"><ele>559.0</ele><time>2026-03-28T12:42:34.172Z</time></trkpt><trkpt lat="43.3183148" lon="12.2132303"><ele>559.0</ele><time>2026-03-28T12:42:35.18Z</time></trkpt><trkpt lat="43.3183698" lon="12.213383"><ele>559.0</ele><time>2026-03-28T12:42:36.177Z</time></trkpt><trkpt lat="43.3184174" lon="12.2135387"><ele>562.0</ele><time>2026-03-28T12:42:37.172Z</time></trkpt><trkpt lat="43.3184566" lon="12.2136834"><ele>565.0</ele><time>2026-03-28T12:42:38.181Z</time></trkpt><trkpt lat="43.318473" lon="12.2138088"><ele>568.0</ele><time>2026-03-28T12:42:39.17Z</time></trkpt><trkpt lat="43.3184808" lon="12.2139273"><ele>571.0</ele><time>2026-03-28T12:42:40.182Z</time></trkpt><trkpt lat="43.3184769" lon="12.21405"><ele>574.0</ele><time>2026-03-28T12:42:41.181Z</time></trkpt><trkpt lat="43.3184704" lon="12.2141822"><ele>574.5</ele><time>2026-03-28T12:42:42.177Z</time></trkpt><trkpt lat="43.3184735" lon="12.2143429"><ele>575.0</ele><time>2026-03-28T12:42:43.174Z</time></trkpt><trkpt lat="43.3184764" lon="12.2145268"><ele>575.5</ele><time>2026-03-28T12:42:44.193Z</time></trkpt><trkpt lat="43.3184823" lon="12.2147201"><ele>576.0</ele><time>2026-03-28T12:42:45.168Z</time></trkpt><trkpt lat="43.3184911" lon="12.214916"><ele>575.25</ele><time>2026-03-28T12:42:46.169Z</time></trkpt><trkpt lat="43.3184939" lon="12.2151144"><ele>574.5</ele><time>2026-03-28T12:42:47.177Z</time></trkpt><trkpt lat="43.3185069" lon="12.2153087"><ele>573.75</ele><time>2026-03-28T12:42:48.173Z</time></trkpt><trkpt lat="43.3185214" lon="12.2154948"><ele>573.0</ele><time>2026-03-28T12:42:49.185Z</time></trkpt><trkpt lat="43.3185474" lon="12.2156801"><ele>573.0</ele><time>2026-03-28T12:42:50.179Z</time></trkpt><trkpt lat="43.3185848" lon="12.2158685"><ele>573.0</ele><time>2026-03-28T12:42:51.183Z</time></trkpt><trkpt lat="43.3186142" lon="12.2160447"><ele>573.0</ele><time>2026-03-28T12:42:52.173Z</time></trkpt><trkpt lat="43.3186285" lon="12.216223"><ele>573.0</ele><time>2026-03-28T12:42:53.181Z</time></trkpt><trkpt lat="43.3186428" lon="12.2164102"><ele>574.25</ele><time>2026-03-28T12:42:54.174Z</time></trkpt><trkpt lat="43.3186252" lon="12.216604"><ele>575.5</ele><time>2026-03-28T12:42:55.175Z</time></trkpt><trkpt lat="43.3186045" lon="12.2168072"><ele>576.75</ele><time>2026-03-28T12:42:56.171Z</time></trkpt><trkpt lat="43.3185856" lon="12.2170175"><ele>578.0</ele><time>2026-03-28T12:42:57.174Z</time></trkpt><trkpt lat="43.3185698" lon="12.2172147"><ele>578.25</ele><time>2026-03-28T12:42:58.177Z</time></trkpt><trkpt lat="43.3185639" lon="12.2174086"><ele>578.5</ele><time>2026-03-28T12:42:59.176Z</time></trkpt><trkpt lat="43.31856" lon="12.2175897"><ele>578.75</ele><time>2026-03-28T12:43:00.175Z</time></trkpt><trkpt lat="43.3185604" lon="12.2177652"><ele>579.0</ele><time>2026-03-28T12:43:01.178Z</time></trkpt><trkpt lat="43.3185685" lon="12.2179321"><ele>579.0</ele><time>2026-03-28T12:43:02.169Z</time></trkpt><trkpt lat="43.3185775" lon="12.2181063"><ele>579.0</ele><time>2026-03-28T12:43:03.167Z</time></trkpt><trkpt lat="43.3185724" lon="12.2182936"><ele>579.0</ele><time>2026-03-28T12:43:04.177Z</time></trkpt><trkpt lat="43.3185513" lon="12.2184683"><ele>579.0</ele><time>2026-03-28T12:43:05.176Z</time></trkpt><trkpt lat="43.3185319" lon="12.2186295"><ele>577.25</ele><time>2026-03-28T12:43:06.17Z</time></trkpt><trkpt lat="43.3185207" lon="12.2187789"><ele>575.5</ele><time>2026-03-28T12:43:07.176Z</time></trkpt><trkpt lat="43.3185261" lon="12.2189267"><ele>573.75</ele><time>2026-03-28T12:43:08.175Z</time></trkpt><trkpt lat="43.3185537" lon="12.2190759"><ele>572.0</ele><time>2026-03-28T12:43:09.175Z</time></trkpt><trkpt lat="43.3185979" lon="12.2192304"><ele>570.4</ele><time>2026-03-28T12:43:10.182Z</time></trkpt><trkpt lat="43.3186435" lon="12.2193701"><ele>568.8000000000001</ele><time>2026-03-28T12:43:11.186Z</time></trkpt><trkpt lat="43.3186678" lon="12.2194899"><ele>567.2</ele><time>2026-03-28T12:43:12.17Z</time></trkpt><trkpt lat="43.3186854" lon="12.2195769"><ele>565.6</ele><time>2026-03-28T12:43:13.178Z</time></trkpt><trkpt lat="43.3186262" lon="12.219691"><ele>564.0</ele><time>2026-03-28T12:43:15.174Z</time></trkpt><trkpt lat="43.3185267" lon="12.2198038"><ele>563.8333333333334</ele><time>2026-03-28T12:43:17.184Z</time></trkpt><trkpt lat="43.318484" lon="12.2198782"><ele>563.6666666666666</ele><time>2026-03-28T12:43:18.177Z</time></trkpt><trkpt lat="43.3184546" lon="12.2199691"><ele>563.5</ele><time>2026-03-28T12:43:19.18Z</time></trkpt><trkpt lat="43.3184236" lon="12.2200525"><ele>563.3333333333333</ele><time>2026-03-28T12:43:20.178Z</time></trkpt><trkpt lat="43.3184287" lon="12.2202216"><ele>563.1666666666666</ele><time>2026-03-28T12:43:22.169Z</time></trkpt><trkpt lat="43.3184708" lon="12.2202987"><ele>563.0</ele><time>2026-03-28T12:43:23.167Z</time></trkpt><trkpt lat="43.3185434" lon="12.2203675"><ele>563.0</ele><time>2026-03-28T12:43:24.178Z</time></trkpt><trkpt lat="43.3186229" lon="12.2204498"><ele>563.0</ele><time>2026-03-28T12:43:25.182Z</time></trkpt><trkpt lat="43.3186918" lon="12.2205317"><ele>563.0</ele><time>2026-03-28T12:43:26.194Z</time></trkpt><trkpt lat="43.3187605" lon="12.2206217"><ele>563.0</ele><time>2026-03-28T12:43:27.177Z</time></trkpt><trkpt lat="43.3188041" lon="12.2207452"><ele>563.0</ele><time>2026-03-28T12:43:28.178Z</time></trkpt><trkpt lat="43.3187905" lon="12.2208882"><ele>561.6</ele><time>2026-03-28T12:43:29.184Z</time></trkpt><trkpt lat="43.3187412" lon="12.221024"><ele>560.1999999999999</ele><time>2026-03-28T12:43:30.169Z</time></trkpt><trkpt lat="43.3187039" lon="12.2211533"><ele>558.8</ele><time>2026-03-28T12:43:31.185Z</time></trkpt><trkpt lat="43.3186725" lon="12.2212582"><ele>557.4</ele><time>2026-03-28T12:43:32.182Z</time></trkpt><trkpt lat="43.3186705" lon="12.2213695"><ele>556.0</ele><time>2026-03-28T12:43:33.178Z</time></trkpt><trkpt lat="43.3187003" lon="12.2215002"><ele>555.6</ele><time>2026-03-28T12:43:34.173Z</time></trkpt><trkpt lat="43.3187289" lon="12.2216329"><ele>555.2</ele><time>2026-03-28T12:43:35.173Z</time></trkpt><trkpt lat="43.3187544" lon="12.221758"><ele>554.8</ele><time>2026-03-28T12:43:36.183Z</time></trkpt><trkpt lat="43.3187545" lon="12.2218619"><ele>554.4</ele><time>2026-03-28T12:43:37.172Z</time></trkpt><trkpt lat="43.318717" lon="12.2219588"><ele>554.0</ele><time>2026-03-28T12:43:38.162Z</time></trkpt><trkpt lat="43.3186514" lon="12.2220651"><ele>554.0</ele><time>2026-03-28T12:43:39.175Z</time></trkpt><trkpt lat="43.3185754" lon="12.2222022"><ele>554.0</ele><time>2026-03-28T12:43:40.17Z</time></trkpt><trkpt lat="43.3185021" lon="12.2223495"><ele>554.0</ele><time>2026-03-28T12:43:41.175Z</time></trkpt><trkpt lat="43.3184386" lon="12.2224718"><ele>554.0</ele><time>2026-03-28T12:43:42.166Z</time></trkpt><trkpt lat="43.3183908" lon="12.222562"><ele>554.0</ele><time>2026-03-28T12:43:43.17Z</time></trkpt><trkpt lat="43.3183558" lon="12.2226438"><ele>554.1666666666666</ele><time>2026-03-28T12:43:44.183Z</time></trkpt><trkpt lat="43.3183426" lon="12.2227295"><ele>554.3333333333333</ele><time>2026-03-28T12:43:45.176Z</time></trkpt><trkpt lat="43.3183733" lon="12.2228309"><ele>554.5</ele><time>2026-03-28T12:43:46.174Z</time></trkpt><trkpt lat="43.3184328" lon="12.2229284"><ele>554.6666666666666</ele><time>2026-03-28T12:43:47.191Z</time></trkpt><trkpt lat="43.3184868" lon="12.2230314"><ele>554.8333333333334</ele><time>2026-03-28T12:43:48.172Z</time></trkpt><trkpt lat="43.3185211" lon="12.2231313"><ele>555.0</ele><time>2026-03-28T12:43:49.181Z</time></trkpt><trkpt lat="43.3185349" lon="12.223237"><ele>555.4</ele><time>2026-03-28T12:43:50.169Z</time></trkpt><trkpt lat="43.3185066" lon="12.2233242"><ele>555.8</ele><time>2026-03-28T12:43:51.171Z</time></trkpt><trkpt lat="43.3184546" lon="12.2233987"><ele>556.2</ele><time>2026-03-28T12:43:52.169Z</time></trkpt><trkpt lat="43.3183799" lon="12.2234608"><ele>556.6</ele><time>2026-03-28T12:43:53.159Z</time></trkpt><trkpt lat="43.3182778" lon="12.2234954"><ele>557.0</ele><time>2026-03-28T12:43:54.174Z</time></trkpt><trkpt lat="43.3181596" lon="12.2235063"><ele>554.0</ele><time>2026-03-28T12:43:55.174Z</time></trkpt><trkpt lat="43.3180262" lon="12.2235061"><ele>551.0</ele><time>2026-03-28T12:43:56.171Z</time></trkpt><trkpt lat="43.3178911" lon="12.2235056"><ele>548.0</ele><time>2026-03-28T12:43:57.167Z</time></trkpt><trkpt lat="43.317784" lon="12.2235108"><ele>545.0</ele><time>2026-03-28T12:43:58.179Z</time></trkpt><trkpt lat="43.3176949" lon="12.2235195"><ele>545.0</ele><time>2026-03-28T12:43:59.176Z</time></trkpt><trkpt lat="43.3176166" lon="12.2235224"><ele>545.0</ele><time>2026-03-28T12:44:00.169Z</time></trkpt><trkpt lat="43.317545" lon="12.223537"><ele>545.0</ele><time>2026-03-28T12:44:01.175Z</time></trkpt><trkpt lat="43.3174837" lon="12.2235699"><ele>545.0</ele><time>2026-03-28T12:44:02.181Z</time></trkpt><trkpt lat="43.3174322" lon="12.2236351"><ele>545.0</ele><time>2026-03-28T12:44:03.167Z</time></trkpt><trkpt lat="43.3174107" lon="12.2237547"><ele>545.0</ele><time>2026-03-28T12:44:04.173Z</time></trkpt><trkpt lat="43.3173903" lon="12.2238959"><ele>545.6</ele><time>2026-03-28T12:44:05.164Z</time></trkpt><trkpt lat="43.3173853" lon="12.2240436"><ele>546.2</ele><time>2026-03-28T12:44:06.177Z</time></trkpt><trkpt lat="43.3173824" lon="12.2241814"><ele>546.8</ele><time>2026-03-28T12:44:07.169Z</time></trkpt><trkpt lat="43.3173958" lon="12.2243242"><ele>547.4</ele><time>2026-03-28T12:44:08.173Z</time></trkpt><trkpt lat="43.317425" lon="12.2244768"><ele>548.0</ele><time>2026-03-28T12:44:09.183Z</time></trkpt><trkpt lat="43.3174483" lon="12.2246098"><ele>548.0</ele><time>2026-03-28T12:44:10.18Z</time></trkpt><trkpt lat="43.3174497" lon="12.2247432"><ele>548.0</ele><time>2026-03-28T12:44:11.171Z</time></trkpt><trkpt lat="43.3174186" lon="12.2248689"><ele>548.0</ele><time>2026-03-28T12:44:12.179Z</time></trkpt><trkpt lat="43.3173825" lon="12.2250032"><ele>548.0</ele><time>2026-03-28T12:44:13.175Z</time></trkpt><trkpt lat="43.3173613" lon="12.2251335"><ele>548.0</ele><time>2026-03-28T12:44:14.176Z</time></trkpt><trkpt lat="43.317352" lon="12.2252568"><ele>547.3333333333333</ele><time>2026-03-28T12:44:15.175Z</time></trkpt><trkpt lat="43.3173561" lon="12.2253706"><ele>546.6666666666666</ele><time>2026-03-28T12:44:16.174Z</time></trkpt><trkpt lat="43.3173732" lon="12.2254715"><ele>546.0</ele><time>2026-03-28T12:44:17.172Z</time></trkpt><trkpt lat="43.317388" lon="12.2255611"><ele>545.3333333333334</ele><time>2026-03-28T12:44:18.175Z</time></trkpt><trkpt lat="43.3174014" lon="12.2256667"><ele>544.6666666666667</ele><time>2026-03-28T12:44:20.171Z</time></trkpt><trkpt lat="43.3173006" lon="12.2257204"><ele>544.0</ele><time>2026-03-28T12:44:22.169Z</time></trkpt><trkpt lat="43.3172011" lon="12.2257121"><ele>539.8</ele><time>2026-03-28T12:44:23.168Z</time></trkpt><trkpt lat="43.3171072" lon="12.2256804"><ele>535.5999999999999</ele><time>2026-03-28T12:44:24.168Z</time></trkpt><trkpt lat="43.317034" lon="12.2255919"><ele>531.4</ele><time>2026-03-28T12:44:25.172Z</time></trkpt><trkpt lat="43.3169761" lon="12.2255041"><ele>527.1999999999999</ele><time>2026-03-28T12:44:26.176Z</time></trkpt><trkpt lat="43.3169267" lon="12.2254177"><ele>523.0</ele><time>2026-03-28T12:44:27.179Z</time></trkpt><trkpt lat="43.3168932" lon="12.2253009"><ele>523.0</ele><time>2026-03-28T12:44:28.185Z</time></trkpt><trkpt lat="43.3168768" lon="12.2251677"><ele>523.0</ele><time>2026-03-28T12:44:29.167Z</time></trkpt><trkpt lat="43.3168894" lon="12.2250398"><ele>523.0</ele><time>2026-03-28T12:44:30.176Z</time></trkpt><trkpt lat="43.3169035" lon="12.2249264"><ele>523.0</ele><time>2026-03-28T12:44:31.169Z</time></trkpt><trkpt lat="43.3169" lon="12.2248133"><ele>523.0</ele><time>2026-03-28T12:44:32.167Z</time></trkpt><trkpt lat="43.3168565" lon="12.2247073"><ele>523.0</ele><time>2026-03-28T12:44:33.175Z</time></trkpt><trkpt lat="43.3167813" lon="12.2246242"><ele>523.6</ele><time>2026-03-28T12:44:34.172Z</time></trkpt><trkpt lat="43.3167173" lon="12.2245423"><ele>524.1999999999999</ele><time>2026-03-28T12:44:35.174Z</time></trkpt><trkpt lat="43.3166654" lon="12.2244745"><ele>524.8</ele><time>2026-03-28T12:44:36.168Z</time></trkpt><trkpt lat="43.3165895" lon="12.2243913"><ele>525.4</ele><time>2026-03-28T12:44:38.167Z</time></trkpt><trkpt lat="43.3165352" lon="12.2244515"><ele>526.0</ele><time>2026-03-28T12:44:40.174Z</time></trkpt><trkpt lat="43.3165871" lon="12.2246168"><ele>526.0</ele><time>2026-03-28T12:44:42.163Z</time></trkpt><trkpt lat="43.3166092" lon="12.2247067"><ele>526.0</ele><time>2026-03-28T12:44:43.166Z</time></trkpt><trkpt lat="43.3165941" lon="12.2248001"><ele>526.0</ele><time>2026-03-28T12:44:44.174Z</time></trkpt><trkpt lat="43.316536" lon="12.2248986"><ele>526.0</ele><time>2026-03-28T12:44:45.176Z</time></trkpt><trkpt lat="43.3164476" lon="12.2250137"><ele>526.0</ele><time>2026-03-28T12:44:46.169Z</time></trkpt><trkpt lat="43.3163601" lon="12.2251059"><ele>520.4</ele><time>2026-03-28T12:44:47.178Z</time></trkpt><trkpt lat="43.3162641" lon="12.2251857"><ele>514.8</ele><time>2026-03-28T12:44:48.174Z</time></trkpt><trkpt lat="43.3161705" lon="12.2252653"><ele>509.19999999999993</ele><time>2026-03-28T12:44:49.181Z</time></trkpt><trkpt lat="43.3160773" lon="12.2253411"><ele>503.59999999999997</ele><time>2026-03-28T12:44:50.176Z</time></trkpt><trkpt lat="43.3160012" lon="12.2254133"><ele>498.0</ele><time>2026-03-28T12:44:51.183Z</time></trkpt><trkpt lat="43.3159451" lon="12.2254792"><ele>498.0</ele><time>2026-03-28T12:44:52.172Z</time></trkpt><trkpt lat="43.3159016" lon="12.2255516"><ele>498.0</ele><time>2026-03-28T12:44:53.176Z</time></trkpt><trkpt lat="43.3158762" lon="12.2256639"><ele>498.0</ele><time>2026-03-28T12:44:54.172Z</time></trkpt><trkpt lat="43.3158808" lon="12.2258123"><ele>498.0</ele><time>2026-03-28T12:44:55.17Z</time></trkpt><trkpt lat="43.3158798" lon="12.2259392"><ele>498.0</ele><time>2026-03-28T12:44:56.18Z</time></trkpt><trkpt lat="43.3158796" lon="12.2260457"><ele>498.0</ele><time>2026-03-28T12:44:57.175Z</time></trkpt><trkpt lat="43.3158945" lon="12.2261422"><ele>498.79999999999995</ele><time>2026-03-28T12:44:58.174Z</time></trkpt><trkpt lat="43.3159918" lon="12.2262464"><ele>499.59999999999997</ele><time>2026-03-28T12:45:00.186Z</time></trkpt><trkpt lat="43.3160791" lon="12.2262551"><ele>500.40000000000003</ele><time>2026-03-28T12:45:01.177Z</time></trkpt><trkpt lat="43.3161519" lon="12.2262692"><ele>501.20000000000005</ele><time>2026-03-28T12:45:02.174Z</time></trkpt><trkpt lat="43.3162073" lon="12.2263715"><ele>502.0</ele><time>2026-03-28T12:45:04.169Z</time></trkpt><trkpt lat="43.316144" lon="12.2264949"><ele>500.20000000000005</ele><time>2026-03-28T12:45:06.164Z</time></trkpt><trkpt lat="43.3160611" lon="12.2265563"><ele>498.40000000000003</ele><time>2026-03-28T12:45:07.173Z</time></trkpt><trkpt lat="43.3159521" lon="12.2266112"><ele>496.59999999999997</ele><time>2026-03-28T12:45:08.178Z</time></trkpt><trkpt lat="43.3158552" lon="12.2266509"><ele>494.79999999999995</ele><time>2026-03-28T12:45:09.174Z</time></trkpt><trkpt lat="43.3157576" lon="12.226697"><ele>493.0</ele><time>2026-03-28T12:45:10.174Z</time></trkpt><trkpt lat="43.3156656" lon="12.2267383"><ele>490.50000000000006</ele><time>2026-03-28T12:45:11.175Z</time></trkpt><trkpt lat="43.315566" lon="12.2267627"><ele>488.0</ele><time>2026-03-28T12:45:12.171Z</time></trkpt><trkpt lat="43.3154716" lon="12.2267796"><ele>485.5</ele><time>2026-03-28T12:45:13.174Z</time></trkpt><trkpt lat="43.3153862" lon="12.2267925"><ele>483.0</ele><time>2026-03-28T12:45:14.185Z</time></trkpt><trkpt lat="43.3153066" lon="12.2268008"><ele>480.50000000000006</ele><time>2026-03-28T12:45:15.178Z</time></trkpt><trkpt lat="43.3152303" lon="12.2267969"><ele>478.0</ele><time>2026-03-28T12:45:16.175Z</time></trkpt><trkpt lat="43.3151646" lon="12.2267604"><ele>478.0</ele><time>2026-03-28T12:45:17.182Z</time></trkpt><trkpt lat="43.315113" lon="12.2266851"><ele>477.99999999999994</ele><time>2026-03-28T12:45:18.17Z</time></trkpt><trkpt lat="43.3150766" lon="12.2265735"><ele>477.99999999999994</ele><time>2026-03-28T12:45:19.164Z</time></trkpt><trkpt lat="43.3150516" lon="12.2264295"><ele>478.0</ele><time>2026-03-28T12:45:20.175Z</time></trkpt><trkpt lat="43.3150292" lon="12.2262669"><ele>478.0</ele><time>2026-03-28T12:45:21.181Z</time></trkpt><trkpt lat="43.3150038" lon="12.2261067"><ele>477.79999999999995</ele><time>2026-03-28T12:45:22.173Z</time></trkpt><trkpt lat="43.3149799" lon="12.2259584"><ele>477.59999999999997</ele><time>2026-03-28T12:45:23.175Z</time></trkpt><trkpt lat="43.3149619" lon="12.2258334"><ele>477.40000000000003</ele><time>2026-03-28T12:45:24.168Z</time></trkpt><trkpt lat="43.3149488" lon="12.225732"><ele>477.20000000000005</ele><time>2026-03-28T12:45:25.173Z</time></trkpt><trkpt lat="43.314938" lon="12.2255831"><ele>477.0</ele><time>2026-03-28T12:45:27.173Z</time></trkpt><trkpt lat="43.3149047" lon="12.2254984"><ele>477.0</ele><time>2026-03-28T12:45:29.175Z</time></trkpt><trkpt lat="43.314831" lon="12.2254958"><ele>477.0</ele><time>2026-03-28T12:45:31.168Z</time></trkpt><trkpt lat="43.3148046" lon="12.2255774"><ele>477.0</ele><time>2026-03-28T12:45:32.175Z</time></trkpt><trkpt lat="43.3147761" lon="12.2256861"><ele>477.0</ele><time>2026-03-28T12:45:33.162Z</time></trkpt><trkpt lat="43.3147423" lon="12.2258049"><ele>477.0</ele><time>2026-03-28T12:45:34.17Z</time></trkpt><trkpt lat="43.3146888" lon="12.2259027"><ele>477.0</ele><time>2026-03-28T12:45:35.183Z</time></trkpt><trkpt lat="43.3146143" lon="12.2259849"><ele>472.20000000000005</ele><time>2026-03-28T12:45:36.17Z</time></trkpt><trkpt lat="43.3145262" lon="12.2260641"><ele>467.40000000000003</ele><time>2026-03-28T12:45:37.172Z</time></trkpt><trkpt lat="43.3144257" lon="12.2261395"><ele>462.59999999999997</ele><time>2026-03-28T12:45:38.175Z</time></trkpt><trkpt lat="43.3143212" lon="12.2262062"><ele>457.79999999999995</ele><time>2026-03-28T12:45:39.182Z</time></trkpt><trkpt lat="43.3142165" lon="12.2262689"><ele>453.0</ele><time>2026-03-28T12:45:40.177Z</time></trkpt><trkpt lat="43.3141111" lon="12.2263366"><ele>453.0</ele><time>2026-03-28T12:45:41.171Z</time></trkpt><trkpt lat="43.3140105" lon="12.2264101"><ele>452.99999999999994</ele><time>2026-03-28T12:45:42.174Z</time></trkpt><trkpt lat="43.3139154" lon="12.2264892"><ele>452.99999999999994</ele><time>2026-03-28T12:45:43.172Z</time></trkpt><trkpt lat="43.3138257" lon="12.2265788"><ele>453.0</ele><time>2026-03-28T12:45:44.186Z</time></trkpt><trkpt lat="43.3137405" lon="12.2266703"><ele>453.0</ele><time>2026-03-28T12:45:45.179Z</time></trkpt><trkpt lat="43.3136592" lon="12.2267577"><ele>451.0</ele><time>2026-03-28T12:45:46.184Z</time></trkpt><trkpt lat="43.3135859" lon="12.2268398"><ele>448.99999999999994</ele><time>2026-03-28T12:45:47.175Z</time></trkpt><trkpt lat="43.3135268" lon="12.2269237"><ele>446.99999999999994</ele><time>2026-03-28T12:45:48.175Z</time></trkpt><trkpt lat="43.3134814" lon="12.2270293"><ele>445.0</ele><time>2026-03-28T12:45:49.18Z</time></trkpt><trkpt lat="43.3134518" lon="12.2271571"><ele>443.0</ele><time>2026-03-28T12:45:50.181Z</time></trkpt><trkpt lat="43.3134363" lon="12.2272902"><ele>443.16666666666663</ele><time>2026-03-28T12:45:51.172Z</time></trkpt><trkpt lat="43.3134272" lon="12.2274123"><ele>443.3333333333333</ele><time>2026-03-28T12:45:52.179Z</time></trkpt><trkpt lat="43.3134192" lon="12.2275256"><ele>443.5</ele><time>2026-03-28T12:45:53.184Z</time></trkpt><trkpt lat="43.3134165" lon="12.2276237"><ele>443.66666666666663</ele><time>2026-03-28T12:45:54.176Z</time></trkpt><trkpt lat="43.3134445" lon="12.227729"><ele>443.8333333333333</ele><time>2026-03-28T12:45:55.162Z</time></trkpt><trkpt lat="43.3134976" lon="12.2278301"><ele>444.0</ele><time>2026-03-28T12:45:56.174Z</time></trkpt><trkpt lat="43.31357" lon="12.2279092"><ele>444.0</ele><time>2026-03-28T12:45:57.18Z</time></trkpt><trkpt lat="43.3136542" lon="12.2279705"><ele>444.0</ele><time>2026-03-28T12:45:58.172Z</time></trkpt><trkpt lat="43.3137495" lon="12.2280269"><ele>444.0</ele><time>2026-03-28T12:45:59.186Z</time></trkpt><trkpt lat="43.3138543" lon="12.2280661"><ele>444.0</ele><time>2026-03-28T12:46:00.179Z</time></trkpt><trkpt lat="43.3139618" lon="12.2280924"><ele>444.0</ele><time>2026-03-28T12:46:01.174Z</time></trkpt><trkpt lat="43.3140708" lon="12.2281444"><ele>443.6666666666667</ele><time>2026-03-28T12:46:02.177Z</time></trkpt><trkpt lat="43.3141692" lon="12.2282109"><ele>443.33333333333337</ele><time>2026-03-28T12:46:03.172Z</time></trkpt><trkpt lat="43.3142578" lon="12.2282725"><ele>443.0</ele><time>2026-03-28T12:46:04.176Z</time></trkpt><trkpt lat="43.3143231" lon="12.2283509"><ele>442.6666666666667</ele><time>2026-03-28T12:46:05.171Z</time></trkpt><trkpt lat="43.3143685" lon="12.2284304"><ele>442.33333333333337</ele><time>2026-03-28T12:46:06.179Z</time></trkpt><trkpt lat="43.3144112" lon="12.2284976"><ele>442.0</ele><time>2026-03-28T12:46:07.173Z</time></trkpt><trkpt lat="43.31438" lon="12.2286356"><ele>442.0</ele><time>2026-03-28T12:46:09.17Z</time></trkpt><trkpt lat="43.3143166" lon="12.2286656"><ele>442.00000000000006</ele><time>2026-03-28T12:46:10.162Z</time></trkpt><trkpt lat="43.3142249" lon="12.2286665"><ele>442.00000000000006</ele><time>2026-03-28T12:46:11.166Z</time></trkpt><trkpt lat="43.3141084" lon="12.22864"><ele>442.0</ele><time>2026-03-28T12:46:12.169Z</time></trkpt><trkpt lat="43.3139813" lon="12.2286063"><ele>442.0</ele><time>2026-03-28T12:46:13.174Z</time></trkpt><trkpt lat="43.3138601" lon="12.2285721"><ele>439.25</ele><time>2026-03-28T12:46:14.186Z</time></trkpt><trkpt lat="43.3137495" lon="12.2285528"><ele>436.5</ele><time>2026-03-28T12:46:15.169Z</time></trkpt><trkpt lat="43.3136396" lon="12.2285315"><ele>433.75</ele><time>2026-03-28T12:46:16.174Z</time></trkpt><trkpt lat="43.3135228" lon="12.2285061"><ele>431.0</ele><time>2026-03-28T12:46:17.177Z</time></trkpt><trkpt lat="43.3134138" lon="12.2284673"><ele>431.0</ele><time>2026-03-28T12:46:18.177Z</time></trkpt><trkpt lat="43.3133133" lon="12.2284216"><ele>431.0</ele><time>2026-03-28T12:46:19.169Z</time></trkpt><trkpt lat="43.3132313" lon="12.2283834"><ele>431.0</ele><time>2026-03-28T12:46:20.171Z</time></trkpt><trkpt lat="43.3131642" lon="12.2283491"><ele>431.0</ele><time>2026-03-28T12:46:21.176Z</time></trkpt><trkpt lat="43.3130776" lon="12.2283477"><ele>431.0</ele><time>2026-03-28T12:46:23.166Z</time></trkpt><trkpt lat="43.3130504" lon="12.2284846"><ele>431.0</ele><time>2026-03-28T12:46:25.165Z</time></trkpt><trkpt lat="43.3130756" lon="12.2285792"><ele>431.0</ele><time>2026-03-28T12:46:26.167Z</time></trkpt><trkpt lat="43.3131196" lon="12.2286821"><ele>431.0</ele><time>2026-03-28T12:46:27.182Z</time></trkpt><trkpt lat="43.3131651" lon="12.228758"><ele>431.0</ele><time>2026-03-28T12:46:28.175Z</time></trkpt><trkpt lat="43.3131903" lon="12.2289008"><ele>431.0</ele><time>2026-03-28T12:46:30.169Z</time></trkpt><trkpt lat="43.3130733" lon="12.2289859"><ele>423.5</ele><time>2026-03-28T12:46:32.172Z</time></trkpt><trkpt lat="43.3129706" lon="12.2289947"><ele>416.0</ele><time>2026-03-28T12:46:33.173Z</time></trkpt><trkpt lat="43.3128491" lon="12.2289934"><ele>408.5</ele><time>2026-03-28T12:46:34.174Z</time></trkpt><trkpt lat="43.3127181" lon="12.2289923"><ele>401.0</ele><time>2026-03-28T12:46:35.166Z</time></trkpt><trkpt lat="43.3125781" lon="12.2290077"><ele>401.0</ele><time>2026-03-28T12:46:36.18Z</time></trkpt><trkpt lat="43.3124443" lon="12.2290176"><ele>401.0</ele><time>2026-03-28T12:46:37.179Z</time></trkpt><trkpt lat="43.3123108" lon="12.2290285"><ele>401.0</ele><time>2026-03-28T12:46:38.174Z</time></trkpt><trkpt lat="43.3121782" lon="12.2290355"><ele>401.0</ele><time>2026-03-28T12:46:39.175Z</time></trkpt><trkpt lat="43.3120495" lon="12.2290437"><ele>400.75</ele><time>2026-03-28T12:46:40.173Z</time></trkpt><trkpt lat="43.3119243" lon="12.2290492"><ele>400.5</ele><time>2026-03-28T12:46:41.182Z</time></trkpt><trkpt lat="43.3118001" lon="12.229053"><ele>400.25</ele><time>2026-03-28T12:46:42.18Z</time></trkpt><trkpt lat="43.3116855" lon="12.2290518"><ele>400.0</ele><time>2026-03-28T12:46:43.176Z</time></trkpt><trkpt lat="43.3115705" lon="12.2290506"><ele>400.0</ele><time>2026-03-28T12:46:44.178Z</time></trkpt><trkpt lat="43.3114656" lon="12.2290697"><ele>400.0</ele><time>2026-03-28T12:46:45.183Z</time></trkpt><trkpt lat="43.3113642" lon="12.2291001"><ele>400.0</ele><time>2026-03-28T12:46:46.177Z</time></trkpt><trkpt lat="43.3112593" lon="12.2291475"><ele>400.0</ele><time>2026-03-28T12:46:47.176Z</time></trkpt><trkpt lat="43.3111598" lon="12.2292126"><ele>400.0</ele><time>2026-03-28T12:46:48.178Z</time></trkpt><trkpt lat="43.3110619" lon="12.2292882"><ele>397.75</ele><time>2026-03-28T12:46:49.175Z</time></trkpt><trkpt lat="43.3109622" lon="12.2293691"><ele>395.5</ele><time>2026-03-28T12:46:50.173Z</time></trkpt><trkpt lat="43.3108737" lon="12.229479"><ele>393.25</ele><time>2026-03-28T12:46:51.183Z</time></trkpt><trkpt lat="43.3107922" lon="12.2296042"><ele>391.0</ele><time>2026-03-28T12:46:52.176Z</time></trkpt><trkpt lat="43.3107148" lon="12.2297191"><ele>390.20000000000005</ele><time>2026-03-28T12:46:53.179Z</time></trkpt><trkpt lat="43.3106378" lon="12.2298292"><ele>389.40000000000003</ele><time>2026-03-28T12:46:54.184Z</time></trkpt><trkpt lat="43.3105617" lon="12.2299316"><ele>388.6</ele><time>2026-03-28T12:46:55.178Z</time></trkpt><trkpt lat="43.3104897" lon="12.2300268"><ele>387.8</ele><time>2026-03-28T12:46:56.178Z</time></trkpt><trkpt lat="43.3104166" lon="12.2301165"><ele>387.0</ele><time>2026-03-28T12:46:57.18Z</time></trkpt><trkpt lat="43.310349" lon="12.2301892"><ele>385.6</ele><time>2026-03-28T12:46:58.164Z</time></trkpt><trkpt lat="43.3102885" lon="12.2302698"><ele>384.20000000000005</ele><time>2026-03-28T12:46:59.182Z</time></trkpt><trkpt lat="43.31023" lon="12.2303528"><ele>382.8</ele><time>2026-03-28T12:47:00.171Z</time></trkpt><trkpt lat="43.3101825" lon="12.2304627"><ele>381.4</ele><time>2026-03-28T12:47:01.179Z</time></trkpt><trkpt lat="43.3101664" lon="12.2305909"><ele>380.0</ele><time>2026-03-28T12:47:02.159Z</time></trkpt><trkpt lat="43.3101522" lon="12.2307412"><ele>379.25</ele><time>2026-03-28T12:47:03.187Z</time></trkpt><trkpt lat="43.3101319" lon="12.2308963"><ele>378.5</ele><time>2026-03-28T12:47:04.174Z</time></trkpt><trkpt lat="43.3101029" lon="12.2310506"><ele>377.75</ele><time>2026-03-28T12:47:05.182Z</time></trkpt><trkpt lat="43.310072" lon="12.2312101"><ele>377.0</ele><time>2026-03-28T12:47:06.174Z</time></trkpt><trkpt lat="43.3100157" lon="12.2313611"><ele>376.0</ele><time>2026-03-28T12:47:07.183Z</time></trkpt><trkpt lat="43.309946" lon="12.2315028"><ele>375.0</ele><time>2026-03-28T12:47:08.189Z</time></trkpt><trkpt lat="43.3098665" lon="12.2316312"><ele>374.0</ele><time>2026-03-28T12:47:09.185Z</time></trkpt><trkpt lat="43.3097859" lon="12.2317564"><ele>373.0</ele><time>2026-03-28T12:47:10.181Z</time></trkpt><trkpt lat="43.3096936" lon="12.2318666"><ele>371.25</ele><time>2026-03-28T12:47:11.175Z</time></trkpt><trkpt lat="43.3095843" lon="12.2319561"><ele>369.5</ele><time>2026-03-28T12:47:12.172Z</time></trkpt><trkpt lat="43.3094818" lon="12.2320414"><ele>367.75</ele><time>2026-03-28T12:47:13.18Z</time></trkpt><trkpt lat="43.3093708" lon="12.2320759"><ele>366.0</ele><time>2026-03-28T12:47:14.185Z</time></trkpt><trkpt lat="43.3092535" lon="12.2320817"><ele>366.0</ele><time>2026-03-28T12:47:15.178Z</time></trkpt><trkpt lat="43.3091434" lon="12.2320831"><ele>366.0</ele><time>2026-03-28T12:47:16.185Z</time></trkpt><trkpt lat="43.3090476" lon="12.2320787"><ele>366.0</ele><time>2026-03-28T12:47:17.179Z</time></trkpt><trkpt lat="43.308961" lon="12.2320753"><ele>366.0</ele><time>2026-03-28T12:47:18.189Z</time></trkpt><trkpt lat="43.3088848" lon="12.2320981"><ele>366.0</ele><time>2026-03-28T12:47:19.176Z</time></trkpt><trkpt lat="43.3088009" lon="12.2321564"><ele>364.0</ele><time>2026-03-28T12:47:20.177Z</time></trkpt><trkpt lat="43.3087199" lon="12.2322576"><ele>362.0</ele><time>2026-03-28T12:47:21.176Z</time></trkpt><trkpt lat="43.308642" lon="12.2323738"><ele>360.0</ele><time>2026-03-28T12:47:22.18Z</time></trkpt><trkpt lat="43.3085684" lon="12.232487"><ele>358.0</ele><time>2026-03-28T12:47:23.175Z</time></trkpt><trkpt lat="43.308497" lon="12.2326116"><ele>358.0</ele><time>2026-03-28T12:47:24.177Z</time></trkpt><trkpt lat="43.3084359" lon="12.2327276"><ele>358.0</ele><time>2026-03-28T12:47:25.174Z</time></trkpt><trkpt lat="43.3083886" lon="12.2328388"><ele>358.0</ele><time>2026-03-28T12:47:26.179Z</time></trkpt><trkpt lat="43.3083502" lon="12.2329589"><ele>358.0</ele><time>2026-03-28T12:47:27.186Z</time></trkpt><trkpt lat="43.3083269" lon="12.2330809"><ele>358.0</ele><time>2026-03-28T12:47:28.174Z</time></trkpt><trkpt lat="43.3083183" lon="12.2332148"><ele>358.2</ele><time>2026-03-28T12:47:29.182Z</time></trkpt><trkpt lat="43.3083257" lon="12.2333738"><ele>358.4</ele><time>2026-03-28T12:47:30.173Z</time></trkpt><trkpt lat="43.3083354" lon="12.233533"><ele>358.59999999999997</ele><time>2026-03-28T12:47:31.172Z</time></trkpt><trkpt lat="43.3083568" lon="12.2336818"><ele>358.79999999999995</ele><time>2026-03-28T12:47:32.176Z</time></trkpt><trkpt lat="43.3083734" lon="12.2337978"><ele>359.0</ele><time>2026-03-28T12:47:33.17Z</time></trkpt><trkpt lat="43.3084014" lon="12.2339232"><ele>357.1666666666667</ele><time>2026-03-28T12:47:35.168Z</time></trkpt><trkpt lat="43.3084457" lon="12.2340366"><ele>355.33333333333337</ele><time>2026-03-28T12:47:38.172Z</time></trkpt><trkpt lat="43.3084996" lon="12.2341629"><ele>353.5</ele><time>2026-03-28T12:47:40.179Z</time></trkpt><trkpt lat="43.3085301" lon="12.2342554"><ele>351.6666666666667</ele><time>2026-03-28T12:47:41.174Z</time></trkpt><trkpt lat="43.308557" lon="12.2343424"><ele>349.8333333333333</ele><time>2026-03-28T12:47:42.174Z</time></trkpt><trkpt lat="43.3085982" lon="12.2344757"><ele>348.0</ele><time>2026-03-28T12:47:44.173Z</time></trkpt><trkpt lat="43.3085347" lon="12.2345701"><ele>348.0</ele><time>2026-03-28T12:47:47.173Z</time></trkpt><trkpt lat="43.3083979" lon="12.234533"><ele>348.0</ele><time>2026-03-28T12:47:49.172Z</time></trkpt><trkpt lat="43.3083087" lon="12.2344852"><ele>348.0</ele><time>2026-03-28T12:47:50.176Z</time></trkpt><trkpt lat="43.3082147" lon="12.2344433"><ele>348.0</ele><time>2026-03-28T12:47:51.173Z</time></trkpt><trkpt lat="43.3081213" lon="12.2344043"><ele>348.0</ele><time>2026-03-28T12:47:52.178Z</time></trkpt><trkpt lat="43.3080396" lon="12.2343782"><ele>346.8333333333333</ele><time>2026-03-28T12:47:53.171Z</time></trkpt><trkpt lat="43.307961" lon="12.2343562"><ele>345.6666666666667</ele><time>2026-03-28T12:47:54.17Z</time></trkpt><trkpt lat="43.3078599" lon="12.2343707"><ele>344.5</ele><time>2026-03-28T12:47:56.171Z</time></trkpt><trkpt lat="43.3078314" lon="12.2344859"><ele>343.33333333333337</ele><time>2026-03-28T12:47:58.161Z</time></trkpt><trkpt lat="43.3078555" lon="12.2345725"><ele>342.1666666666667</ele><time>2026-03-28T12:47:59.17Z</time></trkpt><trkpt lat="43.3079078" lon="12.2346647"><ele>341.0</ele><time>2026-03-28T12:48:00.17Z</time></trkpt><trkpt lat="43.3079751" lon="12.2347786"><ele>340.0</ele><time>2026-03-28T12:48:01.183Z</time></trkpt><trkpt lat="43.308044" lon="12.2348842"><ele>339.0</ele><time>2026-03-28T12:48:02.172Z</time></trkpt><trkpt lat="43.3081005" lon="12.2349731"><ele>338.0</ele><time>2026-03-28T12:48:03.171Z</time></trkpt><trkpt lat="43.3081564" lon="12.2350574"><ele>337.0</ele><time>2026-03-28T12:48:04.181Z</time></trkpt><trkpt lat="43.3081983" lon="12.2351245"><ele>336.0</ele><time>2026-03-28T12:48:05.176Z</time></trkpt><trkpt lat="43.3082368" lon="12.2352578"><ele>335.0</ele><time>2026-03-28T12:48:07.172Z</time></trkpt><trkpt lat="43.3081987" lon="12.2353281"><ele>335.0</ele><time>2026-03-28T12:48:08.167Z</time></trkpt><trkpt lat="43.3081394" lon="12.2353922"><ele>335.0</ele><time>2026-03-28T12:48:09.177Z</time></trkpt><trkpt lat="43.3080616" lon="12.2354407"><ele>335.0</ele><time>2026-03-28T12:48:10.177Z</time></trkpt><trkpt lat="43.3079866" lon="12.235492"><ele>335.0</ele><time>2026-03-28T12:48:11.181Z</time></trkpt><trkpt lat="43.3079276" lon="12.2355815"><ele>335.0</ele><time>2026-03-28T12:48:12.176Z</time></trkpt><trkpt lat="43.3078801" lon="12.2357046"><ele>335.0</ele><time>2026-03-28T12:48:13.173Z</time></trkpt><trkpt lat="43.307855" lon="12.2358237"><ele>332.0</ele><time>2026-03-28T12:48:14.175Z</time></trkpt><trkpt lat="43.3078393" lon="12.2359372"><ele>329.0</ele><time>2026-03-28T12:48:15.17Z</time></trkpt><trkpt lat="43.3078352" lon="12.2360489"><ele>326.0</ele><time>2026-03-28T12:48:16.179Z</time></trkpt><trkpt lat="43.3078538" lon="12.2361635"><ele>323.0</ele><time>2026-03-28T12:48:17.177Z</time></trkpt><trkpt lat="43.3079048" lon="12.2362724"><ele>320.0</ele><time>2026-03-28T12:48:18.172Z</time></trkpt><trkpt lat="43.3079596" lon="12.2363718"><ele>317.0</ele><time>2026-03-28T12:48:19.173Z</time></trkpt><trkpt lat="43.3080213" lon="12.2364733"><ele>316.0</ele><time>2026-03-28T12:48:20.18Z</time></trkpt><trkpt lat="43.3080654" lon="12.2365846"><ele>315.0</ele><time>2026-03-28T12:48:21.176Z</time></trkpt><trkpt lat="43.3080967" lon="12.2367034"><ele>314.0</ele><time>2026-03-28T12:48:22.177Z</time></trkpt><trkpt lat="43.3081247" lon="12.2368149"><ele>313.0</ele><time>2026-03-28T12:48:23.184Z</time></trkpt><trkpt lat="43.3081414" lon="12.2369277"><ele>312.0</ele><time>2026-03-28T12:48:24.173Z</time></trkpt><trkpt lat="43.3081405" lon="12.2370361"><ele>311.0</ele><time>2026-03-28T12:48:25.173Z</time></trkpt><trkpt lat="43.3081395" lon="12.2371299"><ele>311.0</ele><time>2026-03-28T12:48:26.171Z</time></trkpt><trkpt lat="43.3080874" lon="12.2372923"><ele>311.0</ele><time>2026-03-28T12:48:28.181Z</time></trkpt><trkpt lat="43.308022" lon="12.2373771"><ele>311.0</ele><time>2026-03-28T12:48:29.181Z</time></trkpt><trkpt lat="43.3079291" lon="12.2374524"><ele>311.0</ele><time>2026-03-28T12:48:30.175Z</time></trkpt><trkpt lat="43.3078207" lon="12.2375229"><ele>311.0</ele><time>2026-03-28T12:48:31.177Z</time></trkpt><trkpt lat="43.3077124" lon="12.2375849"><ele>309.6</ele><time>2026-03-28T12:48:32.184Z</time></trkpt><trkpt lat="43.307614" lon="12.2376433"><ele>308.20000000000005</ele><time>2026-03-28T12:48:33.181Z</time></trkpt><trkpt lat="43.3075294" lon="12.2377008"><ele>306.79999999999995</ele><time>2026-03-28T12:48:34.176Z</time></trkpt><trkpt lat="43.3074307" lon="12.2377582"><ele>305.4</ele><time>2026-03-28T12:48:35.176Z</time></trkpt><trkpt lat="43.3073408" lon="12.2377906"><ele>304.0</ele><time>2026-03-28T12:48:36.175Z</time></trkpt><trkpt lat="43.3072543" lon="12.2378127"><ele>302.0</ele><time>2026-03-28T12:48:37.178Z</time></trkpt><trkpt lat="43.3071559" lon="12.2378266"><ele>300.0</ele><time>2026-03-28T12:48:38.177Z</time></trkpt><trkpt lat="43.3070622" lon="12.2378223"><ele>298.0</ele><time>2026-03-28T12:48:39.175Z</time></trkpt><trkpt lat="43.3069841" lon="12.2377899"><ele>296.0</ele><time>2026-03-28T12:48:40.187Z</time></trkpt><trkpt lat="43.3069158" lon="12.237738"><ele>294.0</ele><time>2026-03-28T12:48:41.192Z</time></trkpt><trkpt lat="43.3068475" lon="12.2376845"><ele>292.0</ele><time>2026-03-28T12:48:42.18Z</time></trkpt><trkpt lat="43.3067645" lon="12.2376438"><ele>292.0</ele><time>2026-03-28T12:48:43.182Z</time></trkpt><trkpt lat="43.3066843" lon="12.2376399"><ele>292.0</ele><time>2026-03-28T12:48:44.179Z</time></trkpt><trkpt lat="43.3066091" lon="12.2376675"><ele>292.0</ele><time>2026-03-28T12:48:45.169Z</time></trkpt><trkpt lat="43.3065435" lon="12.2377074"><ele>292.0</ele><time>2026-03-28T12:48:46.181Z</time></trkpt><trkpt lat="43.3064738" lon="12.237742"><ele>292.0</ele><time>2026-03-28T12:48:47.172Z</time></trkpt><trkpt lat="43.3063712" lon="12.2377733"><ele>292.0</ele><time>2026-03-28T12:48:49.181Z</time></trkpt><trkpt lat="43.3062816" lon="12.237833"><ele>292.0</ele><time>2026-03-28T12:48:52.175Z</time></trkpt><trkpt lat="43.3062713" lon="12.2379431"><ele>292.0</ele><time>2026-03-28T12:48:55.167Z</time></trkpt><trkpt lat="43.3063871" lon="12.2380311"><ele>292.0</ele><time>2026-03-28T12:48:57.172Z</time></trkpt><trkpt lat="43.3064701" lon="12.2380754"><ele>292.0</ele><time>2026-03-28T12:48:58.173Z</time></trkpt><trkpt lat="43.3065688" lon="12.2381183"><ele>292.0</ele><time>2026-03-28T12:48:59.176Z</time></trkpt><trkpt lat="43.3066802" lon="12.2381675"><ele>291.25</ele><time>2026-03-28T12:49:00.172Z</time></trkpt><trkpt lat="43.3068004" lon="12.2382081"><ele>290.5</ele><time>2026-03-28T12:49:01.179Z</time></trkpt><trkpt lat="43.3069179" lon="12.2382498"><ele>289.75</ele><time>2026-03-28T12:49:02.179Z</time></trkpt><trkpt lat="43.3070344" lon="12.2382921"><ele>289.0</ele><time>2026-03-28T12:49:03.178Z</time></trkpt><trkpt lat="43.3071406" lon="12.2383274"><ele>289.0</ele><time>2026-03-28T12:49:04.179Z</time></trkpt><trkpt lat="43.3072349" lon="12.2383575"><ele>289.0</ele><time>2026-03-28T12:49:05.171Z</time></trkpt><trkpt lat="43.3073241" lon="12.2383869"><ele>289.0</ele><time>2026-03-28T12:49:06.176Z</time></trkpt><trkpt lat="43.3074092" lon="12.2384187"><ele>289.0</ele><time>2026-03-28T12:49:07.174Z</time></trkpt><trkpt lat="43.3074906" lon="12.2384513"><ele>289.0</ele><time>2026-03-28T12:49:08.18Z</time></trkpt><trkpt lat="43.3075694" lon="12.2384867"><ele>289.0</ele><time>2026-03-28T12:49:09.174Z</time></trkpt><trkpt lat="43.3076452" lon="12.238523"><ele>290.0</ele><time>2026-03-28T12:49:10.161Z</time></trkpt><trkpt lat="43.307717" lon="12.2385539"><ele>291.0</ele><time>2026-03-28T12:49:11.173Z</time></trkpt><trkpt lat="43.3077863" lon="12.238583"><ele>292.0</ele><time>2026-03-28T12:49:12.18Z</time></trkpt><trkpt lat="43.3078463" lon="12.2386133"><ele>293.0</ele><time>2026-03-28T12:49:13.183Z</time></trkpt><trkpt lat="43.3078919" lon="12.2386916"><ele>294.0</ele><time>2026-03-28T12:49:15.178Z</time></trkpt><trkpt lat="43.3078679" lon="12.2388343"><ele>295.0</ele><time>2026-03-28T12:49:17.166Z</time></trkpt><trkpt lat="43.3078301" lon="12.2389271"><ele>294.3333333333333</ele><time>2026-03-28T12:49:18.185Z</time></trkpt><trkpt lat="43.3077968" lon="12.2390379"><ele>293.66666666666663</ele><time>2026-03-28T12:49:19.175Z</time></trkpt><trkpt lat="43.3077742" lon="12.23916"><ele>293.0</ele><time>2026-03-28T12:49:20.179Z</time></trkpt><trkpt lat="43.3077682" lon="12.2392801"><ele>292.3333333333333</ele><time>2026-03-28T12:49:21.17Z</time></trkpt><trkpt lat="43.3077579" lon="12.2394012"><ele>291.6666666666667</ele><time>2026-03-28T12:49:22.17Z</time></trkpt><trkpt lat="43.3077252" lon="12.2395137"><ele>291.0</ele><time>2026-03-28T12:49:23.182Z</time></trkpt><trkpt lat="43.3076682" lon="12.2396212"><ele>291.0</ele><time>2026-03-28T12:49:24.173Z</time></trkpt><trkpt lat="43.3076121" lon="12.2397178"><ele>291.0</ele><time>2026-03-28T12:49:25.172Z</time></trkpt><trkpt lat="43.3075674" lon="12.2398004"><ele>291.0</ele><time>2026-03-28T12:49:26.183Z</time></trkpt><trkpt lat="43.3075342" lon="12.2398769"><ele>291.0</ele><time>2026-03-28T12:49:27.175Z</time></trkpt><trkpt lat="43.3074877" lon="12.2400116"><ele>291.0</ele><time>2026-03-28T12:49:29.18Z</time></trkpt><trkpt lat="43.3074612" lon="12.2401382"><ele>291.0</ele><time>2026-03-28T12:49:31.177Z</time></trkpt><trkpt lat="43.3073962" lon="12.240269"><ele>291.1666666666667</ele><time>2026-03-28T12:49:33.163Z</time></trkpt><trkpt lat="43.3073338" lon="12.2403315"><ele>291.3333333333333</ele><time>2026-03-28T12:49:34.174Z</time></trkpt><trkpt lat="43.307255" lon="12.2403815"><ele>291.5</ele><time>2026-03-28T12:49:35.171Z</time></trkpt><trkpt lat="43.3071787" lon="12.2404275"><ele>291.66666666666663</ele><time>2026-03-28T12:49:36.179Z</time></trkpt><trkpt lat="43.3070889" lon="12.2404448"><ele>291.8333333333333</ele><time>2026-03-28T12:49:37.172Z</time></trkpt><trkpt lat="43.3069842" lon="12.2404567"><ele>292.0</ele><time>2026-03-28T12:49:38.172Z</time></trkpt><trkpt lat="43.3068804" lon="12.2404645"><ele>291.25</ele><time>2026-03-28T12:49:39.182Z</time></trkpt><trkpt lat="43.306781" lon="12.2404698"><ele>290.5</ele><time>2026-03-28T12:49:40.175Z</time></trkpt><trkpt lat="43.3066739" lon="12.2404787"><ele>289.75</ele><time>2026-03-28T12:49:41.179Z</time></trkpt><trkpt lat="43.3065597" lon="12.2405196"><ele>289.0</ele><time>2026-03-28T12:49:42.165Z</time></trkpt><trkpt lat="43.3064397" lon="12.2405687"><ele>287.5</ele><time>2026-03-28T12:49:43.161Z</time></trkpt><trkpt lat="43.3063149" lon="12.2406193"><ele>286.0</ele><time>2026-03-28T12:49:44.175Z</time></trkpt><trkpt lat="43.3061863" lon="12.2406674"><ele>284.5</ele><time>2026-03-28T12:49:45.172Z</time></trkpt><trkpt lat="43.3060596" lon="12.2407123"><ele>283.0</ele><time>2026-03-28T12:49:46.177Z</time></trkpt><trkpt lat="43.3059323" lon="12.240753"><ele>283.0</ele><time>2026-03-28T12:49:47.18Z</time></trkpt><trkpt lat="43.3058066" lon="12.2407946"><ele>283.0</ele><time>2026-03-28T12:49:48.175Z</time></trkpt><trkpt lat="43.3056856" lon="12.2408345"><ele>283.0</ele><time>2026-03-28T12:49:49.175Z</time></trkpt><trkpt lat="43.3055723" lon="12.24087"><ele>283.0</ele><time>2026-03-28T12:49:50.17Z</time></trkpt><trkpt lat="43.3054708" lon="12.2408977"><ele>282.6</ele><time>2026-03-28T12:49:51.173Z</time></trkpt><trkpt lat="43.3053831" lon="12.2409159"><ele>282.20000000000005</ele><time>2026-03-28T12:49:52.161Z</time></trkpt><trkpt lat="43.3053124" lon="12.2409247"><ele>281.8</ele><time>2026-03-28T12:49:53.17Z</time></trkpt><trkpt lat="43.3052196" lon="12.2409292"><ele>281.40000000000003</ele><time>2026-03-28T12:49:55.172Z</time></trkpt><trkpt lat="43.3051517" lon="12.2409396"><ele>281.0</ele><time>2026-03-28T12:49:57.178Z</time></trkpt><trkpt lat="43.3050102" lon="12.2410118"><ele>281.0</ele><time>2026-03-28T12:49:59.172Z</time></trkpt><trkpt lat="43.3049143" lon="12.2410885"><ele>281.0</ele><time>2026-03-28T12:50:00.171Z</time></trkpt><trkpt lat="43.3048156" lon="12.241163"><ele>281.0</ele><time>2026-03-28T12:50:01.182Z</time></trkpt><trkpt lat="43.3047121" lon="12.2412318"><ele>281.0</ele><time>2026-03-28T12:50:02.168Z</time></trkpt><trkpt lat="43.3046049" lon="12.2412963"><ele>280.6</ele><time>2026-03-28T12:50:03.175Z</time></trkpt><trkpt lat="43.3045002" lon="12.2413594"><ele>280.20000000000005</ele><time>2026-03-28T12:50:04.177Z</time></trkpt><trkpt lat="43.3043923" lon="12.2414142"><ele>279.79999999999995</ele><time>2026-03-28T12:50:05.188Z</time></trkpt><trkpt lat="43.3042904" lon="12.2414544"><ele>279.4</ele><time>2026-03-28T12:50:06.178Z</time></trkpt><trkpt lat="43.3041936" lon="12.2414853"><ele>279.0</ele><time>2026-03-28T12:50:07.178Z</time></trkpt><trkpt lat="43.3041013" lon="12.2415233"><ele>279.0</ele><time>2026-03-28T12:50:08.185Z</time></trkpt><trkpt lat="43.3040147" lon="12.2415814"><ele>279.0</ele><time>2026-03-28T12:50:09.184Z</time></trkpt><trkpt lat="43.3039392" lon="12.2416585"><ele>279.0</ele><time>2026-03-28T12:50:10.17Z</time></trkpt><trkpt lat="43.303867" lon="12.2417641"><ele>279.0</ele><time>2026-03-28T12:50:11.174Z</time></trkpt><trkpt lat="43.3037879" lon="12.2418813"><ele>279.0</ele><time>2026-03-28T12:50:12.175Z</time></trkpt><trkpt lat="43.3037171" lon="12.2420303"><ele>278.0</ele><time>2026-03-28T12:50:13.163Z</time></trkpt><trkpt lat="43.3036433" lon="12.2421872"><ele>277.0</ele><time>2026-03-28T12:50:14.172Z</time></trkpt><trkpt lat="43.3035694" lon="12.2423508"><ele>276.0</ele><time>2026-03-28T12:50:15.173Z</time></trkpt><trkpt lat="43.3035007" lon="12.2425166"><ele>275.0</ele><time>2026-03-28T12:50:16.169Z</time></trkpt><trkpt lat="43.3034343" lon="12.2426869"><ele>275.0</ele><time>2026-03-28T12:50:17.176Z</time></trkpt><trkpt lat="43.3033681" lon="12.2428587"><ele>275.0</ele><time>2026-03-28T12:50:18.176Z</time></trkpt><trkpt lat="43.3032943" lon="12.2430279"><ele>275.0</ele><time>2026-03-28T12:50:19.186Z</time></trkpt><trkpt lat="43.3032113" lon="12.2431942"><ele>275.0</ele><time>2026-03-28T12:50:20.178Z</time></trkpt><trkpt lat="43.3031232" lon="12.2433609"><ele>273.33333333333337</ele><time>2026-03-28T12:50:21.182Z</time></trkpt><trkpt lat="43.3030331" lon="12.2435309"><ele>271.6666666666667</ele><time>2026-03-28T12:50:22.179Z</time></trkpt><trkpt lat="43.3029426" lon="12.243699"><ele>270.0</ele><time>2026-03-28T12:50:23.181Z</time></trkpt><trkpt lat="43.3028545" lon="12.2438627"><ele>270.25</ele><time>2026-03-28T12:50:24.184Z</time></trkpt><trkpt lat="43.3027692" lon="12.2440176"><ele>270.5</ele><time>2026-03-28T12:50:25.175Z</time></trkpt><trkpt lat="43.3026878" lon="12.244166"><ele>270.75</ele><time>2026-03-28T12:50:26.177Z</time></trkpt><trkpt lat="43.3026045" lon="12.2443143"><ele>271.0</ele><time>2026-03-28T12:50:27.172Z</time></trkpt><trkpt lat="43.302526" lon="12.2444558"><ele>271.0</ele><time>2026-03-28T12:50:28.179Z</time></trkpt><trkpt lat="43.3024524" lon="12.2445876"><ele>271.0</ele><time>2026-03-28T12:50:29.176Z</time></trkpt><trkpt lat="43.3023803" lon="12.2447049"><ele>271.0</ele><time>2026-03-28T12:50:30.17Z</time></trkpt><trkpt lat="43.302313" lon="12.2448123"><ele>271.0</ele><time>2026-03-28T12:50:31.179Z</time></trkpt><trkpt lat="43.3022307" lon="12.2448798"><ele>271.0</ele><time>2026-03-28T12:50:32.174Z</time></trkpt><trkpt lat="43.3021354" lon="12.2449093"><ele>270.8</ele><time>2026-03-28T12:50:33.176Z</time></trkpt><trkpt lat="43.3020312" lon="12.2448977"><ele>270.6</ele><time>2026-03-28T12:50:34.181Z</time></trkpt><trkpt lat="43.3019229" lon="12.2448463"><ele>270.4</ele><time>2026-03-28T12:50:35.188Z</time></trkpt><trkpt lat="43.3018186" lon="12.2447816"><ele>270.2</ele><time>2026-03-28T12:50:36.176Z</time></trkpt><trkpt lat="43.3017269" lon="12.2447328"><ele>270.0</ele><time>2026-03-28T12:50:37.176Z</time></trkpt><trkpt lat="43.3016444" lon="12.2447053"><ele>270.0</ele><time>2026-03-28T12:50:38.186Z</time></trkpt><trkpt lat="43.3015757" lon="12.2447069"><ele>270.0</ele><time>2026-03-28T12:50:39.176Z</time></trkpt><trkpt lat="43.3015132" lon="12.2447441"><ele>270.0</ele><time>2026-03-28T12:50:40.179Z</time></trkpt><trkpt lat="43.3014402" lon="12.244807"><ele>270.0</ele><time>2026-03-28T12:50:41.176Z</time></trkpt><trkpt lat="43.3013447" lon="12.2448592"><ele>270.0</ele><time>2026-03-28T12:50:42.179Z</time></trkpt><trkpt lat="43.301227" lon="12.2448822"><ele>270.0</ele><time>2026-03-28T12:50:43.173Z</time></trkpt><trkpt lat="43.3010934" lon="12.2448955"><ele>270.0</ele><time>2026-03-28T12:50:44.178Z</time></trkpt><trkpt lat="43.3009565" lon="12.2449048"><ele>270.0</ele><time>2026-03-28T12:50:45.176Z</time></trkpt><trkpt lat="43.3008259" lon="12.2449081"><ele>270.0</ele><time>2026-03-28T12:50:46.179Z</time></trkpt><trkpt lat="43.3006997" lon="12.2449035"><ele>270.0</ele><time>2026-03-28T12:50:47.168Z</time></trkpt><trkpt lat="43.3005763" lon="12.2448859"><ele>270.0</ele><time>2026-03-28T12:50:48.172Z</time></trkpt><trkpt lat="43.300462" lon="12.2448584"><ele>270.0</ele><time>2026-03-28T12:50:49.181Z</time></trkpt><trkpt lat="43.3003679" lon="12.2448219"><ele>270.0</ele><time>2026-03-28T12:50:50.175Z</time></trkpt><trkpt lat="43.3002818" lon="12.2447783"><ele>270.0</ele><time>2026-03-28T12:50:51.184Z</time></trkpt><trkpt lat="43.3001951" lon="12.2447059"><ele>270.0</ele><time>2026-03-28T12:50:52.176Z</time></trkpt><trkpt lat="43.3001192" lon="12.2445877"><ele>270.0</ele><time>2026-03-28T12:50:53.173Z</time></trkpt><trkpt lat="43.3000565" lon="12.244432"><ele>270.0</ele><time>2026-03-28T12:50:54.181Z</time></trkpt><trkpt lat="43.3000014" lon="12.2442617"><ele>270.0</ele><time>2026-03-28T12:50:55.174Z</time></trkpt><trkpt lat="43.2999463" lon="12.2440889"><ele>270.0</ele><time>2026-03-28T12:50:56.182Z</time></trkpt><trkpt lat="43.2998894" lon="12.2439168"><ele>270.25</ele><time>2026-03-28T12:50:57.175Z</time></trkpt><trkpt lat="43.299834" lon="12.2437572"><ele>270.5</ele><time>2026-03-28T12:50:58.18Z</time></trkpt><trkpt lat="43.2997781" lon="12.243609"><ele>270.75</ele><time>2026-03-28T12:50:59.182Z</time></trkpt><trkpt lat="43.2997231" lon="12.2434652"><ele>271.0</ele><time>2026-03-28T12:51:00.183Z</time></trkpt><trkpt lat="43.2996597" lon="12.2433247"><ele>271.0</ele><time>2026-03-28T12:51:01.192Z</time></trkpt><trkpt lat="43.2995778" lon="12.2431962"><ele>271.0</ele><time>2026-03-28T12:51:02.174Z</time></trkpt><trkpt lat="43.2994812" lon="12.2430803"><ele>271.0</ele><time>2026-03-28T12:51:03.172Z</time></trkpt><trkpt lat="43.2993785" lon="12.2429701"><ele>271.0</ele><time>2026-03-28T12:51:04.179Z</time></trkpt><trkpt lat="43.299273" lon="12.2428645"><ele>271.0</ele><time>2026-03-28T12:51:05.179Z</time></trkpt><trkpt lat="43.2991705" lon="12.242768"><ele>271.0</ele><time>2026-03-28T12:51:06.172Z</time></trkpt><trkpt lat="43.2990684" lon="12.2426879"><ele>271.0</ele><time>2026-03-28T12:51:07.167Z</time></trkpt><trkpt lat="43.2989543" lon="12.2426294"><ele>271.0</ele><time>2026-03-28T12:51:08.172Z</time></trkpt><trkpt lat="43.2988254" lon="12.2425962"><ele>271.0</ele><time>2026-03-28T12:51:09.18Z</time></trkpt><trkpt lat="43.2986868" lon="12.242579"><ele>271.0</ele><time>2026-03-28T12:51:10.174Z</time></trkpt><trkpt lat="43.2985524" lon="12.2425612"><ele>271.0</ele><time>2026-03-28T12:51:11.187Z</time></trkpt><trkpt lat="43.2984287" lon="12.2425332"><ele>271.0</ele><time>2026-03-28T12:51:12.184Z</time></trkpt><trkpt lat="43.2983196" lon="12.2424826"><ele>271.0</ele><time>2026-03-28T12:51:13.182Z</time></trkpt><trkpt lat="43.298222" lon="12.2424221"><ele>271.0</ele><time>2026-03-28T12:51:14.172Z</time></trkpt><trkpt lat="43.2981273" lon="12.242385"><ele>271.0</ele><time>2026-03-28T12:51:15.171Z</time></trkpt><trkpt lat="43.2980294" lon="12.2423872"><ele>271.0</ele><time>2026-03-28T12:51:16.173Z</time></trkpt><trkpt lat="43.2979382" lon="12.2424378"><ele>271.0</ele><time>2026-03-28T12:51:17.179Z</time></trkpt><trkpt lat="43.2978507" lon="12.2425211"><ele>273.5</ele><time>2026-03-28T12:51:18.17Z</time></trkpt><trkpt lat="43.2977557" lon="12.2425943"><ele>276.0</ele><time>2026-03-28T12:51:19.173Z</time></trkpt><trkpt lat="43.2976474" lon="12.242634"><ele>278.5</ele><time>2026-03-28T12:51:20.183Z</time></trkpt><trkpt lat="43.2975223" lon="12.2426543"><ele>281.0</ele><time>2026-03-28T12:51:21.174Z</time></trkpt><trkpt lat="43.2973901" lon="12.2426734"><ele>283.5</ele><time>2026-03-28T12:51:22.189Z</time></trkpt><trkpt lat="43.2972512" lon="12.2426948"><ele>286.0</ele><time>2026-03-28T12:51:23.168Z</time></trkpt><trkpt lat="43.2971048" lon="12.2427423"><ele>288.5</ele><time>2026-03-28T12:51:24.181Z</time></trkpt><trkpt lat="43.2969535" lon="12.2427899"><ele>291.0</ele><time>2026-03-28T12:51:25.176Z</time></trkpt><trkpt lat="43.2968037" lon="12.2428421"><ele>291.0</ele><time>2026-03-28T12:51:26.167Z</time></trkpt><trkpt lat="43.2966703" lon="12.2428974"><ele>291.0</ele><time>2026-03-28T12:51:27.18Z</time></trkpt><trkpt lat="43.2965562" lon="12.2429588"><ele>291.0</ele><time>2026-03-28T12:51:28.176Z</time></trkpt><trkpt lat="43.2964592" lon="12.2430132"><ele>291.0</ele><time>2026-03-28T12:51:29.187Z</time></trkpt><trkpt lat="43.2963883" lon="12.2430529"><ele>291.0</ele><time>2026-03-28T12:51:30.179Z</time></trkpt><trkpt lat="43.2962726" lon="12.2430826"><ele>293.0</ele><time>2026-03-28T12:51:32.183Z</time></trkpt><trkpt lat="43.2962048" lon="12.2430764"><ele>295.0</ele><time>2026-03-28T12:51:33.173Z</time></trkpt><trkpt lat="43.2961029" lon="12.2430483"><ele>297.0</ele><time>2026-03-28T12:51:35.18Z</time></trkpt><trkpt lat="43.2960249" lon="12.2430446"><ele>299.0</ele><time>2026-03-28T12:51:44.172Z</time></trkpt><trkpt lat="43.2959162" lon="12.2430419"><ele>301.0</ele><time>2026-03-28T12:51:46.161Z</time></trkpt><trkpt lat="43.2958304" lon="12.2430284"><ele>303.0</ele><time>2026-03-28T12:51:47.175Z</time></trkpt><trkpt lat="43.2957362" lon="12.2430148"><ele>303.0</ele><time>2026-03-28T12:51:48.208Z</time></trkpt><trkpt lat="43.2956306" lon="12.2430028"><ele>303.0</ele><time>2026-03-28T12:51:49.193Z</time></trkpt><trkpt lat="43.2955324" lon="12.242995"><ele>303.0</ele><time>2026-03-28T12:51:50.19Z</time></trkpt><trkpt lat="43.2954325" lon="12.2429883"><ele>303.0</ele><time>2026-03-28T12:51:51.19Z</time></trkpt><trkpt lat="43.2953323" lon="12.2429804"><ele>303.0</ele><time>2026-03-28T12:51:52.191Z</time></trkpt><trkpt lat="43.2952388" lon="12.2429749"><ele>303.0</ele><time>2026-03-28T12:51:53.198Z</time></trkpt><trkpt lat="43.2951606" lon="12.2429769"><ele>303.0</ele><time>2026-03-28T12:51:54.185Z</time></trkpt><trkpt lat="43.2950911" lon="12.2429603"><ele>303.0</ele><time>2026-03-28T12:51:55.177Z</time></trkpt><trkpt lat="43.2950052" lon="12.2428622"><ele>303.0</ele><time>2026-03-28T12:51:57.195Z</time></trkpt><trkpt lat="43.2949964" lon="12.2427322"><ele>303.0</ele><time>2026-03-28T12:51:59.19Z</time></trkpt><trkpt lat="43.2950487" lon="12.2426718"><ele>303.0</ele><time>2026-03-28T12:52:00.191Z</time></trkpt><trkpt lat="43.2951203" lon="12.2426287"><ele>303.0</ele><time>2026-03-28T12:52:01.21Z</time></trkpt><trkpt lat="43.2951928" lon="12.242586"><ele>303.0</ele><time>2026-03-28T12:52:02.17Z</time></trkpt><trkpt lat="43.2952584" lon="12.2425611"><ele>303.0</ele><time>2026-03-28T12:52:03.163Z</time></trkpt><trkpt lat="43.2953485" lon="12.2425292"><ele>303.0</ele><time>2026-03-28T12:52:05.195Z</time></trkpt><trkpt lat="43.2954243" lon="12.2425063"><ele>303.0</ele><time>2026-03-28T12:52:08.19Z</time></trkpt><trkpt lat="43.2954963" lon="12.2424833"><ele>303.0</ele><time>2026-03-28T12:52:18.172Z</time></trkpt><trkpt lat="43.295603" lon="12.2424543"><ele>303.0</ele><time>2026-03-28T12:52:20.178Z</time></trkpt><trkpt lat="43.2956733" lon="12.2424335"><ele>303.0</ele><time>2026-03-28T12:52:21.173Z</time></trkpt><trkpt lat="43.2957427" lon="12.2423896"><ele>303.0</ele><time>2026-03-28T12:52:22.181Z</time></trkpt><trkpt lat="43.2957863" lon="12.242324"><ele>303.0</ele><time>2026-03-28T12:52:23.169Z</time></trkpt><trkpt lat="43.2958277" lon="12.2422527"><ele>303.0</ele><time>2026-03-28T12:52:24.169Z</time></trkpt><trkpt lat="43.2958396" lon="12.2421497"><ele>303.0</ele><time>2026-03-28T12:52:25.166Z</time></trkpt><trkpt lat="43.2958498" lon="12.2420134"><ele>305.8</ele><time>2026-03-28T12:52:26.176Z</time></trkpt><trkpt lat="43.2958834" lon="12.2418892"><ele>308.6</ele><time>2026-03-28T12:52:27.175Z</time></trkpt><trkpt lat="43.2959619" lon="12.2417934"><ele>311.4</ele><time>2026-03-28T12:52:28.166Z</time></trkpt><trkpt lat="43.2960591" lon="12.2416955"><ele>314.2</ele><time>2026-03-28T12:52:29.177Z</time></trkpt><trkpt lat="43.2961539" lon="12.2416027"><ele>317.0</ele><time>2026-03-28T12:52:30.182Z</time></trkpt><trkpt lat="43.2962554" lon="12.2415348"><ele>317.0</ele><time>2026-03-28T12:52:31.18Z</time></trkpt><trkpt lat="43.2963489" lon="12.2414725"><ele>317.0</ele><time>2026-03-28T12:52:32.172Z</time></trkpt><trkpt lat="43.2964385" lon="12.2414053"><ele>317.0</ele><time>2026-03-28T12:52:33.187Z</time></trkpt><trkpt lat="43.2965061" lon="12.2413259"><ele>317.0</ele><time>2026-03-28T12:52:34.177Z</time></trkpt><trkpt lat="43.2965545" lon="12.2412379"><ele>317.0</ele><time>2026-03-28T12:52:35.175Z</time></trkpt><trkpt lat="43.2965839" lon="12.2411367"><ele>317.6</ele><time>2026-03-28T12:52:36.182Z</time></trkpt><trkpt lat="43.2966097" lon="12.2410329"><ele>318.2</ele><time>2026-03-28T12:52:37.178Z</time></trkpt><trkpt lat="43.2966073" lon="12.2408937"><ele>318.8</ele><time>2026-03-28T12:52:38.185Z</time></trkpt><trkpt lat="43.2965919" lon="12.2407419"><ele>319.4</ele><time>2026-03-28T12:52:39.186Z</time></trkpt><trkpt lat="43.2965811" lon="12.240584"><ele>320.0</ele><time>2026-03-28T12:52:40.174Z</time></trkpt><trkpt lat="43.2965749" lon="12.2404363"><ele>321.8</ele><time>2026-03-28T12:52:41.175Z</time></trkpt><trkpt lat="43.2966069" lon="12.2403103"><ele>323.6</ele><time>2026-03-28T12:52:42.179Z</time></trkpt><trkpt lat="43.2966584" lon="12.2401956"><ele>325.4</ele><time>2026-03-28T12:52:43.174Z</time></trkpt><trkpt lat="43.2966818" lon="12.2400368"><ele>327.2</ele><time>2026-03-28T12:52:44.176Z</time></trkpt><trkpt lat="43.2967031" lon="12.2398664"><ele>329.0</ele><time>2026-03-28T12:52:45.179Z</time></trkpt><trkpt lat="43.2967168" lon="12.2397022"><ele>330.2</ele><time>2026-03-28T12:52:46.169Z</time></trkpt><trkpt lat="43.2967294" lon="12.2395714"><ele>331.4</ele><time>2026-03-28T12:52:47.174Z</time></trkpt><trkpt lat="43.2967304" lon="12.2394107"><ele>332.6</ele><time>2026-03-28T12:52:49.171Z</time></trkpt><trkpt lat="43.2966883" lon="12.2393343"><ele>333.8</ele><time>2026-03-28T12:52:50.165Z</time></trkpt><trkpt lat="43.2966098" lon="12.239245"><ele>335.0</ele><time>2026-03-28T12:52:51.175Z</time></trkpt><trkpt lat="43.2965491" lon="12.2391507"><ele>335.0</ele><time>2026-03-28T12:52:52.175Z</time></trkpt><trkpt lat="43.2965149" lon="12.2390299"><ele>335.0</ele><time>2026-03-28T12:52:53.167Z</time></trkpt><trkpt lat="43.2965459" lon="12.2388996"><ele>335.0</ele><time>2026-03-28T12:52:54.174Z</time></trkpt><trkpt lat="43.2965854" lon="12.2387552"><ele>335.0</ele><time>2026-03-28T12:52:55.18Z</time></trkpt><trkpt lat="43.2966755" lon="12.2386234"><ele>335.0</ele><time>2026-03-28T12:52:56.161Z</time></trkpt><trkpt lat="43.2967644" lon="12.2385026"><ele>338.2</ele><time>2026-03-28T12:52:57.173Z</time></trkpt><trkpt lat="43.2968611" lon="12.2384291"><ele>341.4</ele><time>2026-03-28T12:52:58.169Z</time></trkpt><trkpt lat="43.2969612" lon="12.2384035"><ele>344.6</ele><time>2026-03-28T12:52:59.178Z</time></trkpt><trkpt lat="43.2970641" lon="12.2384097"><ele>347.8</ele><time>2026-03-28T12:53:00.192Z</time></trkpt><trkpt lat="43.2971533" lon="12.2384018"><ele>351.0</ele><time>2026-03-28T12:53:01.173Z</time></trkpt><trkpt lat="43.2972282" lon="12.2383743"><ele>350.4</ele><time>2026-03-28T12:53:02.177Z</time></trkpt><trkpt lat="43.2973047" lon="12.2383082"><ele>349.8</ele><time>2026-03-28T12:53:03.182Z</time></trkpt><trkpt lat="43.2973823" lon="12.2382336"><ele>349.2</ele><time>2026-03-28T12:53:04.176Z</time></trkpt><trkpt lat="43.2974224" lon="12.2381121"><ele>348.59999999999997</ele><time>2026-03-28T12:53:05.164Z</time></trkpt><trkpt lat="43.2974598" lon="12.2379867"><ele>348.0</ele><time>2026-03-28T12:53:06.175Z</time></trkpt><trkpt lat="43.297453" lon="12.2378368"><ele>348.0</ele><time>2026-03-28T12:53:07.168Z</time></trkpt><trkpt lat="43.2974381" lon="12.23766"><ele>348.0</ele><time>2026-03-28T12:53:08.184Z</time></trkpt><trkpt lat="43.2974411" lon="12.2374597"><ele>348.0</ele><time>2026-03-28T12:53:09.191Z</time></trkpt><trkpt lat="43.2974435" lon="12.2372521"><ele>348.0</ele><time>2026-03-28T12:53:10.178Z</time></trkpt><trkpt lat="43.2974749" lon="12.2370475"><ele>350.25</ele><time>2026-03-28T12:53:11.181Z</time></trkpt><trkpt lat="43.297499" lon="12.2368656"><ele>352.5</ele><time>2026-03-28T12:53:12.183Z</time></trkpt><trkpt lat="43.2975305" lon="12.2366977"><ele>354.75</ele><time>2026-03-28T12:53:13.184Z</time></trkpt><trkpt lat="43.2975803" lon="12.2365539"><ele>357.0</ele><time>2026-03-28T12:53:14.18Z</time></trkpt><trkpt lat="43.2976658" lon="12.2364533"><ele>358.20000000000005</ele><time>2026-03-28T12:53:15.169Z</time></trkpt><trkpt lat="43.2977486" lon="12.2364054"><ele>359.4</ele><time>2026-03-28T12:53:16.178Z</time></trkpt><trkpt lat="43.2978249" lon="12.2363509"><ele>360.6</ele><time>2026-03-28T12:53:17.178Z</time></trkpt><trkpt lat="43.2978877" lon="12.2362611"><ele>361.79999999999995</ele><time>2026-03-28T12:53:18.171Z</time></trkpt><trkpt lat="43.2979321" lon="12.2361271"><ele>363.0</ele><time>2026-03-28T12:53:19.171Z</time></trkpt><trkpt lat="43.2979723" lon="12.2360105"><ele>363.0</ele><time>2026-03-28T12:53:20.171Z</time></trkpt><trkpt lat="43.2979952" lon="12.2359073"><ele>363.0</ele><time>2026-03-28T12:53:21.189Z</time></trkpt><trkpt lat="43.2979881" lon="12.2358179"><ele>363.0</ele><time>2026-03-28T12:53:22.172Z</time></trkpt><trkpt lat="43.297949" lon="12.2357302"><ele>363.0</ele><time>2026-03-28T12:53:23.17Z</time></trkpt><trkpt lat="43.2978875" lon="12.2356529"><ele>363.0</ele><time>2026-03-28T12:53:24.172Z</time></trkpt><trkpt lat="43.2978029" lon="12.235602"><ele>363.0</ele><time>2026-03-28T12:53:25.163Z</time></trkpt><trkpt lat="43.2976999" lon="12.2355474"><ele>363.25</ele><time>2026-03-28T12:53:26.168Z</time></trkpt><trkpt lat="43.2975683" lon="12.2355306"><ele>363.5</ele><time>2026-03-28T12:53:27.176Z</time></trkpt><trkpt lat="43.2974305" lon="12.2354928"><ele>363.75</ele><time>2026-03-28T12:53:28.176Z</time></trkpt><trkpt lat="43.2973034" lon="12.2354258"><ele>364.0</ele><time>2026-03-28T12:53:29.175Z</time></trkpt><trkpt lat="43.2971799" lon="12.2353645"><ele>364.0</ele><time>2026-03-28T12:53:30.177Z</time></trkpt><trkpt lat="43.2970765" lon="12.2352889"><ele>364.0</ele><time>2026-03-28T12:53:31.171Z</time></trkpt><trkpt lat="43.2969861" lon="12.2352263"><ele>364.0</ele><time>2026-03-28T12:53:32.179Z</time></trkpt><trkpt lat="43.2968918" lon="12.2351868"><ele>364.0</ele><time>2026-03-28T12:53:33.172Z</time></trkpt><trkpt lat="43.2967955" lon="12.2351768"><ele>364.0</ele><time>2026-03-28T12:53:34.185Z</time></trkpt><trkpt lat="43.2966843" lon="12.2352081"><ele>364.0</ele><time>2026-03-28T12:53:35.181Z</time></trkpt><trkpt lat="43.296563" lon="12.2352572"><ele>364.0</ele><time>2026-03-28T12:53:36.177Z</time></trkpt><trkpt lat="43.2964469" lon="12.2353117"><ele>364.0</ele><time>2026-03-28T12:53:37.17Z</time></trkpt><trkpt lat="43.2963359" lon="12.2353634"><ele>364.0</ele><time>2026-03-28T12:53:38.18Z</time></trkpt><trkpt lat="43.2962259" lon="12.2353876"><ele>365.75</ele><time>2026-03-28T12:53:39.173Z</time></trkpt><trkpt lat="43.2961044" lon="12.2353845"><ele>367.5</ele><time>2026-03-28T12:53:40.182Z</time></trkpt><trkpt lat="43.2959601" lon="12.2353609"><ele>369.25</ele><time>2026-03-28T12:53:41.18Z</time></trkpt><trkpt lat="43.295822" lon="12.2353442"><ele>371.0</ele><time>2026-03-28T12:53:42.196Z</time></trkpt><trkpt lat="43.295686" lon="12.2353463"><ele>375.20000000000005</ele><time>2026-03-28T12:53:43.176Z</time></trkpt><trkpt lat="43.295555" lon="12.2353474"><ele>379.40000000000003</ele><time>2026-03-28T12:53:44.172Z</time></trkpt><trkpt lat="43.2954441" lon="12.2353199"><ele>383.6</ele><time>2026-03-28T12:53:45.166Z</time></trkpt><trkpt lat="43.2953532" lon="12.235259"><ele>387.8</ele><time>2026-03-28T12:53:46.168Z</time></trkpt><trkpt lat="43.2952767" lon="12.2351616"><ele>392.0</ele><time>2026-03-28T12:53:47.178Z</time></trkpt><trkpt lat="43.2952253" lon="12.235025"><ele>392.0</ele><time>2026-03-28T12:53:48.161Z</time></trkpt><trkpt lat="43.2951925" lon="12.2348642"><ele>392.0</ele><time>2026-03-28T12:53:49.17Z</time></trkpt><trkpt lat="43.2951753" lon="12.2347185"><ele>392.0</ele><time>2026-03-28T12:53:50.182Z</time></trkpt><trkpt lat="43.2951709" lon="12.2345886"><ele>392.0</ele><time>2026-03-28T12:53:51.177Z</time></trkpt><trkpt lat="43.2951418" lon="12.234479"><ele>392.0</ele><time>2026-03-28T12:53:52.175Z</time></trkpt><trkpt lat="43.2951143" lon="12.2343722"><ele>390.99999999999994</ele><time>2026-03-28T12:53:53.168Z</time></trkpt><trkpt lat="43.2950482" lon="12.2343029"><ele>390.0</ele><time>2026-03-28T12:53:54.176Z</time></trkpt><trkpt lat="43.2949534" lon="12.2342501"><ele>389.0</ele><time>2026-03-28T12:53:55.172Z</time></trkpt><trkpt lat="43.2948885" lon="12.2341844"><ele>388.0</ele><time>2026-03-28T12:53:56.175Z</time></trkpt><trkpt lat="43.2948502" lon="12.2340838"><ele>386.99999999999994</ele><time>2026-03-28T12:53:57.182Z</time></trkpt><trkpt lat="43.2948457" lon="12.2339539"><ele>386.0</ele><time>2026-03-28T12:53:58.169Z</time></trkpt><trkpt lat="43.2948609" lon="12.2337804"><ele>386.0</ele><time>2026-03-28T12:53:59.178Z</time></trkpt><trkpt lat="43.2948751" lon="12.2336233"><ele>386.0</ele><time>2026-03-28T12:54:00.192Z</time></trkpt><trkpt lat="43.2948957" lon="12.2334668"><ele>386.0</ele><time>2026-03-28T12:54:01.179Z</time></trkpt><trkpt lat="43.2949132" lon="12.2333286"><ele>386.0</ele><time>2026-03-28T12:54:02.183Z</time></trkpt><trkpt lat="43.2949133" lon="12.2331625"><ele>386.6</ele><time>2026-03-28T12:54:03.196Z</time></trkpt><trkpt lat="43.2949098" lon="12.232991"><ele>387.20000000000005</ele><time>2026-03-28T12:54:04.173Z</time></trkpt><trkpt lat="43.2949172" lon="12.2328454"><ele>387.79999999999995</ele><time>2026-03-28T12:54:05.177Z</time></trkpt><trkpt lat="43.2949238" lon="12.232721"><ele>388.4</ele><time>2026-03-28T12:54:06.179Z</time></trkpt><trkpt lat="43.2949212" lon="12.2326173"><ele>389.0</ele><time>2026-03-28T12:54:07.181Z</time></trkpt><trkpt lat="43.2948887" lon="12.2325189"><ele>389.0</ele><time>2026-03-28T12:54:08.186Z</time></trkpt><trkpt lat="43.2948182" lon="12.232409"><ele>389.0</ele><time>2026-03-28T12:54:09.17Z</time></trkpt><trkpt lat="43.2947303" lon="12.2322914"><ele>389.0</ele><time>2026-03-28T12:54:10.175Z</time></trkpt><trkpt lat="43.2946538" lon="12.2321862"><ele>389.0</ele><time>2026-03-28T12:54:11.179Z</time></trkpt><trkpt lat="43.2945848" lon="12.2321152"><ele>389.0</ele><time>2026-03-28T12:54:12.178Z</time></trkpt><trkpt lat="43.2945192" lon="12.2320542"><ele>390.0</ele><time>2026-03-28T12:54:13.181Z</time></trkpt><trkpt lat="43.294435" lon="12.2320477"><ele>391.0</ele><time>2026-03-28T12:54:14.173Z</time></trkpt><trkpt lat="43.2943633" lon="12.2320907"><ele>392.0</ele><time>2026-03-28T12:54:15.17Z</time></trkpt><trkpt lat="43.2942926" lon="12.2321743"><ele>393.0</ele><time>2026-03-28T12:54:16.173Z</time></trkpt><trkpt lat="43.2942092" lon="12.2322683"><ele>394.0</ele><time>2026-03-28T12:54:17.179Z</time></trkpt><trkpt lat="43.2941157" lon="12.232361"><ele>395.2</ele><time>2026-03-28T12:54:18.179Z</time></trkpt><trkpt lat="43.2940278" lon="12.2324444"><ele>396.4</ele><time>2026-03-28T12:54:19.175Z</time></trkpt><trkpt lat="43.2939459" lon="12.2325195"><ele>397.6</ele><time>2026-03-28T12:54:20.173Z</time></trkpt><trkpt lat="43.2938688" lon="12.2325913"><ele>398.8</ele><time>2026-03-28T12:54:21.179Z</time></trkpt><trkpt lat="43.2937864" lon="12.2326419"><ele>400.0</ele><time>2026-03-28T12:54:22.18Z</time></trkpt><trkpt lat="43.293696" lon="12.2326893"><ele>400.0</ele><time>2026-03-28T12:54:23.174Z</time></trkpt><trkpt lat="43.2936118" lon="12.2327446"><ele>400.0</ele><time>2026-03-28T12:54:24.191Z</time></trkpt><trkpt lat="43.2935276" lon="12.2327998"><ele>400.0</ele><time>2026-03-28T12:54:25.169Z</time></trkpt><trkpt lat="43.2934377" lon="12.232888"><ele>400.0</ele><time>2026-03-28T12:54:26.174Z</time></trkpt><trkpt lat="43.2933445" lon="12.2329887"><ele>400.0</ele><time>2026-03-28T12:54:27.182Z</time></trkpt><trkpt lat="43.2932506" lon="12.233105"><ele>401.5</ele><time>2026-03-28T12:54:28.175Z</time></trkpt><trkpt lat="43.2931517" lon="12.2332247"><ele>403.0</ele><time>2026-03-28T12:54:29.181Z</time></trkpt><trkpt lat="43.2930533" lon="12.2333341"><ele>404.5</ele><time>2026-03-28T12:54:30.174Z</time></trkpt><trkpt lat="43.2929615" lon="12.2334342"><ele>406.0</ele><time>2026-03-28T12:54:31.178Z</time></trkpt><trkpt lat="43.2928658" lon="12.2335402"><ele>406.0</ele><time>2026-03-28T12:54:32.175Z</time></trkpt><trkpt lat="43.2927656" lon="12.2336473"><ele>406.0</ele><time>2026-03-28T12:54:33.174Z</time></trkpt><trkpt lat="43.2926616" lon="12.2337568"><ele>406.0</ele><time>2026-03-28T12:54:34.185Z</time></trkpt><trkpt lat="43.2925555" lon="12.2338748"><ele>406.0</ele><time>2026-03-28T12:54:35.173Z</time></trkpt><trkpt lat="43.2924513" lon="12.2340043"><ele>409.0</ele><time>2026-03-28T12:54:36.168Z</time></trkpt><trkpt lat="43.2923487" lon="12.2341258"><ele>412.0</ele><time>2026-03-28T12:54:37.17Z</time></trkpt><trkpt lat="43.2922376" lon="12.2342317"><ele>415.0</ele><time>2026-03-28T12:54:38.178Z</time></trkpt><trkpt lat="43.2921142" lon="12.2343273"><ele>418.0</ele><time>2026-03-28T12:54:39.172Z</time></trkpt><trkpt lat="43.2919856" lon="12.2344156"><ele>418.0</ele><time>2026-03-28T12:54:40.171Z</time></trkpt><trkpt lat="43.2918576" lon="12.2344989"><ele>418.0</ele><time>2026-03-28T12:54:41.171Z</time></trkpt><trkpt lat="43.2917302" lon="12.2345691"><ele>418.0</ele><time>2026-03-28T12:54:42.183Z</time></trkpt><trkpt lat="43.2916008" lon="12.2346185"><ele>418.0</ele><time>2026-03-28T12:54:43.181Z</time></trkpt><trkpt lat="43.2914726" lon="12.2346602"><ele>417.75</ele><time>2026-03-28T12:54:44.186Z</time></trkpt><trkpt lat="43.2913478" lon="12.2347124"><ele>417.5</ele><time>2026-03-28T12:54:45.18Z</time></trkpt><trkpt lat="43.2912337" lon="12.2347618"><ele>417.25</ele><time>2026-03-28T12:54:46.18Z</time></trkpt><trkpt lat="43.2911322" lon="12.2348365"><ele>417.0</ele><time>2026-03-28T12:54:47.174Z</time></trkpt><trkpt lat="43.2910263" lon="12.2349129"><ele>419.66666666666663</ele><time>2026-03-28T12:54:48.175Z</time></trkpt><trkpt lat="43.2908978" lon="12.2349878"><ele>422.3333333333333</ele><time>2026-03-28T12:54:49.177Z</time></trkpt><trkpt lat="43.2907527" lon="12.2350687"><ele>425.0</ele><time>2026-03-28T12:54:50.184Z</time></trkpt><trkpt lat="43.2906077" lon="12.2351512"><ele>423.0</ele><time>2026-03-28T12:54:51.177Z</time></trkpt><trkpt lat="43.2904643" lon="12.2352363"><ele>421.0</ele><time>2026-03-28T12:54:52.177Z</time></trkpt><trkpt lat="43.2903224" lon="12.2353247"><ele>419.0</ele><time>2026-03-28T12:54:53.186Z</time></trkpt><trkpt lat="43.2901645" lon="12.2353988"><ele>419.0</ele><time>2026-03-28T12:54:54.181Z</time></trkpt><trkpt lat="43.2900091" lon="12.2354782"><ele>419.0</ele><time>2026-03-28T12:54:55.173Z</time></trkpt><trkpt lat="43.2898471" lon="12.2355519"><ele>419.0</ele><time>2026-03-28T12:54:56.176Z</time></trkpt><trkpt lat="43.2896836" lon="12.2356115"><ele>420.66666666666663</ele><time>2026-03-28T12:54:57.185Z</time></trkpt><trkpt lat="43.2895233" lon="12.2356594"><ele>422.33333333333337</ele><time>2026-03-28T12:54:58.178Z</time></trkpt><trkpt lat="43.2893662" lon="12.235702"><ele>424.0</ele><time>2026-03-28T12:54:59.179Z</time></trkpt><trkpt lat="43.2892091" lon="12.2357434"><ele>424.0</ele><time>2026-03-28T12:55:00.172Z</time></trkpt><trkpt lat="43.2890539" lon="12.235783"><ele>424.0</ele><time>2026-03-28T12:55:01.182Z</time></trkpt><trkpt lat="43.2889142" lon="12.2358147"><ele>424.0</ele><time>2026-03-28T12:55:02.175Z</time></trkpt><trkpt lat="43.2887932" lon="12.2358538"><ele>424.0</ele><time>2026-03-28T12:55:03.173Z</time></trkpt><trkpt lat="43.2886819" lon="12.2358775"><ele>425.79999999999995</ele><time>2026-03-28T12:55:04.176Z</time></trkpt><trkpt lat="43.2885727" lon="12.2359003"><ele>427.59999999999997</ele><time>2026-03-28T12:55:05.171Z</time></trkpt><trkpt lat="43.2884622" lon="12.2358969"><ele>429.4</ele><time>2026-03-28T12:55:06.177Z</time></trkpt><trkpt lat="43.2883516" lon="12.2358793"><ele>431.2</ele><time>2026-03-28T12:55:07.175Z</time></trkpt><trkpt lat="43.2882482" lon="12.2358961"><ele>433.0</ele><time>2026-03-28T12:55:08.175Z</time></trkpt><trkpt lat="43.2881383" lon="12.235929"><ele>436.75</ele><time>2026-03-28T12:55:09.18Z</time></trkpt><trkpt lat="43.2880145" lon="12.2359909"><ele>440.5</ele><time>2026-03-28T12:55:10.187Z</time></trkpt><trkpt lat="43.287897" lon="12.2360438"><ele>444.25</ele><time>2026-03-28T12:55:11.184Z</time></trkpt><trkpt lat="43.2877781" lon="12.2360837"><ele>448.0</ele><time>2026-03-28T12:55:12.175Z</time></trkpt><trkpt lat="43.2876453" lon="12.2360959"><ele>448.0</ele><time>2026-03-28T12:55:13.171Z</time></trkpt><trkpt lat="43.2875277" lon="12.2361417"><ele>448.0</ele><time>2026-03-28T12:55:14.176Z</time></trkpt><trkpt lat="43.2874223" lon="12.2362058"><ele>448.0</ele><time>2026-03-28T12:55:15.175Z</time></trkpt><trkpt lat="43.2873301" lon="12.2362977"><ele>448.0</ele><time>2026-03-28T12:55:16.177Z</time></trkpt><trkpt lat="43.287233" lon="12.2363996"><ele>447.75</ele><time>2026-03-28T12:55:17.179Z</time></trkpt><trkpt lat="43.2871443" lon="12.2364803"><ele>447.5</ele><time>2026-03-28T12:55:18.167Z</time></trkpt><trkpt lat="43.2870538" lon="12.2365527"><ele>447.25</ele><time>2026-03-28T12:55:19.187Z</time></trkpt><trkpt lat="43.2869256" lon="12.236594"><ele>447.0</ele><time>2026-03-28T12:55:20.176Z</time></trkpt><trkpt lat="43.2867829" lon="12.2366313"><ele>447.0</ele><time>2026-03-28T12:55:21.186Z</time></trkpt><trkpt lat="43.2866438" lon="12.2367182"><ele>447.0</ele><time>2026-03-28T12:55:22.17Z</time></trkpt><trkpt lat="43.2865138" lon="12.2368087"><ele>447.0</ele><time>2026-03-28T12:55:23.175Z</time></trkpt><trkpt lat="43.2863915" lon="12.236901"><ele>447.0</ele><time>2026-03-28T12:55:24.173Z</time></trkpt><trkpt lat="43.2862728" lon="12.2369997"><ele>448.0</ele><time>2026-03-28T12:55:25.165Z</time></trkpt><trkpt lat="43.2861772" lon="12.2371054"><ele>449.0</ele><time>2026-03-28T12:55:26.168Z</time></trkpt><trkpt lat="43.2860919" lon="12.2372491"><ele>450.0</ele><time>2026-03-28T12:55:27.176Z</time></trkpt><trkpt lat="43.2860304" lon="12.2373898"><ele>451.0</ele><time>2026-03-28T12:55:28.17Z</time></trkpt><trkpt lat="43.2859728" lon="12.2375017"><ele>451.0</ele><time>2026-03-28T12:55:29.174Z</time></trkpt><trkpt lat="43.2858919" lon="12.2375933"><ele>451.0</ele><time>2026-03-28T12:55:30.172Z</time></trkpt><trkpt lat="43.2858051" lon="12.2376498"><ele>451.0</ele><time>2026-03-28T12:55:31.177Z</time></trkpt><trkpt lat="43.2856841" lon="12.2376956"><ele>451.0</ele><time>2026-03-28T12:55:32.173Z</time></trkpt><trkpt lat="43.2855632" lon="12.2377334"><ele>453.75</ele><time>2026-03-28T12:55:33.178Z</time></trkpt><trkpt lat="43.2854595" lon="12.237785"><ele>456.5</ele><time>2026-03-28T12:55:34.168Z</time></trkpt><trkpt lat="43.2853591" lon="12.2378936"><ele>459.25</ele><time>2026-03-28T12:55:35.168Z</time></trkpt><trkpt lat="43.2852688" lon="12.2380334"><ele>462.0</ele><time>2026-03-28T12:55:36.178Z</time></trkpt><trkpt lat="43.2851745" lon="12.2381873"><ele>462.0</ele><time>2026-03-28T12:55:37.169Z</time></trkpt><trkpt lat="43.285105" lon="12.2383559"><ele>462.00000000000006</ele><time>2026-03-28T12:55:38.171Z</time></trkpt><trkpt lat="43.2850517" lon="12.2384967"><ele>462.00000000000006</ele><time>2026-03-28T12:55:39.174Z</time></trkpt><trkpt lat="43.2850119" lon="12.2385918"><ele>462.0</ele><time>2026-03-28T12:55:40.164Z</time></trkpt><trkpt lat="43.2850093" lon="12.2387234"><ele>462.0</ele><time>2026-03-28T12:55:41.174Z</time></trkpt><trkpt lat="43.2850214" lon="12.238828"><ele>463.0</ele><time>2026-03-28T12:55:42.169Z</time></trkpt><trkpt lat="43.2849915" lon="12.2389984"><ele>464.0</ele><time>2026-03-28T12:55:44.172Z</time></trkpt><trkpt lat="43.2849449" lon="12.2390654"><ele>465.0</ele><time>2026-03-28T12:55:45.167Z</time></trkpt><trkpt lat="43.2849022" lon="12.2391391"><ele>466.0</ele><time>2026-03-28T12:55:46.165Z</time></trkpt><trkpt lat="43.2848529" lon="12.2392094"><ele>467.0</ele><time>2026-03-28T12:55:47.18Z</time></trkpt><trkpt lat="43.2847963" lon="12.2392711"><ele>468.0</ele><time>2026-03-28T12:55:48.194Z</time></trkpt><trkpt lat="43.2847414" lon="12.2393363"><ele>468.0</ele><time>2026-03-28T12:55:49.184Z</time></trkpt><trkpt lat="43.2846824" lon="12.2394071"><ele>468.0</ele><time>2026-03-28T12:55:50.164Z</time></trkpt><trkpt lat="43.2846122" lon="12.2394899"><ele>468.0</ele><time>2026-03-28T12:55:51.168Z</time></trkpt><trkpt lat="43.28454" lon="12.2395771"><ele>468.0</ele><time>2026-03-28T12:55:52.182Z</time></trkpt><trkpt lat="43.2844756" lon="12.2396506"><ele>468.0</ele><time>2026-03-28T12:55:53.171Z</time></trkpt><trkpt lat="43.2844326" lon="12.239725"><ele>468.0</ele><time>2026-03-28T12:55:55.178Z</time></trkpt><trkpt lat="43.2844959" lon="12.2396566"><ele>468.0</ele><time>2026-03-28T12:56:01.185Z</time></trkpt><trkpt lat="43.284527" lon="12.2395742"><ele>467.99999999999994</ele><time>2026-03-28T12:56:02.167Z</time></trkpt><trkpt lat="43.2845845" lon="12.2394882"><ele>467.99999999999994</ele><time>2026-03-28T12:56:03.196Z</time></trkpt><trkpt lat="43.2846553" lon="12.2393938"><ele>468.0</ele><time>2026-03-28T12:56:04.187Z</time></trkpt><trkpt lat="43.2847442" lon="12.2392899"><ele>468.0</ele><time>2026-03-28T12:56:05.186Z</time></trkpt><trkpt lat="43.2848276" lon="12.2391986"><ele>466.79999999999995</ele><time>2026-03-28T12:56:06.179Z</time></trkpt><trkpt lat="43.2848924" lon="12.2391104"><ele>465.59999999999997</ele><time>2026-03-28T12:56:07.182Z</time></trkpt><trkpt lat="43.2849465" lon="12.2390125"><ele>464.40000000000003</ele><time>2026-03-28T12:56:08.174Z</time></trkpt><trkpt lat="43.2849895" lon="12.2389141"><ele>463.20000000000005</ele><time>2026-03-28T12:56:09.182Z</time></trkpt><trkpt lat="43.2850066" lon="12.2388031"><ele>462.0</ele><time>2026-03-28T12:56:10.178Z</time></trkpt><trkpt lat="43.2850087" lon="12.2386532"><ele>462.0</ele><time>2026-03-28T12:56:11.173Z</time></trkpt><trkpt lat="43.2850145" lon="12.2384946"><ele>462.0</ele><time>2026-03-28T12:56:12.178Z</time></trkpt><trkpt lat="43.2850422" lon="12.2383438"><ele>462.0</ele><time>2026-03-28T12:56:13.166Z</time></trkpt><trkpt lat="43.2851365" lon="12.2382038"><ele>462.0</ele><time>2026-03-28T12:56:14.176Z</time></trkpt><trkpt lat="43.2852378" lon="12.2380805"><ele>464.25</ele><time>2026-03-28T12:56:15.171Z</time></trkpt><trkpt lat="43.2853245" lon="12.2379442"><ele>466.5</ele><time>2026-03-28T12:56:16.166Z</time></trkpt><trkpt lat="43.2854186" lon="12.2378332"><ele>468.75</ele><time>2026-03-28T12:56:17.178Z</time></trkpt><trkpt lat="43.2855171" lon="12.2377355"><ele>471.0</ele><time>2026-03-28T12:56:18.178Z</time></trkpt><trkpt lat="43.2856363" lon="12.2376479"><ele>467.0</ele><time>2026-03-28T12:56:19.174Z</time></trkpt><trkpt lat="43.285747" lon="12.2376083"><ele>463.0</ele><time>2026-03-28T12:56:20.171Z</time></trkpt><trkpt lat="43.2858534" lon="12.2375831"><ele>459.0</ele><time>2026-03-28T12:56:21.169Z</time></trkpt><trkpt lat="43.2859598" lon="12.2375461"><ele>455.0</ele><time>2026-03-28T12:56:22.179Z</time></trkpt><trkpt lat="43.2860259" lon="12.2374869"><ele>451.0</ele><time>2026-03-28T12:56:23.177Z</time></trkpt><trkpt lat="43.2860886" lon="12.2373774"><ele>450.0</ele><time>2026-03-28T12:56:24.182Z</time></trkpt><trkpt lat="43.2861387" lon="12.237236"><ele>449.0</ele><time>2026-03-28T12:56:25.177Z</time></trkpt><trkpt lat="43.2862359" lon="12.2370872"><ele>448.0</ele><time>2026-03-28T12:56:26.171Z</time></trkpt><trkpt lat="43.2863206" lon="12.2369446"><ele>447.0</ele><time>2026-03-28T12:56:27.171Z</time></trkpt><trkpt lat="43.2864561" lon="12.2368412"><ele>447.0</ele><time>2026-03-28T12:56:28.172Z</time></trkpt><trkpt lat="43.2865946" lon="12.2367398"><ele>447.0</ele><time>2026-03-28T12:56:29.176Z</time></trkpt><trkpt lat="43.2867302" lon="12.2366616"><ele>447.0</ele><time>2026-03-28T12:56:30.171Z</time></trkpt><trkpt lat="43.2868553" lon="12.2366009"><ele>447.0</ele><time>2026-03-28T12:56:31.174Z</time></trkpt><trkpt lat="43.2869708" lon="12.2365623"><ele>447.0</ele><time>2026-03-28T12:56:32.174Z</time></trkpt><trkpt lat="43.2870679" lon="12.2365291"><ele>447.00000000000006</ele><time>2026-03-28T12:56:33.175Z</time></trkpt><trkpt lat="43.2871667" lon="12.236507"><ele>447.00000000000006</ele><time>2026-03-28T12:56:34.179Z</time></trkpt><trkpt lat="43.2872428" lon="12.2364531"><ele>447.0</ele><time>2026-03-28T12:56:35.181Z</time></trkpt><trkpt lat="43.2873218" lon="12.2363589"><ele>447.0</ele><time>2026-03-28T12:56:36.182Z</time></trkpt><trkpt lat="43.2874157" lon="12.2362573"><ele>447.20000000000005</ele><time>2026-03-28T12:56:37.176Z</time></trkpt><trkpt lat="43.2874966" lon="12.2361568"><ele>447.40000000000003</ele><time>2026-03-28T12:56:38.181Z</time></trkpt><trkpt lat="43.2875756" lon="12.2360739"><ele>447.59999999999997</ele><time>2026-03-28T12:56:39.171Z</time></trkpt><trkpt lat="43.2876709" lon="12.2360606"><ele>447.79999999999995</ele><time>2026-03-28T12:56:40.174Z</time></trkpt><trkpt lat="43.2877622" lon="12.2360645"><ele>448.0</ele><time>2026-03-28T12:56:41.168Z</time></trkpt><trkpt lat="43.2878728" lon="12.2360441"><ele>448.0</ele><time>2026-03-28T12:56:42.169Z</time></trkpt><trkpt lat="43.2879808" lon="12.2360018"><ele>447.99999999999994</ele><time>2026-03-28T12:56:43.179Z</time></trkpt><trkpt lat="43.2880873" lon="12.2359476"><ele>447.99999999999994</ele><time>2026-03-28T12:56:44.175Z</time></trkpt><trkpt lat="43.2881742" lon="12.2359048"><ele>448.0</ele><time>2026-03-28T12:56:45.186Z</time></trkpt><trkpt lat="43.2882566" lon="12.2358918"><ele>448.0</ele><time>2026-03-28T12:56:46.165Z</time></trkpt><trkpt lat="43.2883564" lon="12.235885"><ele>448.00000000000006</ele><time>2026-03-28T12:56:48.181Z</time></trkpt><trkpt lat="43.2884305" lon="12.2358963"><ele>448.0</ele><time>2026-03-28T12:56:50.177Z</time></trkpt><trkpt lat="43.2883617" lon="12.2358296"><ele>448.0</ele><time>2026-03-28T12:56:59.176Z</time></trkpt><trkpt lat="43.2882874" lon="12.2357972"><ele>448.0</ele><time>2026-03-28T12:57:01.187Z</time></trkpt><trkpt lat="43.2881962" lon="12.2357736"><ele>448.00000000000006</ele><time>2026-03-28T12:57:03.176Z</time></trkpt><trkpt lat="43.2881103" lon="12.2357743"><ele>448.0</ele><time>2026-03-28T12:57:05.172Z</time></trkpt><trkpt lat="43.2880282" lon="12.235792"><ele>448.0</ele><time>2026-03-28T12:57:07.178Z</time></trkpt><trkpt lat="43.2879219" lon="12.235839"><ele>447.99999999999994</ele><time>2026-03-28T12:57:09.177Z</time></trkpt><trkpt lat="43.2878335" lon="12.235877"><ele>447.99999999999994</ele><time>2026-03-28T12:57:11.175Z</time></trkpt><trkpt lat="43.2877379" lon="12.2358877"><ele>448.0</ele><time>2026-03-28T12:57:31.181Z</time></trkpt><trkpt lat="43.2878312" lon="12.2358666"><ele>448.0</ele><time>2026-03-28T12:57:50.177Z</time></trkpt><trkpt lat="43.2879238" lon="12.2358192"><ele>448.0</ele><time>2026-03-28T12:57:52.177Z</time></trkpt><trkpt lat="43.2880116" lon="12.2357839"><ele>447.99999999999994</ele><time>2026-03-28T12:57:54.179Z</time></trkpt><trkpt lat="43.2881094" lon="12.2357564"><ele>447.99999999999994</ele><time>2026-03-28T12:57:57.177Z</time></trkpt><trkpt lat="43.2881879" lon="12.2357564"><ele>448.0</ele><time>2026-03-28T12:57:59.184Z</time></trkpt><trkpt lat="43.2882756" lon="12.2357838"><ele>448.0</ele><time>2026-03-28T12:58:02.185Z</time></trkpt><trkpt lat="43.2883643" lon="12.2358072"><ele>445.50000000000006</ele><time>2026-03-28T12:58:05.171Z</time></trkpt><trkpt lat="43.2884437" lon="12.2358779"><ele>443.0</ele><time>2026-03-28T12:58:09.181Z</time></trkpt><trkpt lat="43.2885254" lon="12.2358954"><ele>440.5</ele><time>2026-03-28T12:58:12.171Z</time></trkpt><trkpt lat="43.2886118" lon="12.2358933"><ele>438.0</ele><time>2026-03-28T12:58:14.176Z</time></trkpt><trkpt lat="43.2886809" lon="12.2358768"><ele>435.50000000000006</ele><time>2026-03-28T12:58:16.177Z</time></trkpt><trkpt lat="43.288718" lon="12.2357732"><ele>433.0</ele><time>2026-03-28T12:58:21.175Z</time></trkpt><trkpt lat="43.2886296" lon="12.2357142"><ele>433.0</ele><time>2026-03-28T12:58:23.179Z</time></trkpt><trkpt lat="43.2885534" lon="12.2356654"><ele>432.99999999999994</ele><time>2026-03-28T12:58:24.179Z</time></trkpt><trkpt lat="43.2884543" lon="12.2356026"><ele>432.99999999999994</ele><time>2026-03-28T12:58:25.178Z</time></trkpt><trkpt lat="43.288353" lon="12.2355221"><ele>433.0</ele><time>2026-03-28T12:58:26.177Z</time></trkpt><trkpt lat="43.2882688" lon="12.2354439"><ele>433.0</ele><time>2026-03-28T12:58:27.177Z</time></trkpt><trkpt lat="43.288193" lon="12.2353738"><ele>431.79999999999995</ele><time>2026-03-28T12:58:28.179Z</time></trkpt><trkpt lat="43.2881155" lon="12.2353268"><ele>430.59999999999997</ele><time>2026-03-28T12:58:29.181Z</time></trkpt><trkpt lat="43.2880238" lon="12.2352694"><ele>429.40000000000003</ele><time>2026-03-28T12:58:30.177Z</time></trkpt><trkpt lat="43.2879207" lon="12.2352821"><ele>428.20000000000005</ele><time>2026-03-28T12:58:31.178Z</time></trkpt><trkpt lat="43.2878117" lon="12.2353128"><ele>427.0</ele><time>2026-03-28T12:58:32.188Z</time></trkpt><trkpt lat="43.2877082" lon="12.2353149"><ele>429.33333333333337</ele><time>2026-03-28T12:58:33.181Z</time></trkpt><trkpt lat="43.2876199" lon="12.235284"><ele>431.6666666666667</ele><time>2026-03-28T12:58:34.164Z</time></trkpt><trkpt lat="43.2875334" lon="12.2352478"><ele>434.0</ele><time>2026-03-28T12:58:35.18Z</time></trkpt><trkpt lat="43.2874703" lon="12.2351545"><ele>436.33333333333337</ele><time>2026-03-28T12:58:36.175Z</time></trkpt><trkpt lat="43.2874225" lon="12.2350531"><ele>438.6666666666667</ele><time>2026-03-28T12:58:37.179Z</time></trkpt><trkpt lat="43.2873746" lon="12.2349656"><ele>441.0</ele><time>2026-03-28T12:58:38.177Z</time></trkpt><trkpt lat="43.2873178" lon="12.2349161"><ele>441.8</ele><time>2026-03-28T12:58:39.176Z</time></trkpt><trkpt lat="43.2872466" lon="12.2348607"><ele>442.6</ele><time>2026-03-28T12:58:40.178Z</time></trkpt><trkpt lat="43.2871549" lon="12.2348758"><ele>443.4</ele><time>2026-03-28T12:58:41.178Z</time></trkpt><trkpt lat="43.2870508" lon="12.2349137"><ele>444.2</ele><time>2026-03-28T12:58:42.174Z</time></trkpt><trkpt lat="43.2869435" lon="12.234976"><ele>445.0</ele><time>2026-03-28T12:58:43.191Z</time></trkpt><trkpt lat="43.2868352" lon="12.2350611"><ele>445.0</ele><time>2026-03-28T12:58:44.176Z</time></trkpt><trkpt lat="43.2867215" lon="12.2351659"><ele>445.0</ele><time>2026-03-28T12:58:45.182Z</time></trkpt><trkpt lat="43.2866132" lon="12.2352675"><ele>445.0</ele><time>2026-03-28T12:58:46.187Z</time></trkpt><trkpt lat="43.2865065" lon="12.2353592"><ele>445.0</ele><time>2026-03-28T12:58:47.177Z</time></trkpt><trkpt lat="43.2864034" lon="12.2354354"><ele>446.25</ele><time>2026-03-28T12:58:48.176Z</time></trkpt><trkpt lat="43.2862952" lon="12.2354889"><ele>447.5</ele><time>2026-03-28T12:58:49.183Z</time></trkpt><trkpt lat="43.2861838" lon="12.2355141"><ele>448.75</ele><time>2026-03-28T12:58:50.179Z</time></trkpt><trkpt lat="43.286065" lon="12.2355136"><ele>450.0</ele><time>2026-03-28T12:58:51.175Z</time></trkpt><trkpt lat="43.2859418" lon="12.2354947"><ele>450.0</ele><time>2026-03-28T12:58:52.172Z</time></trkpt><trkpt lat="43.2858306" lon="12.2354582"><ele>450.0</ele><time>2026-03-28T12:58:53.181Z</time></trkpt><trkpt lat="43.2857326" lon="12.2354201"><ele>450.0</ele><time>2026-03-28T12:58:54.182Z</time></trkpt><trkpt lat="43.2856453" lon="12.2353909"><ele>450.0</ele><time>2026-03-28T12:58:55.179Z</time></trkpt><trkpt lat="43.285574" lon="12.2353879"><ele>450.0</ele><time>2026-03-28T12:58:56.186Z</time></trkpt><trkpt lat="43.2854993" lon="12.235426"><ele>450.2</ele><time>2026-03-28T12:58:57.171Z</time></trkpt><trkpt lat="43.2854293" lon="12.2355017"><ele>450.4</ele><time>2026-03-28T12:58:58.185Z</time></trkpt><trkpt lat="43.2853707" lon="12.2356168"><ele>450.6</ele><time>2026-03-28T12:58:59.182Z</time></trkpt><trkpt lat="43.2853056" lon="12.2357566"><ele>450.8</ele><time>2026-03-28T12:59:00.182Z</time></trkpt><trkpt lat="43.2852301" lon="12.2358971"><ele>451.0</ele><time>2026-03-28T12:59:01.18Z</time></trkpt><trkpt lat="43.28515" lon="12.2360223"><ele>453.5</ele><time>2026-03-28T12:59:02.181Z</time></trkpt><trkpt lat="43.2850645" lon="12.2361564"><ele>456.0</ele><time>2026-03-28T12:59:03.174Z</time></trkpt><trkpt lat="43.2849832" lon="12.2362649"><ele>458.5</ele><time>2026-03-28T12:59:04.176Z</time></trkpt><trkpt lat="43.2849092" lon="12.236369"><ele>461.0</ele><time>2026-03-28T12:59:05.167Z</time></trkpt><trkpt lat="43.2848278" lon="12.2364638"><ele>463.8</ele><time>2026-03-28T12:59:06.173Z</time></trkpt><trkpt lat="43.2847365" lon="12.2365554"><ele>466.6</ele><time>2026-03-28T12:59:07.171Z</time></trkpt><trkpt lat="43.2846389" lon="12.2366445"><ele>469.4</ele><time>2026-03-28T12:59:08.177Z</time></trkpt><trkpt lat="43.2845417" lon="12.2367211"><ele>472.2</ele><time>2026-03-28T12:59:09.171Z</time></trkpt><trkpt lat="43.2844535" lon="12.2367801"><ele>475.0</ele><time>2026-03-28T12:59:10.173Z</time></trkpt><trkpt lat="43.2843713" lon="12.2368312"><ele>475.0</ele><time>2026-03-28T12:59:11.17Z</time></trkpt><trkpt lat="43.2842823" lon="12.2368687"><ele>475.0</ele><time>2026-03-28T12:59:12.18Z</time></trkpt><trkpt lat="43.2841901" lon="12.2369069"><ele>475.0</ele><time>2026-03-28T12:59:13.179Z</time></trkpt><trkpt lat="43.2841006" lon="12.2369437"><ele>475.0</ele><time>2026-03-28T12:59:14.175Z</time></trkpt><trkpt lat="43.2840075" lon="12.236981"><ele>475.0</ele><time>2026-03-28T12:59:15.168Z</time></trkpt><trkpt lat="43.2839175" lon="12.2369603"><ele>479.0</ele><time>2026-03-28T12:59:16.176Z</time></trkpt><trkpt lat="43.2838288" lon="12.2369088"><ele>483.0</ele><time>2026-03-28T12:59:17.169Z</time></trkpt><trkpt lat="43.2837364" lon="12.2368552"><ele>487.0</ele><time>2026-03-28T12:59:18.183Z</time></trkpt><trkpt lat="43.283651" lon="12.2367669"><ele>491.0</ele><time>2026-03-28T12:59:19.166Z</time></trkpt><trkpt lat="43.2835718" lon="12.2366388"><ele>495.0</ele><time>2026-03-28T12:59:20.173Z</time></trkpt><trkpt lat="43.2835105" lon="12.2364759"><ele>491.8</ele><time>2026-03-28T12:59:21.17Z</time></trkpt><trkpt lat="43.2834735" lon="12.2363341"><ele>488.6</ele><time>2026-03-28T12:59:22.17Z</time></trkpt><trkpt lat="43.2834487" lon="12.2361997"><ele>485.4</ele><time>2026-03-28T12:59:23.176Z</time></trkpt><trkpt lat="43.2834184" lon="12.2360992"><ele>482.2</ele><time>2026-03-28T12:59:24.171Z</time></trkpt><trkpt lat="43.2833589" lon="12.2360036"><ele>479.0</ele><time>2026-03-28T12:59:25.176Z</time></trkpt><trkpt lat="43.2832876" lon="12.2359545"><ele>479.0</ele><time>2026-03-28T12:59:26.163Z</time></trkpt><trkpt lat="43.2832088" lon="12.2359471"><ele>479.0</ele><time>2026-03-28T12:59:27.173Z</time></trkpt><trkpt lat="43.2831204" lon="12.2359472"><ele>479.0</ele><time>2026-03-28T12:59:28.178Z</time></trkpt><trkpt lat="43.2830108" lon="12.2359977"><ele>479.0</ele><time>2026-03-28T12:59:29.174Z</time></trkpt><trkpt lat="43.2828932" lon="12.2360503"><ele>479.0</ele><time>2026-03-28T12:59:30.178Z</time></trkpt><trkpt lat="43.2827838" lon="12.2360907"><ele>480.3333333333333</ele><time>2026-03-28T12:59:31.172Z</time></trkpt><trkpt lat="43.2826863" lon="12.2361259"><ele>481.66666666666663</ele><time>2026-03-28T12:59:32.173Z</time></trkpt><trkpt lat="43.2826055" lon="12.2361633"><ele>483.0</ele><time>2026-03-28T12:59:33.173Z</time></trkpt><trkpt lat="43.2825415" lon="12.2362203"><ele>484.33333333333337</ele><time>2026-03-28T12:59:34.174Z</time></trkpt><trkpt lat="43.2824815" lon="12.2362958"><ele>485.6666666666667</ele><time>2026-03-28T12:59:35.174Z</time></trkpt><trkpt lat="43.2824306" lon="12.2364116"><ele>487.0</ele><time>2026-03-28T12:59:36.177Z</time></trkpt><trkpt lat="43.2823794" lon="12.2365189"><ele>490.0</ele><time>2026-03-28T12:59:37.174Z</time></trkpt><trkpt lat="43.2823118" lon="12.236594"><ele>493.00000000000006</ele><time>2026-03-28T12:59:38.18Z</time></trkpt><trkpt lat="43.2822232" lon="12.2366209"><ele>496.00000000000006</ele><time>2026-03-28T12:59:39.177Z</time></trkpt><trkpt lat="43.2821352" lon="12.2366055"><ele>499.0</ele><time>2026-03-28T12:59:40.169Z</time></trkpt><trkpt lat="43.28205" lon="12.2365457"><ele>502.0</ele><time>2026-03-28T12:59:41.166Z</time></trkpt><trkpt lat="43.2819794" lon="12.2364368"><ele>502.20000000000005</ele><time>2026-03-28T12:59:42.173Z</time></trkpt><trkpt lat="43.2819085" lon="12.236304"><ele>502.40000000000003</ele><time>2026-03-28T12:59:43.166Z</time></trkpt><trkpt lat="43.2818388" lon="12.2361647"><ele>502.59999999999997</ele><time>2026-03-28T12:59:44.182Z</time></trkpt><trkpt lat="43.2817811" lon="12.2360418"><ele>502.79999999999995</ele><time>2026-03-28T12:59:45.173Z</time></trkpt><trkpt lat="43.2817521" lon="12.2359295"><ele>503.0</ele><time>2026-03-28T12:59:46.176Z</time></trkpt><trkpt lat="43.2817524" lon="12.2358256"><ele>502.99999999999994</ele><time>2026-03-28T12:59:47.176Z</time></trkpt><trkpt lat="43.2817525" lon="12.2357364"><ele>503.0</ele><time>2026-03-28T12:59:48.179Z</time></trkpt><trkpt lat="43.281721" lon="12.2356221"><ele>503.0</ele><time>2026-03-28T12:59:50.165Z</time></trkpt><trkpt lat="43.281651" lon="12.2355826"><ele>503.0</ele><time>2026-03-28T12:59:51.182Z</time></trkpt><trkpt lat="43.2815607" lon="12.235549"><ele>502.99999999999994</ele><time>2026-03-28T12:59:52.165Z</time></trkpt><trkpt lat="43.2814451" lon="12.2355423"><ele>503.0</ele><time>2026-03-28T12:59:53.179Z</time></trkpt><trkpt lat="43.2813526" lon="12.2355222"><ele>504.14285714285717</ele><time>2026-03-28T12:59:54.177Z</time></trkpt><trkpt lat="43.2812694" lon="12.2354993"><ele>505.28571428571433</ele><time>2026-03-28T12:59:55.173Z</time></trkpt><trkpt lat="43.2812054" lon="12.2354391"><ele>506.42857142857144</ele><time>2026-03-28T12:59:56.172Z</time></trkpt><trkpt lat="43.281166" lon="12.2353492"><ele>507.57142857142856</ele><time>2026-03-28T12:59:57.179Z</time></trkpt><trkpt lat="43.2811419" lon="12.2352588"><ele>508.7142857142857</ele><time>2026-03-28T12:59:58.166Z</time></trkpt><trkpt lat="43.2811277" lon="12.235168"><ele>509.8571428571429</ele><time>2026-03-28T12:59:59.177Z</time></trkpt><trkpt lat="43.2811123" lon="12.2350778"><ele>511.0</ele><time>2026-03-28T13:00:00.184Z</time></trkpt><trkpt lat="43.2811092" lon="12.2349787"><ele>511.00000000000006</ele><time>2026-03-28T13:00:01.183Z</time></trkpt><trkpt lat="43.2811444" lon="12.2348261"><ele>511.0</ele><time>2026-03-28T13:00:03.182Z</time></trkpt><trkpt lat="43.2811549" lon="12.2347137"><ele>511.0</ele><time>2026-03-28T13:00:05.186Z</time></trkpt><trkpt lat="43.2811291" lon="12.2346322"><ele>511.0</ele><time>2026-03-28T13:00:14.171Z</time></trkpt><trkpt lat="43.2811066" lon="12.2345167"><ele>511.00000000000006</ele><time>2026-03-28T13:00:16.163Z</time></trkpt><trkpt lat="43.2810771" lon="12.2344168"><ele>511.0</ele><time>2026-03-28T13:00:18.182Z</time></trkpt><trkpt lat="43.2810112" lon="12.2343214"><ele>511.00000000000006</ele><time>2026-03-28T13:00:21.191Z</time></trkpt><trkpt lat="43.2809314" lon="12.2342963"><ele>511.0</ele><time>2026-03-28T13:00:24.175Z</time></trkpt><trkpt lat="43.280827" lon="12.2342848"><ele>511.0</ele><time>2026-03-28T13:00:26.179Z</time></trkpt><trkpt lat="43.2807613" lon="12.2342783"><ele>511.0</ele><time>2026-03-28T13:00:27.178Z</time></trkpt><trkpt lat="43.2806985" lon="12.2342689"><ele>511.00000000000006</ele><time>2026-03-28T13:00:28.18Z</time></trkpt><trkpt lat="43.2806145" lon="12.2342549"><ele>511.0</ele><time>2026-03-28T13:00:30.185Z</time></trkpt><trkpt lat="43.2805225" lon="12.2342011"><ele>511.00000000000006</ele><time>2026-03-28T13:00:32.187Z</time></trkpt><trkpt lat="43.2804513" lon="12.234141"><ele>511.0</ele><time>2026-03-28T13:00:35.173Z</time></trkpt><trkpt lat="43.2803835" lon="12.2341029"><ele>511.0</ele><time>2026-03-28T13:00:39.181Z</time></trkpt><trkpt lat="43.2803229" lon="12.2340653"><ele>511.0</ele><time>2026-03-28T13:00:43.176Z</time></trkpt><trkpt lat="43.2802643" lon="12.2340123"><ele>511.00000000000006</ele><time>2026-03-28T13:00:45.18Z</time></trkpt><trkpt lat="43.2801826" lon="12.2339453"><ele>511.0</ele><time>2026-03-28T13:00:47.178Z</time></trkpt><trkpt lat="43.2800901" lon="12.233937"><ele>512.6666666666667</ele><time>2026-03-28T13:00:49.171Z</time></trkpt><trkpt lat="43.2800213" lon="12.2339455"><ele>514.3333333333334</ele><time>2026-03-28T13:00:50.176Z</time></trkpt><trkpt lat="43.2799411" lon="12.233955"><ele>516.0</ele><time>2026-03-28T13:00:51.182Z</time></trkpt><trkpt lat="43.2798637" lon="12.2339655"><ele>517.6666666666666</ele><time>2026-03-28T13:00:52.18Z</time></trkpt><trkpt lat="43.2797579" lon="12.2339863"><ele>519.3333333333333</ele><time>2026-03-28T13:00:54.186Z</time></trkpt><trkpt lat="43.2796903" lon="12.234011"><ele>521.0</ele><time>2026-03-28T13:00:56.177Z</time></trkpt><trkpt lat="43.2796138" lon="12.233981"><ele>518.3333333333333</ele><time>2026-03-28T13:00:58.176Z</time></trkpt><trkpt lat="43.2795467" lon="12.2339386"><ele>515.6666666666666</ele><time>2026-03-28T13:01:00.172Z</time></trkpt><trkpt lat="43.2794783" lon="12.2339086"><ele>513.0</ele><time>2026-03-28T13:01:02.178Z</time></trkpt><trkpt lat="43.2793883" lon="12.2338714"><ele>510.33333333333337</ele><time>2026-03-28T13:01:04.185Z</time></trkpt><trkpt lat="43.2793092" lon="12.2338481"><ele>507.6666666666667</ele><time>2026-03-28T13:01:06.179Z</time></trkpt><trkpt lat="43.2792179" lon="12.2338519"><ele>505.0</ele><time>2026-03-28T13:01:08.175Z</time></trkpt><trkpt lat="43.2791101" lon="12.2338477"><ele>505.00000000000006</ele><time>2026-03-28T13:01:10.175Z</time></trkpt><trkpt lat="43.2790452" lon="12.2338416"><ele>505.0</ele><time>2026-03-28T13:01:11.173Z</time></trkpt><trkpt lat="43.2789706" lon="12.2338175"><ele>505.0</ele><time>2026-03-28T13:01:12.174Z</time></trkpt><trkpt lat="43.2789046" lon="12.2338032"><ele>505.0</ele><time>2026-03-28T13:01:13.181Z</time></trkpt><trkpt lat="43.2788391" lon="12.2338004"><ele>505.00000000000006</ele><time>2026-03-28T13:01:15.181Z</time></trkpt><trkpt lat="43.2787698" lon="12.2338978"><ele>505.0</ele><time>2026-03-28T13:01:35.177Z</time></trkpt><trkpt lat="43.2787131" lon="12.2339791"><ele>509.6</ele><time>2026-03-28T13:01:37.173Z</time></trkpt><trkpt lat="43.2786303" lon="12.2340438"><ele>514.2</ele><time>2026-03-28T13:01:39.17Z</time></trkpt><trkpt lat="43.2785443" lon="12.2340936"><ele>518.8</ele><time>2026-03-28T13:01:41.176Z</time></trkpt><trkpt lat="43.2784506" lon="12.2341398"><ele>523.4</ele><time>2026-03-28T13:01:43.173Z</time></trkpt><trkpt lat="43.2783551" lon="12.2341918"><ele>528.0</ele><time>2026-03-28T13:01:45.169Z</time></trkpt><trkpt lat="43.2782848" lon="12.2342329"><ele>528.0</ele><time>2026-03-28T13:01:47.172Z</time></trkpt><trkpt lat="43.2782078" lon="12.2342704"><ele>528.0</ele><time>2026-03-28T13:01:55.172Z</time></trkpt><trkpt lat="43.278291" lon="12.2342297"><ele>528.0</ele><time>2026-03-28T13:02:26.176Z</time></trkpt><trkpt lat="43.2783573" lon="12.2341812"><ele>528.0</ele><time>2026-03-28T13:02:29.178Z</time></trkpt><trkpt lat="43.2784263" lon="12.2341274"><ele>528.0</ele><time>2026-03-28T13:02:31.175Z</time></trkpt><trkpt lat="43.2784891" lon="12.2340932"><ele>528.0</ele><time>2026-03-28T13:02:33.173Z</time></trkpt><trkpt lat="43.2785617" lon="12.2340604"><ele>528.0</ele><time>2026-03-28T13:02:35.171Z</time></trkpt><trkpt lat="43.2786329" lon="12.2340259"><ele>528.0</ele><time>2026-03-28T13:02:37.174Z</time></trkpt><trkpt lat="43.2787049" lon="12.2339672"><ele>512.0</ele><time>2026-03-28T13:02:39.169Z</time></trkpt><trkpt lat="43.2787612" lon="12.2338917"><ele>512.0</ele><time>2026-03-28T13:02:41.173Z</time></trkpt></trkseg></trk></gpx>